# Wetter Temperatur Luftdruck Luftfeuchtigkeit Sichtweite Windgeschwindigkeit Windrichtung Zeit
1 Clouds 17 1020 100 0 4.17 57.244 20:56 17.10.2019
2 Clouds 17 1020 100 0 4.17 57.244 20:56 17.10.2019
3 Clouds 17 1020 100 0 4.17 57.244 20:37 17.10.2019
4 Clouds 17 1020 100 0 4.17 57.244 20:18 17.10.2019
5 Clouds 17 1020 100 0 4.17 57.244 19:42 17.10.2019
6 Clouds 17 1020 100 0 4.17 57.244 19:42 17.10.2019
7 Clouds 17 1020 100 0 4.17 57.244 19:21 17.10.2019
8 Clouds 17 1020 100 0 4.17 57.244 18:59 17.10.2019
9 Clouds 17 1020 100 0 4.17 57.244 18:39 17.10.2019
10 Rain 17 1020 100 0 4.36 15.091 18:21 17.10.2019
11 Clouds 17 1020 100 0 3.803 51 17:44 17.10.2019
12 Clouds 17 1020 93 10000 2.6 360 17:25 17.10.2019
13 Clouds 17 1020 93 10000 2.6 360 16:59 17.10.2019
14 Clouds 17 1020 93 10000 2.6 360 16:41 17.10.2019
15 Clouds 17 1020 93 10000 2.6 360 16:19 17.10.2019
16 Rain 16 1021 100 8000 2.1 320 15:57 17.10.2019
17 Rain 16 1021 100 8000 2.1 320 15:39 17.10.2019
18 Rain 17 1021 100 8000 2.1 320 15:20 17.10.2019
19 Rain 17 1021 100 8000 2.1 320 15:20 17.10.2019
20 Clouds 17 1020 100 10000 1 0 14:57 17.10.2019
21 Clouds 17 1020 100 10000 1 0 14:38 17.10.2019
22 Clouds 17 1020 100 10000 1 0 14:20 17.10.2019
23 Rain 18 1020 93 10000 4.6 360 13:40 17.10.2019
24 Rain 18 1020 93 10000 4.6 360 13:20 17.10.2019
25 Rain 18 1019 93 9000 3.1 140 12:58 17.10.2019
26 Rain 18 1019 93 9000 3.1 140 12:37 17.10.2019
27 Rain 18 1019 93 9000 3.1 140 12:19 17.10.2019
28 Rain 18 1020 93 9000 2.6 150 11:42 17.10.2019
29 Rain 18 1020 93 9000 2.6 150 11:22 17.10.2019
30 Rain 18 1020 93 8000 0.5 0 10:59 17.10.2019
31 Rain 18 1020 93 8000 0.5 0 10:41 17.10.2019
32 Rain 18 1020 93 8000 0.5 0 10:41 17.10.2019
33 Rain 18 1020 93 8000 0.5 0 10:19 17.10.2019
34 Rain 18 1020 93 9000 1.5 340 09:56 17.10.2019
35 Rain 18 1020 93 9000 1.5 340 09:37 17.10.2019
36 Rain 18 1020 93 9000 1.5 340 09:19 17.10.2019
37 Rain 18 1020 93 8000 0.5 0 08:48 17.10.2019
38 Rain 18 1020 93 8000 0.5 0 08:27 17.10.2019
39 Rain 17 1020 93 9000 1 0 07:59 17.10.2019
40 Rain 17 1020 93 9000 1 0 07:41 17.10.2019
41 Rain 17 1020 93 9000 1.5 80 07:21 17.10.2019
42 Rain 17 1020 100 7000 2.1 290 06:43 17.10.2019
43 Rain 17 1020 100 7000 2.1 290 06:24 17.10.2019
44 Rain 17 1020 93 7000 2.1 20 05:59 17.10.2019
45 Rain 17 1020 93 7000 2.1 20 05:35 17.10.2019
46 Rain 17 1021 93 8000 2.6 160 04:58 17.10.2019
47 Rain 17 1021 93 8000 2.6 160 04:31 17.10.2019
48 Rain 16 1021 93 8000 3.1 110 03:45 17.10.2019
49 Rain 16 1021 77 10000 1 0 01:56 17.10.2019
50 Clouds 15 1020 82 10000 1.5 50 00:42 17.10.2019
51 Clouds 15 1020 82 10000 1.5 50 00:20 17.10.2019
52 Clouds 15 1021 82 10000 2.1 110 23:42 16.10.2019
53 Clouds 14 1021 93 10000 2.1 330 23:22 16.10.2019
54 Clouds 18 1021 67 0 2.24 140 22:58 16.10.2019
55 Clouds 18 1021 67 0 2.24 140 22:38 16.10.2019
56 Clouds 18 1021 67 0 2.24 140 22:20 16.10.2019
57 Clouds 18 1021 67 0 2.24 140 21:58 16.10.2019
58 Clouds 18 1021 67 0 2.24 140 21:38 16.10.2019
59 Clear 18 1021 67 0 2.24 140 21:20 16.10.2019
60 Clear 18 1021 67 0 2.24 140 20:58 16.10.2019
61 Clear 18 1021 67 0 2.24 140 20:40 16.10.2019
62 Clear 18 1021 67 0 2.24 140 20:21 16.10.2019
63 Clear 18 1021 67 0 2.24 140 19:59 16.10.2019
64 Clear 18 1021 67 0 2.24 140 19:39 16.10.2019
65 Clear 18 1021 67 0 2.24 140 19:39 16.10.2019
66 Clear 18 1021 67 0 2.24 140 19:21 16.10.2019
67 Clear 18 1021 67 0 2.24 140 18:55 16.10.2019
68 Clear 18 1021 67 0 2.24 140 18:37 16.10.2019
69 Clear 18 1021 67 0 2.24 140 18:18 16.10.2019
70 Clear 18 1021 67 0 2.24 140 17:54 16.10.2019
71 Clear 18 1021 67 0 2.24 140 17:54 16.10.2019
72 Clear 18 1021 67 0 2.24 140 17:36 16.10.2019
73 Clear 18 1021 67 0 2.24 140 17:36 16.10.2019
74 Clear 15 1022 87 10000 2.6 320 17:18 16.10.2019
75 Clear 15 1022 87 10000 2.6 320 16:42 16.10.2019
76 Clear 15 1022 87 10000 2.6 320 16:21 16.10.2019
77 Clear 16 1021 82 10000 3.1 340 15:58 16.10.2019
78 Clear 16 1021 82 10000 3.1 340 15:39 16.10.2019
79 Clear 16 1021 82 10000 3.1 340 15:39 16.10.2019
80 Clear 16 1021 82 10000 3.1 340 15:39 16.10.2019
81 Clear 17 1021 68 10000 2.6 140 15:19 16.10.2019
82 Clear 17 1021 68 10000 2.6 140 14:58 16.10.2019
83 Clouds 17 1021 68 10000 2.6 140 14:38 16.10.2019
84 Clouds 17 1021 68 10000 2.6 140 14:19 16.10.2019
85 Clouds 16 1020 67 10000 1.5 120 13:57 16.10.2019
86 Clouds 16 1020 67 10000 1.5 120 13:56 16.10.2019
87 Clouds 16 1020 67 10000 1.5 120 13:38 16.10.2019
88 Clouds 16 1020 67 10000 1.5 120 13:38 16.10.2019
89 Clouds 16 1020 67 10000 1.5 120 13:19 16.10.2019
90 Clouds 17 1020 68 10000 0.5 0 12:42 16.10.2019
91 Clear 17 1020 68 10000 0.5 0 12:19 16.10.2019
92 Clear 19 1020 68 10000 2.6 190 11:44 16.10.2019
93 Clear 19 1020 68 10000 2.6 190 11:19 16.10.2019
94 Clear 22 1020 53 10000 3.1 250 10:41 16.10.2019
95 Clear 22 1020 53 10000 3.1 250 10:22 16.10.2019
96 Clear 23 1020 43 10000 2.6 230 09:58 16.10.2019
97 Clouds 23 1020 43 10000 2.6 230 09:38 16.10.2019
98 Clear 23 1020 43 10000 2.6 230 09:20 16.10.2019
99 Clear 23 1020 43 10000 2.6 200 08:43 16.10.2019
100 Clear 23 1020 43 10000 2.6 200 08:25 16.10.2019
101 Clear 23 1020 43 10000 2.1 160 07:55 16.10.2019
102 Clear 23 1020 43 10000 2.1 160 07:55 16.10.2019
103 Clear 23 1020 43 10000 2.1 160 07:37 16.10.2019
104 Clear 23 1020 43 10000 2.1 160 07:18 16.10.2019
105 Clouds 23 1020 43 10000 1 0 06:39 16.10.2019
106 Clouds 23 1020 43 10000 1 0 06:39 16.10.2019
107 Clouds 22 1021 49 10000 2.6 330 05:54 16.10.2019
108 Clouds 21 1023 49 10000 2.1 190 03:26 16.10.2019
109 Clouds 19 1023 55 10000 1.5 140 02:49 16.10.2019
110 Clouds 17 1023 63 10000 1.5 50 01:19 16.10.2019
111 Clouds 15 1022 63 10000 1.5 100 00:50 16.10.2019
112 Clouds 15 1022 63 10000 1.5 100 00:28 16.10.2019
113 Clouds 14 1023 67 10000 1.5 60 23:41 15.10.2019
114 Clouds 14 1023 67 10000 1.5 60 23:22 15.10.2019
115 Clear 18 1023 59 0 4.02 60 22:56 15.10.2019
116 Clear 18 1023 59 0 4.02 60 22:38 15.10.2019
117 Clear 18 1023 59 0 4.02 60 22:38 15.10.2019
118 Clear 18 1023 59 0 4.02 60 22:20 15.10.2019
119 Clear 18 1023 59 0 4.02 60 21:56 15.10.2019
120 Clear 18 1023 59 0 4.02 60 21:56 15.10.2019
121 Clear 18 1023 59 0 4.02 60 21:56 15.10.2019
122 Clear 18 1023 59 0 4.02 60 21:38 15.10.2019
123 Clear 18 1023 59 0 4.02 60 21:20 15.10.2019
124 Clear 18 1023 59 0 4.02 60 20:57 15.10.2019
125 Clear 18 1023 59 0 4.02 60 20:39 15.10.2019
126 Clear 18 1023 59 0 4.02 60 20:39 15.10.2019
127 Clear 18 1023 59 0 4.02 60 20:20 15.10.2019
128 Clear 18 1023 59 0 4.02 60 19:58 15.10.2019
129 Clear 18 1023 59 0 4.02 60 19:40 15.10.2019
130 Clear 18 1023 59 0 4.02 60 19:20 15.10.2019
131 Clear 18 1023 59 0 4.02 60 18:47 15.10.2019
132 Clear 18 1023 59 0 4.02 60 18:29 15.10.2019
133 Clouds 18 1023 59 0 4.02 60 17:59 15.10.2019
134 Clouds 18 1023 59 0 4.02 60 17:39 15.10.2019
135 Clouds 18 1023 59 0 4.02 60 17:39 15.10.2019
136 Clouds 16 1024 72 10000 4.1 360 17:20 15.10.2019
137 Clouds 16 1024 72 10000 4.1 360 16:55 15.10.2019
138 Clouds 16 1024 72 10000 4.1 360 16:37 15.10.2019
139 Clouds 17 1024 72 10000 4.1 360 16:19 15.10.2019
140 Clouds 17 1024 59 10000 4.1 60 15:41 15.10.2019
141 Clouds 17 1024 59 10000 4.1 60 15:41 15.10.2019
142 Clouds 17 1024 59 10000 4.1 60 15:20 15.10.2019
143 Clouds 17 1024 59 10000 4.1 60 14:58 15.10.2019
144 Clouds 17 1023 63 10000 5.7 360 14:38 15.10.2019
145 Clouds 17 1023 63 10000 5.7 360 14:19 15.10.2019
146 Clouds 18 1023 63 10000 4.1 50 13:44 15.10.2019
147 Clouds 18 1023 63 10000 4.1 50 13:21 15.10.2019
148 Clouds 18 1022 68 10000 7.7 360 12:59 15.10.2019
149 Clouds 18 1022 68 10000 7.7 360 12:39 15.10.2019
150 Clouds 18 1022 68 10000 7.7 360 12:21 15.10.2019
151 Clouds 19 1021 64 10000 7.7 10 11:55 15.10.2019
152 Clouds 19 1021 64 10000 7.7 10 11:37 15.10.2019
153 Clouds 19 1021 64 10000 7.7 10 11:18 15.10.2019
154 Clouds 20 1021 64 10000 7.7 20 10:42 15.10.2019
155 Clouds 20 1021 64 10000 7.7 20 10:19 15.10.2019
156 Clouds 22 1020 56 10000 8.7 40 09:57 15.10.2019
157 Clouds 22 1020 56 10000 8.7 40 09:57 15.10.2019
158 Clouds 22 1020 56 10000 8.7 40 09:37 15.10.2019
159 -273 0 0 0 0 0 09:19 15.10.2019
160 Clouds 23 1020 50 10000 8.7 40 08:42 15.10.2019
161 Clouds 23 1020 50 10000 8.7 40 08:22 15.10.2019
162 Clouds 24 1020 47 10000 8.7 40 07:56 15.10.2019
163 Clouds 24 1020 47 10000 8.7 40 07:56 15.10.2019
164 Clouds 24 1020 47 10000 8.7 40 07:38 15.10.2019
165 Clouds 24 1020 47 10000 8.7 40 07:19 15.10.2019
166 Clouds 24 1020 47 10000 7.7 40 06:44 15.10.2019
167 Clouds 24 1020 47 10000 7.7 40 06:25 15.10.2019
168 Clouds 23 1021 47 10000 8.7 40 05:41 15.10.2019
169 Clouds 24 1021 47 10000 8.7 40 05:22 15.10.2019
170 Clouds 23 1022 44 10000 7.7 30 04:23 15.10.2019
171 Clouds 23 1022 49 10000 8.2 360 03:37 15.10.2019
172 Clouds 21 1022 53 10000 6.7 350 02:23 15.10.2019
173 Clouds 19 1022 64 10000 1 0 01:47 15.10.2019
174 Clouds 19 1022 64 10000 1 0 01:19 15.10.2019
175 Clouds 17 1021 68 10000 3.1 40 00:48 15.10.2019
176 Clouds 17 1021 68 10000 3.1 40 00:21 15.10.2019
177 Clear 16 1022 63 10000 3.6 10 23:40 14.10.2019
178 Clear 16 1022 63 10000 3.6 10 23:20 14.10.2019
179 Clear 19 1021 72 0 6.71 360 22:41 14.10.2019
180 Clear 19 1021 72 0 6.71 360 22:21 14.10.2019
181 Clear 19 1021 72 0 6.71 360 21:59 14.10.2019
182 Clear 19 1021 72 0 6.71 360 21:40 14.10.2019
183 Clear 19 1021 72 0 6.71 360 21:22 14.10.2019
184 Clear 19 1021 72 0 6.71 360 20:59 14.10.2019
185 Clear 19 1021 72 0 6.71 360 20:39 14.10.2019
186 Clear 19 1021 72 0 6.71 360 20:21 14.10.2019
187 Clear 19 1021 72 0 6.71 360 19:59 14.10.2019
188 Clear 19 1021 72 0 6.71 360 19:40 14.10.2019
189 Clear 19 1021 72 0 6.71 360 19:22 14.10.2019
190 Clear 19 1021 72 0 6.71 360 18:58 14.10.2019
191 Clear 19 1021 72 0 6.71 360 18:38 14.10.2019
192 Clear 19 1021 72 0 6.71 360 18:18 14.10.2019
193 Clear 19 1021 72 0 6.71 360 18:18 14.10.2019
194 Clear 19 1021 72 0 6.71 360 17:44 14.10.2019
195 Clear 16 1022 87 10000 2.6 360 17:25 14.10.2019
196 Clear 17 1022 87 10000 2.6 360 16:59 14.10.2019
197 Clear 17 1022 87 10000 2.6 360 16:40 14.10.2019
198 Clear 17 1022 87 10000 2.6 360 16:20 14.10.2019
199 Clouds 17 1022 82 10000 2.1 360 15:41 14.10.2019
200 Clouds 18 1022 82 10000 2.1 360 15:22 14.10.2019
201 Clouds 18 1021 72 10000 6.7 360 14:46 14.10.2019
202 Clouds 18 1021 72 10000 6.7 360 14:26 14.10.2019
203 Clouds 18 1021 72 10000 6.7 360 14:26 14.10.2019
204 Clouds 19 1021 68 10000 8.7 360 13:59 14.10.2019
205 Clouds 19 1021 68 10000 8.7 360 13:59 14.10.2019
206 Clouds 19 1021 68 10000 8.7 360 13:41 14.10.2019
207 Clouds 19 1021 68 10000 8.7 360 13:21 14.10.2019
208 Clouds 19 1020 68 10000 8.2 10 12:43 14.10.2019
209 Clouds 19 1020 68 10000 8.2 10 12:21 14.10.2019
210 -273 0 0 0 0 0 12:00 14.10.2019
211 Clouds 20 1020 68 10000 8.2 360 11:41 14.10.2019
212 Clouds 20 1020 68 10000 8.2 360 11:22 14.10.2019
213 Clouds 22 1020 60 10000 7.2 360 10:44 14.10.2019
214 Clouds 22 1020 60 10000 7.2 360 10:23 14.10.2019
215 Clouds 24 1019 57 10000 7.7 340 09:59 14.10.2019
216 Clouds 24 1019 57 10000 7.7 340 09:40 14.10.2019
217 Clouds 24 1019 57 10000 7.7 340 09:40 14.10.2019
218 Clouds 24 1019 57 10000 7.7 340 09:20 14.10.2019
219 Clouds 24 1018 57 10000 7.7 340 08:48 14.10.2019
220 Clouds 24 1018 57 10000 7.7 340 08:23 14.10.2019
221 Clouds 25 1018 50 10000 6.7 330 07:45 14.10.2019
222 Clouds 25 1018 50 10000 6.7 330 07:23 14.10.2019
223 -273 0 0 0 0 0 06:56 14.10.2019
224 Clouds 25 1018 50 10000 6.7 330 06:56 14.10.2019
225 Clouds 25 1018 50 10000 6.7 330 06:28 14.10.2019
226 Clouds 25 1019 50 10000 7.2 350 05:53 14.10.2019
227 Clouds 24 1020 50 10000 7.2 350 04:53 14.10.2019
228 Clouds 22 1020 53 10000 8.2 360 03:49 14.10.2019
229 Clouds 22 1020 53 10000 8.2 360 03:22 14.10.2019
230 Clouds 19 1020 68 10000 0.5 0 01:52 14.10.2019
231 Clouds 19 1020 68 10000 0.5 0 01:18 14.10.2019
232 Clouds 15 1019 93 10000 0.5 0 00:36 14.10.2019
233 Clouds 15 1019 93 10000 0.5 0 00:18 14.10.2019
234 Clouds 14 1019 93 10000 0.5 0 23:40 13.10.2019
235 Clouds 14 1019 93 10000 0.5 0 23:19 13.10.2019
236 Clear 20 1018 60 0 4.02 20 22:54 13.10.2019
237 Clear 20 1018 60 0 4.02 20 22:36 13.10.2019
238 Clear 20 1018 60 0 4.02 20 22:18 13.10.2019
239 Clear 20 1018 60 0 4.02 20 22:18 13.10.2019
240 Clear 20 1018 60 0 4.02 20 21:55 13.10.2019
241 Clear 20 1018 60 0 4.02 20 21:36 13.10.2019
242 Clear 20 1018 60 0 4.02 20 21:18 13.10.2019
243 Clear 20 1018 60 0 4.02 20 21:18 13.10.2019
244 Clear 20 1018 60 0 4.02 20 20:55 13.10.2019
245 Clear 20 1018 60 0 4.02 20 20:55 13.10.2019
246 Clear 20 1018 60 0 4.02 20 20:36 13.10.2019
247 Clear 20 1018 60 0 4.02 20 20:18 13.10.2019
248 Clear 20 1018 60 0 4.02 20 19:40 13.10.2019
249 Clear 20 1018 60 0 4.02 20 19:22 13.10.2019
250 Clear 20 1018 60 0 4.02 20 18:59 13.10.2019
251 Clear 20 1018 60 0 4.02 20 18:38 13.10.2019
252 Clear 20 1018 60 0 4.02 20 18:20 13.10.2019
253 Clear 20 1018 60 0 4.02 20 17:58 13.10.2019
254 Clear 20 1018 60 0 4.02 20 17:39 13.10.2019
255 Clear 17 1019 82 10000 3.1 350 17:21 13.10.2019
256 Clear 17 1019 82 10000 3.1 350 16:43 13.10.2019
257 Clear 18 1019 82 10000 3.1 350 16:19 13.10.2019
258 Clear 17 1019 82 10000 3.1 10 15:57 13.10.2019
259 Clear 17 1019 82 10000 3.1 10 15:57 13.10.2019
260 Clear 17 1019 82 10000 3.1 10 15:57 13.10.2019
261 Clear 17 1019 82 10000 3.1 10 15:38 13.10.2019
262 Clear 18 1019 82 10000 3.1 10 15:19 13.10.2019
263 Clouds 19 1018 60 10000 4.1 20 14:57 13.10.2019
264 Clouds 19 1018 60 10000 4.1 20 14:38 13.10.2019
265 Clouds 19 1018 60 10000 4.1 20 14:19 13.10.2019
266 Clouds 19 1017 68 10000 6.7 360 13:42 13.10.2019
267 Clouds 19 1017 68 10000 6.7 360 13:42 13.10.2019
268 Clouds 19 1017 68 10000 6.7 360 13:23 13.10.2019
269 Clouds 19 1016 68 10000 9.3 360 12:59 13.10.2019
270 Clouds 19 1016 68 10000 9.3 360 12:39 13.10.2019
271 Clouds 19 1016 68 10000 9.3 360 12:21 13.10.2019
272 Clouds 21 1016 64 10000 7.7 10 11:59 13.10.2019
273 Clouds 21 1016 64 10000 7.7 10 11:39 13.10.2019
274 Clouds 21 1016 64 10000 7.7 10 11:20 13.10.2019
275 Clouds 23 1015 53 10000 8.2 30 10:57 13.10.2019
276 Clouds 23 1015 53 10000 8.2 30 10:38 13.10.2019
277 Clouds 22 1015 53 10000 8.2 30 10:20 13.10.2019
278 Clouds 23 1015 50 10000 8.7 40 09:39 13.10.2019
279 Clouds 23 1015 50 10000 8.7 40 09:21 13.10.2019
280 Clouds 24 1014 44 10000 7.7 40 08:45 13.10.2019
281 Clouds 24 1014 44 10000 7.7 40 08:26 13.10.2019
282 Clouds 25 1014 39 10000 6.2 30 07:52 13.10.2019
283 Clouds 26 1014 39 10000 6.2 30 07:33 13.10.2019
284 Clouds 26 1014 39 10000 6.2 30 07:33 13.10.2019
285 Clouds 25 1015 44 10000 7.7 40 06:54 13.10.2019
286 Clouds 25 1015 44 10000 7.7 40 06:54 13.10.2019
287 Clouds 25 1015 44 10000 7.7 40 06:24 13.10.2019
288 Clouds 25 1015 44 10000 7.7 40 06:24 13.10.2019
289 Clouds 24 1015 44 10000 6.7 60 05:22 13.10.2019
290 Clouds 24 1015 44 10000 8.2 60 04:34 13.10.2019
291 Clouds 24 1015 44 10000 8.2 60 04:34 13.10.2019
292 Clouds 23 1015 46 10000 7.7 20 03:24 13.10.2019
293 Clouds 22 1015 49 10000 10.8 50 02:30 13.10.2019
294 Clouds 21 1015 56 10000 2.1 20 01:36 13.10.2019
295 Clouds 19 1015 59 10000 2.1 30 00:56 13.10.2019
296 Clouds 19 1015 59 10000 2.1 30 00:37 13.10.2019
297 Clouds 19 1015 59 10000 2.1 30 00:18 13.10.2019
298 Clouds 19 1015 59 10000 5.7 30 23:41 12.10.2019
299 Clouds 18 1015 63 10000 5.7 20 23:22 12.10.2019
300 Clear 21 1011 60 0 6.71 10 22:58 12.10.2019
301 Clear 21 1011 60 0 6.71 10 22:40 12.10.2019
302 Clear 21 1011 60 0 6.71 10 22:40 12.10.2019
303 Clear 21 1011 60 0 6.71 10 22:22 12.10.2019
304 Clear 21 1011 60 0 6.71 10 22:22 12.10.2019
305 Clear 21 1011 60 0 6.71 10 21:57 12.10.2019
306 Clear 21 1011 60 0 6.71 10 21:39 12.10.2019
307 Clear 21 1011 60 0 6.71 10 21:20 12.10.2019
308 Clear 21 1011 60 0 6.71 10 21:20 12.10.2019
309 Clear 21 1011 60 0 6.71 10 20:45 12.10.2019
310 Clear 21 1011 60 0 6.71 10 20:27 12.10.2019
311 Clear 21 1011 60 0 6.71 10 19:42 12.10.2019
312 Clear 21 1011 60 0 6.71 10 19:24 12.10.2019
313 Clear 21 1011 60 0 6.71 10 18:59 12.10.2019
314 Clear 21 1011 60 0 6.71 10 18:41 12.10.2019
315 Clear 21 1011 60 0 6.71 10 18:41 12.10.2019
316 Clear 21 1011 60 0 6.71 10 18:23 12.10.2019
317 Clear 21 1011 60 0 6.71 10 17:45 12.10.2019
318 Clouds 20 1012 63 10000 6.2 10 17:21 12.10.2019
319 Clouds 20 1012 63 10000 6.2 10 16:57 12.10.2019
320 Clouds 20 1012 63 10000 6.2 10 16:38 12.10.2019
321 Clouds 20 1012 63 10000 6.2 10 16:19 12.10.2019
322 Clouds 20 1012 64 10000 6.2 10 15:44 12.10.2019
323 Clouds 21 1012 64 10000 6.2 10 15:25 12.10.2019
324 Clouds 21 1012 64 10000 6.2 10 15:25 12.10.2019
325 Clouds 21 1011 60 10000 6.7 10 14:57 12.10.2019
326 Clouds 21 1011 60 10000 6.7 10 14:38 12.10.2019
327 Clouds 21 1011 60 10000 6.7 10 14:19 12.10.2019
328 Clouds 21 1010 64 10000 7.2 20 13:44 12.10.2019
329 Clouds 21 1010 64 10000 7.2 20 13:26 12.10.2019
330 Clouds 22 1009 60 10000 9.3 10 12:40 12.10.2019
331 Clouds 22 1009 60 10000 9.3 10 12:22 12.10.2019
332 Clouds 22 1009 60 10000 9.3 10 12:22 12.10.2019
333 Clouds 22 1008 60 10000 8.7 20 11:59 12.10.2019
334 Clouds 22 1008 60 10000 8.7 20 11:40 12.10.2019
335 Clouds 22 1008 60 10000 8.7 20 11:22 12.10.2019
336 Clouds 22 1007 64 10000 11.3 10 10:56 12.10.2019
337 Clouds 22 1007 64 10000 11.3 10 10:36 12.10.2019
338 Clouds 22 1007 64 10000 11.3 10 10:18 12.10.2019
339 Clouds 23 1006 60 10000 11.3 360 09:54 12.10.2019
340 Clouds 23 1006 60 10000 11.3 360 09:36 12.10.2019
341 Clouds 23 1006 60 10000 11.3 360 09:18 12.10.2019
342 Clouds 24 1006 57 10000 11.3 360 08:41 12.10.2019
343 Clouds 24 1006 57 10000 11.3 360 08:41 12.10.2019
344 Clouds 24 1006 60 10000 12.3 360 08:20 12.10.2019
345 Clouds 24 1006 60 10000 12.3 360 08:20 12.10.2019
346 Clouds 24 1006 60 10000 12.3 360 08:20 12.10.2019
347 Clouds 23 1006 64 10000 8.7 350 07:36 12.10.2019
348 Clouds 24 1005 57 10000 12.3 10 06:59 12.10.2019
349 Clouds 24 1006 60 10000 8.2 360 05:49 12.10.2019
350 Clouds 24 1006 60 10000 8.2 360 05:24 12.10.2019
351 Clouds 25 1006 57 10000 11.8 10 04:26 12.10.2019
352 Clouds 25 1006 57 10000 11.8 10 04:26 12.10.2019
353 Clouds 24 1006 69 10000 10.3 360 03:41 12.10.2019
354 Clouds 23 1006 78 10000 10.3 10 01:56 12.10.2019
355 Clouds 23 1006 78 10000 10.8 10 01:29 12.10.2019
356 Clouds 23 1005 78 10000 10.3 10 00:43 12.10.2019
357 Clouds 23 1005 78 10000 10.3 10 00:19 12.10.2019
358 Clouds 23 1005 78 10000 10.3 10 00:19 12.10.2019
359 Clouds 23 1005 78 10000 9.8 10 23:40 11.10.2019
360 Clouds 23 1005 78 10000 9.8 10 23:20 11.10.2019
361 Clouds 23 1006 78 0 8.49 360 22:41 11.10.2019
362 Clouds 23 1006 78 0 8.49 360 22:22 11.10.2019
363 Clouds 23 1006 78 0 8.49 360 21:59 11.10.2019
364 Clouds 23 1006 78 0 8.49 360 21:40 11.10.2019
365 Clouds 23 1006 78 0 8.49 360 21:21 11.10.2019
366 Clouds 23 1006 78 0 8.49 360 20:45 11.10.2019
367 Clouds 23 1006 78 0 8.49 360 20:27 11.10.2019
368 Clouds 23 1006 78 0 8.49 360 19:59 11.10.2019
369 Clouds 23 1006 78 0 8.49 360 19:39 11.10.2019
370 Clouds 23 1006 78 0 8.49 360 19:18 11.10.2019
371 Clouds 23 1006 78 0 8.49 360 19:18 11.10.2019
372 Clouds 23 1006 78 0 8.49 360 18:59 11.10.2019
373 Clouds 23 1006 78 0 8.49 360 18:59 11.10.2019
374 Clouds 23 1006 78 0 8.49 360 18:38 11.10.2019
375 Clouds 23 1006 78 0 8.49 360 18:19 11.10.2019
376 Clouds 23 1006 78 0 8.49 360 17:59 11.10.2019
377 Clouds 23 1006 78 0 8.49 360 17:38 11.10.2019
378 Clouds 23 1006 78 10000 3.6 350 17:19 11.10.2019
379 Clouds 23 1006 78 10000 3.6 350 16:58 11.10.2019
380 Clouds 23 1006 78 10000 3.6 350 16:39 11.10.2019
381 Clouds 23 1006 78 10000 3.6 350 16:19 11.10.2019
382 Clouds 23 1006 78 10000 3.6 350 16:19 11.10.2019
383 Clouds 22 1007 83 10000 3.1 350 15:42 11.10.2019
384 Clouds 23 1007 83 10000 3.1 350 15:21 11.10.2019
385 Clouds 23 1006 78 10000 8.7 360 14:58 11.10.2019
386 Clouds 23 1006 78 10000 8.7 360 14:39 11.10.2019
387 Clouds 23 1006 78 10000 8.7 360 14:19 11.10.2019
388 Clouds 23 1006 78 10000 8.2 350 13:45 11.10.2019
389 Clouds 23 1006 78 10000 8.2 350 13:25 11.10.2019
390 Clouds 23 1006 83 10000 8.2 360 12:57 11.10.2019
391 Clouds 23 1006 83 10000 8.2 360 12:38 11.10.2019
392 Clouds 23 1006 83 10000 8.2 360 12:20 11.10.2019
393 Clouds 24 1006 73 10000 9.3 360 11:58 11.10.2019
394 Clouds 24 1006 73 10000 9.3 360 11:38 11.10.2019
395 Clouds 24 1006 73 10000 9.3 360 11:20 11.10.2019
396 Clouds 25 1006 73 10000 9.8 360 10:54 11.10.2019
397 Clouds 25 1006 73 10000 9.8 360 10:54 11.10.2019
398 Clouds 25 1006 73 10000 9.8 360 10:36 11.10.2019
399 Clouds 25 1006 73 10000 9.8 360 10:18 11.10.2019
400 Clouds 27 1006 69 10000 10.3 360 09:41 11.10.2019
401 Clouds 26 1006 69 10000 10.3 360 09:20 11.10.2019
402 Clouds 27 1006 69 10000 8.2 340 08:56 11.10.2019
403 Clouds 27 1006 69 10000 8.2 340 08:38 11.10.2019
404 Clouds 27 1006 69 10000 8.2 340 08:19 11.10.2019
405 Clouds 28 1006 61 10000 8.2 330 07:51 11.10.2019
406 Clouds 28 1006 61 10000 8.2 330 07:33 11.10.2019
407 Clouds 29 1007 61 10000 7.7 340 06:49 11.10.2019
408 Clouds 29 1007 61 10000 7.7 340 06:24 11.10.2019
409 Clouds 28 1008 61 10000 8.2 330 05:41 11.10.2019
410 Clouds 28 1008 61 10000 8.2 330 05:23 11.10.2019
411 Clouds 26 1009 65 10000 1.5 0 04:38 11.10.2019
412 Clear 23 1010 73 10000 1 0 02:59 11.10.2019
413 Clouds 18 1010 88 10000 1.5 310 00:52 11.10.2019
414 Clouds 18 1010 88 10000 1.5 310 00:30 11.10.2019
415 Clouds 15 1011 93 10000 7.03 18.525 23:50 10.10.2019
416 Clouds 16 1010 93 10000 7.03 18.525 23:24 10.10.2019
417 Clear 21 1012 68 0 2.68 50 22:59 10.10.2019
418 Clear 21 1012 68 0 2.68 50 22:40 10.10.2019
419 Clear 21 1012 68 0 2.68 50 22:21 10.10.2019
420 Clear 21 1012 68 0 2.68 50 22:21 10.10.2019
421 Clear 21 1012 68 0 2.68 50 22:21 10.10.2019
422 Clear 21 1012 68 0 2.68 50 21:59 10.10.2019
423 Clear 21 1012 68 0 2.68 50 21:40 10.10.2019
424 Clear 21 1012 68 0 2.68 50 21:40 10.10.2019
425 Clear 21 1012 68 0 2.68 50 21:22 10.10.2019
426 Clear 21 1012 68 0 2.68 50 20:57 10.10.2019
427 Clear 21 1012 68 0 2.68 50 20:39 10.10.2019
428 Clear 21 1012 68 0 2.68 50 20:18 10.10.2019
429 Clear 21 1012 68 0 2.68 50 20:18 10.10.2019
430 Clear 21 1012 68 0 2.68 50 20:18 10.10.2019
431 Clear 21 1012 68 0 2.68 50 19:54 10.10.2019
432 Clear 21 1012 68 0 2.68 50 19:54 10.10.2019
433 Clear 21 1012 68 0 2.68 50 19:36 10.10.2019
434 Clear 21 1012 68 0 2.68 50 19:18 10.10.2019
435 Clear 21 1012 68 0 2.68 50 18:41 10.10.2019
436 Clear 21 1012 68 0 2.68 50 18:20 10.10.2019
437 Clear 21 1012 68 0 2.68 50 17:56 10.10.2019
438 Clear 21 1012 68 0 2.68 50 17:37 10.10.2019
439 Clear 18 1012 88 10000 2.6 330 17:18 10.10.2019
440 Clear 19 1012 88 10000 2.6 330 16:47 10.10.2019
441 Clear 19 1012 88 10000 2.6 330 16:26 10.10.2019
442 Clear 19 1012 88 10000 2.6 330 16:26 10.10.2019
443 Clear 19 1013 82 10000 1.5 340 15:58 10.10.2019
444 Clear 19 1013 82 10000 1.5 340 15:38 10.10.2019
445 Clear 20 1013 82 10000 1.5 340 15:19 10.10.2019
446 Clear 20 1012 68 10000 3.1 50 14:55 10.10.2019
447 Clear 20 1012 68 10000 3.1 50 14:36 10.10.2019
448 Clear 20 1012 68 10000 3.1 50 14:18 10.10.2019
449 Clear 20 1012 73 10000 3.6 340 13:42 10.10.2019
450 Clear 20 1012 73 10000 3.6 340 13:24 10.10.2019
451 Clear 21 1012 68 10000 5.1 360 12:58 10.10.2019
452 Clear 21 1012 68 10000 5.1 360 12:40 10.10.2019
453 Clear 21 1012 68 10000 5.1 360 12:20 10.10.2019
454 Clear 21 1012 68 10000 5.1 360 12:20 10.10.2019
455 Clear 22 1011 68 10000 4.1 310 11:58 10.10.2019
456 Clear 22 1011 68 10000 4.1 310 11:38 10.10.2019
457 Clear 22 1011 68 10000 4.1 310 11:19 10.10.2019
458 Clear 24 1011 57 10000 6.2 330 10:44 10.10.2019
459 Clear 24 1011 57 10000 6.2 330 10:26 10.10.2019
460 Clouds 25 1011 50 10000 3.6 360 09:56 10.10.2019
461 Clouds 25 1011 50 10000 3.6 360 09:38 10.10.2019
462 Clouds 25 1011 50 10000 3.6 360 09:38 10.10.2019
463 Clouds 25 1011 50 10000 3.6 360 09:19 10.10.2019
464 Clouds 26 1011 44 10000 2.1 270 08:56 10.10.2019
465 Clouds 26 1011 44 10000 2.1 270 08:37 10.10.2019
466 Clouds 26 1011 44 10000 2.1 270 08:18 10.10.2019
467 Clouds 26 1011 44 10000 2.1 270 08:18 10.10.2019
468 Clouds 26 1012 41 10000 1 0 07:42 10.10.2019
469 Clouds 26 1012 41 10000 1 0 07:20 10.10.2019
470 Clouds 25 1012 50 10000 1 0 06:48 10.10.2019
471 Clouds 25 1012 50 10000 1 0 06:29 10.10.2019
472 Clouds 24 1013 57 10000 1 0 05:27 10.10.2019
473 Clouds 23 1014 60 10000 1 0 04:39 10.10.2019
474 Clouds 23 1014 60 10000 1 0 04:21 10.10.2019
475 Clear 18 1015 82 10000 2.1 130 01:43 10.10.2019
476 Clear 18 1015 82 10000 2.1 130 01:24 10.10.2019
477 Clouds 15 1014 88 10000 2.6 120 00:54 10.10.2019
478 Clouds 16 1014 88 10000 2.6 120 00:22 10.10.2019
479 Clear 15 1015 88 10000 3.1 140 23:40 09.10.2019
480 Clear 15 1015 93 10000 2.6 350 23:20 09.10.2019
481 Clear 20 1015 72 0 4.02 10 22:44 09.10.2019
482 Clear 20 1015 72 0 4.02 10 22:24 09.10.2019
483 Clear 20 1015 72 0 4.02 10 21:59 09.10.2019
484 Clear 20 1015 72 0 4.02 10 21:40 09.10.2019
485 Clear 20 1015 72 0 4.02 10 21:20 09.10.2019
486 Clear 20 1015 72 0 4.02 10 20:56 09.10.2019
487 Clear 20 1015 72 0 4.02 10 20:37 09.10.2019
488 Clear 20 1015 72 0 4.02 10 20:19 09.10.2019
489 Clear 20 1015 72 0 4.02 10 20:19 09.10.2019
490 Clear 20 1015 72 0 4.02 10 19:57 09.10.2019
491 Clear 20 1015 72 0 4.02 10 19:39 09.10.2019
492 Clear 20 1015 72 0 4.02 10 19:20 09.10.2019
493 Clear 20 1015 72 0 4.02 10 18:38 09.10.2019
494 Clear 20 1015 72 0 4.02 10 18:19 09.10.2019
495 Clear 20 1015 72 0 4.02 10 17:56 09.10.2019
496 Clear 20 1015 72 0 4.02 10 17:37 09.10.2019
497 Clear 17 1015 87 10000 1.5 320 17:19 09.10.2019
498 Clear 18 1015 87 10000 1.5 320 16:42 09.10.2019
499 Clear 18 1015 87 10000 1.5 320 16:23 09.10.2019
500 Clear 18 1016 82 10000 2.6 320 15:58 09.10.2019
501 Clear 18 1016 82 10000 2.6 320 15:39 09.10.2019
502 Clear 19 1016 82 10000 2.6 320 15:20 09.10.2019
503 Clear 19 1015 72 10000 4.1 10 14:58 09.10.2019
504 Clear 19 1015 72 10000 4.1 10 14:58 09.10.2019
505 Clear 19 1015 72 10000 4.1 10 14:40 09.10.2019
506 Clear 19 1015 72 10000 4.1 10 14:18 09.10.2019
507 Clouds 19 1015 77 10000 3.1 350 13:40 09.10.2019
508 Clouds 19 1015 77 10000 3.1 350 13:40 09.10.2019
509 Clouds 19 1015 77 10000 3.1 350 13:21 09.10.2019
510 Clouds 20 1014 73 10000 7.2 10 12:59 09.10.2019
511 Clouds 20 1014 73 10000 7.2 10 12:59 09.10.2019
512 Clouds 20 1014 73 10000 7.2 10 12:40 09.10.2019
513 Clouds 21 1014 73 10000 7.2 10 12:21 09.10.2019
514 Clouds 22 1014 68 10000 6.7 360 11:55 09.10.2019
515 Clouds 22 1014 68 10000 6.7 360 11:37 09.10.2019
516 Clouds 22 1014 68 10000 6.7 360 11:19 09.10.2019
517 Clouds 24 1014 60 10000 6.2 340 10:43 09.10.2019
518 Clouds 24 1014 60 10000 6.2 340 10:43 09.10.2019
519 Clouds 24 1014 60 10000 6.2 340 10:21 09.10.2019
520 Clouds 25 1014 53 10000 4.6 320 09:59 09.10.2019
521 Clouds 25 1014 53 10000 4.6 320 09:40 09.10.2019
522 Clouds 25 1014 53 10000 4.6 320 09:40 09.10.2019
523 Clouds 25 1014 53 10000 4.6 320 09:40 09.10.2019
524 Clouds 25 1014 53 10000 4.6 320 09:18 09.10.2019
525 Clouds 26 1013 50 10000 4.1 330 08:41 09.10.2019
526 Clouds 26 1013 50 10000 4.1 330 08:21 09.10.2019
527 Clouds 26 1014 50 10000 5.1 310 07:56 09.10.2019
528 Clouds 26 1014 50 10000 5.1 310 07:37 09.10.2019
529 Clouds 26 1014 50 10000 5.1 310 07:19 09.10.2019
530 Clouds 26 1014 50 10000 5.1 310 07:19 09.10.2019
531 Clouds 26 1015 54 10000 5.1 360 06:49 09.10.2019
532 Clouds 25 1016 53 10000 5.1 360 05:55 09.10.2019
533 Clouds 25 1016 53 10000 5.1 360 05:23 09.10.2019
534 Clouds 23 1017 64 10000 2.6 330 04:20 09.10.2019
535 Clouds 20 1018 73 10000 1.5 160 02:50 09.10.2019
536 Clouds 18 1017 77 10000 2.1 100 01:43 09.10.2019
537 Clouds 18 1017 77 10000 2.1 100 01:19 09.10.2019
538 Clouds 18 1017 77 10000 2.1 100 01:19 09.10.2019
539 Clouds 15 1017 82 10000 1.5 110 00:56 09.10.2019
540 Clouds 15 1017 82 10000 1.5 110 00:38 09.10.2019
541 Clouds 15 1017 82 10000 1.5 110 00:38 09.10.2019
542 Clouds 16 1017 82 10000 1.5 110 00:19 09.10.2019
543 Clouds 14 1017 100 8000 2.6 360 23:39 08.10.2019
544 Clouds 16 1017 100 8000 2.6 360 23:18 08.10.2019
545 Clouds 19 1017 77 0 2.24 60 22:56 08.10.2019
546 Clouds 19 1017 77 0 2.24 60 22:37 08.10.2019
547 Clouds 19 1017 77 0 2.24 60 22:18 08.10.2019
548 Clouds 19 1017 77 0 2.24 60 21:57 08.10.2019
549 Clouds 19 1017 77 0 2.24 60 21:38 08.10.2019
550 Clouds 19 1017 77 0 2.24 60 21:18 08.10.2019
551 Clouds 19 1017 77 0 2.24 60 20:55 08.10.2019
552 Clouds 19 1017 77 0 2.24 60 20:37 08.10.2019
553 Clouds 19 1017 77 0 2.24 60 20:18 08.10.2019
554 Clouds 19 1017 77 0 2.24 60 19:55 08.10.2019
555 Clouds 19 1017 77 0 2.24 60 19:36 08.10.2019
556 Clouds 19 1017 77 0 2.24 60 19:18 08.10.2019
557 Clouds 19 1017 77 0 2.24 60 18:42 08.10.2019
558 Clouds 19 1017 77 0 2.24 60 18:24 08.10.2019
559 Clouds 19 1017 77 0 2.24 60 17:57 08.10.2019
560 Clouds 19 1017 77 0 2.24 60 17:57 08.10.2019
561 Clouds 19 1017 77 0 2.24 60 17:39 08.10.2019
562 Clear 17 1017 87 10000 1.5 30 17:19 08.10.2019
563 Clear 17 1017 87 10000 1.5 30 16:56 08.10.2019
564 Clear 17 1017 87 10000 1.5 30 16:56 08.10.2019
565 Clear 17 1017 87 10000 1.5 30 16:37 08.10.2019
566 Clear 18 1017 87 10000 1.5 30 16:18 08.10.2019
567 Clear 17 1018 87 10000 2.1 340 15:38 08.10.2019
568 Clear 18 1018 87 10000 2.1 340 15:20 08.10.2019
569 Clear 18 1018 87 10000 2.1 340 15:20 08.10.2019
570 Clouds 18 1017 77 10000 2.6 60 14:56 08.10.2019
571 Clouds 18 1017 77 10000 2.6 60 14:37 08.10.2019
572 Clouds 18 1017 77 10000 2.6 60 14:19 08.10.2019
573 Clouds 19 1017 72 10000 2.6 30 13:55 08.10.2019
574 Clouds 19 1017 72 10000 2.6 30 13:37 08.10.2019
575 Clouds 19 1017 72 10000 2.6 30 13:18 08.10.2019
576 Clouds 19 1017 72 10000 2.6 30 13:18 08.10.2019
577 -273 0 0 0 0 0 13:18 08.10.2019
578 Clouds 20 1016 64 10000 4.1 30 12:41 08.10.2019
579 Clouds 20 1016 64 10000 4.1 30 12:20 08.10.2019
580 Clouds 20 1016 60 10000 6.7 10 11:57 08.10.2019
581 Clouds 20 1016 60 10000 6.7 10 11:57 08.10.2019
582 Clouds 20 1016 60 10000 6.7 10 11:38 08.10.2019
583 Clouds 20 1016 60 10000 6.7 10 11:20 08.10.2019
584 Clouds 22 1015 60 10000 5.1 350 10:42 08.10.2019
585 Clouds 22 1015 60 10000 5.1 350 10:23 08.10.2019
586 Clouds 23 1015 64 10000 5.1 340 09:59 08.10.2019
587 Clouds 23 1015 64 10000 5.1 340 09:40 08.10.2019
588 Clouds 23 1015 64 10000 5.1 340 09:22 08.10.2019
589 Clouds 24 1015 60 10000 6.7 350 08:45 08.10.2019
590 Clouds 24 1015 60 10000 6.7 350 08:25 08.10.2019
591 Clouds 24 1015 57 10000 8.2 320 07:48 08.10.2019
592 Clouds 24 1015 57 10000 8.2 320 07:23 08.10.2019
593 Clouds 24 1015 64 10000 7.7 320 06:59 08.10.2019
594 Clouds 24 1015 64 10000 7.7 320 06:39 08.10.2019
595 Clouds 24 1015 64 10000 7.7 320 06:21 08.10.2019
596 Clouds 24 1016 57 10000 7.7 320 05:40 08.10.2019
597 Clouds 23 1016 69 10000 6.7 310 04:56 08.10.2019
598 Clouds 23 1017 60 10000 6.2 320 03:31 08.10.2019
599 Clouds 24 1016 64 10000 6.2 320 02:41 08.10.2019
600 Clouds 23 1016 69 10000 4.1 300 01:56 08.10.2019
601 Clouds 23 1016 69 10000 4.1 300 01:38 08.10.2019
602 Clouds 21 1016 73 10000 4.6 300 00:55 08.10.2019
603 Clouds 21 1016 73 10000 4.6 300 00:23 08.10.2019
604 Clouds 21 1016 73 10000 5.7 310 23:46 07.10.2019
605 Clouds 21 1015 77 10000 3.6 300 23:21 07.10.2019
606 Clouds 21 1015 77 10000 3.6 300 23:21 07.10.2019
607 Clouds 21 1015 76 0 8.42 318.999 22:59 07.10.2019
608 Clouds 21 1015 76 0 8.42 318.999 22:41 07.10.2019
609 Clouds 21 1015 76 0 8.42 318.999 22:23 07.10.2019
610 Clouds 21 1015 76 0 8.42 318.999 21:59 07.10.2019
611 Clouds 21 1015 76 0 8.42 318.999 21:40 07.10.2019
612 Rain 25 1015 83 0 4.02 230 21:21 07.10.2019
613 Clouds 25 1015 83 0 4.02 230 20:59 07.10.2019
614 Clouds 25 1015 83 0 4.02 230 20:40 07.10.2019
615 Clouds 25 1015 83 0 4.02 230 20:21 07.10.2019
616 Clouds 25 1015 83 0 4.02 230 19:59 07.10.2019
617 Clouds 22 1015 80 0 8.18 306.642 19:41 07.10.2019
618 Clouds 22 1015 80 0 8.18 306.642 19:41 07.10.2019
619 Clouds 22 1015 80 0 8.18 306.642 19:20 07.10.2019
620 Clouds 22 1015 80 0 8.18 306.642 18:59 07.10.2019
621 Clouds 22 1015 80 0 8.18 306.642 18:39 07.10.2019
622 Rain 25 1015 83 0 4.02 230 18:19 07.10.2019
623 Rain 25 1015 83 0 4.02 230 17:43 07.10.2019
624 Rain 25 1015 83 0 4.02 230 17:43 07.10.2019
625 Clouds 25 1014 83 10000 4.6 220 17:23 07.10.2019
626 Clouds 25 1014 83 10000 4.6 220 16:59 07.10.2019
627 Clouds 25 1014 83 10000 4.6 220 16:41 07.10.2019
628 Clouds 25 1014 83 10000 4.6 220 16:22 07.10.2019
629 Clouds 24 1014 88 10000 5.1 180 15:46 07.10.2019
630 Clouds 25 1014 88 10000 5.1 180 15:26 07.10.2019
631 Clouds 25 1015 83 10000 4.1 230 14:58 07.10.2019
632 Clouds 25 1015 83 10000 4.1 230 14:40 07.10.2019
633 Clouds 25 1015 83 10000 4.1 230 14:21 07.10.2019
634 Clouds 25 1015 83 10000 3.6 190 13:43 07.10.2019
635 Clouds 25 1015 83 10000 3.6 190 13:21 07.10.2019
636 Clouds 25 1015 78 10000 2.1 170 12:57 07.10.2019
637 Clouds 25 1015 78 10000 2.1 170 12:39 07.10.2019
638 Clouds 25 1015 78 10000 2.1 170 12:19 07.10.2019
639 Clouds 25 1014 78 10000 3.1 200 11:57 07.10.2019
640 Clouds 25 1014 78 10000 3.1 200 11:38 07.10.2019
641 Clouds 25 1014 78 10000 3.1 200 11:20 07.10.2019
642 Clouds 26 1015 74 10000 3.1 230 10:42 07.10.2019
643 Clouds 26 1015 74 10000 3.1 230 10:21 07.10.2019
644 Clouds 26 1015 69 10000 1 0 09:43 07.10.2019
645 Clouds 26 1015 69 10000 1 0 09:25 07.10.2019
646 Clouds 26 1015 74 10000 1.5 240 08:58 07.10.2019
647 Clouds 26 1015 74 10000 1.5 240 08:39 07.10.2019
648 Clouds 26 1015 74 10000 1.5 240 08:20 07.10.2019
649 Clouds 26 1015 65 10000 1 0 07:43 07.10.2019
650 Clouds 26 1015 65 10000 1 0 07:25 07.10.2019
651 Rain 26 1016 65 10000 1 0 06:55 07.10.2019
652 Rain 26 1016 65 10000 1 0 06:37 07.10.2019
653 Clouds 25 1016 69 10000 1.5 130 05:50 07.10.2019
654 Clouds 25 1016 69 10000 1.5 130 05:24 07.10.2019
655 Clouds 25 1017 69 10000 2.1 130 04:42 07.10.2019
656 Clouds 25 1018 73 10000 3.6 150 03:45 07.10.2019
657 Clouds 25 1018 73 10000 3.6 150 03:45 07.10.2019
658 Clouds 25 1018 73 10000 3.6 150 03:23 07.10.2019
659 Clouds 25 1018 73 10000 3.6 150 03:23 07.10.2019
660 Clouds 22 1018 83 10000 1.5 170 02:23 07.10.2019
661 Clouds 22 1018 83 10000 1.5 170 02:23 07.10.2019
662 Clouds 22 1018 83 10000 2.1 130 01:57 07.10.2019
663 Clouds 22 1018 83 10000 2.1 130 01:22 07.10.2019
664 Clouds 19 1018 94 10000 1.5 160 00:44 07.10.2019
665 Clouds 19 1018 94 10000 1.5 160 00:22 07.10.2019
666 Clouds 19 1018 94 10000 2.1 130 23:54 06.10.2019
667 Clouds 19 1017 94 10000 2.1 130 23:36 06.10.2019
668 Clouds 19 1017 94 10000 2.1 130 23:18 06.10.2019
669 Clouds 22 1019 83 0 1.79 100 22:41 06.10.2019
670 Clouds 22 1019 83 0 1.79 100 22:22 06.10.2019
671 Clouds 22 1019 83 0 1.79 100 21:58 06.10.2019
672 Clouds 22 1019 83 0 1.79 100 21:38 06.10.2019
673 Clear 22 1019 83 0 1.79 100 21:19 06.10.2019
674 Clear 22 1019 83 0 1.79 100 20:58 06.10.2019
675 Clear 22 1019 83 0 1.79 100 20:40 06.10.2019
676 Clear 22 1019 83 0 1.79 100 20:21 06.10.2019
677 Clear 22 1019 83 0 1.79 100 19:57 06.10.2019
678 Clear 22 1019 83 0 1.79 100 19:37 06.10.2019
679 Clear 22 1019 83 0 1.79 100 19:19 06.10.2019
680 Clear 22 1019 83 0 1.79 100 18:57 06.10.2019
681 Clear 22 1019 83 0 1.79 100 18:38 06.10.2019
682 Clear 22 1019 83 0 1.79 100 18:19 06.10.2019
683 Clear 22 1019 83 0 1.79 100 17:57 06.10.2019
684 Clear 22 1019 83 0 1.79 100 17:39 06.10.2019
685 Clear 20 1019 82 10000 2.6 350 17:19 06.10.2019
686 Clear 20 1019 82 10000 2.6 350 16:42 06.10.2019
687 Clear 20 1019 82 10000 2.6 350 16:23 06.10.2019
688 Clouds 20 1019 88 10000 2.1 330 15:56 06.10.2019
689 Clouds 20 1019 88 10000 2.1 330 15:38 06.10.2019
690 Clouds 21 1019 88 10000 2.1 330 15:18 06.10.2019
691 Clouds 21 1019 83 10000 2.1 100 14:42 06.10.2019
692 Clouds 21 1019 83 10000 2.1 100 14:24 06.10.2019
693 Clouds 21 1019 78 10000 2.1 10 13:56 06.10.2019
694 Clouds 21 1019 78 10000 2.1 10 13:38 06.10.2019
695 Clouds 21 1019 78 10000 2.1 10 13:19 06.10.2019
696 Clouds 21 1018 83 10000 6.7 360 12:56 06.10.2019
697 Clouds 21 1018 83 10000 6.7 360 12:37 06.10.2019
698 Clouds 21 1018 83 10000 6.7 360 12:19 06.10.2019
699 Clouds 22 1018 73 10000 9.3 360 11:55 06.10.2019
700 Clouds 22 1018 73 10000 9.3 360 11:36 06.10.2019
701 Clouds 22 1018 73 10000 9.3 360 11:36 06.10.2019
702 Clouds 22 1018 73 10000 9.3 360 11:18 06.10.2019
703 Clouds 24 1017 73 10000 7.7 350 10:42 06.10.2019
704 Clouds 24 1017 73 10000 7.7 350 10:24 06.10.2019
705 Clouds 25 1017 69 10000 7.7 350 09:42 06.10.2019
706 Clouds 24 1017 69 10000 7.7 350 09:21 06.10.2019
707 Clouds 24 1017 69 10000 7.7 350 09:21 06.10.2019
708 Clouds 24 1017 69 10000 7.7 350 09:21 06.10.2019
709 Clouds 26 1017 54 10000 3.1 0 08:59 06.10.2019
710 Clouds 26 1017 54 10000 3.1 0 08:40 06.10.2019
711 Clouds 26 1017 54 10000 3.1 0 08:20 06.10.2019
712 Clouds 26 1017 54 10000 1 0 07:42 06.10.2019
713 Clouds 26 1017 54 10000 1 0 07:18 06.10.2019
714 Clouds 26 1017 51 10000 3.1 40 06:18 06.10.2019
715 Clouds 27 1018 58 10000 4.1 50 05:27 06.10.2019
716 Clouds 25 1019 61 10000 6.2 40 03:23 06.10.2019
717 Clouds 24 1019 65 10000 5.7 360 02:40 06.10.2019
718 Clouds 24 1019 65 10000 5.7 360 02:40 06.10.2019
719 Clouds 23 1019 73 10000 1.5 50 01:57 06.10.2019
720 Clouds 23 1019 73 10000 1.5 50 01:37 06.10.2019
721 Clouds 22 1019 73 10000 1.5 50 01:18 06.10.2019
722 Clouds 21 1018 78 10000 3.1 40 00:40 06.10.2019
723 Clouds 21 1018 78 10000 3.1 40 00:20 06.10.2019
724 Clouds 21 1018 78 10000 3.1 30 23:42 05.10.2019
725 Clouds 20 1018 93 10000 2.1 360 23:21 05.10.2019
726 Clear 23 1015 83 0 4.92 330 22:56 05.10.2019
727 Clear 23 1015 83 0 4.92 330 22:37 05.10.2019
728 Clear 23 1015 83 0 4.92 330 22:19 05.10.2019
729 Clear 23 1015 83 0 4.92 330 21:42 05.10.2019
730 Clouds 23 1015 83 0 4.92 330 21:23 05.10.2019
731 Clouds 23 1015 83 0 4.92 330 20:58 05.10.2019
732 Clouds 23 1015 83 0 4.92 330 20:58 05.10.2019
733 Clear 23 1015 83 0 4.92 330 20:39 05.10.2019
734 Clear 23 1015 83 0 4.92 330 20:19 05.10.2019
735 Clear 23 1015 83 0 4.92 330 20:19 05.10.2019
736 Clear 23 1016 83 0 4.92 330 19:56 05.10.2019
737 Clear 23 1015 83 0 4.92 330 19:36 05.10.2019
738 Clear 23 1015 83 0 4.92 330 19:18 05.10.2019
739 Clear 23 1015 83 0 4.92 330 18:55 05.10.2019
740 Clear 23 1015 83 0 4.92 330 18:36 05.10.2019
741 Clear 23 1015 83 0 4.92 330 18:18 05.10.2019
742 Clear 23 1015 83 0 4.92 330 17:41 05.10.2019
743 Clear 22 1016 88 10000 1.5 360 17:21 05.10.2019
744 Clear 22 1016 88 10000 1.5 360 16:55 05.10.2019
745 Clear 22 1016 88 10000 1.5 360 16:36 05.10.2019
746 Clear 22 1016 88 10000 1.5 360 16:18 05.10.2019
747 Clear 22 1015 94 10000 0.5 0 15:55 05.10.2019
748 Clear 22 1015 94 10000 0.5 0 15:55 05.10.2019
749 Clear 22 1015 94 10000 0.5 0 15:36 05.10.2019
750 Clear 22 1015 94 10000 0.5 0 15:18 05.10.2019
751 Clouds 23 1015 83 10000 5.1 330 14:41 05.10.2019
752 Clouds 23 1015 83 10000 5.1 330 14:20 05.10.2019
753 Clouds 23 1014 83 10000 6.2 310 13:43 05.10.2019
754 Clouds 23 1014 83 10000 6.2 310 13:25 05.10.2019
755 Clouds 24 1014 83 10000 5.7 310 12:58 05.10.2019
756 Clouds 24 1014 83 10000 5.7 310 12:40 05.10.2019
757 Clouds 24 1014 83 10000 5.7 310 12:18 05.10.2019
758 Clouds 24 1013 83 10000 5.7 320 11:39 05.10.2019
759 Clouds 24 1013 83 10000 5.7 320 11:20 05.10.2019
760 Clouds 25 1013 65 10000 6.2 300 10:54 05.10.2019
761 Clouds 25 1013 65 10000 6.2 300 10:36 05.10.2019
762 Clouds 25 1013 65 10000 6.2 300 10:18 05.10.2019
763 Clouds 27 1012 61 10000 2.6 280 09:39 05.10.2019
764 Clouds 28 1012 61 10000 2.6 280 09:20 05.10.2019
765 Clouds 28 1012 61 10000 2.1 250 08:40 05.10.2019
766 Clouds 28 1012 61 10000 2.1 250 08:21 05.10.2019
767 Clouds 28 1012 65 10000 2.1 260 07:58 05.10.2019
768 Clouds 28 1012 65 10000 2.1 260 07:37 05.10.2019
769 Clouds 28 1012 65 10000 2.1 260 07:19 05.10.2019
770 Clouds 28 1013 62 10000 2.6 360 06:28 05.10.2019
771 Clouds 27 1014 58 10000 1 0 05:51 05.10.2019
772 Clouds 26 1014 61 10000 1 0 04:21 05.10.2019
773 Clouds 25 1014 69 10000 1.5 180 03:28 05.10.2019
774 Clouds 21 1014 83 10000 2.1 130 01:42 05.10.2019
775 Clouds 21 1014 83 10000 2.1 130 01:20 05.10.2019
776 Clouds 19 1013 94 10000 1.5 120 00:43 05.10.2019
777 Clouds 19 1013 94 10000 1.5 120 00:25 05.10.2019
778 Clouds 18 1013 93 10000 1.5 120 23:44 04.10.2019
779 Clouds 17 1013 100 10000 2.6 350 23:26 04.10.2019
780 Clouds 17 1013 100 10000 2.6 350 23:26 04.10.2019
781 Clear 22 1014 88 0 2.24 360 22:59 04.10.2019
782 Clear 22 1014 88 0 2.24 360 22:39 04.10.2019
783 Clear 22 1014 88 0 2.24 360 22:20 04.10.2019
784 Clear 22 1013 88 0 2.24 360 21:57 04.10.2019
785 Clear 22 1014 88 0 2.24 360 21:38 04.10.2019
786 Clear 22 1014 88 0 2.24 360 21:19 04.10.2019
787 Clear 22 1013 88 0 2.24 360 20:55 04.10.2019
788 Clear 22 1013 88 0 2.24 360 20:55 04.10.2019
789 Clear 22 1013 88 0 2.24 360 20:36 04.10.2019
790 Clear 22 1013 88 0 2.24 360 20:18 04.10.2019
791 Clear 22 1013 88 0 2.24 360 19:45 04.10.2019
792 Clear 22 1014 88 0 2.24 360 19:26 04.10.2019
793 Clear 22 1013 88 0 2.24 360 18:57 04.10.2019
794 Clear 22 1013 88 0 2.24 360 18:38 04.10.2019
795 Clear 22 1013 88 0 2.24 360 18:19 04.10.2019
796 Clear 22 1013 88 0 2.24 360 17:42 04.10.2019
797 Clear 22 1013 88 0 2.24 360 17:42 04.10.2019
798 Clouds 20 1013 93 10000 2.1 350 17:22 04.10.2019
799 Clouds 20 1013 93 10000 2.1 350 16:59 04.10.2019
800 Clouds 20 1013 93 10000 2.1 350 16:41 04.10.2019
801 Clouds 20 1013 93 10000 2.1 350 16:19 04.10.2019
802 Clouds 20 1013 93 10000 2.1 350 16:19 04.10.2019
803 Clouds 21 1013 83 10000 2.6 20 15:58 04.10.2019
804 Clouds 21 1013 83 10000 2.6 20 15:39 04.10.2019
805 Clouds 22 1013 83 10000 2.6 20 15:20 04.10.2019
806 Clouds 22 1013 88 10000 2.6 360 14:57 04.10.2019
807 Clouds 22 1013 88 10000 2.6 360 14:39 04.10.2019
808 Clouds 22 1013 88 10000 2.6 360 14:21 04.10.2019
809 Clouds 22 1012 83 10000 3.6 340 13:45 04.10.2019
810 Clouds 22 1012 83 10000 3.6 340 13:23 04.10.2019
811 Clouds 23 1012 78 10000 3.1 20 12:56 04.10.2019
812 Clouds 23 1012 78 10000 3.1 20 12:37 04.10.2019
813 Clouds 23 1012 78 10000 3.1 20 12:18 04.10.2019
814 Clouds 24 1011 73 10000 5.1 350 11:42 04.10.2019
815 Clouds 24 1011 73 10000 5.1 350 11:42 04.10.2019
816 Clouds 24 1011 73 10000 5.1 350 11:42 04.10.2019
817 Clouds 24 1011 73 10000 5.1 350 11:42 04.10.2019
818 Clouds 24 1011 73 10000 5.1 350 11:42 04.10.2019
819 Clouds 24 1011 73 10000 5.1 350 11:21 04.10.2019
820 Clouds 26 1011 65 10000 4.6 350 10:42 04.10.2019
821 Clouds 27 1011 65 10000 4.6 350 10:21 04.10.2019
822 Clouds 29 1011 62 10000 2.1 260 09:50 04.10.2019
823 Clouds 29 1011 62 10000 2.1 260 09:50 04.10.2019
824 Clouds 29 1011 62 10000 2.1 260 09:32 04.10.2019
825 Clouds 29 1011 58 10000 2.1 210 08:59 04.10.2019
826 Clouds 29 1011 58 10000 2.1 210 08:41 04.10.2019
827 Clouds 29 1011 58 10000 2.1 210 08:41 04.10.2019
828 Clouds 29 1011 58 10000 2.1 210 08:23 04.10.2019
829 Clouds 29 1011 62 10000 1.5 0 07:47 04.10.2019
830 Clouds 29 1011 62 10000 1.5 0 07:23 04.10.2019
831 Clouds 28 1011 65 10000 1 0 06:48 04.10.2019
832 Clouds 28 1011 65 10000 1 0 06:27 04.10.2019
833 Clouds 28 1011 65 10000 1 0 06:27 04.10.2019
834 Clouds 28 1012 65 10000 1.5 250 05:52 04.10.2019
835 Clouds 28 1012 65 10000 1.5 250 05:52 04.10.2019
836 Clouds 28 1012 65 10000 1.5 250 05:19 04.10.2019
837 Clouds 27 1012 69 10000 2.1 220 04:25 04.10.2019
838 Clouds 25 1012 83 10000 1 0 02:54 04.10.2019
839 Clouds 24 1012 83 10000 1 0 02:21 04.10.2019
840 Clouds 23 1012 88 10000 0.5 0 01:43 04.10.2019
841 Clouds 23 1012 88 10000 0.5 0 01:24 04.10.2019
842 Clouds 21 1011 94 10000 1.5 60 00:18 04.10.2019
843 Clouds 20 1011 100 9000 1.5 90 23:37 03.10.2019
844 Clouds 20 1011 94 7000 3.37 342.204 23:18 03.10.2019
845 Clear 24 1010 83 0 1.79 270 22:57 03.10.2019
846 Clear 24 1010 83 0 1.79 270 22:57 03.10.2019
847 Clear 24 1010 83 0 1.79 270 22:39 03.10.2019
848 Clear 24 1010 83 0 1.79 270 22:21 03.10.2019
849 Clear 24 1010 83 0 1.79 270 22:21 03.10.2019
850 Clear 24 1010 83 0 1.79 270 21:56 03.10.2019
851 Clear 24 1010 83 0 1.79 270 21:37 03.10.2019
852 Rain 24 1010 83 0 1.79 270 21:19 03.10.2019
853 Rain 24 1010 83 0 1.79 270 20:56 03.10.2019
854 Clear 24 1010 83 0 1.79 270 20:37 03.10.2019
855 Clear 24 1010 83 0 1.79 270 20:37 03.10.2019
856 Clear 24 1010 83 0 1.79 270 20:19 03.10.2019
857 Clear 24 1010 83 0 1.79 270 19:41 03.10.2019
858 Clear 24 1010 83 0 1.79 270 19:22 03.10.2019
859 Clear 24 1010 83 0 1.79 270 18:59 03.10.2019
860 Clear 24 1010 83 0 1.79 270 18:39 03.10.2019
861 Clear 24 1010 83 0 1.79 270 18:19 03.10.2019
862 Clear 24 1010 83 0 1.79 270 17:59 03.10.2019
863 Clear 24 1010 83 0 1.79 270 17:41 03.10.2019
864 Clouds 23 1010 94 10000 0.5 0 17:19 03.10.2019
865 Clouds 23 1010 94 10000 0.5 0 16:43 03.10.2019
866 Clouds 23 1010 94 10000 0.5 0 16:25 03.10.2019
867 Clouds 24 1010 83 10000 3.1 260 15:56 03.10.2019
868 Clouds 24 1010 83 10000 3.1 260 15:38 03.10.2019
869 Clouds 24 1010 83 10000 3.1 260 15:38 03.10.2019
870 Clouds 24 1010 83 10000 3.1 260 15:19 03.10.2019
871 Clouds 24 1010 83 10000 2.1 270 14:45 03.10.2019
872 Clouds 24 1010 83 10000 2.1 270 14:26 03.10.2019
873 Clouds 25 1010 83 10000 2.1 260 13:57 03.10.2019
874 Clouds 25 1010 83 10000 2.1 260 13:39 03.10.2019
875 Clouds 25 1010 83 10000 2.1 260 13:19 03.10.2019
876 Clouds 25 1009 78 10000 2.6 260 12:55 03.10.2019
877 Clouds 25 1009 78 10000 2.6 260 12:36 03.10.2019
878 Clouds 25 1009 78 10000 2.6 260 12:18 03.10.2019
879 Clouds 25 1009 78 10000 3.6 270 11:41 03.10.2019
880 Clouds 25 1009 78 10000 3.6 270 11:22 03.10.2019
881 Clouds 25 1008 78 10000 4.6 270 10:58 03.10.2019
882 Clouds 25 1008 78 10000 4.6 270 10:58 03.10.2019
883 Clouds 25 1008 78 10000 4.6 270 10:39 03.10.2019
884 Clouds 25 1008 78 10000 4.6 270 10:18 03.10.2019
885 Rain 25 1008 83 10000 4.6 270 09:57 03.10.2019
886 Rain 25 1008 83 10000 4.6 270 09:38 03.10.2019
887 Rain 26 1008 83 10000 4.6 270 09:19 03.10.2019
888 Rain 26 1007 78 10000 6.7 270 08:43 03.10.2019
889 Rain 26 1007 78 10000 6.7 270 08:25 03.10.2019
890 Rain 25 1007 88 10000 5.7 240 07:56 03.10.2019
891 Rain 25 1007 88 10000 5.7 240 07:37 03.10.2019
892 Rain 25 1007 88 10000 5.7 240 07:37 03.10.2019
893 Rain 25 1007 88 10000 5.7 240 07:19 03.10.2019
894 Rain 27 1007 78 10000 8.2 240 06:35 03.10.2019
895 Clouds 27 1008 78 10000 8.2 240 05:55 03.10.2019
896 Clouds 27 1008 78 10000 8.2 240 05:37 03.10.2019
897 Rain 26 1008 78 10000 9.3 240 04:48 03.10.2019
898 Rain 26 1008 78 10000 9.3 240 04:24 03.10.2019
899 Rain 27 1008 74 10000 8.7 230 03:20 03.10.2019
900 Clouds 27 1007 74 10000 8.7 220 02:33 03.10.2019
901 Clouds 26 1007 78 10000 8.2 230 01:42 03.10.2019
902 Clouds 26 1007 78 10000 8.2 230 01:20 03.10.2019
903 Clouds 25 1007 83 10000 10.3 230 00:41 03.10.2019
904 Rain 25 1007 83 10000 8.7 220 23:58 02.10.2019
905 Rain 25 1007 83 10000 8.7 220 23:38 02.10.2019
906 Rain 25 1007 83 10000 8.7 220 23:38 02.10.2019
907 Clouds 25 1007 88 10000 6.2 220 23:19 02.10.2019
908 Rain 26 1010 88 0 8.94 180 22:42 02.10.2019
909 Rain 26 1010 88 0 8.94 180 22:20 02.10.2019
910 Rain 26 1010 88 0 8.94 180 21:55 02.10.2019
911 Rain 26 1010 88 0 8.94 180 21:55 02.10.2019
912 Rain 26 1010 88 0 8.94 180 21:37 02.10.2019
913 Rain 26 1010 88 0 8.94 180 21:19 02.10.2019
914 Rain 26 1010 88 0 8.94 180 20:55 02.10.2019
915 Rain 26 1010 88 0 8.94 180 20:37 02.10.2019
916 Rain 26 1010 88 0 8.94 180 20:19 02.10.2019
917 Rain 26 1010 88 0 8.94 180 19:45 02.10.2019
918 Rain 26 1010 88 0 8.94 180 19:45 02.10.2019
919 Rain 26 1010 88 0 8.94 180 19:45 02.10.2019
920 Rain 26 1010 88 0 8.94 180 19:23 02.10.2019
921 Rain 26 1010 88 0 8.94 180 18:59 02.10.2019
922 Rain 26 1010 88 0 8.94 180 18:40 02.10.2019
923 Rain 26 1010 88 0 8.94 180 18:21 02.10.2019
924 Rain 25 1008 85 0 15.73 192.673 17:58 02.10.2019
925 Rain 25 1008 85 0 15.73 192.673 17:39 02.10.2019
926 Rain 25 1008 85 0 15.73 192.673 17:39 02.10.2019
927 Clouds 26 1007 88 10000 9.8 150 17:20 02.10.2019
928 Clouds 26 1007 88 10000 9.8 150 16:57 02.10.2019
929 Clouds 26 1007 88 10000 9.8 150 16:37 02.10.2019
930 Rain 26 1008 88 10000 9.8 160 16:18 02.10.2019
931 Rain 26 1008 88 10000 9.8 160 15:55 02.10.2019
932 Rain 26 1008 88 10000 9.8 160 15:36 02.10.2019
933 Rain 26 1008 88 10000 9.8 160 15:18 02.10.2019
934 Rain 26 1008 88 7000 12.9 170 14:43 02.10.2019
935 Rain 26 1008 88 7000 12.9 170 14:22 02.10.2019
936 Rain 25 1008 94 5000 9.3 160 13:48 02.10.2019
937 Rain 26 1008 94 10000 9.8 150 13:29 02.10.2019
938 Rain 25 1009 94 10000 7.2 160 12:59 02.10.2019
939 Rain 25 1008 94 10000 8.7 130 12:39 02.10.2019
940 Rain 25 1008 94 10000 8.7 130 12:39 02.10.2019
941 Rain 25 1008 94 10000 8.7 130 12:21 02.10.2019
942 Rain 25 1009 94 10000 9.3 130 11:45 02.10.2019
943 Rain 26 1009 94 10000 9.3 130 11:23 02.10.2019
944 -273 0 0 0 0 0 10:55 02.10.2019
945 Rain 26 1009 88 10000 10.8 130 10:36 02.10.2019
946 Rain 26 1009 88 10000 10.8 130 10:18 02.10.2019
947 Rain 26 1009 88 10000 7.7 140 09:38 02.10.2019
948 Rain 26 1009 88 10000 7.7 140 09:20 02.10.2019
949 Rain 27 1010 88 10000 5.1 140 08:46 02.10.2019
950 Rain 27 1010 88 10000 5.1 140 08:25 02.10.2019
951 Rain 27 1010 88 6000 6.7 140 07:59 02.10.2019
952 Rain 28 1010 78 10000 9.8 150 07:39 02.10.2019
953 Clouds 29 1011 62 10000 10.3 150 07:20 02.10.2019
954 Clouds 30 1011 62 10000 10.3 150 06:40 02.10.2019
955 Rain 29 1011 66 10000 8.7 150 05:55 02.10.2019
956 Rain 29 1011 66 10000 8.7 150 05:55 02.10.2019
957 Rain 28 1011 66 10000 8.7 150 05:24 02.10.2019
958 Clouds 28 1012 66 10000 8.7 130 04:53 02.10.2019
959 Clouds 27 1013 83 10000 4.6 150 03:52 02.10.2019
960 Rain 26 1013 88 10000 5.7 150 02:41 02.10.2019
961 Rain 26 1013 88 10000 5.7 150 02:23 02.10.2019
962 Clouds 25 1013 88 10000 3.6 160 01:24 02.10.2019
963 Clouds 25 1013 88 10000 4.1 160 00:49 02.10.2019
964 Clouds 25 1013 88 10000 4.1 160 00:25 02.10.2019
965 Clouds 24 1014 88 10000 6.7 150 23:43 01.10.2019
966 Clouds 24 1014 88 10000 6.7 150 23:25 01.10.2019
967 Rain 25 1016 83 0 1.79 160 22:59 01.10.2019
968 Rain 25 1016 83 0 1.79 160 22:39 01.10.2019
969 Rain 25 1016 83 0 1.79 160 22:19 01.10.2019
970 Rain 25 1016 83 0 1.79 160 21:56 01.10.2019
971 Rain 25 1016 83 0 1.79 160 21:37 01.10.2019
972 Rain 25 1016 83 0 1.79 160 21:19 01.10.2019
973 Rain 25 1016 83 0 1.79 160 20:55 01.10.2019
974 Rain 25 1016 83 0 1.79 160 20:36 01.10.2019
975 Rain 25 1016 83 0 1.79 160 20:18 01.10.2019
976 Rain 25 1016 83 0 1.79 160 19:44 01.10.2019
977 Rain 25 1016 83 0 1.79 160 19:26 01.10.2019
978 Rain 25 1016 83 0 1.79 160 18:59 01.10.2019
979 Rain 25 1016 83 0 1.79 160 18:39 01.10.2019
980 Rain 25 1016 83 0 1.79 160 18:39 01.10.2019
981 Rain 25 1016 83 0 1.79 160 18:39 01.10.2019
982 Clouds 25 1016 83 0 1.79 160 18:21 01.10.2019
983 Clouds 25 1015 83 0 2.68 116.316 17:55 01.10.2019
984 Clouds 25 1015 83 0 2.68 116.316 17:37 01.10.2019
985 Clouds 23 1016 94 6000 1.5 340 17:18 01.10.2019
986 Clouds 24 1016 94 6000 1.5 340 16:54 01.10.2019
987 Clouds 24 1016 94 6000 1.5 340 16:36 01.10.2019
988 Clouds 24 1016 94 6000 1.5 340 16:18 01.10.2019
989 Clouds 24 1016 94 6000 1 340 15:42 01.10.2019
990 Clouds 24 1016 94 6000 1 340 15:21 01.10.2019
991 Clear 25 1016 83 10000 2.1 160 14:41 01.10.2019
992 Clear 25 1016 83 10000 2.1 160 14:20 01.10.2019
993 Clear 25 1016 88 10000 1.5 150 13:57 01.10.2019
994 Clear 25 1016 88 10000 1.5 150 13:38 01.10.2019
995 Clear 25 1016 88 10000 1.5 150 13:19 01.10.2019
996 Clear 25 1016 88 10000 1.5 150 12:56 01.10.2019
997 Clear 25 1016 88 10000 1.5 150 12:38 01.10.2019
998 Clear 25 1016 88 10000 1.5 150 12:18 01.10.2019
999 Clouds 25 1016 88 10000 1.5 220 11:57 01.10.2019
1000 Clouds 25 1016 88 10000 1.5 220 11:37 01.10.2019
1001 Clouds 25 1016 88 10000 1.5 220 11:18 01.10.2019
1002 Clouds 26 1016 78 10000 1 300 10:48 01.10.2019
1003 Clouds 26 1016 78 10000 1 300 10:28 01.10.2019
1004 Clouds 26 1016 78 10000 1 0 09:46 01.10.2019
1005 Clouds 26 1016 78 10000 1 0 09:26 01.10.2019
1006 Clouds 26 1017 83 10000 1 0 08:46 01.10.2019
1007 Clouds 26 1017 83 10000 1 0 08:27 01.10.2019
1008 Clear 26 1017 83 10000 1 0 07:58 01.10.2019
1009 Clear 26 1017 83 10000 1 0 07:40 01.10.2019
1010 Clear 26 1017 83 10000 1 0 07:20 01.10.2019
1011 Clear 26 1017 83 10000 0.5 0 06:42 01.10.2019
1012 Clear 26 1017 83 10000 0.5 0 06:18 01.10.2019
1013 Clear 26 1017 83 10000 1 0 05:44 01.10.2019
1014 Clear 26 1017 83 10000 1 0 05:44 01.10.2019
1015 Clear 25 1018 83 10000 1 0 04:42 01.10.2019
1016 Clear 25 1018 83 10000 0.5 0 03:46 01.10.2019
1017 Clouds 24 1018 88 10000 1.5 130 02:20 01.10.2019
1018 Clouds 23 1017 94 10000 1 0 01:56 01.10.2019
1019 Clouds 23 1017 94 10000 1 0 01:56 01.10.2019
1020 Clouds 23 1016 94 10000 1.5 100 00:46 01.10.2019
1021 Clouds 23 1016 94 10000 1.5 100 00:25 01.10.2019
1022 Clouds 22 1016 94 10000 2.1 120 23:42 30.09.2019
1023 Clouds 22 1016 94 10000 2.1 120 23:23 30.09.2019
1024 Clouds 23 1017 94 0 1.79 40 22:58 30.09.2019
1025 Clouds 23 1017 94 0 1.79 40 22:40 30.09.2019
1026 Clouds 23 1017 94 0 1.79 40 22:21 30.09.2019
1027 Clouds 23 1017 94 0 1.79 40 21:55 30.09.2019
1028 Clouds 23 1017 94 0 1.79 40 21:37 30.09.2019
1029 Clouds 23 1017 94 0 1.79 40 21:19 30.09.2019
1030 Clouds 23 1017 94 0 1.79 40 20:55 30.09.2019
1031 Clouds 23 1017 94 0 1.79 40 20:37 30.09.2019
1032 Clouds 23 1017 94 0 1.79 40 20:19 30.09.2019
1033 Clouds 23 1017 94 0 1.79 40 20:19 30.09.2019
1034 Clouds 24 1016 80 0 3.54 32.639 19:55 30.09.2019
1035 Clouds 24 1016 80 0 3.54 32.639 19:37 30.09.2019
1036 Clouds 24 1016 80 0 3.54 32.639 19:18 30.09.2019
1037 Clouds 24 1016 80 0 3.54 32.639 18:41 30.09.2019
1038 Clouds 23 1017 94 0 1.79 40 18:21 30.09.2019
1039 Clouds 23 1017 94 0 1.79 40 17:57 30.09.2019
1040 Clouds 23 1017 94 0 1.79 40 17:39 30.09.2019
1041 Clouds 22 1017 100 10000 1.5 300 17:20 30.09.2019
1042 -273 0 0 0 0 0 16:54 30.09.2019
1043 Clouds 22 1017 100 10000 1.5 300 16:36 30.09.2019
1044 Clouds 22 1017 100 10000 1.5 300 16:18 30.09.2019
1045 Clear 22 1017 100 10000 1.5 330 15:39 30.09.2019
1046 Clear 22 1017 100 10000 1.5 330 15:39 30.09.2019
1047 Clear 23 1017 100 10000 1.5 330 15:20 30.09.2019
1048 Clouds 23 1017 94 10000 2.1 40 14:59 30.09.2019
1049 Clouds 23 1017 94 10000 2.1 40 14:38 30.09.2019
1050 Clouds 23 1017 94 10000 2.1 40 14:19 30.09.2019
1051 Clouds 24 1017 94 10000 3.1 160 13:59 30.09.2019
1052 Clouds 24 1017 94 10000 3.1 160 13:41 30.09.2019
1053 Clouds 24 1017 94 10000 3.1 160 13:22 30.09.2019
1054 Clear 24 1016 94 10000 3.1 110 12:55 30.09.2019
1055 Clear 24 1016 94 10000 3.1 110 12:55 30.09.2019
1056 Clear 24 1016 94 10000 3.1 110 12:55 30.09.2019
1057 Clear 24 1016 94 10000 3.1 110 12:55 30.09.2019
1058 Clear 24 1016 94 10000 3.1 110 12:36 30.09.2019
1059 Clouds 24 1016 88 10000 2.6 330 12:18 30.09.2019
1060 Clouds 24 1016 88 10000 2.6 330 11:43 30.09.2019
1061 Clouds 24 1016 88 10000 2.6 330 11:21 30.09.2019
1062 Clouds 26 1015 83 10000 3.6 320 10:57 30.09.2019
1063 Clouds 26 1015 83 10000 3.6 320 10:38 30.09.2019
1064 Clouds 26 1015 83 10000 3.6 320 10:18 30.09.2019
1065 Clouds 26 1015 83 10000 3.6 320 10:18 30.09.2019
1066 Clouds 26 1015 88 10000 0.5 0 09:55 30.09.2019
1067 Clouds 26 1015 88 10000 0.5 0 09:36 30.09.2019
1068 Clouds 26 1015 88 10000 0.5 0 09:18 30.09.2019
1069 Clouds 25 1015 94 10000 3.6 170 08:45 30.09.2019
1070 Rain 25 1015 94 10000 3.6 170 08:27 30.09.2019
1071 Rain 24 1016 94 10000 3.1 160 07:40 30.09.2019
1072 Rain 25 1017 94 6000 2.1 0 07:19 30.09.2019
1073 Rain 25 1017 83 10000 2.1 20 06:47 30.09.2019
1074 Rain 25 1017 83 10000 2.1 20 06:27 30.09.2019
1075 Rain 25 1018 88 6000 5.7 320 05:41 30.09.2019
1076 Clouds 26 1016 83 10000 1 0 02:54 30.09.2019
1077 Clouds 26 1016 83 10000 1 0 02:36 30.09.2019
1078 Clouds 25 1016 94 10000 1 120 01:31 30.09.2019
1079 Clouds 23 1015 100 10000 0.5 0 00:38 30.09.2019
1080 Clouds 23 1015 100 10000 0.5 0 00:19 30.09.2019
1081 Mist 23 1016 100 10000 2.1 40 23:42 29.09.2019
1082 Mist 23 1016 100 10000 2.1 40 23:21 29.09.2019
1083 Clouds 24 1015 100 0 2.04 77.054 22:55 29.09.2019
1084 Clouds 24 1016 100 0 2.04 77.054 22:36 29.09.2019
1085 Clouds 24 1016 100 0 2.04 77.054 22:36 29.09.2019
1086 Clouds 24 1016 100 0 2.04 77.054 22:18 29.09.2019
1087 Clouds 24 1015 100 0 2.04 77.054 21:55 29.09.2019
1088 Clouds 24 1015 100 0 2.04 77.054 21:36 29.09.2019
1089 Clouds 24 1015 100 0 1.48 22.626 21:18 29.09.2019
1090 Clouds 24 1015 100 0 1.48 22.626 20:43 29.09.2019
1091 Rain 24 1015 100 0 1.65 101.991 20:19 29.09.2019
1092 Rain 24 1015 100 0 1.65 101.991 19:57 29.09.2019
1093 Rain 24 1016 100 0 1.65 101.991 19:37 29.09.2019
1094 Rain 24 1016 100 0 1.65 101.991 19:18 29.09.2019
1095 Rain 24 1015 100 0 1.65 101.991 18:55 29.09.2019
1096 Rain 24 1015 100 0 1.65 101.991 18:37 29.09.2019
1097 Rain 24 1015 100 0 1.95 82.62 18:18 29.09.2019
1098 Rain 24 1015 100 0 1.95 82.62 17:55 29.09.2019
1099 Rain 24 1015 100 0 1.95 82.62 17:55 29.09.2019
1100 Rain 24 1015 100 0 1.95 82.62 17:55 29.09.2019
1101 Rain 24 1015 100 0 1.95 82.62 17:55 29.09.2019
1102 Rain 24 1015 100 0 1.95 82.62 17:37 29.09.2019
1103 Clouds 23 1015 100 7000 1 20 17:19 29.09.2019
1104 Clouds 23 1015 100 7000 1 20 16:55 29.09.2019
1105 Clouds 23 1015 100 7000 1 20 16:37 29.09.2019
1106 Clouds 23 1015 100 7000 1 20 16:18 29.09.2019
1107 Clouds 24 1015 94 8000 0.5 290 15:41 29.09.2019
1108 Clouds 24 1015 94 8000 0.5 290 15:19 29.09.2019
1109 Clouds 24 1015 100 10000 0.5 0 14:59 29.09.2019
1110 Clouds 24 1015 100 10000 0.5 0 14:39 29.09.2019
1111 Clouds 24 1015 100 10000 0.5 0 14:20 29.09.2019
1112 Clouds 24 1015 100 10000 2.1 30 13:57 29.09.2019
1113 Clouds 24 1015 100 10000 2.1 30 13:39 29.09.2019
1114 Clouds 24 1015 100 10000 2.1 30 13:18 29.09.2019
1115 Clouds 24 1015 100 10000 3.81 133.501 12:57 29.09.2019
1116 Clouds 24 1015 100 10000 3.81 133.501 12:38 29.09.2019
1117 Clouds 24 1015 100 10000 2.7 84.629 12:20 29.09.2019
1118 Rain 25 1014 94 10000 1.5 260 11:55 29.09.2019
1119 Rain 25 1014 94 10000 1.5 260 11:36 29.09.2019
1120 Rain 25 1014 94 10000 1.5 260 11:18 29.09.2019
1121 Rain 25 1013 100 10000 1.5 120 10:55 29.09.2019
1122 Rain 25 1013 100 10000 1.5 120 10:36 29.09.2019
1123 Rain 25 1014 94 10000 2.6 120 10:18 29.09.2019
1124 Rain 25 1014 94 10000 2.6 120 09:42 29.09.2019
1125 Rain 25 1014 94 10000 2.6 120 09:20 29.09.2019
1126 Rain 25 1014 94 10000 4.1 110 08:43 29.09.2019
1127 Rain 25 1014 94 10000 4.1 110 08:22 29.09.2019
1128 Rain 25 1014 94 10000 1.5 140 07:46 29.09.2019
1129 Rain 25 1014 94 10000 1.5 140 07:27 29.09.2019
1130 Rain 25 1015 100 10000 3.6 320 06:57 29.09.2019
1131 Rain 25 1015 100 10000 3.6 320 06:34 29.09.2019
1132 Rain 26 1016 88 10000 2.6 120 04:54 29.09.2019
1133 Rain 26 1016 88 10000 2.6 120 04:24 29.09.2019
1134 Clouds 26 1016 88 10000 2.1 180 03:42 29.09.2019
1135 Clouds 26 1015 88 10000 1 170 02:28 29.09.2019
1136 Clouds 25 1016 94 10000 3.1 140 01:46 29.09.2019
1137 Clouds 25 1016 94 10000 3.1 140 01:23 29.09.2019
1138 Clouds 24 1015 94 10000 0.5 0 00:41 29.09.2019
1139 Clouds 24 1015 94 10000 0.5 0 00:19 29.09.2019
1140 Clouds 23 1016 94 10000 0.5 0 23:40 28.09.2019
1141 Clouds 24 1016 94 10000 0.5 0 23:21 28.09.2019
1142 Rain 27 1016 88 0 1.79 180 22:42 28.09.2019
1143 Rain 27 1018 88 0 1.79 180 22:23 28.09.2019
1144 Rain 27 1016 88 0 1.79 180 21:59 28.09.2019
1145 Rain 27 1016 88 0 1.79 180 21:40 28.09.2019
1146 Rain 27 1016 88 0 1.79 180 21:22 28.09.2019
1147 Rain 27 1016 88 0 1.79 180 20:59 28.09.2019
1148 Clouds 27 1016 88 0 1.79 180 20:41 28.09.2019
1149 Clouds 27 1018 88 0 1.79 180 20:21 28.09.2019
1150 Clouds 27 1018 88 0 1.79 180 19:58 28.09.2019
1151 Clouds 27 1018 88 0 1.79 180 19:39 28.09.2019
1152 Clouds 27 1018 88 0 1.79 180 19:21 28.09.2019
1153 Clouds 27 1016 88 0 1.79 180 18:58 28.09.2019
1154 Clouds 27 1016 88 0 1.79 180 18:40 28.09.2019
1155 Clouds 27 1018 88 0 1.79 180 18:21 28.09.2019
1156 Clouds 27 1018 88 0 1.79 180 17:57 28.09.2019
1157 Clouds 27 1018 88 0 1.79 180 17:38 28.09.2019
1158 Clouds 25 1016 100 10000 0.5 20 17:20 28.09.2019
1159 Clouds 25 1016 100 10000 0.5 20 16:45 28.09.2019
1160 Clouds 25 1016 100 10000 0.5 20 16:27 28.09.2019
1161 Clouds 26 1017 94 10000 1.5 40 15:42 28.09.2019
1162 Clouds 26 1017 94 10000 1.5 40 15:24 28.09.2019
1163 Clouds 26 1016 88 10000 2.1 180 14:58 28.09.2019
1164 Clouds 26 1016 88 10000 2.1 180 14:40 28.09.2019
1165 Clouds 26 1016 88 10000 2.1 180 14:21 28.09.2019
1166 Clouds 26 1016 83 10000 2.1 140 13:58 28.09.2019
1167 Clouds 26 1016 83 10000 2.1 140 13:38 28.09.2019
1168 Clouds 26 1016 83 10000 2.1 140 13:20 28.09.2019
1169 Thunderstorm 26 1015 78 10000 4.1 320 12:45 28.09.2019
1170 Thunderstorm 26 1015 78 10000 4.1 320 12:20 28.09.2019
1171 Rain 27 1016 88 10000 3.6 350 11:59 28.09.2019
1172 Rain 27 1015 74 10000 4.6 320 11:39 28.09.2019
1173 Rain 27 1015 74 10000 4.6 320 11:19 28.09.2019
1174 Rain 28 1015 78 10000 4.6 340 10:43 28.09.2019
1175 Rain 28 1015 78 10000 4.6 340 10:21 28.09.2019
1176 Thunderstorm 32 1014 58 10000 2.1 280 09:58 28.09.2019
1177 Thunderstorm 32 1014 58 10000 2.1 280 09:40 28.09.2019
1178 Thunderstorm 32 1014 58 10000 2.1 280 09:40 28.09.2019
1179 Thunderstorm 31 1014 58 10000 2.1 280 09:18 28.09.2019
1180 Clouds 32 1014 59 10000 2.6 270 08:46 28.09.2019
1181 Clouds 32 1014 59 10000 2.6 270 08:28 28.09.2019
1182 Clouds 32 1015 59 10000 3.1 360 07:46 28.09.2019
1183 Clouds 32 1015 59 10000 3.1 360 07:24 28.09.2019
1184 Clouds 32 1015 59 10000 3.1 340 06:56 28.09.2019
1185 Clouds 31 1015 59 10000 3.1 340 06:32 28.09.2019
1186 Clouds 32 1016 62 10000 2.6 0 05:57 28.09.2019
1187 Clouds 32 1016 62 10000 2.6 0 05:24 28.09.2019
1188 Clouds 30 1017 66 10000 3.6 330 04:41 28.09.2019
1189 Clouds 30 1017 70 10000 2.1 0 03:59 28.09.2019
1190 Clouds 30 1017 70 10000 2.1 0 03:25 28.09.2019
1191 Clouds 28 1017 74 10000 4.6 150 02:57 28.09.2019
1192 Clouds 28 1017 74 10000 4.6 150 02:35 28.09.2019
1193 Clouds 26 1017 88 10000 4.1 150 01:51 28.09.2019
1194 Clouds 26 1017 88 10000 4.1 150 01:51 28.09.2019
1195 Clouds 26 1017 88 10000 4.1 150 01:27 28.09.2019
1196 Clouds 25 1018 94 10000 2.6 160 00:58 28.09.2019
1197 Clouds 25 1018 94 10000 2.6 160 00:38 28.09.2019
1198 Clouds 25 1018 94 10000 2.6 160 00:18 28.09.2019
1199 Clouds 24 1019 94 10000 1 0 23:38 27.09.2019
1200 Clouds 24 1019 94 10000 1 0 23:38 27.09.2019
1201 Clouds 24 1019 94 10000 1 0 23:19 27.09.2019
1202 Clouds 26 1019 88 0 1.79 180 22:47 27.09.2019
1203 Clouds 26 1021 88 0 1.79 180 22:20 27.09.2019
1204 Clouds 26 1019 88 0 1.79 180 21:58 27.09.2019
1205 Clouds 26 1019 88 0 1.79 180 21:39 27.09.2019
1206 Clouds 26 1021 88 0 1.79 180 21:20 27.09.2019
1207 Clouds 26 1019 88 0 1.79 180 20:58 27.09.2019
1208 Rain 26 1019 88 0 1.79 180 20:39 27.09.2019
1209 Rain 26 1021 88 0 1.79 180 20:19 27.09.2019
1210 Rain 26 1019 88 0 1.79 180 19:57 27.09.2019
1211 Rain 26 1019 88 0 1.79 180 19:57 27.09.2019
1212 Rain 26 1021 88 0 1.79 180 19:37 27.09.2019
1213 Rain 26 1021 88 0 1.79 180 19:18 27.09.2019
1214 Rain 26 1019 88 0 1.79 180 18:41 27.09.2019
1215 Rain 26 1019 88 0 1.79 180 18:22 27.09.2019
1216 Rain 26 1019 88 0 1.79 180 18:22 27.09.2019
1217 Rain 26 1019 88 0 1.79 180 17:56 27.09.2019
1218 Rain 26 1021 88 0 1.79 180 17:37 27.09.2019
1219 Clear 25 1019 88 10000 1.5 30 17:18 27.09.2019
1220 Clear 25 1019 88 10000 1.5 30 16:57 27.09.2019
1221 Clear 25 1019 88 10000 1.5 30 16:56 27.09.2019
1222 Clear 25 1019 88 10000 1.5 30 16:37 27.09.2019
1223 Clear 25 1019 88 10000 1.5 30 16:37 27.09.2019
1224 Clear 25 1019 88 10000 1.5 30 16:18 27.09.2019
1225 Clouds 25 1019 88 10000 2.1 20 15:44 27.09.2019
1226 Clouds 25 1019 88 10000 2.1 20 15:20 27.09.2019
1227 Clouds 26 1019 88 10000 2.1 180 14:57 27.09.2019
1228 Clouds 26 1019 88 10000 2.1 180 14:39 27.09.2019
1229 Clouds 26 1019 88 10000 2.1 180 14:20 27.09.2019
1230 Clouds 26 1019 88 10000 2.1 170 13:57 27.09.2019
1231 Clouds 26 1019 88 10000 2.1 170 13:38 27.09.2019
1232 Clouds 26 1019 88 10000 2.1 170 13:19 27.09.2019
1233 Clouds 26 1018 88 10000 2.1 310 12:51 27.09.2019
1234 Clouds 26 1018 88 10000 2.1 310 12:22 27.09.2019
1235 Clouds 27 1018 78 10000 3.1 330 11:57 27.09.2019
1236 Clouds 27 1018 78 10000 3.1 330 11:37 27.09.2019
1237 Clouds 27 1018 78 10000 3.1 330 11:19 27.09.2019
1238 Thunderstorm 28 1018 74 10000 3.1 340 10:42 27.09.2019
1239 Thunderstorm 28 1018 74 10000 3.1 340 10:21 27.09.2019
1240 Clouds 31 1018 70 10000 2.6 290 09:56 27.09.2019
1241 Clouds 31 1018 70 10000 2.6 290 09:56 27.09.2019
1242 Clouds 31 1018 70 10000 2.6 290 09:37 27.09.2019
1243 Clouds 30 1018 70 10000 2.6 290 09:18 27.09.2019
1244 Clouds 30 1018 66 10000 2.6 270 08:41 27.09.2019
1245 Clouds 31 1018 66 10000 2.6 270 08:20 27.09.2019
1246 Clouds 32 1019 59 10000 2.6 350 07:49 27.09.2019
1247 Clouds 31 1019 62 10000 3.1 340 07:24 27.09.2019
1248 Clouds 30 1019 66 10000 3.6 330 06:46 27.09.2019
1249 Clouds 30 1019 66 10000 3.6 330 06:27 27.09.2019
1250 Clouds 29 1020 74 10000 4.6 360 05:52 27.09.2019
1251 Clouds 29 1020 74 10000 4.6 360 05:33 27.09.2019
1252 Clouds 28 1021 74 10000 2.6 10 03:59 27.09.2019
1253 Clouds 28 1021 74 10000 2.6 10 03:37 27.09.2019
1254 Clouds 25 1021 83 10000 0.5 0 01:53 27.09.2019
1255 Clouds 25 1021 83 10000 0.5 0 01:28 27.09.2019
1256 Clouds 23 1020 100 10000 0.5 60 00:34 27.09.2019
1257 Clouds 23 1021 94 10000 0.5 150 23:57 26.09.2019
1258 Clouds 23 1021 94 10000 0.5 150 23:38 26.09.2019
1259 Clouds 23 1021 94 10000 0.5 150 23:19 26.09.2019
1260 Rain 24 1021 88 0 2.24 150 22:57 26.09.2019
1261 Rain 24 1021 82 0 3.21 46.579 22:39 26.09.2019
1262 Rain 24 1021 82 0 3.21 46.579 22:18 26.09.2019
1263 Rain 24 1021 82 0 3.21 46.579 21:57 26.09.2019
1264 Rain 24 1021 88 0 2.24 150 21:37 26.09.2019
1265 Rain 24 1021 88 0 2.24 150 21:19 26.09.2019
1266 Rain 24 1021 88 0 2.24 150 21:19 26.09.2019
1267 Rain 24 1021 88 0 2.24 150 20:58 26.09.2019
1268 Rain 24 1021 88 0 2.24 150 20:39 26.09.2019
1269 Rain 24 1021 88 0 2.24 150 20:21 26.09.2019
1270 Rain 24 1021 88 0 2.24 150 19:41 26.09.2019
1271 Rain 24 1021 88 0 2.24 150 19:21 26.09.2019
1272 Rain 24 1021 88 0 2.24 150 18:59 26.09.2019
1273 Rain 24 1021 88 0 2.24 150 18:41 26.09.2019
1274 Clouds 24 1021 88 0 2.24 150 18:22 26.09.2019
1275 Clouds 24 1021 88 0 2.24 150 17:58 26.09.2019
1276 Clouds 24 1021 88 0 2.24 150 17:37 26.09.2019
1277 Clouds 23 1022 88 10000 1.5 10 17:18 26.09.2019
1278 -273 0 0 0 0 0 16:55 26.09.2019
1279 Clouds 24 1022 88 10000 1.5 10 16:36 26.09.2019
1280 Clouds 23 1022 88 10000 1.5 10 16:18 26.09.2019
1281 Clouds 23 1022 88 10000 2.1 30 15:40 26.09.2019
1282 Clouds 24 1022 88 10000 2.1 30 15:22 26.09.2019
1283 Clouds 24 1022 88 10000 2.1 30 15:22 26.09.2019
1284 Clouds 24 1021 88 10000 2.6 150 14:58 26.09.2019
1285 Clouds 24 1021 88 10000 2.6 150 14:39 26.09.2019
1286 Clouds 24 1021 88 10000 2.6 150 14:20 26.09.2019
1287 Clouds 25 1021 88 10000 2.6 190 13:55 26.09.2019
1288 Clouds 25 1021 88 10000 2.6 190 13:36 26.09.2019
1289 Clouds 25 1020 83 10000 1 170 13:18 26.09.2019
1290 Clouds 25 1020 83 10000 1 170 12:41 26.09.2019
1291 Clouds 25 1020 78 10000 1 220 12:21 26.09.2019
1292 Clouds 26 1020 78 10000 1 220 11:55 26.09.2019
1293 Clouds 26 1020 78 10000 1 220 11:55 26.09.2019
1294 Clouds 26 1020 78 10000 1 220 11:36 26.09.2019
1295 Clouds 26 1020 78 10000 1 220 11:18 26.09.2019
1296 Clouds 27 1020 69 10000 1.5 250 10:42 26.09.2019
1297 Clouds 26 1020 69 10000 1.5 250 10:23 26.09.2019
1298 Clouds 26 1020 74 10000 2.1 320 09:45 26.09.2019
1299 Clouds 27 1020 74 10000 2.1 320 09:27 26.09.2019
1300 Clouds 27 1020 74 10000 2.1 320 09:27 26.09.2019
1301 Clouds 27 1020 74 10000 3.1 330 08:59 26.09.2019
1302 Clouds 27 1020 74 10000 3.1 330 08:41 26.09.2019
1303 Clouds 27 1020 74 10000 3.1 330 08:23 26.09.2019
1304 Clouds 27 1020 74 10000 2.1 0 07:44 26.09.2019
1305 Clouds 26 1020 73 10000 1 0 07:22 26.09.2019
1306 Clouds 26 1020 73 10000 1 0 06:50 26.09.2019
1307 Clouds 26 1020 73 10000 1 0 06:28 26.09.2019
1308 Rain 24 1021 73 10000 3.6 360 05:51 26.09.2019
1309 Rain 24 1021 73 10000 3.6 360 05:25 26.09.2019
1310 Clouds 24 1021 78 10000 1 0 03:18 26.09.2019
1311 Clear 22 1020 88 10000 1 0 01:55 26.09.2019
1312 Clear 22 1020 88 10000 1 0 01:55 26.09.2019
1313 Clear 22 1020 88 10000 1 0 01:32 26.09.2019
1314 Clouds 21 1020 88 10000 1 0 00:58 26.09.2019
1315 Clouds 21 1020 88 10000 1 0 00:38 26.09.2019
1316 Clouds 21 1020 88 10000 1 0 00:20 26.09.2019
1317 Clouds 21 1020 88 10000 1.5 100 23:42 25.09.2019
1318 Clouds 21 1020 88 10000 1.5 100 23:19 25.09.2019
1319 Clouds 23 1019 83 0 1.79 150 22:43 25.09.2019
1320 Clouds 23 1019 83 0 1.79 150 22:22 25.09.2019
1321 Clouds 23 1019 83 0 1.79 150 21:58 25.09.2019
1322 Clouds 23 1019 83 0 1.79 150 21:40 25.09.2019
1323 Clouds 23 1019 83 0 1.79 150 21:19 25.09.2019
1324 Clouds 23 1019 83 0 1.79 150 20:59 25.09.2019
1325 Clear 23 1019 83 0 1.79 150 20:40 25.09.2019
1326 Clear 23 1019 83 0 1.79 150 20:22 25.09.2019
1327 Clear 23 1019 83 0 1.79 150 19:59 25.09.2019
1328 Clear 23 1019 83 0 1.79 150 19:38 25.09.2019
1329 Clear 23 1021 83 0 1.79 150 19:19 25.09.2019
1330 Clear 23 1021 83 0 1.79 150 18:56 25.09.2019
1331 Clear 23 1019 83 0 1.79 150 18:37 25.09.2019
1332 Clear 23 1019 83 0 1.79 150 18:18 25.09.2019
1333 Clear 23 1019 83 0 1.79 150 17:39 25.09.2019
1334 Clouds 21 1020 82 10000 2.6 10 17:20 25.09.2019
1335 Clouds 21 1020 82 10000 2.6 10 16:56 25.09.2019
1336 Clouds 21 1020 82 10000 2.6 10 16:36 25.09.2019
1337 Clouds 21 1020 82 10000 2.6 10 16:18 25.09.2019
1338 Clouds 21 1020 82 10000 2.6 360 15:42 25.09.2019
1339 Clouds 22 1020 82 10000 2.6 360 15:23 25.09.2019
1340 Clouds 22 1019 83 10000 2.1 150 14:57 25.09.2019
1341 Clouds 22 1019 83 10000 2.1 150 14:39 25.09.2019
1342 Clouds 22 1019 83 10000 2.1 150 14:21 25.09.2019
1343 Clouds 23 1019 83 10000 2.1 130 13:56 25.09.2019
1344 Clouds 23 1019 83 10000 2.1 130 13:56 25.09.2019
1345 Clouds 23 1019 83 10000 2.1 130 13:37 25.09.2019
1346 Clouds 23 1019 83 10000 2.1 130 13:19 25.09.2019
1347 Clouds 24 1018 73 10000 2.6 360 12:41 25.09.2019
1348 Clouds 24 1018 73 10000 2.6 360 12:23 25.09.2019
1349 Clouds 25 1018 69 10000 3.1 330 11:57 25.09.2019
1350 Clouds 25 1018 69 10000 3.1 330 11:38 25.09.2019
1351 Clouds 25 1018 69 10000 3.1 330 11:19 25.09.2019
1352 Clouds 27 1017 61 10000 2.1 290 10:43 25.09.2019
1353 Clouds 27 1017 61 10000 2.1 290 10:25 25.09.2019
1354 Clouds 28 1017 54 10000 3.1 330 09:58 25.09.2019
1355 Clouds 28 1017 54 10000 3.1 330 09:58 25.09.2019
1356 Clouds 28 1017 54 10000 3.1 330 09:37 25.09.2019
1357 Clouds 28 1017 54 10000 3.1 330 09:19 25.09.2019
1358 Clouds 28 1017 51 10000 2.1 0 08:44 25.09.2019
1359 Clouds 28 1017 51 10000 2.1 0 08:21 25.09.2019
1360 Clouds 28 1017 51 10000 2.1 0 08:21 25.09.2019
1361 Clouds 28 1017 48 10000 1 0 07:57 25.09.2019
1362 Clouds 28 1017 48 10000 1 0 07:38 25.09.2019
1363 Clouds 28 1017 48 10000 1 0 07:20 25.09.2019
1364 Clouds 27 1017 51 10000 0.5 0 06:43 25.09.2019
1365 Clouds 27 1017 51 10000 0.5 0 06:22 25.09.2019
1366 Clouds 26 1018 54 10000 2.6 360 05:31 25.09.2019
1367 Clouds 24 1018 60 10000 0.5 0 04:55 25.09.2019
1368 Clouds 21 1019 73 10000 0.5 0 02:19 25.09.2019
1369 Clouds 17 1018 88 10000 1.5 70 00:46 25.09.2019
1370 Clouds 17 1018 88 10000 1.5 70 00:26 25.09.2019
1371 Clouds 16 1018 93 10000 2.1 100 23:58 24.09.2019
1372 Clouds 16 1018 93 10000 2.1 100 23:39 24.09.2019
1373 Clouds 16 1018 93 10000 2.1 100 23:20 24.09.2019
1374 Clouds 21 1017 73 0 4.47 350 22:39 24.09.2019
1375 Clouds 21 1017 73 0 4.47 350 22:21 24.09.2019
1376 Clouds 21 1017 73 0 4.47 350 21:58 24.09.2019
1377 Clouds 21 1017 73 0 4.47 350 21:58 24.09.2019
1378 Clouds 21 1017 73 0 4.47 350 21:58 24.09.2019
1379 Clouds 21 1017 73 0 4.47 350 21:37 24.09.2019
1380 Clouds 21 1017 73 0 4.47 350 21:19 24.09.2019
1381 Clouds 21 1017 73 0 4.47 350 20:58 24.09.2019
1382 Clouds 21 1017 73 0 4.47 350 20:40 24.09.2019
1383 Clouds 21 1017 73 0 4.47 350 20:21 24.09.2019
1384 Clouds 21 1017 73 0 4.47 350 19:55 24.09.2019
1385 Clouds 21 1017 73 0 4.47 350 19:36 24.09.2019
1386 Clouds 21 1017 73 0 4.47 350 19:18 24.09.2019
1387 Clouds 21 1017 73 0 4.47 350 18:42 24.09.2019
1388 Clear 21 1017 73 0 4.47 350 18:22 24.09.2019
1389 Clear 21 1017 73 0 4.47 350 18:22 24.09.2019
1390 Clear 21 1017 73 0 4.47 350 17:58 24.09.2019
1391 Clear 21 1017 73 0 4.47 350 17:39 24.09.2019
1392 Clear 21 1017 73 0 4.47 350 17:39 24.09.2019
1393 Clouds 18 1018 88 10000 1.5 20 17:21 24.09.2019
1394 Clouds 19 1018 88 10000 1.5 20 16:59 24.09.2019
1395 Clouds 19 1018 88 10000 1.5 20 16:40 24.09.2019
1396 Clouds 19 1018 88 10000 1.5 20 16:19 24.09.2019
1397 Clouds 19 1018 88 10000 1.5 20 16:19 24.09.2019
1398 Clouds 19 1018 88 10000 1.5 10 15:42 24.09.2019
1399 Clouds 20 1018 88 10000 1.5 10 15:23 24.09.2019
1400 Clouds 20 1017 73 10000 4.6 350 14:45 24.09.2019
1401 Clouds 20 1017 73 10000 4.6 350 14:21 24.09.2019
1402 Clouds 20 1017 77 10000 6.2 360 13:59 24.09.2019
1403 Clouds 20 1017 77 10000 6.2 360 13:40 24.09.2019
1404 Clouds 20 1017 77 10000 6.2 360 13:21 24.09.2019
1405 Clouds 21 1016 73 10000 5.7 10 12:40 24.09.2019
1406 Clouds 21 1016 73 10000 5.7 10 12:21 24.09.2019
1407 Clouds 23 1015 69 10000 7.7 350 11:57 24.09.2019
1408 Clouds 23 1015 69 10000 7.7 350 11:39 24.09.2019
1409 Clouds 23 1015 69 10000 7.7 350 11:18 24.09.2019
1410 Clouds 24 1015 64 10000 8.7 360 10:39 24.09.2019
1411 Clouds 24 1015 64 10000 8.7 360 10:21 24.09.2019
1412 Clouds 25 1015 65 10000 8.7 330 09:56 24.09.2019
1413 Clouds 25 1015 65 10000 8.7 330 09:37 24.09.2019
1414 Clouds 25 1015 65 10000 8.7 330 09:18 24.09.2019
1415 Clouds 27 1014 61 10000 7.7 330 08:41 24.09.2019
1416 Clouds 27 1014 61 10000 7.7 330 08:41 24.09.2019
1417 Clouds 27 1014 61 10000 7.7 330 08:23 24.09.2019
1418 Clouds 27 1014 57 10000 6.7 330 07:58 24.09.2019
1419 Clouds 27 1014 57 10000 6.7 330 07:40 24.09.2019
1420 Clouds 27 1014 57 10000 6.7 330 07:22 24.09.2019
1421 Clouds 26 1015 57 10000 6.7 320 06:40 24.09.2019
1422 Clouds 27 1015 65 10000 6.2 340 06:19 24.09.2019
1423 Clouds 26 1015 65 10000 6.2 340 05:23 24.09.2019
1424 Clouds 25 1016 69 10000 4.6 320 03:46 24.09.2019
1425 Clouds 25 1016 69 10000 4.6 320 03:25 24.09.2019
1426 Clouds 24 1016 73 10000 4.1 340 02:44 24.09.2019
1427 Clouds 23 1016 78 10000 5.1 360 01:41 24.09.2019
1428 Clouds 21 1015 88 10000 4.6 10 00:42 24.09.2019
1429 Clouds 21 1015 88 10000 4.6 10 00:22 24.09.2019
1430 Clouds 20 1015 94 10000 6.2 360 23:43 23.09.2019
1431 Clouds 20 1015 94 10000 6.2 360 23:23 23.09.2019
1432 Clear 22 1013 88 0 4.02 350 22:41 23.09.2019
1433 Clear 22 1013 88 0 4.02 350 22:22 23.09.2019
1434 Clear 22 1013 88 0 4.02 350 21:59 23.09.2019
1435 Clear 22 1013 88 0 4.02 350 21:41 23.09.2019
1436 Clear 22 1013 88 0 4.02 350 21:41 23.09.2019
1437 Clouds 22 1013 88 0 4.02 350 21:20 23.09.2019
1438 Clouds 22 1013 88 0 4.02 350 20:59 23.09.2019
1439 Clouds 22 1013 88 0 4.02 350 20:40 23.09.2019
1440 Clouds 22 1013 88 0 4.02 350 20:19 23.09.2019
1441 Clouds 22 1013 88 0 4.02 350 19:40 23.09.2019
1442 Clouds 22 1013 88 0 4.02 350 19:22 23.09.2019
1443 Clouds 22 1013 88 0 4.02 350 18:59 23.09.2019
1444 Clouds 22 1013 88 0 4.02 350 18:41 23.09.2019
1445 Clouds 22 1014 88 0 4.02 350 18:19 23.09.2019
1446 Clouds 22 1013 88 0 4.02 350 17:56 23.09.2019
1447 Clouds 22 1013 88 0 4.02 350 17:56 23.09.2019
1448 Clouds 22 1013 88 0 4.02 350 17:38 23.09.2019
1449 Clouds 21 1014 88 10000 2.1 350 17:20 23.09.2019
1450 -273 0 0 0 0 0 16:55 23.09.2019
1451 Clouds 21 1014 88 10000 2.1 350 16:36 23.09.2019
1452 Clouds 21 1014 88 10000 2.1 350 16:36 23.09.2019
1453 Clouds 21 1014 88 10000 2.1 350 16:18 23.09.2019
1454 Clouds 21 1014 88 10000 0.5 340 15:55 23.09.2019
1455 Clouds 21 1014 88 10000 0.5 340 15:37 23.09.2019
1456 Clouds 21 1014 88 10000 0.5 340 15:18 23.09.2019
1457 Clouds 22 1013 88 10000 4.1 350 14:40 23.09.2019
1458 Clouds 22 1013 88 10000 4.1 350 14:20 23.09.2019
1459 Clouds 22 1013 88 10000 4.1 360 13:58 23.09.2019
1460 Clouds 22 1013 88 10000 4.1 360 13:38 23.09.2019
1461 Clouds 22 1013 88 10000 6.2 350 13:18 23.09.2019
1462 Clouds 22 1013 88 10000 6.2 350 12:43 23.09.2019
1463 Clouds 22 1013 88 10000 6.2 350 12:23 23.09.2019
1464 Clouds 23 1012 83 10000 5.7 360 11:58 23.09.2019
1465 Clouds 23 1012 83 10000 5.7 360 11:39 23.09.2019
1466 Clouds 23 1012 83 10000 5.7 360 11:20 23.09.2019
1467 Clouds 24 1012 73 10000 4.6 10 10:49 23.09.2019
1468 Clouds 24 1012 73 10000 4.6 10 10:22 23.09.2019
1469 Clouds 24 1011 73 10000 4.1 40 09:56 23.09.2019
1470 Clouds 24 1011 73 10000 4.1 40 09:37 23.09.2019
1471 Clouds 25 1011 73 10000 4.1 40 09:19 23.09.2019
1472 Clouds 25 1011 73 10000 4.1 40 09:19 23.09.2019
1473 Clouds 25 1011 65 10000 1.5 210 08:44 23.09.2019
1474 Clouds 24 1011 65 10000 1.5 210 08:25 23.09.2019
1475 Clouds 24 1011 69 10000 2.1 110 07:47 23.09.2019
1476 Clouds 25 1011 65 10000 5.1 340 07:24 23.09.2019
1477 Clouds 25 1011 65 10000 5.1 340 06:21 23.09.2019
1478 Clouds 24 1011 73 10000 6.7 350 05:46 23.09.2019
1479 Clouds 24 1011 73 10000 6.7 350 05:18 23.09.2019
1480 Clouds 24 1012 78 10000 6.2 350 04:52 23.09.2019
1481 Clouds 21 1011 88 10000 4.1 360 01:29 23.09.2019
1482 Rain 21 1010 88 10000 4.1 10 00:40 23.09.2019
1483 Rain 20 1010 88 10000 4.1 20 00:21 23.09.2019
1484 Rain 20 1010 88 10000 4.1 20 23:44 22.09.2019
1485 Rain 20 1010 88 10000 4.1 20 23:44 22.09.2019
1486 Rain 21 1010 88 10000 4.1 20 23:26 22.09.2019
1487 Rain 22 1009 83 0 8.47 341.984 22:56 22.09.2019
1488 Rain 22 1009 83 0 8.47 341.984 22:37 22.09.2019
1489 Rain 22 1009 83 0 8.47 341.984 22:19 22.09.2019
1490 Rain 22 1009 83 0 8.47 341.984 21:43 22.09.2019
1491 Rain 22 1006 82 0 10.05 314.831 21:21 22.09.2019
1492 Rain 22 1006 82 0 10.05 314.831 20:45 22.09.2019
1493 Rain 26 1004 83 0 18.78 180 20:27 22.09.2019
1494 Rain 26 988 83 0 18.78 180 19:59 22.09.2019
1495 Rain 23 1003 82 0 13.31 310.613 19:41 22.09.2019
1496 Rain 23 1003 82 0 13.31 310.613 19:21 22.09.2019
1497 Rain 23 1003 82 0 13.31 310.613 19:21 22.09.2019
1498 Rain 23 1003 82 0 13.31 310.613 18:57 22.09.2019
1499 Rain 23 1003 82 0 13.31 310.613 18:38 22.09.2019
1500 Clouds 26 988 83 0 18.78 180 18:18 22.09.2019
1501 Clouds 25 995 83 6000 16.5 210 17:47 22.09.2019
1502 Clouds 25 995 83 6000 16.5 210 17:27 22.09.2019
1503 Clouds 25 995 83 6000 16.5 210 16:58 22.09.2019
1504 Clouds 25 995 83 6000 16.5 210 16:58 22.09.2019
1505 Mist 25 992 94 3500 19 200 16:40 22.09.2019
1506 Mist 24 992 94 3500 19 200 16:20 22.09.2019
1507 Mist 25 988 83 3500 24.2 190 15:46 22.09.2019
1508 Rain 25 988 83 3500 24.2 190 15:26 22.09.2019
1509 Rain 25 988 83 6000 19 180 14:55 22.09.2019
1510 Rain 26 988 83 6000 19 180 14:37 22.09.2019
1511 Rain 26 988 83 6000 19 180 14:37 22.09.2019
1512 Rain 26 988 83 6000 19 180 14:19 22.09.2019
1513 Rain 25 987 88 5000 23.1 170 13:43 22.09.2019
1514 Rain 25 987 88 5000 23.1 170 13:43 22.09.2019
1515 Rain 25 987 88 5000 23.1 170 13:25 22.09.2019
1516 Rain 25 987 94 4000 24.7 170 12:57 22.09.2019
1517 Rain 25 987 94 4000 24.7 170 12:57 22.09.2019
1518 Rain 25 987 94 4000 24.7 170 12:39 22.09.2019
1519 Rain 25 988 100 2500 19.5 170 12:19 22.09.2019
1520 Rain 25 988 100 2500 19.5 170 11:55 22.09.2019
1521 Rain 26 988 94 5000 23.1 160 11:36 22.09.2019
1522 Rain 26 988 94 5000 23.1 160 11:18 22.09.2019
1523 Rain 26 988 94 8000 20.1 160 10:42 22.09.2019
1524 Rain 26 988 94 8000 20.1 160 10:20 22.09.2019
1525 Rain 26 988 94 8000 20.1 160 10:20 22.09.2019
1526 Rain 26 988 94 8000 20.1 160 10:20 22.09.2019
1527 Rain 26 990 100 1500 19 140 09:43 22.09.2019
1528 Rain 26 990 100 1500 19 140 09:43 22.09.2019
1529 Rain 26 990 100 1500 19 140 09:21 22.09.2019
1530 Rain 25 991 94 3500 17.5 140 08:56 22.09.2019
1531 Rain 26 992 94 4000 16.5 140 08:38 22.09.2019
1532 Rain 26 992 94 4000 16.5 140 08:19 22.09.2019
1533 Rain 26 993 94 8000 13.9 120 07:43 22.09.2019
1534 Rain 26 993 94 8000 13.9 120 07:25 22.09.2019
1535 Rain 25 996 100 10000 10.8 120 06:57 22.09.2019
1536 Rain 25 996 100 10000 10.8 120 06:31 22.09.2019
1537 Rain 25 1000 94 4000 10.3 130 03:54 22.09.2019
1538 Rain 25 1001 88 10000 8.2 110 02:44 22.09.2019
1539 Rain 25 1001 88 10000 8.2 110 02:24 22.09.2019
1540 Rain 25 1001 83 10000 8.7 120 01:35 22.09.2019
1541 Rain 25 1002 78 10000 6.7 110 00:40 22.09.2019
1542 Rain 25 1002 78 10000 6.7 110 00:21 22.09.2019
1543 Rain 24 1003 88 10000 6.2 120 23:45 21.09.2019
1544 Rain 24 1003 88 10000 6.2 120 23:27 21.09.2019
1545 Rain 26 1011 78 0 1.34 120 22:43 21.09.2019
1546 Rain 26 1011 78 0 1.34 120 22:23 21.09.2019
1547 Rain 26 1009 78 0 1.34 120 21:58 21.09.2019
1548 Rain 26 1009 78 0 1.34 120 21:40 21.09.2019
1549 Rain 26 1009 78 0 1.34 120 21:18 21.09.2019
1550 Rain 26 1011 78 0 1.34 120 20:41 21.09.2019
1551 Rain 26 1011 78 0 1.34 120 20:22 21.09.2019
1552 Rain 26 1009 78 0 1.34 120 19:57 21.09.2019
1553 Rain 26 1009 78 0 1.34 120 19:57 21.09.2019
1554 Rain 26 1009 78 0 1.34 120 19:39 21.09.2019
1555 Rain 26 1009 78 0 1.34 120 19:18 21.09.2019
1556 Rain 26 1009 78 0 1.34 120 18:39 21.09.2019
1557 Rain 26 1011 78 0 1.34 120 18:20 21.09.2019
1558 Rain 26 1011 78 0 1.34 120 18:20 21.09.2019
1559 Rain 26 1009 78 0 1.34 120 17:42 21.09.2019
1560 Clouds 24 1010 88 10000 5.7 40 17:23 21.09.2019
1561 Clouds 24 1010 88 10000 5.7 40 16:56 21.09.2019
1562 Clouds 24 1010 88 10000 5.7 40 16:36 21.09.2019
1563 Clouds 24 1010 88 10000 5.7 40 16:18 21.09.2019
1564 Rain 24 1010 88 10000 5.7 50 15:42 21.09.2019
1565 Rain 25 1010 88 10000 5.7 50 15:20 21.09.2019
1566 Clouds 25 1009 78 10000 1.5 120 14:47 21.09.2019
1567 Clouds 25 1009 78 10000 1.5 120 14:28 21.09.2019
1568 Clouds 25 1009 74 10000 5.7 170 13:45 21.09.2019
1569 Clouds 26 1009 74 10000 5.7 170 13:25 21.09.2019
1570 Clouds 26 1009 74 10000 5.7 170 13:25 21.09.2019
1571 Clouds 26 1009 74 10000 5.7 160 12:58 21.09.2019
1572 Clouds 26 1009 74 10000 5.7 160 12:39 21.09.2019
1573 Clouds 26 1009 74 10000 5.7 160 12:39 21.09.2019
1574 Clouds 26 1009 74 10000 5.7 160 12:20 21.09.2019
1575 Clouds 26 1008 74 10000 6.7 110 11:51 21.09.2019
1576 Clouds 26 1008 74 10000 6.7 110 11:26 21.09.2019
1577 Clouds 27 1008 65 10000 6.2 110 10:57 21.09.2019
1578 Clouds 27 1008 65 10000 6.2 110 10:38 21.09.2019
1579 Clouds 27 1008 65 10000 6.2 110 10:20 21.09.2019
1580 Clouds 27 1008 69 10000 5.1 110 09:55 21.09.2019
1581 Clouds 27 1008 69 10000 5.1 110 09:37 21.09.2019
1582 Clouds 27 1008 69 10000 5.1 110 09:37 21.09.2019
1583 Clouds 27 1008 69 10000 5.1 110 09:18 21.09.2019
1584 Clouds 27 1007 69 10000 6.7 100 08:43 21.09.2019
1585 Clouds 27 1007 69 10000 6.7 100 08:43 21.09.2019
1586 Clouds 27 1008 69 10000 8.7 100 07:58 21.09.2019
1587 Clouds 27 1008 69 10000 8.7 100 07:39 21.09.2019
1588 Clouds 28 1009 65 10000 8.2 110 07:19 21.09.2019
1589 Clouds 28 1009 65 10000 8.2 110 06:36 21.09.2019
1590 Clouds 27 1010 65 10000 1.5 0 05:51 21.09.2019
1591 Clouds 26 1011 74 10000 3.6 310 04:39 21.09.2019
1592 Clouds 24 1012 73 10000 1.5 290 03:31 21.09.2019
1593 Clouds 22 1012 83 10000 1 0 02:25 21.09.2019
1594 Clouds 22 1012 83 10000 1 0 01:48 21.09.2019
1595 Clouds 22 1012 83 10000 1 0 01:23 21.09.2019
1596 Clouds 21 1012 94 10000 0.5 0 00:23 21.09.2019
1597 Clouds 20 1012 94 10000 1.5 60 23:48 20.09.2019
1598 Clouds 21 1012 94 10000 1.5 60 23:30 20.09.2019
1599 Clouds 21 1013 83 0 1.79 140 22:47 20.09.2019
1600 Clouds 21 1013 83 0 1.79 140 22:27 20.09.2019
1601 Clouds 21 1013 83 0 1.79 140 21:58 20.09.2019
1602 Clouds 21 1013 83 0 1.79 140 21:39 20.09.2019
1603 Clouds 21 1013 83 0 1.79 140 21:21 20.09.2019
1604 Clouds 21 1013 83 0 1.79 140 20:59 20.09.2019
1605 Clouds 21 1013 83 0 1.79 140 20:41 20.09.2019
1606 Clouds 21 1014 83 0 1.79 140 20:20 20.09.2019
1607 Clouds 21 1013 83 0 1.79 140 19:56 20.09.2019
1608 Clouds 21 1014 83 0 1.79 140 19:36 20.09.2019
1609 Clouds 21 1014 83 0 1.79 140 19:18 20.09.2019
1610 Clouds 21 1014 83 0 1.79 140 18:39 20.09.2019
1611 Rain 21 1014 83 0 1.79 140 18:20 20.09.2019
1612 Rain 21 1013 83 0 1.79 140 17:47 20.09.2019
1613 Clouds 19 1014 77 10000 8.7 40 17:27 20.09.2019
1614 Clouds 19 1014 77 10000 8.7 40 16:59 20.09.2019
1615 Clouds 19 1014 77 10000 8.7 40 16:37 20.09.2019
1616 Clouds 19 1014 77 10000 8.7 40 16:19 20.09.2019
1617 Clouds 19 1015 77 10000 9.3 40 15:41 20.09.2019
1618 Clouds 20 1015 77 10000 9.3 40 15:22 20.09.2019
1619 Clouds 20 1013 83 10000 2.1 140 14:44 20.09.2019
1620 Clouds 20 1013 83 10000 2.1 140 14:20 20.09.2019
1621 Clouds 20 1013 83 10000 2.1 140 14:20 20.09.2019
1622 Rain 21 1014 77 0 6.71 50 14:00 20.09.2019
1623 Rain 21 1014 77 0 6.71 50 13:40 20.09.2019
1624 Rain 20 1013 77 10000 7.2 30 13:21 20.09.2019
1625 Rain 20 1013 77 10000 7.2 30 12:41 20.09.2019
1626 Rain 20 1013 77 10000 7.2 30 12:22 20.09.2019
1627 Rain 19 1013 88 10000 7.2 30 11:51 20.09.2019
1628 Rain 19 1013 88 10000 7.2 30 11:26 20.09.2019
1629 Rain 20 1013 94 10000 1 0 10:58 20.09.2019
1630 Rain 20 1013 94 10000 1 0 10:40 20.09.2019
1631 Rain 20 1013 94 10000 1 0 10:22 20.09.2019
1632 Rain 19 1013 94 10000 1.5 320 09:38 20.09.2019
1633 Rain 19 1013 94 10000 1.5 320 09:38 20.09.2019
1634 Rain 19 1013 94 10000 1.5 320 09:19 20.09.2019
1635 Rain 19 1013 100 8000 0.5 0 08:48 20.09.2019
1636 Rain 19 1014 100 6000 0.5 0 08:28 20.09.2019
1637 Rain 19 1015 100 7000 3.6 330 07:59 20.09.2019
1638 Rain 19 1013 94 6000 2.6 140 07:40 20.09.2019
1639 Rain 19 1013 94 6000 2.6 140 07:40 20.09.2019
1640 Rain 19 1014 88 5000 1 0 07:20 20.09.2019
1641 Rain 19 1013 94 8000 3.1 140 06:40 20.09.2019
1642 Rain 19 1013 94 8000 3.1 140 06:18 20.09.2019
1643 Rain 22 1013 69 10000 4.6 110 04:31 20.09.2019
1644 Rain 22 1013 69 10000 4.6 110 04:31 20.09.2019
1645 Rain 21 1013 78 10000 2.6 40 03:27 20.09.2019
1646 Rain 20 1013 88 10000 5.1 110 02:18 20.09.2019
1647 Rain 22 1013 73 10000 6.7 160 01:39 20.09.2019
1648 Clouds 21 1012 88 10000 3.1 150 00:36 20.09.2019
1649 Clouds 19 1012 94 10000 3.6 140 23:48 19.09.2019
1650 Clouds 19 1012 94 10000 3.6 140 23:28 19.09.2019
1651 Clouds 24 1013 60 0 5.81 20 22:59 19.09.2019
1652 Clouds 24 1013 60 0 5.81 20 22:39 19.09.2019
1653 Clouds 24 1013 60 0 5.81 20 22:21 19.09.2019
1654 Clouds 24 1013 60 0 5.81 20 21:57 19.09.2019
1655 Clouds 24 1013 60 0 5.81 20 21:38 19.09.2019
1656 Clear 24 1013 60 0 5.81 20 21:19 19.09.2019
1657 Clear 24 1013 60 0 5.81 20 20:43 19.09.2019
1658 Clear 24 1013 60 0 5.81 20 20:23 19.09.2019
1659 Clear 24 1013 60 0 5.81 20 19:58 19.09.2019
1660 Clear 24 1013 60 0 5.81 20 19:39 19.09.2019
1661 Clear 24 1013 60 0 5.81 20 19:21 19.09.2019
1662 Clear 24 1013 60 0 5.81 20 18:56 19.09.2019
1663 Clear 24 1013 60 0 5.81 20 18:56 19.09.2019
1664 Clear 24 1013 60 0 5.81 20 18:38 19.09.2019
1665 Clear 24 1013 60 0 5.81 20 18:19 19.09.2019
1666 Clear 24 1013 60 0 5.81 20 17:42 19.09.2019
1667 Clouds 21 1013 88 10000 3.1 20 17:23 19.09.2019
1668 Clouds 21 1013 88 10000 3.1 20 16:58 19.09.2019
1669 Clouds 21 1013 88 10000 3.1 20 16:39 19.09.2019
1670 Clouds 21 1013 88 10000 3.1 20 16:39 19.09.2019
1671 Clouds 21 1013 88 10000 3.1 20 16:19 19.09.2019
1672 Clouds 22 1013 82 10000 2.6 30 15:39 19.09.2019
1673 Clouds 23 1013 82 10000 2.6 30 15:20 19.09.2019
1674 Clouds 23 1013 60 10000 6.2 20 14:42 19.09.2019
1675 Clouds 23 1013 60 10000 6.2 20 14:24 19.09.2019
1676 Clouds 22 1013 69 10000 7.2 10 13:59 19.09.2019
1677 Clouds 22 1013 69 10000 7.2 10 13:40 19.09.2019
1678 Clouds 22 1013 69 10000 7.2 10 13:40 19.09.2019
1679 Clouds 22 1013 69 10000 7.2 10 13:20 19.09.2019
1680 Clouds 23 1012 64 10000 10.3 10 12:40 19.09.2019
1681 Clouds 23 1012 64 10000 10.3 10 12:20 19.09.2019
1682 Clouds 25 1011 65 10000 10.8 360 11:58 19.09.2019
1683 Clouds 25 1011 65 10000 10.8 360 11:39 19.09.2019
1684 Clouds 25 1011 65 10000 10.8 360 11:21 19.09.2019
1685 Clouds 27 1010 61 10000 7.7 340 10:56 19.09.2019
1686 Clouds 27 1010 61 10000 7.7 340 10:56 19.09.2019
1687 Clouds 27 1010 61 10000 7.7 340 10:56 19.09.2019
1688 Clouds 27 1010 61 10000 7.7 340 10:56 19.09.2019
1689 Clouds 27 1010 61 10000 7.7 340 10:36 19.09.2019
1690 Clouds 27 1010 61 10000 7.7 340 10:18 19.09.2019
1691 Clouds 29 1010 39 10000 7.2 40 09:41 19.09.2019
1692 Clouds 29 1010 39 10000 7.2 40 09:21 19.09.2019
1693 Clouds 30 1010 40 10000 6.2 40 08:56 19.09.2019
1694 Clouds 30 1010 40 10000 6.2 40 08:29 19.09.2019
1695 Clouds 30 1011 40 10000 4.1 10 07:57 19.09.2019
1696 Clouds 30 1011 40 10000 4.1 10 07:57 19.09.2019
1697 Clouds 30 1011 40 10000 4.1 10 07:57 19.09.2019
1698 Clouds 30 1011 40 10000 4.1 10 07:38 19.09.2019
1699 Clouds 30 1011 40 10000 4.1 10 07:38 19.09.2019
1700 Clouds 29 1012 42 10000 6.7 50 07:20 19.09.2019
1701 Clouds 29 1012 42 10000 6.7 50 06:45 19.09.2019
1702 Clouds 29 1012 42 10000 6.7 50 06:25 19.09.2019
1703 Clouds 29 1013 42 10000 5.1 60 05:50 19.09.2019
1704 Clouds 29 1013 42 10000 5.1 60 05:50 19.09.2019
1705 Clouds 27 1014 51 10000 7.2 40 04:39 19.09.2019
1706 Clouds 27 1014 51 10000 7.2 20 03:22 19.09.2019
1707 Clouds 24 1013 60 10000 6.2 10 01:53 19.09.2019
1708 Clouds 24 1013 60 10000 6.2 10 01:21 19.09.2019
1709 Clouds 22 1013 60 10000 5.1 20 00:47 19.09.2019
1710 Clouds 22 1013 60 10000 5.1 20 00:24 19.09.2019
1711 Clouds 21 1013 56 10000 3.6 20 23:39 18.09.2019
1712 Clouds 21 1013 56 10000 3.6 20 23:20 18.09.2019
1713 Clouds 21 1013 56 10000 3.6 20 23:20 18.09.2019
1714 Clear 23 1012 56 0 6.71 360 22:43 18.09.2019
1715 Clear 23 1012 56 0 6.71 360 22:20 18.09.2019
1716 Clear 23 1012 56 0 6.71 360 21:58 18.09.2019
1717 Clear 23 1012 56 0 6.71 360 21:40 18.09.2019
1718 Clear 23 1012 56 0 6.71 360 21:40 18.09.2019
1719 Clear 23 1012 56 0 6.71 360 21:19 18.09.2019
1720 Clear 23 1012 56 0 6.71 360 20:58 18.09.2019
1721 Clear 23 1012 56 0 6.71 360 20:40 18.09.2019
1722 Clear 23 1012 56 0 6.71 360 20:22 18.09.2019
1723 Clear 23 1012 56 0 6.71 360 19:57 18.09.2019
1724 Clear 23 1012 56 0 6.71 360 19:38 18.09.2019
1725 Clear 23 1012 56 0 6.71 360 19:19 18.09.2019
1726 Clear 23 1012 56 0 6.71 360 18:55 18.09.2019
1727 Clear 23 1012 56 0 6.71 360 18:37 18.09.2019
1728 Clear 23 1012 56 0 6.71 360 18:18 18.09.2019
1729 Clear 23 1012 56 0 6.71 360 17:57 18.09.2019
1730 Clear 23 1012 56 0 6.71 360 17:57 18.09.2019
1731 Clear 23 1012 56 0 6.71 360 17:38 18.09.2019
1732 Clouds 21 1013 72 10000 1 0 17:18 18.09.2019
1733 Clouds 21 1013 72 10000 1 0 16:43 18.09.2019
1734 Clouds 21 1013 72 10000 1 0 16:23 18.09.2019
1735 Clouds 21 1013 72 10000 1 0 16:23 18.09.2019
1736 Clouds 22 1013 68 10000 3.6 10 15:59 18.09.2019
1737 Clouds 22 1013 68 10000 3.6 10 15:41 18.09.2019
1738 Clouds 22 1013 68 10000 3.6 10 15:21 18.09.2019
1739 Clear 23 1012 56 10000 6.7 360 14:59 18.09.2019
1740 Clear 23 1012 56 10000 6.7 360 14:59 18.09.2019
1741 Clear 23 1012 56 10000 6.7 360 14:40 18.09.2019
1742 Clear 23 1012 56 10000 6.7 360 14:22 18.09.2019
1743 Clear 23 1011 57 10000 7.7 360 13:59 18.09.2019
1744 Clear 23 1011 57 10000 7.7 360 13:40 18.09.2019
1745 Clear 24 1011 61 10000 8.2 360 13:18 18.09.2019
1746 Clear 24 1011 61 10000 8.2 360 12:53 18.09.2019
1747 Clear 24 1011 61 10000 8.2 360 12:30 18.09.2019
1748 Clouds 25 1010 57 10000 8.7 360 11:55 18.09.2019
1749 Clouds 25 1010 57 10000 8.7 360 11:37 18.09.2019
1750 Clouds 25 1010 57 10000 8.7 360 11:37 18.09.2019
1751 Clouds 25 1010 57 10000 8.7 360 11:18 18.09.2019
1752 Clear 27 1010 54 10000 9.3 360 10:40 18.09.2019
1753 Clear 27 1010 54 10000 9.3 360 10:21 18.09.2019
1754 Clouds 28 1009 54 10000 10.3 350 09:58 18.09.2019
1755 Clouds 28 1009 54 10000 10.3 350 09:38 18.09.2019
1756 Clouds 28 1009 54 10000 10.3 350 09:19 18.09.2019
1757 Clouds 29 1009 51 10000 9.8 350 08:42 18.09.2019
1758 Clouds 29 1009 51 10000 9.8 350 08:23 18.09.2019
1759 Clouds 29 1010 54 10000 10.3 350 07:53 18.09.2019
1760 Clouds 29 1010 54 10000 10.3 350 07:35 18.09.2019
1761 Clouds 30 1010 58 10000 8.2 340 06:59 18.09.2019
1762 Clouds 30 1010 58 10000 8.2 340 06:35 18.09.2019
1763 Clouds 29 1010 62 10000 6.2 350 05:41 18.09.2019
1764 Clouds 28 1011 62 10000 7.7 350 04:42 18.09.2019
1765 Clouds 27 1011 74 10000 5.1 360 02:41 18.09.2019
1766 Clouds 26 1011 74 10000 5.1 360 01:54 18.09.2019
1767 Clouds 26 1011 74 10000 5.1 360 01:18 18.09.2019
1768 Clouds 24 1010 78 10000 2.1 30 00:42 18.09.2019
1769 Clouds 23 1011 78 10000 1.5 50 00:19 18.09.2019
1770 Clouds 23 1011 78 10000 1.5 50 23:42 17.09.2019
1771 Clouds 23 1011 78 10000 1.5 50 23:22 17.09.2019
1772 Clear 25 1009 78 0 5.36 340 22:42 17.09.2019
1773 Clear 25 1009 78 0 5.36 340 22:24 17.09.2019
1774 Clear 25 1009 78 0 5.36 340 21:55 17.09.2019
1775 -273 0 0 0 0 0 21:54 17.09.2019
1776 Clear 25 1009 78 0 5.36 340 21:36 17.09.2019
1777 Clear 25 1009 78 0 5.36 340 21:18 17.09.2019
1778 Clear 25 1009 78 0 5.36 340 20:57 17.09.2019
1779 Clear 25 1009 78 0 5.36 340 20:39 17.09.2019
1780 Clear 25 1009 78 0 5.36 340 20:20 17.09.2019
1781 Clear 25 1009 78 0 5.36 340 19:57 17.09.2019
1782 Clear 25 1009 78 0 5.36 340 19:38 17.09.2019
1783 Clear 25 1009 78 0 5.36 340 19:18 17.09.2019
1784 Clear 25 1009 78 0 5.36 340 18:43 17.09.2019
1785 Clear 25 1009 78 0 5.36 340 18:22 17.09.2019
1786 Clear 25 1009 78 0 5.36 340 17:56 17.09.2019
1787 Clear 25 1009 78 0 5.36 340 17:38 17.09.2019
1788 Clear 23 1010 88 10000 1.5 330 17:19 17.09.2019
1789 Clear 23 1010 88 10000 1.5 330 16:42 17.09.2019
1790 Clear 24 1010 88 10000 1.5 330 16:22 17.09.2019
1791 Clear 24 1010 83 10000 1.5 20 15:59 17.09.2019
1792 Clear 24 1010 83 10000 1.5 20 15:38 17.09.2019
1793 Clear 24 1010 83 10000 1.5 20 15:19 17.09.2019
1794 Clear 24 1010 83 10000 1.5 20 15:19 17.09.2019
1795 Clouds 24 1009 78 10000 5.7 340 14:56 17.09.2019
1796 Clouds 24 1009 78 10000 5.7 340 14:37 17.09.2019
1797 Clouds 24 1009 78 10000 5.7 340 14:19 17.09.2019
1798 Clouds 25 1009 78 10000 6.2 350 13:42 17.09.2019
1799 Clouds 25 1009 78 10000 6.2 350 13:23 17.09.2019
1800 Clouds 26 1008 74 10000 8.7 360 12:56 17.09.2019
1801 Clouds 26 1008 74 10000 8.7 360 12:37 17.09.2019
1802 Clouds 26 1008 69 10000 9.3 360 12:18 17.09.2019
1803 Clouds 27 1008 69 10000 9.3 360 11:42 17.09.2019
1804 Clouds 27 1008 69 10000 9.3 360 11:24 17.09.2019
1805 Clouds 27 1008 69 10000 9.3 360 11:24 17.09.2019
1806 Clouds 27 1008 69 10000 9.3 360 11:24 17.09.2019
1807 Clouds 28 1007 65 10000 9.3 360 10:43 17.09.2019
1808 Clouds 28 1007 65 10000 9.3 360 10:24 17.09.2019
1809 Clouds 29 1007 66 10000 7.7 350 09:59 17.09.2019
1810 Clouds 29 1007 66 10000 7.7 350 09:41 17.09.2019
1811 Clouds 29 1007 66 10000 7.7 350 09:21 17.09.2019
1812 Clouds 29 1007 69 10000 7.2 360 08:49 17.09.2019
1813 Clouds 29 1007 69 10000 7.2 360 08:30 17.09.2019
1814 Clouds 31 1007 48 10000 7.2 30 07:58 17.09.2019
1815 Clouds 31 1007 48 10000 7.2 30 07:39 17.09.2019
1816 Clouds 30 1008 52 10000 5.7 40 07:19 17.09.2019
1817 Clouds 31 1008 52 10000 5.7 40 06:45 17.09.2019
1818 Clouds 31 1008 52 10000 5.7 40 06:19 17.09.2019
1819 Clouds 31 1008 52 10000 5.7 40 06:19 17.09.2019
1820 Clouds 30 1008 55 10000 5.7 40 05:38 17.09.2019
1821 Clouds 29 1009 54 10000 7.2 50 04:28 17.09.2019
1822 Clouds 28 1009 58 10000 7.7 40 02:55 17.09.2019
1823 Clouds 27 1009 65 10000 3.6 350 02:35 17.09.2019
1824 Clouds 25 1009 69 10000 5.1 340 01:24 17.09.2019
1825 Clouds 24 1008 69 10000 3.6 20 00:32 17.09.2019
1826 Clouds 23 1008 73 10000 2.6 20 23:38 16.09.2019
1827 Clouds 23 1008 73 10000 2.6 20 23:18 16.09.2019
1828 Clear 24 1007 69 0 7.15 10 22:42 16.09.2019
1829 Clear 24 1007 69 0 7.15 10 22:24 16.09.2019
1830 Clear 24 1007 69 0 7.15 10 21:59 16.09.2019
1831 Clear 24 1007 69 0 7.15 10 21:40 16.09.2019
1832 Clear 24 1007 69 0 7.15 10 21:21 16.09.2019
1833 Clear 24 1007 69 0 7.15 10 20:58 16.09.2019
1834 Clear 24 1007 69 0 7.15 10 20:39 16.09.2019
1835 Clear 24 1007 69 0 7.15 10 20:19 16.09.2019
1836 Clear 24 1007 69 0 7.15 10 19:56 16.09.2019
1837 Clear 24 1007 69 0 7.15 10 19:37 16.09.2019
1838 Clear 24 1007 69 0 7.15 10 19:18 16.09.2019
1839 Clear 24 1007 69 0 7.15 10 18:43 16.09.2019
1840 Clear 24 1007 69 0 7.15 10 18:25 16.09.2019
1841 Clear 24 1007 69 0 7.15 10 17:54 16.09.2019
1842 Clear 24 1007 69 0 7.15 10 17:36 16.09.2019
1843 Clouds 23 1008 73 10000 3.6 30 17:18 16.09.2019
1844 Clouds 23 1008 73 10000 3.6 30 17:18 16.09.2019
1845 Clouds 23 1008 73 10000 3.6 30 16:42 16.09.2019
1846 Clouds 23 1008 73 10000 3.6 30 16:21 16.09.2019
1847 Clouds 23 1008 69 10000 4.1 20 15:57 16.09.2019
1848 Clouds 23 1008 69 10000 4.1 20 15:57 16.09.2019
1849 Clouds 23 1008 69 10000 4.1 20 15:38 16.09.2019
1850 Clouds 23 1008 69 10000 4.1 20 15:38 16.09.2019
1851 Clouds 24 1008 69 10000 4.1 20 15:20 16.09.2019
1852 Clouds 24 1007 69 10000 7.2 10 14:57 16.09.2019
1853 Clouds 24 1007 69 10000 7.2 10 14:39 16.09.2019
1854 Clouds 24 1007 69 10000 7.2 10 14:20 16.09.2019
1855 Clouds 25 1007 65 10000 7.2 10 13:41 16.09.2019
1856 Clouds 25 1007 65 10000 7.2 10 13:22 16.09.2019
1857 Clouds 25 1006 69 10000 8.2 10 12:55 16.09.2019
1858 Clouds 25 1006 69 10000 8.2 10 12:36 16.09.2019
1859 Clouds 25 1005 65 10000 8.7 10 12:18 16.09.2019
1860 Clouds 26 1005 65 10000 8.7 10 11:44 16.09.2019
1861 Clouds 26 1005 65 10000 8.7 10 11:22 16.09.2019
1862 Clouds 27 1005 65 10000 8.2 350 10:40 16.09.2019
1863 Clouds 27 1005 65 10000 8.2 350 10:21 16.09.2019
1864 Clouds 27 1005 65 10000 8.2 350 10:21 16.09.2019
1865 Clouds 28 1004 62 10000 8.2 350 09:59 16.09.2019
1866 Clouds 28 1004 62 10000 8.2 350 09:41 16.09.2019
1867 Clouds 29 1004 62 10000 8.2 350 09:20 16.09.2019
1868 Clouds 30 1004 58 10000 9.3 360 08:48 16.09.2019
1869 Clouds 30 1004 58 10000 9.3 360 08:29 16.09.2019
1870 Clouds 30 1004 58 10000 8.7 350 07:57 16.09.2019
1871 Clouds 30 1004 58 10000 8.7 350 07:39 16.09.2019
1872 Clouds 30 1004 58 10000 8.7 350 07:20 16.09.2019
1873 Clouds 30 1004 58 10000 8.7 350 06:48 16.09.2019
1874 Clouds 30 1004 58 10000 8.7 350 06:30 16.09.2019
1875 Clouds 30 1005 62 10000 8.7 360 05:54 16.09.2019
1876 Clouds 30 1005 62 10000 8.7 360 05:35 16.09.2019
1877 Clouds 29 1005 66 10000 7.7 350 04:55 16.09.2019
1878 Clouds 29 1006 66 10000 7.2 350 03:31 16.09.2019
1879 Clouds 25 1005 83 10000 6.2 360 00:44 16.09.2019
1880 Clouds 25 1005 83 10000 6.2 360 00:26 16.09.2019
1881 Clouds 24 1005 83 10000 7.7 360 23:45 15.09.2019
1882 Clouds 24 1005 83 10000 7.7 360 23:22 15.09.2019
1883 Clear 26 1006 83 0 4.92 340 22:59 15.09.2019
1884 Clear 26 1006 83 0 4.92 340 22:37 15.09.2019
1885 Clear 26 1006 83 0 4.92 340 22:18 15.09.2019
1886 Clear 26 1006 83 0 4.92 340 21:56 15.09.2019
1887 Clear 26 1006 83 0 4.92 340 21:37 15.09.2019
1888 Clear 26 1006 83 0 4.92 340 21:18 15.09.2019
1889 Clear 26 1006 83 0 4.92 340 20:44 15.09.2019
1890 Clear 26 1006 83 0 4.92 340 20:44 15.09.2019
1891 Clear 26 1006 83 0 4.92 340 20:25 15.09.2019
1892 Clear 26 1006 83 0 4.92 340 19:47 15.09.2019
1893 Clear 26 1006 83 0 4.92 340 19:27 15.09.2019
1894 Clear 26 1006 83 0 4.92 340 18:55 15.09.2019
1895 Clear 26 1006 83 0 4.92 340 18:36 15.09.2019
1896 Clear 26 1006 83 0 4.92 340 18:18 15.09.2019
1897 Clear 26 1006 83 0 4.92 340 17:41 15.09.2019
1898 Clouds 25 1006 83 10000 3.1 340 17:21 15.09.2019
1899 Clouds 25 1006 83 10000 3.1 340 16:56 15.09.2019
1900 Clouds 25 1006 83 10000 3.1 340 16:38 15.09.2019
1901 Clouds 25 1006 83 10000 3.1 340 16:20 15.09.2019
1902 Clouds 25 1006 83 10000 1.5 350 15:41 15.09.2019
1903 Clouds 26 1006 83 10000 1.5 350 15:21 15.09.2019
1904 Clouds 26 1006 83 10000 5.1 340 14:59 15.09.2019
1905 Clouds 26 1006 83 10000 5.1 340 14:40 15.09.2019
1906 Clouds 26 1006 83 10000 5.1 340 14:22 15.09.2019
1907 Clouds 27 1005 78 10000 5.7 350 13:47 15.09.2019
1908 Clouds 27 1005 78 10000 5.7 350 13:25 15.09.2019
1909 Clouds 27 1005 83 10000 6.2 340 12:58 15.09.2019
1910 Clouds 27 1005 83 10000 6.2 340 12:39 15.09.2019
1911 Clouds 27 1005 83 10000 6.2 340 12:19 15.09.2019
1912 Clouds 28 1004 78 10000 7.2 350 11:42 15.09.2019
1913 Clouds 28 1004 78 10000 7.2 350 11:23 15.09.2019
1914 Clouds 30 1004 70 10000 7.7 350 10:59 15.09.2019
1915 Clouds 30 1004 70 10000 7.7 350 10:40 15.09.2019
1916 Clouds 30 1004 70 10000 7.7 350 10:21 15.09.2019
1917 Clouds 31 1004 74 10000 7.2 330 09:43 15.09.2019
1918 Clouds 31 1004 74 10000 7.2 330 09:21 15.09.2019
1919 Clouds 33 1004 55 10000 4.6 300 08:58 15.09.2019
1920 Clouds 33 1004 55 10000 4.6 300 08:58 15.09.2019
1921 Clouds 33 1004 55 10000 4.6 300 08:39 15.09.2019
1922 Clouds 33 1004 55 10000 4.6 300 08:18 15.09.2019
1923 Clouds 33 1005 55 10000 3.1 290 07:41 15.09.2019
1924 Clouds 32 1006 62 10000 3.1 220 06:44 15.09.2019
1925 Clouds 30 1007 66 10000 1.5 0 04:59 15.09.2019
1926 Clouds 29 1008 79 10000 2.6 350 03:18 15.09.2019
1927 Clouds 27 1008 83 10000 0.5 0 01:58 15.09.2019
1928 Clouds 27 1008 83 10000 0.5 0 01:58 15.09.2019
1929 Clouds 27 1008 83 10000 0.5 0 01:35 15.09.2019
1930 Clouds 25 1008 94 10000 1.5 30 00:56 15.09.2019
1931 Clouds 25 1008 94 10000 1.5 30 00:36 15.09.2019
1932 Clouds 25 1008 94 10000 1.5 30 00:18 15.09.2019
1933 Clouds 24 1008 94 10000 2.1 140 23:54 14.09.2019
1934 Clouds 24 1008 94 10000 2.1 140 23:54 14.09.2019
1935 Clouds 24 1008 94 10000 2.1 140 23:36 14.09.2019
1936 Clouds 24 1008 94 10000 2.1 140 23:18 14.09.2019
1937 Clear 28 1009 74 0 4.47 340 22:55 14.09.2019
1938 Clear 28 1009 74 0 4.47 340 22:55 14.09.2019
1939 Clear 28 1009 74 0 4.47 340 22:36 14.09.2019
1940 Clear 28 1009 74 0 4.47 340 22:18 14.09.2019
1941 Clear 28 1009 74 0 4.47 340 21:40 14.09.2019
1942 Rain 28 1009 74 0 4.47 340 21:20 14.09.2019
1943 Rain 28 1009 74 0 4.47 340 20:56 14.09.2019
1944 Clear 28 1010 74 0 4.47 340 20:38 14.09.2019
1945 Clear 28 1010 74 0 4.47 340 20:19 14.09.2019
1946 Clear 28 1010 74 0 4.47 340 19:45 14.09.2019
1947 Clear 28 1010 74 0 4.47 340 19:21 14.09.2019
1948 Clear 28 1009 74 0 4.47 340 18:57 14.09.2019
1949 Clear 28 1010 74 0 4.47 340 18:37 14.09.2019
1950 Rain 28 1010 74 0 4.47 340 18:19 14.09.2019
1951 Rain 28 1009 74 0 4.47 340 17:43 14.09.2019
1952 Clouds 27 1009 88 10000 2.1 280 17:22 14.09.2019
1953 Clouds 27 1009 88 10000 2.1 280 16:48 14.09.2019
1954 Clouds 27 1009 88 10000 2.1 280 16:28 14.09.2019
1955 Clouds 27 1009 83 10000 2.6 310 15:58 14.09.2019
1956 Clouds 27 1009 83 10000 2.6 310 15:40 14.09.2019
1957 Clouds 28 1009 83 10000 2.6 310 15:20 14.09.2019
1958 Clouds 28 1009 74 10000 4.6 340 14:44 14.09.2019
1959 Clouds 28 1009 74 10000 4.6 340 14:19 14.09.2019
1960 Clouds 28 1008 74 10000 4.1 330 13:48 14.09.2019
1961 Clouds 28 1008 74 10000 4.1 330 13:24 14.09.2019
1962 Clouds 28 1007 74 10000 3.6 350 12:59 14.09.2019
1963 Clouds 28 1007 74 10000 3.6 350 12:38 14.09.2019
1964 Clouds 29 1007 79 10000 6.2 330 12:18 14.09.2019
1965 Clouds 29 1007 79 10000 6.2 330 11:40 14.09.2019
1966 Clouds 29 1007 79 10000 6.2 330 11:19 14.09.2019
1967 Clouds 30 1007 70 10000 6.2 330 10:39 14.09.2019
1968 Clouds 30 1007 70 10000 6.2 330 10:20 14.09.2019
1969 Clouds 32 1007 59 10000 4.1 310 09:57 14.09.2019
1970 Clouds 32 1007 59 10000 4.1 310 09:39 14.09.2019
1971 Clouds 32 1007 59 10000 4.1 310 09:19 14.09.2019
1972 Clouds 33 1007 52 10000 2.1 210 08:46 14.09.2019
1973 Clouds 33 1007 52 10000 2.1 210 08:23 14.09.2019
1974 Clouds 32 1007 52 10000 2.1 200 07:47 14.09.2019
1975 Clouds 32 1007 52 10000 2.1 200 07:28 14.09.2019
1976 Clouds 32 1008 55 10000 1.5 230 06:44 14.09.2019
1977 Clouds 32 1008 55 10000 1.5 230 06:25 14.09.2019
1978 Clouds 31 1008 58 10000 2.6 260 05:25 14.09.2019
1979 Clouds 29 1009 70 10000 2.1 330 03:45 14.09.2019
1980 Clouds 28 1010 74 10000 2.1 350 02:53 14.09.2019
1981 Clouds 27 1010 78 10000 4.6 330 01:51 14.09.2019
1982 Clouds 27 1010 78 10000 4.6 330 01:22 14.09.2019
1983 Clouds 25 1009 88 10000 2.1 30 00:57 14.09.2019
1984 Clouds 25 1009 88 10000 2.1 30 00:38 14.09.2019
1985 Clouds 25 1009 88 10000 2.1 30 00:20 14.09.2019
1986 Clouds 24 1009 88 10000 1 300 23:38 13.09.2019
1987 Clouds 24 1009 88 10000 1 300 23:19 13.09.2019
1988 Clear 26 1009 83 0 5.36 350 22:57 13.09.2019
1989 Clear 26 1009 83 0 5.36 350 22:38 13.09.2019
1990 Clear 26 1009 83 0 5.36 350 22:19 13.09.2019
1991 Clear 26 1009 83 0 5.36 350 21:41 13.09.2019
1992 Clear 26 1009 83 0 5.36 350 21:20 13.09.2019
1993 Clear 26 1009 83 0 5.36 350 20:59 13.09.2019
1994 Clear 26 1009 83 0 5.36 350 20:40 13.09.2019
1995 Clear 26 1009 83 0 5.36 350 20:21 13.09.2019
1996 -273 0 0 0 0 0 19:56 13.09.2019
1997 Clear 26 1009 83 0 5.36 350 19:37 13.09.2019
1998 Clear 26 1009 83 0 5.36 350 19:19 13.09.2019
1999 Clear 26 1009 83 0 5.36 350 18:54 13.09.2019
2000 Clear 26 1009 83 0 5.36 350 18:36 13.09.2019
2001 Clear 26 1009 83 0 5.36 350 18:18 13.09.2019
2002 Clear 26 1009 83 0 5.36 350 17:37 13.09.2019
2003 Clouds 25 1010 83 10000 1.5 10 17:18 13.09.2019
2004 Clouds 25 1010 83 10000 1.5 10 16:41 13.09.2019
2005 Clouds 25 1010 83 10000 1.5 10 16:20 13.09.2019
2006 Clouds 25 1010 83 10000 1.5 10 15:46 13.09.2019
2007 Clouds 26 1010 83 10000 1.5 10 15:28 13.09.2019
2008 Clouds 26 1009 83 10000 5.7 350 14:58 13.09.2019
2009 Clouds 26 1009 83 10000 5.7 350 14:58 13.09.2019
2010 Clouds 26 1009 83 10000 5.7 350 14:39 13.09.2019
2011 Clouds 26 1009 83 10000 5.7 350 14:19 13.09.2019
2012 Clouds 26 1009 83 10000 5.7 350 14:19 13.09.2019
2013 Clouds 26 1008 78 10000 4.6 360 13:46 13.09.2019
2014 Clouds 26 1008 78 10000 4.6 360 13:24 13.09.2019
2015 Clouds 27 1008 78 10000 5.7 350 12:56 13.09.2019
2016 Clouds 27 1008 78 10000 5.7 350 12:38 13.09.2019
2017 Clouds 28 1007 74 10000 6.2 340 12:20 13.09.2019
2018 Clouds 28 1007 74 10000 6.2 340 11:54 13.09.2019
2019 Clouds 28 1007 74 10000 6.2 340 11:18 13.09.2019
2020 Clouds 30 1007 70 10000 6.2 320 10:38 13.09.2019
2021 Clouds 30 1007 70 10000 6.2 320 10:19 13.09.2019
2022 Clouds 31 1006 62 10000 3.1 320 09:44 13.09.2019
2023 Clouds 32 1006 62 10000 3.1 320 09:24 13.09.2019
2024 Clouds 31 1007 66 10000 5.1 300 08:58 13.09.2019
2025 Clouds 31 1007 66 10000 5.1 300 08:40 13.09.2019
2026 Clouds 31 1007 66 10000 5.1 300 08:20 13.09.2019
2027 Clouds 31 1007 66 10000 5.1 300 08:20 13.09.2019
2028 Clouds 32 1007 59 10000 2.6 230 07:44 13.09.2019
2029 Clouds 32 1007 59 10000 2.6 230 07:26 13.09.2019
2030 Clouds 31 1008 66 10000 3.6 310 06:41 13.09.2019
2031 Clouds 30 1009 62 10000 2.1 230 05:43 13.09.2019
2032 Clouds 30 1009 70 10000 2.1 220 04:39 13.09.2019
2033 Clouds 29 1009 74 10000 2.1 210 03:37 13.09.2019
2034 Clouds 28 1010 74 10000 2.1 160 02:20 13.09.2019
2035 Clouds 27 1010 83 10000 2.1 150 01:38 13.09.2019
2036 Clouds 26 1009 88 10000 2.1 190 01:18 13.09.2019
2037 Clouds 25 1009 88 10000 2.1 190 00:36 13.09.2019
2038 Clouds 25 1009 94 10000 2.1 150 23:54 12.09.2019
2039 Clouds 26 1009 94 10000 2.1 150 23:30 12.09.2019
2040 Rain 27 1012 78 0 4.02 10 22:59 12.09.2019
2041 Rain 27 1012 78 0 4.02 10 22:40 12.09.2019
2042 Rain 27 1012 78 0 4.02 10 22:22 12.09.2019
2043 Rain 27 1010 78 0 4.02 10 21:56 12.09.2019
2044 Rain 27 1010 78 0 4.02 10 21:56 12.09.2019
2045 Rain 27 1012 78 0 4.02 10 21:37 12.09.2019
2046 Clouds 27 1012 78 0 4.02 10 21:19 12.09.2019
2047 Clouds 27 1010 78 0 4.02 10 20:44 12.09.2019
2048 Clouds 27 1010 78 0 4.02 10 20:44 12.09.2019
2049 Clouds 27 1012 78 0 4.02 10 20:23 12.09.2019
2050 Clouds 27 1010 78 0 4.02 10 19:58 12.09.2019
2051 Clouds 27 1010 78 0 4.02 10 19:40 12.09.2019
2052 Clouds 27 1012 78 0 4.02 10 19:20 12.09.2019
2053 Clouds 27 1010 78 0 4.02 10 18:57 12.09.2019
2054 Clouds 27 1010 78 0 4.02 10 18:36 12.09.2019
2055 Clear 27 1010 78 0 4.02 10 18:18 12.09.2019
2056 Clear 27 1010 78 0 4.02 10 17:41 12.09.2019
2057 Clouds 26 1011 83 10000 2.6 310 17:20 12.09.2019
2058 -273 0 0 0 0 0 16:56 12.09.2019
2059 Clouds 26 1011 83 10000 2.6 310 16:38 12.09.2019
2060 Clouds 26 1011 83 10000 2.6 310 16:19 12.09.2019
2061 Clouds 26 1011 83 10000 2.1 340 15:41 12.09.2019
2062 Clouds 26 1011 83 10000 2.1 340 15:23 12.09.2019
2063 Clouds 26 1010 78 10000 4.1 10 14:46 12.09.2019
2064 Clouds 26 1010 78 10000 4.1 10 14:22 12.09.2019
2065 Clouds 27 1010 78 10000 6.2 360 13:58 12.09.2019
2066 Clouds 27 1010 78 10000 6.2 360 13:37 12.09.2019
2067 Clouds 27 1010 78 10000 6.2 360 13:19 12.09.2019
2068 Clouds 27 1010 78 10000 7.2 350 12:45 12.09.2019
2069 Clouds 27 1010 78 10000 7.2 350 12:19 12.09.2019
2070 Clouds 28 1009 78 10000 7.2 350 11:56 12.09.2019
2071 Clouds 28 1009 78 10000 7.2 350 11:38 12.09.2019
2072 Clouds 28 1009 78 10000 7.2 350 11:19 12.09.2019
2073 Clouds 29 1009 70 10000 5.7 350 10:44 12.09.2019
2074 Clouds 29 1009 70 10000 5.7 350 10:25 12.09.2019
2075 Clouds 30 1009 74 10000 6.2 340 09:45 12.09.2019
2076 Clouds 30 1009 74 10000 6.2 340 09:25 12.09.2019
2077 Clouds 32 1009 66 10000 7.2 330 08:58 12.09.2019
2078 Clouds 32 1009 66 10000 7.2 330 08:40 12.09.2019
2079 Clouds 32 1009 66 10000 7.2 330 08:21 12.09.2019
2080 Clouds 32 1010 66 10000 3.6 280 07:39 12.09.2019
2081 Clouds 32 1011 66 10000 2.6 230 07:19 12.09.2019
2082 Clouds 32 1011 66 10000 2.6 230 06:50 12.09.2019
2083 Clouds 32 1011 66 10000 2.6 230 06:19 12.09.2019
2084 Clouds 32 1011 66 10000 4.1 270 05:49 12.09.2019
2085 Clouds 32 1011 66 10000 4.1 270 05:29 12.09.2019
2086 Clouds 31 1012 70 10000 3.6 350 04:35 12.09.2019
2087 Clouds 28 1012 88 10000 1.5 20 01:48 12.09.2019
2088 Clouds 28 1012 88 10000 1.5 20 01:30 12.09.2019
2089 Clouds 27 1012 94 10000 2.1 110 00:58 12.09.2019
2090 Clouds 27 1012 94 10000 2.1 110 00:40 12.09.2019
2091 Clouds 27 1012 94 10000 2.1 110 00:22 12.09.2019
2092 Clouds 25 1013 94 10000 0.5 0 23:41 11.09.2019
2093 Clouds 26 1013 94 10000 0.5 0 23:21 11.09.2019
2094 Rain 28 1013 88 0 4.47 320 22:56 11.09.2019
2095 Rain 28 1013 88 0 4.47 320 22:37 11.09.2019
2096 Rain 28 1013 88 0 4.47 320 22:18 11.09.2019
2097 Rain 28 1013 88 0 4.47 320 21:42 11.09.2019
2098 Clear 28 1013 88 0 4.47 320 21:24 11.09.2019
2099 Clear 28 1013 88 0 4.47 320 20:57 11.09.2019
2100 Clear 28 1013 88 0 4.47 320 20:38 11.09.2019
2101 Clear 28 1013 88 0 4.47 320 20:19 11.09.2019
2102 Clear 28 1013 88 0 4.47 320 19:58 11.09.2019
2103 Clear 28 1013 88 0 4.47 320 19:39 11.09.2019
2104 Clear 28 1013 88 0 4.47 320 19:39 11.09.2019
2105 Clear 28 1013 88 0 4.47 320 19:19 11.09.2019
2106 Clear 28 1013 88 0 4.47 320 18:56 11.09.2019
2107 Clear 28 1013 88 0 4.47 320 18:37 11.09.2019
2108 Clear 28 1013 88 0 4.47 320 18:19 11.09.2019
2109 Clear 28 1013 88 0 4.47 320 17:42 11.09.2019
2110 Clouds 27 1013 88 10000 2.6 20 17:22 11.09.2019
2111 Clouds 27 1013 88 10000 2.6 20 16:59 11.09.2019
2112 Clouds 27 1013 88 10000 2.6 20 16:40 11.09.2019
2113 Clouds 27 1013 88 10000 2.6 20 16:21 11.09.2019
2114 Clouds 27 1014 88 10000 3.1 40 15:47 11.09.2019
2115 Clouds 28 1014 88 10000 3.1 40 15:24 11.09.2019
2116 Clouds 28 1013 88 10000 4.6 320 14:59 11.09.2019
2117 Clouds 28 1013 88 10000 4.6 320 14:40 11.09.2019
2118 Clouds 28 1013 88 10000 4.6 320 14:20 11.09.2019
2119 Clouds 28 1013 88 10000 5.1 330 13:59 11.09.2019
2120 Clouds 28 1013 88 10000 5.1 330 13:37 11.09.2019
2121 Clouds 28 1013 88 10000 5.1 330 13:18 11.09.2019
2122 Clouds 28 1012 88 10000 5.1 330 12:42 11.09.2019
2123 Clouds 29 1012 79 10000 2.6 260 12:22 11.09.2019
2124 Clouds 29 1012 79 10000 2.6 260 11:58 11.09.2019
2125 Clouds 29 1012 79 10000 2.6 260 11:38 11.09.2019
2126 Clouds 29 1012 79 10000 2.6 260 11:19 11.09.2019
2127 Clouds 31 1012 74 10000 4.1 330 10:41 11.09.2019
2128 Clouds 31 1012 74 10000 4.1 330 10:22 11.09.2019
2129 Clouds 32 1012 66 10000 4.1 250 09:57 11.09.2019
2130 Clouds 32 1012 66 10000 4.1 250 09:37 11.09.2019
2131 Clouds 32 1012 66 10000 4.1 250 09:18 11.09.2019
2132 Clouds 33 1012 63 10000 3.6 260 08:40 11.09.2019
2133 Clouds 33 1012 63 10000 3.6 260 08:40 11.09.2019
2134 Clouds 33 1012 63 10000 3.6 260 08:21 11.09.2019
2135 Clouds 33 1012 63 10000 3.6 250 07:49 11.09.2019
2136 Clouds 33 1012 63 10000 3.6 250 07:24 11.09.2019
2137 Clouds 32 1013 66 10000 1.5 250 06:56 11.09.2019
2138 Clouds 32 1013 66 10000 1.5 250 06:36 11.09.2019
2139 Clouds 32 1014 70 10000 1 0 05:50 11.09.2019
2140 Clouds 32 1014 70 10000 1 0 05:30 11.09.2019
2141 Clouds 31 1014 66 10000 1 30 04:52 11.09.2019
2142 Clouds 30 1015 79 10000 1 0 03:40 11.09.2019
2143 Clouds 30 1015 79 10000 1 0 03:40 11.09.2019
2144 Clouds 30 1015 79 10000 1 0 03:20 11.09.2019
2145 Clouds 29 1015 79 10000 1 0 02:28 11.09.2019
2146 Clouds 28 1015 88 10000 1 90 01:21 11.09.2019
2147 Clouds 26 1015 100 10000 1.5 120 00:31 11.09.2019
2148 Clouds 25 1015 100 10000 1 80 23:58 10.09.2019
2149 Clouds 25 1015 100 10000 1 80 23:39 10.09.2019
2150 Clouds 25 1015 100 10000 1 80 23:20 10.09.2019
2151 Rain 27 1014 88 0 2.06 146.248 22:41 10.09.2019
2152 Rain 27 1014 88 0 2.06 146.248 22:20 10.09.2019
2153 Rain 27 1014 88 0 2.06 146.248 21:57 10.09.2019
2154 Rain 27 1014 88 0 2.06 146.248 21:38 10.09.2019
2155 Rain 27 1014 88 0 1.86 165.994 21:20 10.09.2019
2156 Rain 27 1014 88 0 1.86 165.994 20:58 10.09.2019
2157 Rain 27 1014 88 0 2.15 149.384 20:40 10.09.2019
2158 Rain 27 1014 88 0 2.15 149.384 20:22 10.09.2019
2159 Rain 27 1014 88 0 2.15 149.384 19:57 10.09.2019
2160 Rain 27 1014 88 0 2.15 149.384 19:38 10.09.2019
2161 Rain 27 1014 88 0 2.15 149.384 19:19 10.09.2019
2162 Rain 27 1014 88 0 2.15 149.384 18:56 10.09.2019
2163 Rain 27 1014 88 0 2.15 149.384 18:37 10.09.2019
2164 Clouds 27 1014 88 0 2.78 166.724 18:19 10.09.2019
2165 Clouds 27 1014 88 0 2.78 166.724 17:44 10.09.2019
2166 Clouds 27 1014 94 10000 1 0 17:23 10.09.2019
2167 Clouds 27 1014 94 10000 1 0 16:59 10.09.2019
2168 Clouds 27 1014 94 10000 1 0 16:59 10.09.2019
2169 Clouds 27 1014 94 10000 1 0 16:40 10.09.2019
2170 Clouds 27 1014 94 10000 1 0 16:21 10.09.2019
2171 Clouds 27 1014 94 10000 1 0 16:21 10.09.2019
2172 Clouds 27 1014 88 10000 1.5 360 15:59 10.09.2019
2173 Clouds 27 1014 88 10000 1.5 360 15:40 10.09.2019
2174 Clouds 27 1014 88 10000 1.5 360 15:20 10.09.2019
2175 Clouds 27 1014 88 10000 2.17 158.615 14:42 10.09.2019
2176 Clouds 27 1014 88 10000 2.17 158.615 14:24 10.09.2019
2177 Clouds 28 1013 83 10000 2.6 230 13:56 10.09.2019
2178 Clouds 28 1013 83 10000 2.6 230 13:37 10.09.2019
2179 Clouds 28 1013 83 10000 2.6 230 13:19 10.09.2019
2180 Clouds 29 1013 79 10000 1.5 260 12:43 10.09.2019
2181 Clouds 29 1013 79 10000 1.5 260 12:24 10.09.2019
2182 Clouds 30 1012 79 10000 3.6 320 11:57 10.09.2019
2183 Clouds 30 1012 79 10000 3.6 320 11:57 10.09.2019
2184 Clouds 30 1012 79 10000 3.6 320 11:39 10.09.2019
2185 Clouds 31 1012 74 10000 4.1 270 11:20 10.09.2019
2186 Clouds 31 1012 74 10000 4.1 270 10:42 10.09.2019
2187 Clouds 32 1012 66 10000 3.1 270 10:19 10.09.2019
2188 Clouds 32 1012 66 10000 3.1 270 09:56 10.09.2019
2189 Clouds 32 1012 66 10000 3.1 270 09:37 10.09.2019
2190 Clouds 32 1012 63 10000 2.1 0 09:18 10.09.2019
2191 Clouds 33 1012 63 10000 2.1 0 08:43 10.09.2019
2192 Clouds 33 1012 63 10000 2.1 0 08:24 10.09.2019
2193 Clouds 33 1012 63 10000 2.1 0 08:24 10.09.2019
2194 Clouds 33 1012 66 10000 2.1 0 07:44 10.09.2019
2195 Clouds 33 1012 66 10000 2.1 0 07:26 10.09.2019
2196 Thunderstorm 31 1013 74 10000 2.6 330 06:51 10.09.2019
2197 Thunderstorm 29 1013 74 10000 2.6 330 06:32 10.09.2019
2198 Rain 30 1014 88 10000 2.1 220 04:57 10.09.2019
2199 Clouds 30 1014 74 10000 3.1 140 03:48 10.09.2019
2200 Clouds 29 1014 83 10000 3.1 150 02:23 10.09.2019
2201 Clouds 28 1014 88 10000 2.6 140 01:55 10.09.2019
2202 Clouds 28 1014 88 10000 2.6 140 01:55 10.09.2019
2203 Clouds 28 1014 88 10000 2.6 140 01:37 10.09.2019
2204 Clouds 27 1013 94 10000 2.6 130 00:46 10.09.2019
2205 Clouds 26 1013 94 10000 2.1 110 00:25 10.09.2019
2206 Clouds 25 1013 94 10000 2.1 110 23:47 09.09.2019
2207 Rain 26 1013 94 0 1.79 110 23:20 09.09.2019
2208 Rain 27 1011 88 0 1.79 140 22:56 09.09.2019
2209 Rain 27 1013 88 0 1.79 140 22:38 09.09.2019
2210 Rain 27 1013 88 0 1.79 140 22:20 09.09.2019
2211 Rain 27 1011 88 0 1.79 140 21:56 09.09.2019
2212 Rain 27 1013 88 0 1.79 140 21:37 09.09.2019
2213 Clouds 27 1013 88 0 1.79 140 21:19 09.09.2019
2214 Clouds 27 1011 88 0 1.79 140 20:55 09.09.2019
2215 Rain 27 1011 88 0 1.79 140 20:37 09.09.2019
2216 Rain 27 1011 88 0 1.79 140 20:19 09.09.2019
2217 Rain 27 1011 88 0 1.79 140 20:19 09.09.2019
2218 Rain 27 1011 88 0 1.79 140 19:56 09.09.2019
2219 Rain 27 1011 88 0 1.79 140 19:56 09.09.2019
2220 Rain 27 1011 88 0 1.79 140 19:38 09.09.2019
2221 Rain 27 1011 88 0 1.79 140 19:19 09.09.2019
2222 Rain 27 1011 88 0 1.79 140 18:56 09.09.2019
2223 Rain 27 1013 88 0 1.79 140 18:38 09.09.2019
2224 Clouds 27 1013 88 0 1.79 140 18:19 09.09.2019
2225 Clouds 27 1011 88 0 1.79 140 17:56 09.09.2019
2226 Clouds 28 1011 74 10000 2.6 200 17:38 09.09.2019
2227 Clouds 27 1011 88 0 1.79 140 17:38 09.09.2019
2228 Clouds 28 1011 74 10000 2.6 200 17:20 09.09.2019
2229 Clouds 28 1011 74 10000 2.6 200 16:55 09.09.2019
2230 Clouds 28 1011 74 10000 2.6 200 16:36 09.09.2019
2231 Clouds 28 1011 74 10000 4.1 220 16:18 09.09.2019
2232 Clouds 28 1011 74 10000 4.1 220 15:42 09.09.2019
2233 Clouds 28 1011 74 10000 4.1 220 15:24 09.09.2019
2234 Clouds 28 1011 88 10000 2.1 140 14:58 09.09.2019
2235 Clouds 28 1011 88 10000 2.1 140 14:40 09.09.2019
2236 Clouds 28 1011 88 10000 2.1 140 14:40 09.09.2019
2237 Clouds 28 1011 88 10000 2.1 140 14:40 09.09.2019
2238 Clouds 28 1011 88 10000 2.1 140 14:21 09.09.2019
2239 Clouds 28 1011 88 10000 1 0 13:55 09.09.2019
2240 Clouds 28 1011 88 10000 1 0 13:37 09.09.2019
2241 Clouds 28 1010 70 10000 2.6 160 13:18 09.09.2019
2242 Clouds 29 1010 70 10000 2.6 160 12:42 09.09.2019
2243 Clouds 30 1009 70 10000 2.6 180 12:22 09.09.2019
2244 Clouds 30 1009 70 10000 2.6 180 11:59 09.09.2019
2245 Clouds 30 1009 70 10000 2.6 180 11:40 09.09.2019
2246 Clouds 31 1009 70 10000 3.1 190 11:18 09.09.2019
2247 Clouds 31 1009 70 10000 3.1 190 10:42 09.09.2019
2248 Clouds 31 1009 70 10000 3.1 190 10:23 09.09.2019
2249 Clouds 31 1008 70 10000 4.1 200 09:58 09.09.2019
2250 Clouds 31 1008 70 10000 4.1 200 09:39 09.09.2019
2251 Clouds 31 1008 70 10000 4.1 200 09:21 09.09.2019
2252 Clouds 32 1008 62 10000 3.6 200 08:39 09.09.2019
2253 Clouds 32 1008 62 10000 3.6 200 08:21 09.09.2019
2254 Clouds 32 1008 55 10000 8.2 160 07:57 09.09.2019
2255 Clouds 32 1008 55 10000 8.2 160 07:38 09.09.2019
2256 Clouds 32 1009 63 10000 5.7 160 07:19 09.09.2019
2257 Clouds 32 1009 63 10000 5.7 160 06:46 09.09.2019
2258 Clouds 32 1009 66 10000 5.1 150 05:34 09.09.2019
2259 Clouds 29 1009 83 10000 4.6 170 02:59 09.09.2019
2260 Clouds 29 1009 83 10000 4.6 170 02:40 09.09.2019
2261 Fog 26 1010 100 2000 2.6 30 00:54 09.09.2019
2262 Mist 26 1009 88 10000 2.6 120 00:23 09.09.2019
2263 Clouds 25 1009 94 10000 4.6 150 23:46 08.09.2019
2264 Clouds 26 1009 94 10000 4.6 150 23:27 08.09.2019
2265 Clouds 26 1009 94 10000 4.6 150 23:27 08.09.2019
2266 Clear 27 1009 88 0 1.34 300 22:58 08.09.2019
2267 Clear 27 1009 88 0 1.34 300 22:38 08.09.2019
2268 Clear 27 1009 88 0 1.34 300 22:20 08.09.2019
2269 Clear 27 1009 88 0 1.34 300 21:55 08.09.2019
2270 Clear 27 1009 88 0 1.34 300 21:36 08.09.2019
2271 Clear 27 1009 88 0 1.34 300 21:18 08.09.2019
2272 Clear 27 1009 88 0 1.34 300 20:40 08.09.2019
2273 Clear 27 1009 88 0 1.34 300 20:22 08.09.2019
2274 Clear 27 1009 88 0 1.34 300 19:59 08.09.2019
2275 Clear 27 1009 88 0 1.34 300 19:38 08.09.2019
2276 Clear 27 1009 88 0 1.34 300 19:38 08.09.2019
2277 Clear 27 1009 88 0 1.34 300 19:20 08.09.2019
2278 Clear 27 1009 88 0 1.34 300 18:57 08.09.2019
2279 Clear 27 1009 88 0 1.34 300 18:38 08.09.2019
2280 Clear 27 1009 88 0 1.34 300 18:19 08.09.2019
2281 Clear 27 1009 88 0 1.34 300 17:56 08.09.2019
2282 Clear 27 1009 88 0 1.34 300 17:37 08.09.2019
2283 Clouds 26 1009 94 10000 1.5 100 17:18 08.09.2019
2284 Clouds 26 1009 94 10000 1.5 100 16:44 08.09.2019
2285 Clouds 26 1009 94 10000 1.5 100 16:22 08.09.2019
2286 Rain 26 1010 94 10000 4.1 100 15:58 08.09.2019
2287 Thunderstorm 26 1009 94 2500 4.6 160 15:40 08.09.2019
2288 Thunderstorm 27 1009 94 2500 4.6 160 15:21 08.09.2019
2289 Thunderstorm 27 1010 94 1500 8.2 160 14:57 08.09.2019
2290 Thunderstorm 27 1010 94 1500 8.2 160 14:57 08.09.2019
2291 Thunderstorm 27 1009 88 10000 1.5 300 14:38 08.09.2019
2292 Clouds 28 1008 88 10000 3.1 350 14:20 08.09.2019
2293 Clouds 28 1008 88 10000 3.1 350 13:56 08.09.2019
2294 Clouds 28 1008 88 10000 3.1 350 13:37 08.09.2019
2295 Clouds 28 1007 88 10000 3.1 360 13:19 08.09.2019
2296 Clouds 28 1007 88 10000 3.1 360 12:42 08.09.2019
2297 Clouds 28 1007 88 10000 3.1 360 12:42 08.09.2019
2298 Clouds 28 1007 88 10000 3.1 360 12:23 08.09.2019
2299 Clouds 30 1006 74 10000 2.6 260 11:58 08.09.2019
2300 Clouds 30 1006 74 10000 2.6 260 11:39 08.09.2019
2301 Clouds 31 1006 70 10000 3.6 250 11:20 08.09.2019
2302 Clouds 31 1006 70 10000 3.6 250 10:57 08.09.2019
2303 Clouds 31 1006 70 10000 3.6 250 10:57 08.09.2019
2304 Clouds 31 1006 70 10000 3.6 250 10:39 08.09.2019
2305 Clouds 31 1006 70 10000 3.6 250 10:21 08.09.2019
2306 Clouds 31 1006 70 10000 3.6 250 09:38 08.09.2019
2307 Clouds 32 1006 66 10000 2.1 0 09:20 08.09.2019
2308 Clouds 32 1006 66 10000 2.1 0 08:56 08.09.2019
2309 Clouds 32 1006 66 10000 2.1 0 08:37 08.09.2019
2310 Clouds 32 1006 66 10000 1 0 08:18 08.09.2019
2311 Clouds 31 1006 66 10000 1 0 07:39 08.09.2019
2312 Clouds 31 1007 66 10000 3.6 140 07:20 08.09.2019
2313 Clouds 31 1007 66 10000 3.6 140 06:49 08.09.2019
2314 Clouds 30 1007 74 10000 4.6 130 06:18 08.09.2019
2315 Clouds 30 1007 74 10000 4.6 130 05:36 08.09.2019
2316 Clouds 29 1008 79 10000 4.6 160 03:53 08.09.2019
2317 Clouds 27 1008 94 10000 7.2 140 02:55 08.09.2019
2318 Clouds 27 1008 94 10000 7.2 140 02:26 08.09.2019
2319 Clouds 26 1008 100 10000 4.1 130 01:39 08.09.2019
2320 Rain 25 1008 100 10000 4.1 130 01:18 08.09.2019
2321 Rain 26 1008 100 10000 4.1 130 00:42 08.09.2019
2322 Rain 26 1008 100 10000 4.1 130 00:23 08.09.2019
2323 Rain 25 1008 94 8000 4.1 170 23:38 07.09.2019
2324 Rain 25 1008 94 8000 4.1 170 23:38 07.09.2019
2325 Rain 26 1009 94 0 4.02 170 23:19 07.09.2019
2326 Rain 27 1008 88 0 3.58 120 22:57 07.09.2019
2327 Rain 27 1008 88 0 3.58 120 22:38 07.09.2019
2328 Rain 27 1008 88 0 3.58 120 22:19 07.09.2019
2329 Rain 27 1008 88 0 3.58 120 21:41 07.09.2019
2330 Rain 27 1008 88 0 3.58 120 21:23 07.09.2019
2331 Rain 27 1008 88 0 3.58 120 20:42 07.09.2019
2332 Rain 27 1008 88 0 3.58 120 20:23 07.09.2019
2333 Rain 27 1008 88 0 3.58 120 19:58 07.09.2019
2334 Rain 27 1008 88 0 3.58 120 19:39 07.09.2019
2335 Rain 27 1008 88 0 3.58 120 19:21 07.09.2019
2336 Rain 27 1008 88 0 3.58 120 18:59 07.09.2019
2337 Rain 27 1008 88 0 3.58 120 18:40 07.09.2019
2338 Rain 27 1010 88 0 3.58 120 18:22 07.09.2019
2339 Rain 27 1008 88 0 3.58 120 17:59 07.09.2019
2340 Rain 27 1008 88 0 3.58 120 17:40 07.09.2019
2341 Clouds 27 1008 88 10000 2.1 180 17:19 07.09.2019
2342 Clouds 27 1008 88 10000 2.1 180 17:19 07.09.2019
2343 Clouds 27 1008 88 10000 2.1 180 16:59 07.09.2019
2344 Clouds 27 1008 88 10000 2.1 180 16:59 07.09.2019
2345 Clouds 27 1008 88 10000 2.1 180 16:40 07.09.2019
2346 Clouds 27 1008 88 10000 3.1 180 16:19 07.09.2019
2347 Clouds 27 1008 88 10000 3.1 180 15:47 07.09.2019
2348 Clouds 27 1008 88 10000 3.1 180 15:26 07.09.2019
2349 Clouds 27 1008 88 10000 3.6 120 14:57 07.09.2019
2350 Clouds 27 1008 88 10000 3.6 120 14:37 07.09.2019
2351 Clouds 27 1007 88 10000 3.6 120 14:19 07.09.2019
2352 Clouds 27 1007 88 10000 3.6 120 13:57 07.09.2019
2353 Clouds 27 1007 88 10000 3.6 120 13:39 07.09.2019
2354 Clouds 27 1007 88 10000 3.1 100 13:20 07.09.2019
2355 Clouds 27 1007 88 10000 3.1 100 12:44 07.09.2019
2356 Clouds 27 1007 88 10000 3.1 100 12:25 07.09.2019
2357 Clouds 28 1006 83 10000 2.1 170 11:42 07.09.2019
2358 Clouds 28 1006 83 10000 2.1 170 11:23 07.09.2019
2359 Clouds 29 1006 79 10000 3.6 180 10:59 07.09.2019
2360 Clouds 29 1006 79 10000 3.6 180 10:38 07.09.2019
2361 Rain 29 1006 83 10000 5.1 170 10:19 07.09.2019
2362 Rain 29 1006 83 10000 5.1 170 09:43 07.09.2019
2363 Rain 29 1006 83 10000 5.1 170 09:24 07.09.2019
2364 Rain 27 1007 88 10000 4.1 190 08:57 07.09.2019
2365 Rain 28 1006 74 10000 5.7 180 08:37 07.09.2019
2366 Clouds 29 1006 79 10000 5.7 150 08:19 07.09.2019
2367 Clouds 29 1006 79 10000 5.7 150 07:45 07.09.2019
2368 Clouds 29 1006 79 10000 5.7 150 07:24 07.09.2019
2369 Rain 29 1007 79 10000 6.7 160 06:43 07.09.2019
2370 Rain 28 1007 83 10000 6.7 140 06:19 07.09.2019
2371 Rain 27 1007 88 10000 8.7 170 04:33 07.09.2019
2372 Rain 27 1007 94 10000 8.2 160 03:44 07.09.2019
2373 Rain 27 1007 88 10000 8.7 160 02:31 07.09.2019
2374 Rain 26 1006 94 10000 9.3 160 01:44 07.09.2019
2375 Rain 27 1006 88 10000 10.8 160 00:55 07.09.2019
2376 Rain 27 1006 88 10000 10.8 150 00:36 07.09.2019
2377 Clouds 28 1005 83 10000 10.3 140 00:18 07.09.2019
2378 Clouds 28 1005 83 10000 10.3 140 23:38 06.09.2019
2379 Clouds 28 1005 83 10000 10.3 140 23:38 06.09.2019
2380 Rain 29 1005 70 0 7.6 120 23:20 06.09.2019
2381 Rain 29 1005 70 0 7.6 120 22:57 06.09.2019
2382 Rain 29 1005 70 0 7.6 120 22:37 06.09.2019
2383 Rain 29 1005 70 0 7.6 120 22:18 06.09.2019
2384 Rain 29 1005 70 0 7.6 120 21:55 06.09.2019
2385 Rain 29 1005 70 0 7.6 120 21:36 06.09.2019
2386 Rain 29 1005 70 0 7.6 120 21:18 06.09.2019
2387 Clouds 29 1005 70 0 7.6 120 20:41 06.09.2019
2388 Clouds 29 1005 70 0 7.6 120 20:22 06.09.2019
2389 Clouds 29 1005 70 0 7.6 120 19:59 06.09.2019
2390 Clouds 29 1005 70 0 7.6 120 19:41 06.09.2019
2391 Clouds 29 1015 70 0 7.6 120 19:21 06.09.2019
2392 Clouds 29 1015 70 0 7.6 120 18:55 06.09.2019
2393 Clouds 29 1015 70 0 7.6 120 18:37 06.09.2019
2394 Clouds 29 1015 70 0 7.6 120 18:37 06.09.2019
2395 Clouds 29 1015 70 0 7.6 120 18:18 06.09.2019
2396 Clouds 29 1014 70 0 7.6 120 17:39 06.09.2019
2397 Clouds 28 1005 74 10000 5.7 110 17:20 06.09.2019
2398 Clouds 28 1005 74 10000 5.7 110 16:43 06.09.2019
2399 Clouds 28 1006 74 10000 5.7 110 16:20 06.09.2019
2400 Clouds 28 1006 74 10000 5.7 110 15:59 06.09.2019
2401 Clouds 28 1006 74 10000 5.7 110 15:41 06.09.2019
2402 Clouds 29 1006 74 10000 5.7 110 15:22 06.09.2019
2403 Clouds 29 1005 70 10000 7.7 120 14:46 06.09.2019
2404 Clouds 29 1004 70 10000 7.2 110 14:19 06.09.2019
2405 Clouds 29 1004 70 10000 7.2 110 13:44 06.09.2019
2406 Clouds 29 1004 70 10000 7.2 110 13:23 06.09.2019
2407 Clouds 29 1004 66 10000 6.7 120 12:56 06.09.2019
2408 Clouds 29 1004 66 10000 6.7 120 12:36 06.09.2019
2409 Clouds 30 1004 66 10000 6.2 120 12:18 06.09.2019
2410 Clouds 30 1004 66 10000 6.2 120 12:18 06.09.2019
2411 Clouds 30 1004 66 10000 6.2 120 11:40 06.09.2019
2412 Clouds 30 1004 66 10000 6.2 120 11:22 06.09.2019
2413 Clouds 31 1005 62 10000 9.8 140 10:56 06.09.2019
2414 Clouds 32 1005 62 10000 9.8 140 10:38 06.09.2019
2415 Clouds 32 1005 62 10000 8.2 130 10:18 06.09.2019
2416 Clouds 32 1005 62 10000 8.2 130 09:38 06.09.2019
2417 Clouds 33 1004 55 10000 6.7 120 09:19 06.09.2019
2418 Clouds 33 1004 55 10000 6.7 120 08:54 06.09.2019
2419 Clouds 33 1004 55 10000 6.7 120 08:36 06.09.2019
2420 Clouds 33 1005 56 10000 7.2 100 08:18 06.09.2019
2421 Clouds 33 1005 62 10000 8.2 100 07:41 06.09.2019
2422 Clouds 32 1005 62 10000 8.2 100 07:22 06.09.2019
2423 Clouds 32 1005 59 10000 6.7 120 06:41 06.09.2019
2424 Clouds 32 1006 66 10000 5.1 120 05:58 06.09.2019
2425 Clouds 30 1008 70 10000 5.1 120 04:56 06.09.2019
2426 Clouds 29 1008 70 10000 5.1 120 04:25 06.09.2019
2427 Clouds 29 1008 70 10000 5.7 110 03:23 06.09.2019
2428 Clouds 27 1008 83 10000 6.7 140 01:31 06.09.2019
2429 Clouds 25 1009 94 10000 2.1 130 00:23 06.09.2019
2430 Clouds 25 1009 94 10000 2.1 130 23:42 05.09.2019
2431 Clouds 25 1009 94 10000 2.1 130 23:22 05.09.2019
2432 Clouds 28 1010 83 0 3.58 140 22:46 05.09.2019
2433 Clouds 28 1010 83 0 3.58 140 22:46 05.09.2019
2434 Clouds 28 1010 83 0 3.58 140 22:26 05.09.2019
2435 Clouds 28 1010 83 0 3.58 140 21:58 05.09.2019
2436 Clouds 28 1010 83 0 3.58 140 21:39 05.09.2019
2437 Clouds 28 1010 83 0 3.58 140 21:20 05.09.2019
2438 Clouds 28 1010 83 0 3.58 140 21:20 05.09.2019
2439 Clouds 28 1010 83 0 3.58 140 20:58 05.09.2019
2440 Clouds 28 1010 83 0 3.58 140 20:39 05.09.2019
2441 Clouds 28 1010 83 0 3.58 140 20:20 05.09.2019
2442 Clouds 28 1010 83 0 3.58 140 19:57 05.09.2019
2443 Clouds 28 1010 83 0 3.58 140 19:39 05.09.2019
2444 Clouds 28 1013 83 0 3.58 140 19:20 05.09.2019
2445 Clouds 28 1010 83 0 3.58 140 18:43 05.09.2019
2446 Clouds 28 1010 83 0 3.58 140 18:43 05.09.2019
2447 Clouds 28 1010 83 0 3.58 140 18:25 05.09.2019
2448 Clouds 28 1010 83 0 3.58 140 17:59 05.09.2019
2449 Clouds 28 1010 83 0 3.58 140 17:39 05.09.2019
2450 Clear 27 1011 88 10000 1.5 30 17:20 05.09.2019
2451 Clear 27 1011 88 10000 1.5 30 16:57 05.09.2019
2452 Clear 27 1011 88 10000 1.5 30 16:39 05.09.2019
2453 Clear 27 1011 94 10000 2.1 20 16:18 05.09.2019
2454 Clear 27 1011 94 10000 2.1 20 15:40 05.09.2019
2455 Clear 27 1011 94 10000 2.1 20 15:40 05.09.2019
2456 Clouds 28 1010 83 10000 3.6 140 15:19 05.09.2019
2457 Clouds 28 1010 83 10000 3.6 140 14:57 05.09.2019
2458 Clouds 28 1010 83 10000 3.6 140 14:38 05.09.2019
2459 Clouds 28 1010 83 10000 3.6 140 14:38 05.09.2019
2460 Clouds 27 1010 83 10000 3.1 140 14:18 05.09.2019
2461 Clouds 27 1010 83 10000 3.1 140 13:43 05.09.2019
2462 Clouds 28 1009 79 10000 1 0 13:20 05.09.2019
2463 Clouds 28 1009 79 10000 1 0 12:44 05.09.2019
2464 Clouds 28 1009 79 10000 1 0 12:26 05.09.2019
2465 Clouds 29 1009 79 10000 2.6 300 11:57 05.09.2019
2466 Clouds 29 1009 79 10000 2.6 300 11:38 05.09.2019
2467 Clouds 31 1009 66 10000 2.1 250 11:18 05.09.2019
2468 Clouds 31 1009 66 10000 2.1 250 10:41 05.09.2019
2469 Clouds 31 1009 66 10000 2.1 250 10:22 05.09.2019
2470 Rain 30 1009 62 10000 2.6 360 10:22 05.09.2019
2471 Rain 31 1009 62 10000 2.6 360 09:57 05.09.2019
2472 Rain 31 1009 62 10000 2.6 360 09:38 05.09.2019
2473 Thunderstorm 33 1009 56 10000 2.6 350 09:18 05.09.2019
2474 Thunderstorm 33 1009 56 10000 2.6 350 09:18 05.09.2019
2475 Thunderstorm 33 1009 56 10000 2.6 350 09:18 05.09.2019
2476 Thunderstorm 33 1009 56 10000 2.6 350 08:43 05.09.2019
2477 Thunderstorm 32 1009 56 10000 2.6 350 08:25 05.09.2019
2478 Clouds 32 1010 62 10000 2.1 10 07:44 05.09.2019
2479 Clouds 32 1010 62 10000 2.1 10 07:26 05.09.2019
2480 Clouds 32 1011 66 10000 1 0 06:52 05.09.2019
2481 Clouds 32 1011 66 10000 1 0 06:29 05.09.2019
2482 Clouds 31 1012 66 10000 1.5 10 05:49 05.09.2019
2483 Clouds 31 1012 66 10000 1.5 10 05:30 05.09.2019
2484 Clouds 29 1012 79 10000 2.6 360 04:47 05.09.2019
2485 Clouds 29 1012 83 10000 4.1 350 04:19 05.09.2019
2486 Clouds 28 1012 83 10000 4.1 350 03:34 05.09.2019
2487 Clouds 28 1012 83 10000 1 0 02:44 05.09.2019
2488 Clouds 26 1012 88 10000 2.1 120 02:18 05.09.2019
2489 Clouds 26 1012 88 10000 2.1 120 01:25 05.09.2019
2490 Clouds 25 1012 100 10000 2.6 150 00:42 05.09.2019
2491 Clouds 24 1013 94 10000 2.1 110 00:20 05.09.2019
2492 Clouds 24 1013 94 10000 2.1 110 23:46 04.09.2019
2493 Clouds 24 1013 94 10000 2.1 110 23:23 04.09.2019
2494 Clouds 26 1013 94 0 5.36 120 22:57 04.09.2019
2495 Clouds 26 1013 94 0 5.36 120 22:38 04.09.2019
2496 Clouds 26 1013 94 0 5.36 120 22:18 04.09.2019
2497 Clouds 26 1013 94 0 5.36 120 21:39 04.09.2019
2498 Clouds 26 1013 94 0 5.36 120 21:20 04.09.2019
2499 Clouds 26 1013 94 0 5.36 120 20:56 04.09.2019
2500 Clouds 26 1013 94 0 5.36 120 20:37 04.09.2019
2501 Clouds 26 1013 94 0 5.36 120 20:18 04.09.2019
2502 Clouds 26 1013 94 0 5.36 120 19:45 04.09.2019
2503 Clouds 26 1013 94 0 5.36 120 19:25 04.09.2019
2504 Clouds 26 1013 94 0 5.36 120 18:58 04.09.2019
2505 Clouds 26 1013 94 0 5.36 120 18:37 04.09.2019
2506 Clouds 26 1013 94 0 5.36 120 18:19 04.09.2019
2507 Clouds 26 1013 94 0 5.36 120 17:41 04.09.2019
2508 Clouds 25 1013 94 10000 1.5 60 17:23 04.09.2019
2509 Clouds 25 1013 94 10000 1.5 60 16:57 04.09.2019
2510 Clouds 25 1013 94 10000 1.5 60 16:38 04.09.2019
2511 Clouds 25 1013 94 10000 2.1 100 16:19 04.09.2019
2512 Clouds 25 1013 94 10000 2.1 100 15:41 04.09.2019
2513 Clouds 26 1013 94 10000 2.1 100 15:22 04.09.2019
2514 Clouds 26 1013 94 10000 5.7 120 14:59 04.09.2019
2515 Clouds 26 1013 94 10000 5.7 120 14:39 04.09.2019
2516 Clouds 26 1013 94 10000 5.7 120 14:39 04.09.2019
2517 Clouds 26 1012 78 10000 5.1 140 14:21 04.09.2019
2518 Clouds 27 1012 78 10000 5.1 140 13:59 04.09.2019
2519 Clouds 27 1012 78 10000 5.1 140 13:58 04.09.2019
2520 Clouds 27 1012 78 10000 5.1 140 13:39 04.09.2019
2521 Rain 27 1012 88 10000 2.1 190 13:21 04.09.2019
2522 Rain 27 1012 88 10000 2.1 190 12:44 04.09.2019
2523 Rain 27 1012 88 10000 2.1 190 12:26 04.09.2019
2524 Rain 27 1012 88 10000 2.1 190 12:26 04.09.2019
2525 Clouds 29 1011 74 10000 2.1 330 11:58 04.09.2019
2526 Clouds 29 1011 74 10000 2.1 330 11:38 04.09.2019
2527 Clouds 29 1011 83 10000 3.6 340 11:20 04.09.2019
2528 Clouds 29 1011 83 10000 3.6 340 10:56 04.09.2019
2529 Clouds 29 1011 83 10000 3.6 340 10:56 04.09.2019
2530 Clouds 29 1011 83 10000 3.6 340 10:36 04.09.2019
2531 Clouds 30 1012 74 10000 3.6 350 10:18 04.09.2019
2532 Clouds 30 1012 74 10000 3.6 350 09:44 04.09.2019
2533 Clouds 30 1012 74 10000 3.6 350 09:44 04.09.2019
2534 Clouds 30 1012 74 10000 3.6 350 09:20 04.09.2019
2535 Clouds 30 1012 74 10000 3.1 320 08:42 04.09.2019
2536 Clouds 30 1012 74 10000 3.1 320 08:24 04.09.2019
2537 Clouds 29 1012 79 10000 4.1 330 07:58 04.09.2019
2538 Clouds 29 1012 79 10000 4.1 330 07:35 04.09.2019
2539 Clouds 29 1012 83 10000 4.6 360 06:53 04.09.2019
2540 Clouds 29 1012 83 10000 4.6 360 06:32 04.09.2019
2541 Clouds 26 1013 94 10000 4.6 140 04:54 04.09.2019
2542 Clouds 26 1013 94 10000 4.6 140 04:22 04.09.2019
2543 Clouds 25 1013 100 10000 4.6 150 02:46 04.09.2019
2544 Mist 25 1014 94 10000 3.6 130 00:58 04.09.2019
2545 Mist 25 1014 94 10000 3.6 130 00:39 04.09.2019
2546 Rain 24 1014 100 10000 2.6 140 00:18 04.09.2019
2547 Rain 24 1014 100 10000 2.6 140 23:48 03.09.2019
2548 Rain 24 1014 100 10000 2.6 140 23:26 03.09.2019
2549 Clouds 26 1014 94 0 2.24 130 22:41 03.09.2019
2550 Clouds 26 1014 94 0 2.24 130 22:22 03.09.2019
2551 Rain 26 1014 94 0 2.24 130 21:57 03.09.2019
2552 Rain 26 1014 94 0 2.24 130 21:57 03.09.2019
2553 Rain 26 1014 94 0 2.24 130 21:38 03.09.2019
2554 Rain 26 1014 94 0 2.24 130 21:20 03.09.2019
2555 Rain 26 1014 94 0 2.24 130 20:55 03.09.2019
2556 Rain 26 1014 94 0 2.24 130 20:36 03.09.2019
2557 Rain 26 1014 94 0 2.24 130 20:18 03.09.2019
2558 Rain 26 1014 94 0 2.24 130 19:43 03.09.2019
2559 Rain 26 1014 94 0 2.24 130 19:19 03.09.2019
2560 Rain 26 1014 94 0 2.24 130 18:57 03.09.2019
2561 Rain 26 1014 94 0 2.24 130 18:38 03.09.2019
2562 Rain 26 1014 94 0 2.24 130 18:18 03.09.2019
2563 Rain 26 1014 94 0 2.24 130 17:43 03.09.2019
2564 Rain 26 1014 94 0 2.24 130 17:43 03.09.2019
2565 Rain 25 1014 94 8000 1.5 330 17:23 03.09.2019
2566 Rain 25 1014 94 8000 1.5 330 17:00 03.09.2019
2567 Rain 25 1014 94 8000 1.5 330 16:41 03.09.2019
2568 Rain 25 1014 94 8000 1.5 330 16:22 03.09.2019
2569 Thunderstorm 25 1015 100 10000 3.1 360 15:42 03.09.2019
2570 Thunderstorm 25 1015 100 10000 3.1 360 15:22 03.09.2019
2571 Thunderstorm 25 1014 94 10000 2.6 130 15:00 03.09.2019
2572 Thunderstorm 25 1014 100 10000 4.1 110 14:41 03.09.2019
2573 Rain 25 1014 100 4000 5.7 120 14:22 03.09.2019
2574 Rain 25 1014 100 4000 5.7 120 13:58 03.09.2019
2575 Thunderstorm 26 1014 88 10000 7.2 0 13:38 03.09.2019
2576 Thunderstorm 26 1013 83 10000 3.1 320 13:20 03.09.2019
2577 Thunderstorm 26 1013 83 10000 3.1 320 13:20 03.09.2019
2578 Rain 28 1012 83 10000 3.6 310 12:57 03.09.2019
2579 Rain 28 1012 83 10000 3.6 310 12:39 03.09.2019
2580 Thunderstorm 28 1013 74 10000 2.6 20 12:20 03.09.2019
2581 Rain 29 1012 74 10000 3.1 290 11:42 03.09.2019
2582 Rain 29 1012 74 10000 3.1 290 11:23 03.09.2019
2583 Clouds 31 1012 70 10000 4.1 260 10:57 03.09.2019
2584 Clouds 31 1012 70 10000 4.1 260 10:39 03.09.2019
2585 Clouds 30 1012 70 10000 3.6 260 10:20 03.09.2019
2586 Clouds 31 1012 70 10000 3.6 260 09:44 03.09.2019
2587 Clouds 31 1012 70 10000 3.6 260 09:26 03.09.2019
2588 Clouds 31 1012 70 10000 3.6 270 08:56 03.09.2019
2589 Clouds 31 1012 70 10000 3.6 270 08:56 03.09.2019
2590 Clouds 31 1012 70 10000 3.6 270 08:37 03.09.2019
2591 Clouds 31 1012 66 10000 1 0 08:18 03.09.2019
2592 Clouds 32 1012 66 10000 1 0 07:41 03.09.2019
2593 Clouds 31 1013 74 10000 1.5 360 07:23 03.09.2019
2594 Clouds 31 1013 74 10000 1.5 360 06:45 03.09.2019
2595 Clouds 29 1014 79 10000 3.1 350 05:53 03.09.2019
2596 Clouds 27 1015 88 10000 6.7 160 03:42 03.09.2019
2597 Clouds 26 1015 94 10000 2.6 140 02:46 03.09.2019
2598 Clouds 26 1015 94 10000 2.6 140 02:24 03.09.2019
2599 Clouds 25 1016 94 10000 4.1 130 01:50 03.09.2019
2600 Clouds 25 1016 94 10000 4.1 130 01:32 03.09.2019
2601 Mist 24 1015 100 10000 3.6 160 00:43 03.09.2019
2602 Fog 24 1016 100 700 1 350 00:23 03.09.2019
2603 Fog 24 1016 100 700 1 350 00:23 03.09.2019
2604 Clouds 24 1016 100 10000 4.1 130 23:40 02.09.2019
2605 Clouds 24 1015 100 0 4.02 130 23:20 02.09.2019
2606 Clouds 25 1015 100 0 4.02 140 22:56 02.09.2019
2607 Clouds 25 1015 100 0 4.02 140 22:38 02.09.2019
2608 Clouds 25 1015 100 0 4.02 140 22:38 02.09.2019
2609 Clouds 25 1015 100 0 4.02 140 22:19 02.09.2019
2610 Clouds 25 1015 100 0 4.02 140 21:56 02.09.2019
2611 Clouds 25 1015 100 0 4.02 140 21:38 02.09.2019
2612 Clouds 25 1015 100 0 4.02 140 21:20 02.09.2019
2613 Clouds 25 1015 100 0 4.02 140 21:20 02.09.2019
2614 Clouds 25 1017 100 0 4.02 140 20:55 02.09.2019
2615 Clouds 25 1015 100 0 4.02 140 20:37 02.09.2019
2616 Clouds 25 1015 100 0 4.02 140 20:18 02.09.2019
2617 Clouds 25 1017 100 0 4.02 140 19:55 02.09.2019
2618 Clouds 25 1015 100 0 4.02 140 19:37 02.09.2019
2619 Clouds 25 1015 100 0 4.02 140 19:18 02.09.2019
2620 Clouds 25 1015 100 0 4.02 140 18:38 02.09.2019
2621 Rain 25 1015 100 0 4.02 140 18:20 02.09.2019
2622 Rain 25 1015 100 0 4.02 140 17:56 02.09.2019
2623 Rain 25 1015 100 0 4.02 140 17:37 02.09.2019
2624 Clouds 24 1016 100 10000 1 330 17:19 02.09.2019
2625 Clouds 24 1016 100 10000 1 330 16:41 02.09.2019
2626 Clouds 24 1016 100 10000 0.5 0 16:21 02.09.2019
2627 Clouds 24 1016 100 10000 0.5 0 15:54 02.09.2019
2628 -273 0 0 0 0 0 15:36 02.09.2019
2629 Clouds 25 1015 100 10000 4.1 140 15:18 02.09.2019
2630 Clouds 25 1015 100 10000 4.1 140 14:55 02.09.2019
2631 Clouds 25 1015 100 10000 4.1 140 14:36 02.09.2019
2632 Clouds 25 1015 94 10000 4.6 150 14:18 02.09.2019
2633 Clouds 26 1015 94 10000 4.6 150 13:41 02.09.2019
2634 Clouds 26 1014 94 10000 3.1 160 13:23 02.09.2019
2635 Clouds 26 1014 94 10000 3.1 160 12:45 02.09.2019
2636 Clouds 26 1014 94 10000 3.1 160 12:26 02.09.2019
2637 Clouds 27 1014 88 10000 2.6 130 11:59 02.09.2019
2638 Clouds 27 1014 88 10000 2.6 130 11:40 02.09.2019
2639 Clouds 27 1014 88 10000 2.6 130 11:21 02.09.2019
2640 Clouds 28 1014 79 10000 2.1 130 10:58 02.09.2019
2641 Clouds 28 1014 79 10000 2.1 130 10:39 02.09.2019
2642 Clouds 28 1014 83 10000 3.6 120 10:20 02.09.2019
2643 Clouds 28 1014 83 10000 3.6 120 09:57 02.09.2019
2644 Clouds 28 1014 83 10000 3.6 120 09:37 02.09.2019
2645 Clouds 28 1014 83 10000 4.6 130 09:18 02.09.2019
2646 Clouds 28 1014 83 10000 4.6 130 08:39 02.09.2019
2647 Mist 27 1015 88 10000 5.1 150 08:18 02.09.2019
2648 Mist 27 1015 88 10000 5.1 150 07:41 02.09.2019
2649 Mist 26 1015 100 10000 6.2 140 07:21 02.09.2019
2650 Mist 26 1015 100 10000 6.2 140 06:48 02.09.2019
2651 Mist 26 1015 100 10000 6.2 140 06:29 02.09.2019
2652 Rain 24 1016 100 10000 6.2 160 05:49 02.09.2019
2653 Rain 24 1017 100 7000 5.1 160 05:19 02.09.2019
2654 Thunderstorm 24 1018 100 7000 1.5 110 04:21 02.09.2019
2655 Rain 23 1016 100 6000 3.01 119.341 01:48 02.09.2019
2656 Rain 24 1017 100 6000 2.1 150 00:49 02.09.2019
2657 Rain 24 1017 100 6000 2.1 150 00:31 02.09.2019
2658 Rain 23 1017 100 8000 1 0 23:46 01.09.2019
2659 Rain 23 1017 100 8000 1 0 23:23 01.09.2019
2660 Rain 24 1016 94 0 2.24 140 22:59 01.09.2019
2661 Rain 24 1017 94 0 2.24 140 22:40 01.09.2019
2662 Rain 24 1017 94 0 2.24 140 22:19 01.09.2019
2663 Rain 24 1017 94 0 2.24 140 21:57 01.09.2019
2664 Rain 24 1016 94 0 2.24 140 21:39 01.09.2019
2665 Rain 24 1016 94 0 2.24 140 21:20 01.09.2019
2666 Rain 24 1016 94 0 2.24 140 20:57 01.09.2019
2667 Rain 24 1016 94 0 2.24 140 20:38 01.09.2019
2668 Rain 24 1016 94 0 2.24 140 20:18 01.09.2019
2669 Rain 24 1017 94 0 2.24 140 19:56 01.09.2019
2670 Rain 24 1017 94 0 2.24 140 19:56 01.09.2019
2671 Rain 24 1016 89 0 1.46 74.141 19:37 01.09.2019
2672 Rain 24 1017 94 0 2.24 140 19:18 01.09.2019
2673 Rain 24 1017 94 0 2.24 140 18:43 01.09.2019
2674 Rain 24 1017 94 0 2.24 140 18:25 01.09.2019
2675 Rain 24 1017 94 0 2.24 140 17:55 01.09.2019
2676 -273 0 0 0 0 0 17:55 01.09.2019
2677 Rain 23 1016 100 10000 3.1 280 17:37 01.09.2019
2678 Rain 23 1016 100 10000 3.1 280 17:18 01.09.2019
2679 Rain 23 1016 100 10000 3.1 280 17:18 01.09.2019
2680 Rain 24 1016 100 10000 3.1 280 16:39 01.09.2019
2681 Rain 24 1016 94 10000 0.5 0 16:19 01.09.2019
2682 Rain 24 1016 94 10000 0.5 0 15:47 01.09.2019
2683 Rain 24 1016 94 10000 0.5 0 15:29 01.09.2019
2684 Rain 24 1016 94 10000 2.6 140 14:57 01.09.2019
2685 Rain 24 1016 94 10000 2.6 140 14:38 01.09.2019
2686 Clouds 24 1016 94 10000 1.5 130 14:20 01.09.2019
2687 Clouds 24 1016 94 10000 1.5 130 13:43 01.09.2019
2688 Clouds 24 1016 94 10000 1.5 130 13:24 01.09.2019
2689 Clouds 24 1015 88 10000 1 0 12:59 01.09.2019
2690 Clouds 24 1015 88 10000 1 0 12:40 01.09.2019
2691 Clouds 24 1015 88 10000 1 0 12:40 01.09.2019
2692 Clouds 24 1016 88 10000 2.1 320 12:21 01.09.2019
2693 Clouds 24 1016 88 10000 2.1 320 12:21 01.09.2019
2694 Clouds 24 1016 88 10000 2.1 320 11:40 01.09.2019
2695 Clouds 24 1015 88 10000 1.5 350 11:20 01.09.2019
2696 Clouds 24 1015 88 10000 1.5 350 10:58 01.09.2019
2697 Clouds 24 1015 88 10000 1.5 350 10:39 01.09.2019
2698 Clouds 24 1015 88 10000 1.5 350 10:20 01.09.2019
2699 Clouds 24 1016 83 10000 2.1 360 09:42 01.09.2019
2700 Clouds 24 1016 83 10000 2.1 360 09:24 01.09.2019
2701 Clouds 24 1016 83 10000 2.1 360 08:44 01.09.2019
2702 Clouds 24 1016 83 10000 2.1 360 08:23 01.09.2019
2703 Rain 24 1016 83 10000 1 0 07:49 01.09.2019
2704 Rain 24 1016 83 10000 1 0 07:31 01.09.2019
2705 Rain 23 1017 83 10000 1.5 10 06:42 01.09.2019
2706 Rain 23 1017 88 10000 3.1 10 06:19 01.09.2019
2707 Rain 23 1017 88 10000 3.1 10 05:38 01.09.2019
2708 Rain 23 1017 83 10000 4.1 150 04:29 01.09.2019
2709 Rain 22 1017 78 10000 1 0 03:41 01.09.2019
2710 Rain 21 1018 88 10000 1 0 02:57 01.09.2019
2711 Rain 21 1018 88 10000 1 0 02:26 01.09.2019
2712 Rain 20 1018 94 8000 2.6 150 01:50 01.09.2019
2713 Rain 20 1018 94 8000 2.6 150 01:50 01.09.2019
2714 Rain 20 1017 88 10000 3.6 340 01:22 01.09.2019
2715 Rain 21 1017 88 10000 3.6 340 00:45 01.09.2019
2716 Rain 21 1016 83 10000 1.5 260 00:21 01.09.2019
2717 Rain 21 1016 83 10000 1.5 260 23:48 31.08.2019
2718 Rain 21 1016 83 10000 1.5 260 23:22 31.08.2019
2719 Rain 22 1015 83 0 3.58 110 22:57 31.08.2019
2720 Rain 22 1015 83 0 3.58 110 22:39 31.08.2019
2721 Rain 22 1015 83 0 3.58 110 22:21 31.08.2019
2722 Rain 22 1015 83 0 3.58 110 21:55 31.08.2019
2723 Rain 22 1015 83 0 3.58 110 21:37 31.08.2019
2724 Clouds 22 1015 83 0 3.58 110 21:18 31.08.2019
2725 Clouds 22 1015 83 0 3.58 110 20:43 31.08.2019
2726 Clouds 22 1015 83 0 3.58 110 20:24 31.08.2019
2727 Clouds 22 1015 83 0 3.58 110 19:47 31.08.2019
2728 Clouds 22 1015 83 0 3.58 110 19:23 31.08.2019
2729 Clouds 22 1015 83 0 3.58 110 18:58 31.08.2019
2730 Clouds 22 1015 83 0 3.58 110 18:39 31.08.2019
2731 Clouds 22 1015 83 0 3.58 110 18:19 31.08.2019
2732 Clouds 22 1015 83 0 3.58 110 17:55 31.08.2019
2733 Clouds 22 1016 83 0 3.58 110 17:37 31.08.2019
2734 Clouds 21 1016 94 10000 1 0 17:18 31.08.2019
2735 Clouds 21 1016 94 10000 1 0 16:55 31.08.2019
2736 Clouds 21 1016 94 10000 1 0 16:37 31.08.2019
2737 Rain 21 1015 94 10000 2.1 40 16:18 31.08.2019
2738 Rain 21 1015 94 10000 2.1 40 15:41 31.08.2019
2739 Clouds 22 1015 83 10000 3.6 110 15:19 31.08.2019
2740 Clouds 22 1015 83 10000 3.6 110 14:44 31.08.2019
2741 Clouds 22 1015 83 10000 3.6 110 14:26 31.08.2019
2742 Clouds 22 1015 83 10000 3.6 110 14:26 31.08.2019
2743 Clouds 22 1015 88 10000 3.1 120 13:59 31.08.2019
2744 Clouds 22 1015 88 10000 3.1 120 13:38 31.08.2019
2745 Rain 22 1015 88 10000 0.5 0 13:19 31.08.2019
2746 Rain 23 1015 88 10000 0.5 0 12:54 31.08.2019
2747 Rain 23 1015 88 10000 0.5 0 12:36 31.08.2019
2748 Rain 23 1015 83 10000 4.1 190 12:18 31.08.2019
2749 Rain 23 1015 83 10000 4.1 190 11:42 31.08.2019
2750 Rain 23 1015 83 10000 4.1 190 11:24 31.08.2019
2751 Rain 24 1013 73 10000 0.5 0 10:56 31.08.2019
2752 Rain 24 1013 73 10000 0.5 0 10:36 31.08.2019
2753 Clouds 24 1014 69 10000 1.5 150 10:18 31.08.2019
2754 Clouds 24 1014 69 10000 1.5 150 09:40 31.08.2019
2755 Clouds 24 1014 69 10000 1.5 150 09:40 31.08.2019
2756 Rain 23 1014 69 10000 3.1 150 09:22 31.08.2019
2757 Rain 23 1014 69 10000 3.1 150 08:57 31.08.2019
2758 Rain 23 1014 69 10000 3.1 150 08:38 31.08.2019
2759 Rain 23 1013 73 10000 2.6 120 08:20 31.08.2019
2760 Rain 23 1013 73 10000 2.6 120 07:38 31.08.2019
2761 Rain 23 1015 83 10000 1 0 07:18 31.08.2019
2762 Rain 23 1015 83 10000 1 0 06:27 31.08.2019
2763 Rain 24 1014 78 10000 2.6 150 05:54 31.08.2019
2764 Rain 24 1014 78 10000 2.6 150 05:28 31.08.2019
2765 Rain 23 1015 88 10000 3.6 110 04:29 31.08.2019
2766 Rain 22 1014 78 8000 5.1 160 03:42 31.08.2019
2767 Rain 23 1014 94 10000 2.6 150 02:22 31.08.2019
2768 Clouds 22 1013 94 10000 1 140 01:47 31.08.2019
2769 Clouds 22 1013 94 10000 1 140 01:28 31.08.2019
2770 Clouds 21 1013 94 10000 1 0 00:46 31.08.2019
2771 Clouds 21 1013 94 10000 1 0 00:46 31.08.2019
2772 Clouds 21 1013 94 10000 1 0 00:27 31.08.2019
2773 Clouds 21 1013 94 10000 1 0 00:27 31.08.2019
2774 Clear 21 1013 93 10000 1.5 330 23:50 30.08.2019
2775 Clouds 24 1013 88 0 1.34 110 23:19 30.08.2019
2776 Clouds 24 1011 88 0 1.34 110 22:58 30.08.2019
2777 Clouds 24 1011 88 0 1.34 110 22:38 30.08.2019
2778 Clouds 24 1011 88 0 1.34 110 22:19 30.08.2019
2779 Clouds 24 1011 88 0 1.34 110 21:56 30.08.2019
2780 Clear 24 1011 88 0 1.34 110 21:36 30.08.2019
2781 Clouds 24 1011 88 0 1.34 110 21:18 30.08.2019
2782 Clouds 24 1011 88 0 1.34 110 21:18 30.08.2019
2783 Clouds 24 1011 88 0 1.34 110 20:55 30.08.2019
2784 Clouds 24 1011 88 0 1.34 110 20:37 30.08.2019
2785 Clouds 24 1011 88 0 1.34 110 20:18 30.08.2019
2786 Clouds 24 1011 88 0 1.34 110 19:41 30.08.2019
2787 Clouds 24 1011 88 0 1.34 110 19:22 30.08.2019
2788 Clouds 24 1011 88 0 1.34 110 18:59 30.08.2019
2789 Clouds 24 1011 88 0 1.34 110 18:41 30.08.2019
2790 Clouds 24 1011 88 0 1.34 110 18:41 30.08.2019
2791 Clouds 24 1011 88 0 1.34 110 18:41 30.08.2019
2792 Clouds 24 1011 88 0 1.34 110 18:41 30.08.2019
2793 Clouds 24 1011 88 0 1.34 110 18:22 30.08.2019
2794 Clouds 24 1011 88 0 1.34 110 17:56 30.08.2019
2795 Clouds 24 1011 88 0 1.34 110 17:38 30.08.2019
2796 Clouds 23 1012 94 10000 1 80 17:18 30.08.2019
2797 Clouds 23 1012 94 10000 1 80 16:44 30.08.2019
2798 Clouds 23 1012 94 10000 1 80 16:25 30.08.2019
2799 Clear 23 1011 88 10000 2.6 290 15:55 30.08.2019
2800 Clear 23 1011 88 10000 2.6 290 15:36 30.08.2019
2801 Clouds 24 1011 88 10000 1.5 110 15:18 30.08.2019
2802 Clouds 24 1011 88 10000 1.5 110 14:42 30.08.2019
2803 Clouds 24 1011 88 10000 1.5 110 14:23 30.08.2019
2804 Clouds 24 1011 88 10000 2.1 90 13:45 30.08.2019
2805 Clouds 24 1011 88 10000 2.1 90 13:23 30.08.2019
2806 Clouds 25 1010 78 10000 1 0 12:59 30.08.2019
2807 Clouds 25 1010 78 10000 1 0 12:41 30.08.2019
2808 Clouds 26 1010 78 10000 2.1 210 12:22 30.08.2019
2809 Clouds 26 1010 78 10000 2.1 210 12:22 30.08.2019
2810 Clouds 26 1010 78 10000 2.1 210 11:43 30.08.2019
2811 Clouds 26 1010 78 10000 2.1 210 11:24 30.08.2019
2812 Clouds 27 1010 69 10000 2.1 190 10:43 30.08.2019
2813 Clouds 27 1010 69 10000 2.1 190 10:24 30.08.2019
2814 -273 0 0 0 0 0 09:59 30.08.2019
2815 Clouds 27 1009 74 10000 1.5 170 09:40 30.08.2019
2816 Rain 27 1009 74 10000 1 0 09:19 30.08.2019
2817 Rain 27 1009 74 10000 1 0 08:56 30.08.2019
2818 Rain 27 1009 74 10000 1 0 08:38 30.08.2019
2819 Rain 27 1010 83 10000 1.5 250 08:20 30.08.2019
2820 Rain 26 1010 83 10000 1.5 250 07:40 30.08.2019
2821 Rain 27 1009 78 10000 2.1 340 07:21 30.08.2019
2822 Rain 27 1009 78 10000 2.1 340 06:45 30.08.2019
2823 Rain 26 1009 69 10000 2.6 280 06:27 30.08.2019
2824 Rain 27 1009 69 10000 2.6 280 05:44 30.08.2019
2825 Clouds 26 1009 74 10000 2.1 260 03:59 30.08.2019
2826 Clouds 26 1009 74 10000 2.1 260 03:38 30.08.2019
2827 Clouds 25 1009 83 10000 0.5 0 02:55 30.08.2019
2828 Clouds 25 1009 83 10000 0.5 0 02:26 30.08.2019
2829 Clouds 25 1009 88 10000 2.1 40 01:28 30.08.2019
2830 Clouds 24 1009 94 10000 2.6 320 00:29 30.08.2019
2831 Clouds 24 1009 94 10000 2.6 340 23:59 29.08.2019
2832 Clouds 24 1009 94 10000 2.6 340 23:40 29.08.2019
2833 Rain 25 1008 94 0 4.92 130 23:20 29.08.2019
2834 Rain 25 1008 94 0 4.92 130 23:20 29.08.2019
2835 Rain 25 1008 94 0 4.92 130 22:43 29.08.2019
2836 Rain 25 1008 94 0 4.92 130 22:24 29.08.2019
2837 Rain 25 1008 94 0 4.92 130 21:55 29.08.2019
2838 Rain 25 1008 94 0 4.92 130 21:55 29.08.2019
2839 Rain 25 1008 94 0 4.92 130 21:36 29.08.2019
2840 Rain 25 1008 94 0 4.92 130 21:18 29.08.2019
2841 Rain 25 1008 94 0 4.92 130 20:42 29.08.2019
2842 Rain 25 1008 94 0 4.92 130 20:20 29.08.2019
2843 Rain 25 1008 94 0 4.92 130 19:59 29.08.2019
2844 Rain 25 1008 94 0 4.92 130 19:40 29.08.2019
2845 Rain 25 1008 94 0 4.92 130 19:21 29.08.2019
2846 Rain 25 1008 94 0 4.92 130 18:43 29.08.2019
2847 Rain 25 1008 94 0 4.92 130 18:21 29.08.2019
2848 Rain 25 1008 94 0 4.92 130 17:56 29.08.2019
2849 Rain 25 1008 94 0 4.92 130 17:38 29.08.2019
2850 Clouds 25 1008 94 10000 3.1 150 17:19 29.08.2019
2851 Clouds 25 1008 94 10000 3.1 150 16:57 29.08.2019
2852 Rain 25 1010 94 0 4.92 130 16:38 29.08.2019
2853 Clouds 25 1009 94 10000 3.1 150 16:20 29.08.2019
2854 Clouds 25 1009 94 10000 3.1 150 15:39 29.08.2019
2855 Clouds 25 1008 94 10000 5.1 130 15:20 29.08.2019
2856 Clouds 25 1008 94 10000 5.1 130 14:50 29.08.2019
2857 Clouds 25 1008 94 10000 5.1 130 14:24 29.08.2019
2858 Clouds 25 1008 94 10000 2.6 150 13:59 29.08.2019
2859 Clouds 25 1008 94 10000 2.6 150 13:39 29.08.2019
2860 Rain 25 1007 100 10000 2.1 110 13:20 29.08.2019
2861 Rain 25 1007 100 10000 2.1 110 12:59 29.08.2019
2862 Rain 25 1007 100 10000 2.1 110 12:39 29.08.2019
2863 Rain 25 1008 100 10000 1.5 350 12:21 29.08.2019
2864 Rain 25 1008 100 10000 1.5 350 11:59 29.08.2019
2865 Rain 25 1008 94 10000 1 350 11:39 29.08.2019
2866 Rain 25 1008 100 5000 6.7 190 11:19 29.08.2019
2867 Rain 25 1007 94 9000 4.1 10 10:45 29.08.2019
2868 Rain 27 1008 94 10000 5.1 160 10:25 29.08.2019
2869 Rain 27 1008 94 10000 5.1 160 09:56 29.08.2019
2870 Rain 27 1007 88 10000 3.6 140 09:38 29.08.2019
2871 Clouds 27 1006 83 10000 2.6 140 09:18 29.08.2019
2872 Clouds 27 1006 83 10000 2.6 140 08:41 29.08.2019
2873 Clouds 27 1006 83 10000 2.6 140 08:22 29.08.2019
2874 Rain 27 1007 88 10000 2.1 120 07:51 29.08.2019
2875 Rain 27 1007 88 10000 2.1 120 07:29 29.08.2019
2876 Rain 27 1007 88 10000 2.1 160 06:53 29.08.2019
2877 Rain 27 1007 88 10000 2.1 160 06:33 29.08.2019
2878 Rain 27 1007 88 10000 2.1 130 05:43 29.08.2019
2879 Rain 26 1008 94 10000 4.1 40 04:51 29.08.2019
2880 Rain 27 1008 94 10000 4.1 40 04:30 29.08.2019
2881 Rain 28 1008 83 10000 6.2 230 03:35 29.08.2019
2882 Rain 28 1007 88 10000 8.2 220 01:50 29.08.2019
2883 Rain 28 1007 88 10000 8.2 220 01:30 29.08.2019
2884 Rain 27 1007 83 10000 7.7 200 00:45 29.08.2019
2885 Rain 27 1007 83 10000 6.2 200 00:21 29.08.2019
2886 Rain 27 1007 83 10000 6.2 200 23:44 28.08.2019
2887 Rain 27 1007 83 10000 6.2 200 23:25 28.08.2019
2888 Rain 28 1009 83 0 4.92 210 22:59 28.08.2019
2889 Rain 28 1009 83 0 4.92 210 22:39 28.08.2019
2890 Rain 28 1009 83 0 4.92 210 22:18 28.08.2019
2891 Rain 28 1009 83 0 4.92 210 21:58 28.08.2019
2892 Rain 28 1009 83 0 4.92 210 21:39 28.08.2019
2893 Rain 28 1009 83 0 4.92 210 21:20 28.08.2019
2894 Rain 28 1009 83 0 4.92 210 20:42 28.08.2019
2895 Rain 28 1011 83 0 4.92 210 20:24 28.08.2019
2896 Rain 28 1009 83 0 4.92 210 19:57 28.08.2019
2897 Rain 28 1009 83 0 4.92 210 19:39 28.08.2019
2898 Rain 28 1011 83 0 4.92 210 19:20 28.08.2019
2899 Rain 28 1009 83 0 4.92 210 18:42 28.08.2019
2900 Rain 28 1011 83 0 4.92 210 18:21 28.08.2019
2901 Rain 28 1009 83 0 4.92 210 17:55 28.08.2019
2902 Rain 28 1011 83 0 4.92 210 17:37 28.08.2019
2903 Clouds 27 1009 88 10000 5.7 180 17:19 28.08.2019
2904 Clouds 27 1009 88 10000 5.7 180 16:42 28.08.2019
2905 Clouds 27 1009 94 10000 6.2 190 16:19 28.08.2019
2906 Clouds 27 1009 94 10000 6.2 190 15:57 28.08.2019
2907 Clouds 27 1009 94 10000 6.2 190 15:36 28.08.2019
2908 Clouds 27 1009 83 10000 5.1 210 15:18 28.08.2019
2909 Clouds 27 1009 83 10000 5.1 210 14:55 28.08.2019
2910 Clouds 27 1009 83 10000 5.1 210 14:37 28.08.2019
2911 Clouds 27 1009 83 10000 5.1 210 14:37 28.08.2019
2912 Clouds 27 1009 88 10000 5.7 210 14:18 28.08.2019
2913 Clouds 27 1009 88 10000 5.7 210 13:56 28.08.2019
2914 Clouds 27 1009 88 10000 5.7 210 13:36 28.08.2019
2915 Clouds 28 1008 83 10000 4.1 190 13:18 28.08.2019
2916 Clouds 28 1008 83 10000 4.1 190 12:40 28.08.2019
2917 Clouds 28 1007 79 10000 4.1 210 12:21 28.08.2019
2918 Clouds 28 1007 79 10000 4.1 210 11:41 28.08.2019
2919 Clouds 28 1007 79 10000 4.1 210 11:22 28.08.2019
2920 Clouds 28 1007 79 10000 6.7 210 10:58 28.08.2019
2921 Clouds 28 1007 79 10000 6.7 210 10:40 28.08.2019
2922 Clouds 29 1008 79 10000 6.2 220 10:20 28.08.2019
2923 Clouds 29 1008 79 10000 6.2 220 09:42 28.08.2019
2924 Clouds 28 1008 79 10000 6.2 220 09:22 28.08.2019
2925 Rain 28 1008 83 10000 8.2 220 08:57 28.08.2019
2926 Rain 28 1008 83 10000 8.2 220 08:38 28.08.2019
2927 Rain 27 1008 88 10000 8.7 220 08:19 28.08.2019
2928 Rain 27 1008 88 10000 8.7 220 07:38 28.08.2019
2929 Rain 28 1008 83 10000 7.2 220 07:20 28.08.2019
2930 Rain 28 1008 83 10000 7.2 220 06:49 28.08.2019
2931 Rain 27 1009 88 10000 8.7 220 05:59 28.08.2019
2932 Rain 27 1009 88 10000 8.7 220 05:24 28.08.2019
2933 Thunderstorm 25 1010 100 2000 4.1 270 02:18 28.08.2019
2934 Thunderstorm 26 1010 100 800 10.3 270 01:30 28.08.2019
2935 Thunderstorm 26 1008 94 4000 11.3 220 00:52 28.08.2019
2936 Thunderstorm 26 1008 94 4000 11.3 220 00:33 28.08.2019
2937 Thunderstorm 25 1009 100 1500 5.1 340 23:56 27.08.2019
2938 Thunderstorm 25 1007 100 3500 4.1 130 23:38 27.08.2019
2939 Rain 25 1009 94 0 3.58 170 23:19 27.08.2019
2940 Rain 25 1009 94 0 3.58 170 22:41 27.08.2019
2941 Rain 25 1012 94 0 3.58 170 22:22 27.08.2019
2942 Rain 25 1009 94 0 3.58 170 21:57 27.08.2019
2943 Rain 25 1009 94 0 3.58 170 21:38 27.08.2019
2944 Rain 25 1009 94 0 3.58 170 21:38 27.08.2019
2945 Rain 25 1009 94 0 3.58 170 21:19 27.08.2019
2946 Rain 25 1009 94 0 3.58 170 20:57 27.08.2019
2947 Rain 25 1009 94 0 3.58 170 20:37 27.08.2019
2948 Rain 25 1009 94 0 3.58 170 20:19 27.08.2019
2949 Rain 25 1009 94 0 3.58 170 19:43 27.08.2019
2950 Rain 25 1009 94 0 3.58 170 19:25 27.08.2019
2951 Rain 25 1009 94 0 3.58 170 18:56 27.08.2019
2952 Rain 25 1009 94 0 3.58 170 18:37 27.08.2019
2953 Rain 25 1009 94 0 3.58 170 18:18 27.08.2019
2954 Rain 25 1009 94 0 3.58 170 17:43 27.08.2019
2955 Rain 25 1010 94 10000 9.3 180 17:24 27.08.2019
2956 Rain 25 1010 94 10000 9.3 180 16:57 27.08.2019
2957 Rain 25 1010 94 10000 9.3 180 16:36 27.08.2019
2958 Rain 24 1010 100 10000 1 0 16:18 27.08.2019
2959 Rain 25 1010 100 10000 1 0 15:41 27.08.2019
2960 Rain 25 1010 100 10000 1 0 15:23 27.08.2019
2961 Rain 25 1009 94 8000 3.6 170 14:59 27.08.2019
2962 Thunderstorm 25 1010 94 8000 6.7 230 14:41 27.08.2019
2963 Thunderstorm 25 1010 94 8000 6.7 230 14:22 27.08.2019
2964 Thunderstorm 27 1009 88 4000 12.9 220 13:43 27.08.2019
2965 Thunderstorm 27 1009 88 4000 12.9 220 13:24 27.08.2019
2966 Rain 27 1008 88 8000 9.3 210 12:55 27.08.2019
2967 Rain 27 1008 83 10000 9.8 210 12:37 27.08.2019
2968 Rain 27 1008 94 6000 7.2 210 12:18 27.08.2019
2969 Rain 27 1008 83 9000 9.8 200 11:43 27.08.2019
2970 Rain 27 1008 83 9000 9.8 200 11:25 27.08.2019
2971 Rain 27 1008 83 10000 9.8 200 10:42 27.08.2019
2972 Rain 27 1008 83 10000 9.8 200 10:21 27.08.2019
2973 Rain 27 1008 83 10000 9.8 200 09:58 27.08.2019
2974 Rain 27 1008 83 10000 9.8 190 09:38 27.08.2019
2975 Rain 27 1008 83 10000 8.7 190 09:20 27.08.2019
2976 Rain 27 1008 83 10000 8.7 190 08:48 27.08.2019
2977 Rain 27 1008 83 10000 8.7 190 08:27 27.08.2019
2978 Rain 27 1008 83 10000 8.7 190 08:27 27.08.2019
2979 Rain 26 1009 94 10000 6.2 180 07:59 27.08.2019
2980 Rain 26 1009 94 10000 5.1 120 07:39 27.08.2019
2981 Rain 25 1010 94 10000 5.1 120 07:19 27.08.2019
2982 Rain 25 1010 94 10000 5.1 120 06:50 27.08.2019
2983 Rain 25 1011 100 10000 5.7 120 06:22 27.08.2019
2984 Rain 25 1011 100 10000 5.7 120 05:30 27.08.2019
2985 Rain 25 1010 100 10000 7.2 120 04:28 27.08.2019
2986 Rain 25 1011 100 6000 4.6 120 03:32 27.08.2019
2987 Rain 25 1011 100 6000 5.7 180 02:22 27.08.2019
2988 Thunderstorm 25 1011 94 1200 3.1 190 01:34 27.08.2019
2989 Rain 24 1011 100 8000 5.7 120 00:50 27.08.2019
2990 Rain 24 1011 100 8000 5.7 120 00:29 27.08.2019
2991 Rain 24 1011 94 8000 6.7 120 23:54 26.08.2019
2992 Rain 24 1011 100 3000 6.2 110 23:36 26.08.2019
2993 Rain 23 1013 100 0 5.81 150 23:18 26.08.2019
2994 Rain 23 1013 100 0 5.81 150 22:38 26.08.2019
2995 Rain 23 1013 100 0 5.81 150 22:19 26.08.2019
2996 Rain 23 1013 100 0 5.81 150 21:40 26.08.2019
2997 Rain 23 1013 100 0 5.81 150 21:22 26.08.2019
2998 Rain 23 1013 100 0 5.81 150 20:59 26.08.2019
2999 Rain 23 1013 100 0 5.81 150 20:41 26.08.2019
3000 Rain 23 1013 100 0 5.81 150 20:21 26.08.2019
3001 Rain 23 1013 100 0 5.81 150 19:59 26.08.2019
3002 Rain 23 1013 100 0 5.81 150 19:41 26.08.2019
3003 Rain 23 1013 100 0 5.81 150 19:19 26.08.2019
3004 Rain 23 1013 100 0 5.81 150 18:55 26.08.2019
3005 Rain 23 1014 100 0 5.81 150 18:37 26.08.2019
3006 Rain 23 1014 100 0 5.81 150 18:18 26.08.2019
3007 Rain 23 1013 100 0 5.81 150 17:43 26.08.2019
3008 Clouds 23 1013 94 10000 0.5 0 17:19 26.08.2019
3009 Clouds 23 1013 94 10000 0.5 0 16:57 26.08.2019
3010 Clouds 23 1013 94 10000 0.5 0 16:38 26.08.2019
3011 Clouds 23 1013 94 10000 0.5 0 16:18 26.08.2019
3012 Clouds 23 1013 94 10000 0.5 0 15:42 26.08.2019
3013 Clouds 23 1013 94 10000 0.5 0 15:22 26.08.2019
3014 Clouds 23 1013 100 10000 6.2 150 14:57 26.08.2019
3015 Clouds 23 1013 100 10000 6.2 150 14:37 26.08.2019
3016 Clouds 23 1013 100 10000 6.2 150 14:19 26.08.2019
3017 Clouds 23 1012 100 10000 5.1 150 13:42 26.08.2019
3018 Clouds 23 1012 100 10000 5.1 150 13:21 26.08.2019
3019 Clouds 23 1012 94 10000 4.6 140 12:46 26.08.2019
3020 Clouds 23 1012 94 10000 4.6 140 12:28 26.08.2019
3021 Clouds 23 1012 94 10000 6.7 140 11:58 26.08.2019
3022 Clouds 23 1012 94 10000 6.7 140 11:37 26.08.2019
3023 Clouds 23 1012 94 10000 6.7 140 11:19 26.08.2019
3024 Clouds 23 1011 94 10000 7.2 150 10:54 26.08.2019
3025 Clouds 23 1011 94 10000 7.2 150 10:36 26.08.2019
3026 Clouds 23 1011 94 10000 5.1 130 10:18 26.08.2019
3027 Clouds 23 1011 94 10000 5.1 130 09:41 26.08.2019
3028 Clouds 23 1011 94 10000 5.1 130 09:23 26.08.2019
3029 Rain 22 1012 100 10000 6.2 150 08:55 26.08.2019
3030 Rain 22 1012 100 10000 6.2 150 08:55 26.08.2019
3031 Rain 22 1012 100 10000 6.2 150 08:37 26.08.2019
3032 Rain 22 1012 100 10000 6.2 150 08:18 26.08.2019
3033 Rain 22 1013 94 10000 3.1 110 07:42 26.08.2019
3034 Rain 22 1013 94 10000 3.1 110 07:23 26.08.2019
3035 Rain 22 1013 94 9000 5.1 140 06:48 26.08.2019
3036 Rain 22 1013 94 9000 5.1 140 06:25 26.08.2019
3037 Clouds 22 1013 83 10000 6.2 140 05:49 26.08.2019
3038 Rain 22 1014 88 10000 5.1 140 04:31 26.08.2019
3039 Rain 20 1014 94 8000 6.7 140 02:56 26.08.2019
3040 Rain 21 1014 94 10000 2.1 120 01:40 26.08.2019
3041 Rain 21 1014 94 10000 2.1 120 01:21 26.08.2019
3042 Rain 20 1014 94 10000 1.5 10 00:38 26.08.2019
3043 Rain 20 1014 94 10000 1.5 10 00:19 26.08.2019
3044 Rain 20 1013 94 10000 2.1 30 23:42 25.08.2019
3045 Rain 20 1013 94 10000 2.1 30 23:19 25.08.2019
3046 Rain 22 1014 83 0 1.79 130 22:56 25.08.2019
3047 Rain 22 1014 83 0 1.79 130 22:38 25.08.2019
3048 Rain 22 1015 83 0 1.79 130 22:19 25.08.2019
3049 Rain 22 1014 83 0 1.79 130 21:56 25.08.2019
3050 Rain 22 1014 83 0 1.79 130 21:37 25.08.2019
3051 Rain 22 1014 83 0 1.79 130 21:18 25.08.2019
3052 Rain 22 1014 83 0 1.79 130 20:40 25.08.2019
3053 Rain 22 1014 83 0 1.79 130 20:20 25.08.2019
3054 Rain 22 1014 83 0 1.79 130 19:56 25.08.2019
3055 Rain 22 1014 83 0 1.79 130 19:37 25.08.2019
3056 Rain 22 1014 83 0 1.79 130 19:18 25.08.2019
3057 Rain 22 1014 83 0 1.79 130 18:57 25.08.2019
3058 Rain 22 1014 83 0 1.79 130 18:39 25.08.2019
3059 Rain 22 1014 83 0 1.79 130 18:39 25.08.2019
3060 Rain 22 1014 83 0 1.79 130 18:18 25.08.2019
3061 Rain 22 1014 83 0 1.79 130 17:42 25.08.2019
3062 Clouds 21 1014 94 10000 0.5 0 17:23 25.08.2019
3063 Clouds 21 1014 94 10000 0.5 0 16:45 25.08.2019
3064 Clouds 21 1014 94 10000 0.5 0 16:24 25.08.2019
3065 Clouds 21 1014 94 10000 1 0 15:59 25.08.2019
3066 Clouds 21 1014 94 10000 1 0 15:41 25.08.2019
3067 Clouds 22 1014 94 10000 1 0 15:23 25.08.2019
3068 Rain 22 1014 83 10000 2.1 130 14:42 25.08.2019
3069 Rain 22 1014 83 10000 2.1 130 14:23 25.08.2019
3070 Rain 22 1014 83 10000 3.6 130 13:55 25.08.2019
3071 Rain 22 1014 83 10000 3.6 130 13:37 25.08.2019
3072 Rain 22 1014 83 10000 3.6 130 13:37 25.08.2019
3073 Rain 22 1014 83 10000 3.6 130 13:18 25.08.2019
3074 Clouds 22 1013 83 10000 2.6 110 12:41 25.08.2019
3075 Clouds 22 1013 83 10000 2.6 110 12:22 25.08.2019
3076 Clouds 22 1013 88 10000 3.1 120 11:57 25.08.2019
3077 Clouds 22 1013 88 10000 3.1 120 11:37 25.08.2019
3078 Clouds 22 1013 88 10000 3.1 120 11:19 25.08.2019
3079 Rain 22 1013 88 10000 3.6 150 10:55 25.08.2019
3080 Rain 22 1013 88 10000 3.6 150 10:37 25.08.2019
3081 Rain 22 1013 88 10000 3.6 150 10:18 25.08.2019
3082 Rain 23 1014 88 10000 3.1 160 09:42 25.08.2019
3083 Rain 22 1014 88 10000 3.1 160 09:23 25.08.2019
3084 Rain 23 1013 88 10000 2.6 150 08:44 25.08.2019
3085 Rain 23 1013 88 10000 2.6 150 08:25 25.08.2019
3086 Clouds 23 1013 94 10000 4.1 140 07:47 25.08.2019
3087 Clouds 23 1013 94 10000 4.1 140 07:27 25.08.2019
3088 Rain 23 1014 88 10000 4.1 140 06:37 25.08.2019
3089 Rain 23 1014 83 10000 5.7 140 05:27 25.08.2019
3090 Clouds 22 1014 88 10000 2.1 140 03:43 25.08.2019
3091 Clouds 21 1014 94 10000 4.1 130 02:42 25.08.2019
3092 Rain 21 1013 88 10000 4.6 140 01:49 25.08.2019
3093 Rain 20 1014 88 10000 1 0 00:44 25.08.2019
3094 Rain 20 1014 88 10000 1 0 00:22 25.08.2019
3095 Rain 20 1014 88 10000 1 0 23:54 24.08.2019
3096 Rain 20 1014 88 10000 1 0 23:24 24.08.2019
3097 Clouds 21 1013 94 0 3.58 140 22:59 24.08.2019
3098 Clouds 21 1013 94 0 3.58 140 22:40 24.08.2019
3099 Clouds 21 1013 94 0 3.58 140 22:19 24.08.2019
3100 Clouds 21 1013 94 0 3.58 140 22:19 24.08.2019
3101 Clouds 21 1013 94 0 3.58 140 21:57 24.08.2019
3102 Clouds 21 1013 94 0 3.58 140 21:57 24.08.2019
3103 Clouds 21 1013 94 0 3.58 140 21:39 24.08.2019
3104 Rain 21 1013 94 0 3.58 140 21:21 24.08.2019
3105 Rain 21 1013 94 0 3.58 140 20:57 24.08.2019
3106 Rain 21 1013 94 0 3.58 140 20:38 24.08.2019
3107 Rain 21 1013 94 0 3.58 140 20:18 24.08.2019
3108 Rain 21 1013 94 0 3.58 140 19:57 24.08.2019
3109 Rain 21 1013 94 0 3.58 140 19:38 24.08.2019
3110 Rain 21 1013 94 0 3.58 140 19:19 24.08.2019
3111 Rain 21 1013 94 0 3.58 140 18:45 24.08.2019
3112 Rain 21 1013 94 0 3.58 140 18:23 24.08.2019
3113 Rain 21 1013 94 0 3.58 140 17:46 24.08.2019
3114 Clouds 20 1013 94 10000 2.1 360 17:27 24.08.2019
3115 Clouds 20 1013 94 10000 2.1 360 16:56 24.08.2019
3116 Clouds 20 1013 94 10000 2.1 360 16:36 24.08.2019
3117 Clouds 20 1013 94 10000 2.1 360 16:18 24.08.2019
3118 Clouds 20 1013 88 10000 0.5 0 15:43 24.08.2019
3119 Clouds 21 1013 88 10000 0.5 0 15:24 24.08.2019
3120 Clouds 20 1013 94 10000 3.6 140 14:55 24.08.2019
3121 Clouds 20 1013 94 10000 3.6 140 14:37 24.08.2019
3122 Clouds 20 1013 94 10000 3.6 140 14:18 24.08.2019
3123 Rain 20 1012 94 10000 2.6 100 13:42 24.08.2019
3124 Rain 20 1012 94 10000 2.6 100 13:22 24.08.2019
3125 Rain 21 1013 94 6000 2.1 60 12:58 24.08.2019
3126 Rain 21 1012 88 10000 5.1 20 12:39 24.08.2019
3127 Rain 21 1012 88 10000 5.1 20 12:20 24.08.2019
3128 Rain 21 1013 94 9000 6.2 10 11:45 24.08.2019
3129 Rain 21 1012 100 9000 2.1 340 11:23 24.08.2019
3130 Rain 22 1013 100 6000 4.6 330 10:53 24.08.2019
3131 Rain 23 1012 94 8000 2.1 350 10:24 24.08.2019
3132 Rain 23 1011 100 8000 2.6 310 09:55 24.08.2019
3133 Rain 23 1011 100 8000 2.6 310 09:36 24.08.2019
3134 Rain 23 1011 100 8000 2.6 310 09:18 24.08.2019
3135 Rain 24 1011 94 9000 1.5 10 08:41 24.08.2019
3136 Rain 24 1011 94 9000 1.5 10 08:22 24.08.2019
3137 Rain 23 1012 100 5000 0.5 0 07:50 24.08.2019
3138 Rain 23 1012 100 5000 0.5 0 07:27 24.08.2019
3139 Rain 23 1012 94 1500 2.1 10 06:30 24.08.2019
3140 Rain 24 1012 88 5000 1.5 30 05:43 24.08.2019
3141 Rain 24 1012 88 5000 1.5 30 05:22 24.08.2019
3142 Rain 24 1012 94 9000 3.1 20 03:38 24.08.2019
3143 Rain 25 1012 94 9000 4.1 30 02:27 24.08.2019
3144 Rain 25 1011 94 9000 2.1 110 01:38 24.08.2019
3145 Rain 25 1011 94 9000 2.1 110 01:18 24.08.2019
3146 Rain 25 1010 100 9000 3.1 130 00:41 24.08.2019
3147 Rain 25 1010 100 9000 3.1 130 00:18 24.08.2019
3148 Mist 25 1011 100 8000 0.5 0 23:42 23.08.2019
3149 Mist 25 1011 100 8000 0.5 0 23:19 23.08.2019
3150 Rain 25 1010 94 0 2.68 130 22:42 23.08.2019
3151 Rain 25 1010 94 0 2.68 130 22:24 23.08.2019
3152 Rain 25 1010 94 0 2.68 130 21:41 23.08.2019
3153 Rain 25 1012 94 0 2.68 130 21:23 23.08.2019
3154 Rain 25 1010 94 0 2.68 130 20:59 23.08.2019
3155 Rain 25 1010 94 0 2.68 130 20:40 23.08.2019
3156 Rain 25 1010 94 0 2.68 130 20:21 23.08.2019
3157 Rain 25 1010 94 0 2.68 130 19:44 23.08.2019
3158 Rain 25 1010 94 0 2.68 130 19:19 23.08.2019
3159 Rain 25 1010 94 0 2.68 130 18:48 23.08.2019
3160 Rain 25 1012 94 0 2.68 130 18:30 23.08.2019
3161 Clouds 25 1012 94 0 2.68 130 17:56 23.08.2019
3162 Clouds 25 1012 94 0 2.68 130 17:38 23.08.2019
3163 Clouds 26 1010 88 10000 4.6 190 17:20 23.08.2019
3164 Clouds 26 1010 88 10000 4.6 190 16:47 23.08.2019
3165 Clouds 26 1010 88 10000 4.6 190 16:29 23.08.2019
3166 Clouds 26 1010 88 10000 5.7 180 15:56 23.08.2019
3167 Clouds 26 1010 88 10000 5.7 180 15:37 23.08.2019
3168 Clouds 25 1010 88 10000 5.7 180 15:19 23.08.2019
3169 Clouds 25 1010 94 10000 3.1 130 14:41 23.08.2019
3170 Clouds 25 1010 94 10000 3.1 130 14:21 23.08.2019
3171 Clouds 25 1010 94 10000 3.1 130 14:21 23.08.2019
3172 Clouds 25 1010 94 10000 2.1 110 13:57 23.08.2019
3173 Clouds 25 1010 94 10000 2.1 110 13:39 23.08.2019
3174 Clouds 25 1010 94 10000 2.1 110 13:21 23.08.2019
3175 Rain 25 1010 100 7000 1 0 12:57 23.08.2019
3176 Rain 25 1010 100 7000 1 0 12:39 23.08.2019
3177 Rain 25 1010 100 7000 1 0 12:20 23.08.2019
3178 Rain 25 1010 100 2000 6.2 260 11:56 23.08.2019
3179 Rain 26 1010 100 1500 4.1 250 11:37 23.08.2019
3180 Rain 26 1010 100 1500 4.1 250 11:18 23.08.2019
3181 Clouds 26 1009 94 8000 2.6 120 10:43 23.08.2019
3182 Clouds 26 1009 94 8000 2.6 120 10:43 23.08.2019
3183 Clouds 26 1009 94 8000 2.6 120 10:22 23.08.2019
3184 Rain 25 1009 100 8000 1 0 09:57 23.08.2019
3185 Rain 25 1010 100 3000 3.1 250 09:38 23.08.2019
3186 Rain 25 1010 100 3000 3.1 250 09:18 23.08.2019
3187 Rain 27 1009 83 10000 2.6 220 08:41 23.08.2019
3188 Rain 28 1009 83 10000 2.6 220 08:19 23.08.2019
3189 Clouds 28 1009 83 10000 3.6 230 07:43 23.08.2019
3190 Clouds 28 1009 83 10000 3.6 230 07:24 23.08.2019
3191 Clouds 28 1009 83 10000 3.6 230 07:24 23.08.2019
3192 Clouds 28 1009 83 10000 4.1 240 06:57 23.08.2019
3193 Clouds 28 1009 83 10000 4.1 240 06:38 23.08.2019
3194 Clouds 28 1009 83 10000 4.1 240 06:20 23.08.2019
3195 Clouds 28 1010 83 10000 3.1 240 05:34 23.08.2019
3196 Rain 28 1010 88 8000 1 0 04:52 23.08.2019
3197 Rain 28 1010 88 10000 2.6 140 03:21 23.08.2019
3198 Clouds 27 1009 94 10000 3.1 110 02:23 23.08.2019
3199 Rain 26 1009 100 10000 3.1 110 01:40 23.08.2019
3200 Clouds 26 1009 94 10000 2.6 100 00:45 23.08.2019
3201 Clouds 26 1009 94 10000 2.6 100 00:20 23.08.2019
3202 Rain 25 1009 94 10000 2.1 190 23:47 22.08.2019
3203 Rain 26 1009 94 10000 2.1 190 23:25 22.08.2019
3204 Rain 28 1009 83 0 4.02 200 22:57 22.08.2019
3205 Rain 28 1009 83 0 4.02 200 22:38 22.08.2019
3206 Rain 28 1009 83 0 4.02 200 22:19 22.08.2019
3207 Rain 28 1009 83 0 4.02 200 21:55 22.08.2019
3208 Rain 28 1009 83 0 4.02 200 21:37 22.08.2019
3209 Rain 28 1009 83 0 4.02 200 21:18 22.08.2019
3210 Rain 28 1009 83 0 4.02 200 20:55 22.08.2019
3211 Rain 28 1009 83 0 4.02 200 20:37 22.08.2019
3212 Rain 28 1009 83 0 4.02 200 20:18 22.08.2019
3213 Rain 28 1009 83 0 4.02 200 19:40 22.08.2019
3214 Rain 28 1012 83 0 4.02 200 19:22 22.08.2019
3215 Rain 28 1009 83 0 4.02 200 18:59 22.08.2019
3216 Rain 28 1009 83 0 4.02 200 18:41 22.08.2019
3217 Rain 28 1009 83 0 4.02 200 18:20 22.08.2019
3218 Rain 28 1009 83 0 4.02 200 17:58 22.08.2019
3219 Rain 28 1009 83 0 4.02 200 17:58 22.08.2019
3220 Rain 28 1009 83 0 4.02 200 17:58 22.08.2019
3221 Rain 28 1009 83 0 4.02 200 17:39 22.08.2019
3222 Rain 27 1009 94 10000 5.7 200 17:20 22.08.2019
3223 Rain 27 1009 94 10000 5.7 200 16:56 22.08.2019
3224 Rain 27 1009 94 10000 5.7 200 16:38 22.08.2019
3225 Rain 27 1009 94 10000 5.7 200 16:19 22.08.2019
3226 Rain 27 1009 94 10000 5.7 200 16:19 22.08.2019
3227 Clouds 28 1009 88 10000 5.7 200 15:43 22.08.2019
3228 Clouds 28 1009 88 10000 5.7 200 15:43 22.08.2019
3229 Clouds 28 1009 88 10000 5.7 200 15:24 22.08.2019
3230 Clouds 28 1009 88 10000 5.7 200 15:24 22.08.2019
3231 Clouds 28 1009 83 10000 4.1 200 14:59 22.08.2019
3232 Clouds 28 1009 83 10000 4.1 200 14:41 22.08.2019
3233 Clouds 28 1009 83 10000 4.1 200 14:22 22.08.2019
3234 Clouds 28 1009 83 10000 3.6 190 13:59 22.08.2019
3235 Clouds 28 1009 83 10000 3.6 190 13:40 22.08.2019
3236 Clouds 28 1009 83 10000 3.6 190 13:20 22.08.2019
3237 Clouds 29 1008 79 10000 3.1 210 12:56 22.08.2019
3238 Clouds 29 1008 79 10000 3.1 210 12:38 22.08.2019
3239 Clouds 29 1008 79 10000 3.1 210 12:19 22.08.2019
3240 Rain 29 1008 79 10000 4.6 210 11:42 22.08.2019
3241 Rain 29 1008 79 10000 4.6 210 11:20 22.08.2019
3242 Clouds 30 1008 74 10000 4.1 210 10:58 22.08.2019
3243 Clouds 30 1008 74 10000 4.1 210 10:40 22.08.2019
3244 Clouds 30 1008 74 10000 4.1 210 10:21 22.08.2019
3245 Clouds 30 1008 74 10000 5.1 220 09:56 22.08.2019
3246 Clouds 30 1008 74 10000 5.1 220 09:38 22.08.2019
3247 Clouds 30 1008 74 10000 5.1 220 09:20 22.08.2019
3248 Clouds 30 1008 70 10000 4.1 220 08:42 22.08.2019
3249 Clouds 30 1008 70 10000 4.1 220 08:22 22.08.2019
3250 Clouds 31 1008 66 10000 4.6 210 07:58 22.08.2019
3251 Clouds 31 1008 66 10000 4.6 210 07:39 22.08.2019
3252 Clouds 31 1008 66 10000 4.6 210 07:19 22.08.2019
3253 Clouds 31 1008 70 10000 4.6 210 06:47 22.08.2019
3254 Clouds 30 1008 79 10000 5.7 220 06:22 22.08.2019
3255 Clouds 30 1009 79 10000 4.6 210 05:29 22.08.2019
3256 Clouds 28 1009 88 10000 6.2 140 03:44 22.08.2019
3257 Rain 26 1010 100 10000 4.1 130 02:37 22.08.2019
3258 Rain 27 1010 94 1500 6.7 140 01:39 22.08.2019
3259 Clouds 27 1010 88 10000 4.1 120 00:57 22.08.2019
3260 Clouds 27 1010 88 10000 4.1 120 00:39 22.08.2019
3261 Clouds 27 1010 88 10000 4.1 120 00:20 22.08.2019
3262 Clouds 26 1010 94 10000 4.1 120 23:42 21.08.2019
3263 Clouds 26 1010 94 10000 4.1 120 23:24 21.08.2019
3264 Clouds 27 1010 88 0 1.34 170 22:58 21.08.2019
3265 Clouds 27 1010 88 0 1.34 170 22:39 21.08.2019
3266 Clouds 27 1010 88 0 1.34 170 22:20 21.08.2019
3267 Clouds 27 1010 88 0 1.34 170 21:56 21.08.2019
3268 Clouds 27 1010 88 0 1.34 170 21:37 21.08.2019
3269 Clouds 27 1010 88 0 1.34 170 21:19 21.08.2019
3270 Clouds 27 1010 88 0 1.34 170 20:55 21.08.2019
3271 Clouds 27 1010 88 0 1.34 170 20:55 21.08.2019
3272 Clouds 27 1010 88 0 1.34 170 20:37 21.08.2019
3273 Clouds 27 1010 88 0 1.34 170 20:19 21.08.2019
3274 Clouds 27 1010 88 0 1.34 170 19:42 21.08.2019
3275 Clouds 27 1010 88 0 1.34 170 19:23 21.08.2019
3276 Clouds 27 1010 88 0 1.34 170 18:56 21.08.2019
3277 Clouds 27 1010 88 0 1.34 170 18:56 21.08.2019
3278 Clouds 27 1010 88 0 1.34 170 18:38 21.08.2019
3279 Clouds 27 1010 88 0 1.34 170 18:20 21.08.2019
3280 Clouds 27 1010 88 0 1.34 170 17:44 21.08.2019
3281 Clouds 26 1010 88 10000 1 60 17:21 21.08.2019
3282 Clouds 26 1010 88 10000 1 60 16:56 21.08.2019
3283 Clouds 26 1010 88 10000 1 60 16:37 21.08.2019
3284 Clouds 26 1010 88 10000 1 60 16:18 21.08.2019
3285 Clouds 27 1011 88 10000 2.1 250 15:56 21.08.2019
3286 Clouds 27 1011 88 10000 2.1 250 15:38 21.08.2019
3287 Clouds 27 1011 88 10000 2.1 250 15:38 21.08.2019
3288 Clouds 27 1011 88 10000 2.1 250 15:18 21.08.2019
3289 Clouds 27 1010 88 10000 1.5 170 14:54 21.08.2019
3290 Clouds 27 1010 88 10000 1.5 170 14:36 21.08.2019
3291 Clouds 27 1010 88 10000 1.5 170 14:18 21.08.2019
3292 Clouds 27 1010 88 10000 1.5 170 14:18 21.08.2019
3293 Clouds 28 1010 78 10000 3.1 210 13:42 21.08.2019
3294 Clouds 28 1010 78 10000 3.1 210 13:19 21.08.2019
3295 Clouds 29 1009 74 10000 5.1 240 12:57 21.08.2019
3296 Clouds 29 1009 74 10000 5.1 240 12:38 21.08.2019
3297 Clouds 29 1009 74 10000 5.1 240 12:19 21.08.2019
3298 Clouds 29 1009 79 10000 5.1 250 11:43 21.08.2019
3299 Clouds 29 1009 79 10000 5.1 250 11:24 21.08.2019
3300 Clouds 30 1009 70 10000 3.6 260 10:58 21.08.2019
3301 Clouds 30 1009 70 10000 3.6 260 10:38 21.08.2019
3302 Clouds 30 1009 70 10000 3.6 260 10:20 21.08.2019
3303 Clouds 30 1009 70 10000 5.7 250 09:57 21.08.2019
3304 Clouds 30 1009 70 10000 5.7 250 09:39 21.08.2019
3305 Clouds 31 1009 70 10000 5.7 250 09:20 21.08.2019
3306 Clouds 32 1009 66 10000 5.7 250 08:48 21.08.2019
3307 Clouds 32 1009 66 10000 5.7 250 08:24 21.08.2019
3308 Clouds 31 1009 66 10000 4.6 250 07:45 21.08.2019
3309 Clouds 31 1009 66 10000 4.6 250 07:25 21.08.2019
3310 Clouds 31 1009 66 10000 5.1 250 06:51 21.08.2019
3311 Clouds 31 1009 70 10000 2.1 130 06:32 21.08.2019
3312 Clouds 31 1010 74 10000 2.6 140 05:57 21.08.2019
3313 Clouds 31 1010 74 10000 2.6 140 05:28 21.08.2019
3314 Clouds 30 1010 79 10000 3.1 140 04:35 21.08.2019
3315 Clouds 29 1010 83 10000 2.1 120 01:56 21.08.2019
3316 Clouds 29 1010 83 10000 2.1 120 01:24 21.08.2019
3317 Clouds 28 1009 88 10000 3.1 160 00:39 21.08.2019
3318 Clouds 28 1009 88 10000 3.1 160 00:20 21.08.2019
3319 Clouds 27 1009 94 10000 3.6 160 23:44 20.08.2019
3320 Clouds 27 1009 94 10000 3.6 160 23:20 20.08.2019
3321 Rain 27 1009 94 0 5.81 130 22:59 20.08.2019
3322 Rain 27 1009 94 0 5.81 130 22:40 20.08.2019
3323 Rain 27 1009 94 0 5.81 130 22:21 20.08.2019
3324 Rain 27 1009 94 0 5.81 130 21:58 20.08.2019
3325 Rain 27 1009 94 0 5.81 130 21:39 20.08.2019
3326 Rain 27 1009 94 0 5.81 130 21:19 20.08.2019
3327 Rain 27 1009 94 0 5.81 130 20:58 20.08.2019
3328 Rain 27 1009 94 0 5.81 130 20:39 20.08.2019
3329 Rain 27 1009 94 0 5.81 130 20:21 20.08.2019
3330 Rain 27 1009 94 0 5.81 130 19:39 20.08.2019
3331 Rain 27 1009 94 0 5.81 130 19:21 20.08.2019
3332 Rain 27 1009 94 0 5.81 130 18:56 20.08.2019
3333 Rain 27 1009 94 0 5.81 130 18:38 20.08.2019
3334 Rain 27 1009 94 0 5.81 130 18:19 20.08.2019
3335 Rain 27 1009 94 0 5.81 130 17:55 20.08.2019
3336 Rain 27 1009 94 0 5.81 130 17:37 20.08.2019
3337 Rain 26 1010 94 10000 0.5 0 17:19 20.08.2019
3338 Rain 26 1010 94 10000 0.5 0 17:19 20.08.2019
3339 Rain 26 1010 94 10000 0.5 0 16:43 20.08.2019
3340 Rain 26 1010 94 10000 0.5 0 16:24 20.08.2019
3341 Rain 26 1010 100 10000 1.5 60 15:43 20.08.2019
3342 Rain 27 1009 94 10000 6.2 130 15:19 20.08.2019
3343 Rain 27 1009 94 10000 6.2 130 14:58 20.08.2019
3344 Rain 27 1009 94 10000 6.2 130 14:40 20.08.2019
3345 Rain 27 1009 94 10000 5.1 140 14:21 20.08.2019
3346 Rain 27 1009 94 10000 5.1 140 13:56 20.08.2019
3347 Rain 27 1009 94 10000 5.1 140 13:37 20.08.2019
3348 Rain 27 1009 94 5000 3.6 270 13:19 20.08.2019
3349 Rain 27 1008 94 10000 3.1 150 12:50 20.08.2019
3350 Rain 27 1008 94 10000 3.1 150 12:25 20.08.2019
3351 Rain 27 1008 94 10000 3.1 150 12:25 20.08.2019
3352 Rain 26 1008 94 10000 5.7 130 11:56 20.08.2019
3353 Rain 27 1008 94 10000 5.7 130 11:38 20.08.2019
3354 Rain 27 1008 94 10000 6.7 140 11:18 20.08.2019
3355 Rain 27 1008 94 10000 6.7 140 10:56 20.08.2019
3356 Rain 27 1008 94 10000 6.7 140 10:37 20.08.2019
3357 Rain 28 1008 94 3000 5.7 210 10:19 20.08.2019
3358 Rain 29 1008 83 10000 7.7 150 09:42 20.08.2019
3359 Rain 29 1008 83 10000 7.7 150 09:24 20.08.2019
3360 Clouds 29 1007 83 10000 5.1 140 08:43 20.08.2019
3361 Clouds 29 1007 83 10000 5.1 140 08:25 20.08.2019
3362 Clouds 29 1008 83 10000 5.1 140 07:59 20.08.2019
3363 Clouds 29 1008 83 10000 5.1 140 07:41 20.08.2019
3364 Clouds 29 1008 83 10000 5.1 140 07:22 20.08.2019
3365 Clouds 28 1008 83 10000 4.6 130 06:55 20.08.2019
3366 Clouds 28 1009 88 10000 5.7 150 06:22 20.08.2019
3367 Clouds 28 1009 88 10000 5.7 150 05:48 20.08.2019
3368 Rain 28 1008 88 10000 3.1 130 04:56 20.08.2019
3369 Clouds 27 1008 94 10000 4.6 140 03:37 20.08.2019
3370 Rain 26 1008 94 10000 4.1 110 02:34 20.08.2019
3371 Rain 25 1008 100 10000 7.2 110 01:24 20.08.2019
3372 Rain 25 1007 100 10000 5.7 130 00:48 20.08.2019
3373 Rain 25 1007 100 10000 5.7 130 00:48 20.08.2019
3374 Rain 25 1007 100 10000 5.7 130 00:30 20.08.2019
3375 Rain 25 1009 96 4000 5.7 90 23:52 19.08.2019
3376 Rain 25 1007 94 0 8.77 59.878 23:19 19.08.2019
3377 Rain 25 1007 94 0 8.77 59.878 22:59 19.08.2019
3378 Rain 25 1007 94 0 8.77 59.878 22:41 19.08.2019
3379 Rain 25 1007 94 0 8.77 59.878 22:21 19.08.2019
3380 Rain 25 1007 94 0 8.77 59.878 21:58 19.08.2019
3381 Rain 25 1007 94 0 6.33 80.173 21:39 19.08.2019
3382 Rain 25 1007 94 0 5.22 40.123 21:20 19.08.2019
3383 Rain 25 1007 94 0 5.22 40.123 20:58 19.08.2019
3384 Rain 25 1007 94 0 5.22 40.123 20:38 19.08.2019
3385 Rain 25 1007 94 0 5.22 40.123 20:19 19.08.2019
3386 Rain 25 1007 94 0 5.22 40.123 19:55 19.08.2019
3387 Rain 25 1007 94 0 5.22 40.123 19:55 19.08.2019
3388 Rain 25 1007 94 0 5.22 40.123 19:37 19.08.2019
3389 Rain 25 1007 94 0 5.22 40.123 19:18 19.08.2019
3390 Rain 25 1007 94 0 5.22 40.123 18:42 19.08.2019
3391 Rain 25 1007 94 0 5.22 40.123 18:42 19.08.2019
3392 Rain 25 1007 94 0 4.35 13.378 18:24 19.08.2019
3393 Rain 25 1007 94 0 4.35 13.378 17:58 19.08.2019
3394 Rain 25 1007 94 0 4.35 13.378 17:40 19.08.2019
3395 Mist 26 1008 94 3000 1 0 17:19 19.08.2019
3396 Mist 26 1008 94 3000 1 0 16:56 19.08.2019
3397 Mist 26 1008 94 3000 1 0 16:37 19.08.2019
3398 Mist 26 1008 94 3000 1 0 16:18 19.08.2019
3399 Mist 26 1008 94 4000 1 290 15:45 19.08.2019
3400 Mist 25 1008 94 4000 1 290 15:20 19.08.2019
3401 Rain 25 1007 94 10000 0.5 0 14:55 19.08.2019
3402 Rain 25 1007 94 10000 0.5 0 14:36 19.08.2019
3403 Rain 25 1007 94 10000 0.5 0 14:18 19.08.2019
3404 Rain 25 1007 94 10000 4.6 120 13:55 19.08.2019
3405 Rain 25 1007 94 10000 4.6 120 13:36 19.08.2019
3406 Rain 25 1007 94 10000 4.6 120 13:36 19.08.2019
3407 Rain 25 1007 94 10000 4.6 120 13:18 19.08.2019
3408 Rain 26 1006 94 10000 4.1 160 12:43 19.08.2019
3409 Rain 26 1006 94 10000 4.1 160 12:22 19.08.2019
3410 Rain 26 1007 100 8000 1 0 11:55 19.08.2019
3411 Rain 26 1007 100 8000 1 0 11:36 19.08.2019
3412 Rain 26 1007 100 8000 1 0 11:18 19.08.2019
3413 Rain 26 1008 94 8000 0.5 0 10:39 19.08.2019
3414 Rain 26 1008 94 8000 0.5 0 10:19 19.08.2019
3415 Rain 26 1007 88 10000 2.6 320 09:55 19.08.2019
3416 Rain 26 1007 88 10000 2.6 320 09:37 19.08.2019
3417 Rain 26 1007 88 10000 2.6 320 09:19 19.08.2019
3418 Rain 26 1006 94 10000 3.6 30 08:42 19.08.2019
3419 Rain 26 1006 94 10000 3.6 30 08:22 19.08.2019
3420 Rain 26 1008 88 8000 2.1 0 07:54 19.08.2019
3421 Rain 26 1008 88 8000 2.1 0 07:34 19.08.2019
3422 Rain 25 1008 94 7000 1.5 190 06:59 19.08.2019
3423 Rain 26 1008 94 7000 1.5 190 06:36 19.08.2019
3424 Rain 26 1008 83 10000 3.6 150 05:28 19.08.2019
3425 Rain 26 1008 83 10000 5.7 150 04:34 19.08.2019
3426 Rain 26 1008 83 10000 5.7 130 03:27 19.08.2019
3427 Rain 25 1008 94 10000 5.1 140 02:30 19.08.2019
3428 Rain 25 1008 88 10000 5.1 140 01:37 19.08.2019
3429 Rain 24 1007 88 10000 5.1 150 00:49 19.08.2019
3430 Rain 24 1007 88 10000 5.1 150 00:24 19.08.2019
3431 Rain 24 1007 83 10000 2.1 340 23:56 18.08.2019
3432 Rain 24 1007 83 10000 2.1 340 23:36 18.08.2019
3433 Rain 24 1007 83 10000 2.1 340 23:18 18.08.2019
3434 Clouds 26 1007 83 0 1.34 120 22:40 18.08.2019
3435 Clouds 26 1007 83 0 1.34 120 22:21 18.08.2019
3436 Clouds 26 1007 83 0 1.34 120 21:57 18.08.2019
3437 Clouds 26 1007 75 0 2.84 48.624 21:39 18.08.2019
3438 Clouds 26 1007 73 0 2.17 21.349 21:20 18.08.2019
3439 Clouds 26 1007 73 0 2.17 21.349 20:45 18.08.2019
3440 Clouds 26 1007 73 0 2.17 21.349 20:27 18.08.2019
3441 Clouds 26 1007 73 0 2.17 21.349 19:59 18.08.2019
3442 Clouds 26 1007 73 0 2.17 21.349 19:41 18.08.2019
3443 Clouds 26 1007 73 0 2.17 21.349 19:23 18.08.2019
3444 Clouds 26 1007 73 0 2.17 21.349 18:56 18.08.2019
3445 Clouds 26 1007 73 0 2.17 21.349 18:38 18.08.2019
3446 Clouds 26 1008 75 0 2.3 29.912 18:20 18.08.2019
3447 Clouds 26 1007 83 0 1.34 120 17:44 18.08.2019
3448 Clear 25 1007 88 10000 1.5 20 17:19 18.08.2019
3449 Clear 25 1007 88 10000 1.5 20 16:59 18.08.2019
3450 Clear 25 1007 88 10000 1.5 20 16:41 18.08.2019
3451 Clear 25 1007 88 10000 1.5 20 16:21 18.08.2019
3452 Clear 25 1007 83 10000 2.1 330 15:59 18.08.2019
3453 Clear 25 1007 83 10000 2.1 330 15:39 18.08.2019
3454 Clear 25 1007 83 10000 2.1 330 15:20 18.08.2019
3455 Clear 25 1007 83 10000 2.1 330 15:20 18.08.2019
3456 Clear 26 1007 83 10000 1.5 120 14:56 18.08.2019
3457 Clear 26 1007 83 10000 1.5 120 14:37 18.08.2019
3458 Clear 26 1007 83 10000 1.5 120 14:18 18.08.2019
3459 Clear 26 1006 88 10000 0.5 270 13:43 18.08.2019
3460 Clear 27 1006 88 10000 0.5 270 13:24 18.08.2019
3461 Clear 27 1006 88 10000 0.5 270 13:24 18.08.2019
3462 Clouds 27 1006 78 10000 1 220 12:59 18.08.2019
3463 Clouds 27 1006 78 10000 1 220 12:40 18.08.2019
3464 Clouds 27 1006 78 10000 1 220 12:21 18.08.2019
3465 Clouds 28 1006 69 10000 1 220 11:44 18.08.2019
3466 Clouds 28 1006 69 10000 1 220 11:24 18.08.2019
3467 Clouds 29 1005 74 10000 1.5 340 10:59 18.08.2019
3468 Clouds 29 1005 74 10000 1.5 340 10:40 18.08.2019
3469 Clouds 29 1005 74 10000 1.5 340 10:40 18.08.2019
3470 Clouds 27 1006 74 10000 0.5 0 10:19 18.08.2019
3471 Clouds 27 1006 74 10000 0.5 0 09:45 18.08.2019
3472 Clouds 27 1006 74 10000 0.5 0 09:21 18.08.2019
3473 Clouds 27 1006 78 10000 3.1 130 08:45 18.08.2019
3474 Clouds 27 1006 78 10000 3.1 130 08:25 18.08.2019
3475 Clouds 27 1006 78 10000 3.1 130 08:25 18.08.2019
3476 Clouds 27 1006 74 10000 2.6 140 07:59 18.08.2019
3477 Clouds 27 1006 74 10000 2.6 140 07:41 18.08.2019
3478 Clouds 27 1006 74 10000 2.6 140 07:22 18.08.2019
3479 Clouds 27 1007 78 10000 3.6 120 05:45 18.08.2019
3480 Clouds 27 1007 83 10000 4.1 140 04:44 18.08.2019
3481 Clouds 26 1007 83 10000 2.6 150 03:20 18.08.2019
3482 Clouds 26 1007 88 10000 1.5 140 02:43 18.08.2019
3483 Clouds 26 1007 88 10000 1.5 140 02:18 18.08.2019
3484 Clouds 25 1006 83 10000 2.1 140 01:29 18.08.2019
3485 Clouds 25 1006 88 10000 1.5 120 00:43 18.08.2019
3486 Clouds 25 1006 88 10000 1.5 120 00:24 18.08.2019
3487 Clouds 25 1006 88 8000 1 350 23:58 17.08.2019
3488 Clouds 25 1006 88 8000 1 350 23:38 17.08.2019
3489 Clouds 25 1006 88 8000 1 350 23:20 17.08.2019
3490 Clouds 26 1006 74 0 0.9 66.316 22:58 17.08.2019
3491 Clouds 26 1006 74 0 0.9 66.316 22:58 17.08.2019
3492 Clouds 26 1006 74 0 0.9 66.316 22:40 17.08.2019
3493 Clouds 26 1006 74 0 0.9 66.316 22:21 17.08.2019
3494 Clouds 26 1006 74 0 0.9 66.316 21:55 17.08.2019
3495 Clouds 26 1006 74 0 0.9 66.316 21:55 17.08.2019
3496 Clouds 26 1006 74 0 0.9 66.316 21:37 17.08.2019
3497 Clouds 26 1006 77 0 1.17 275.212 21:19 17.08.2019
3498 Clouds 26 1006 77 0 1.17 275.212 20:39 17.08.2019
3499 Clouds 27 1004 83 0 1.79 230 20:20 17.08.2019
3500 Clouds 27 1004 83 0 1.79 230 19:56 17.08.2019
3501 Clouds 27 1004 83 0 1.79 230 19:37 17.08.2019
3502 Clouds 27 1004 83 0 1.79 230 19:19 17.08.2019
3503 Clouds 27 1004 83 0 1.79 230 18:39 17.08.2019
3504 Clouds 27 1006 83 0 1.79 230 18:19 17.08.2019
3505 Clouds 27 1006 83 0 1.79 230 17:55 17.08.2019
3506 Clouds 27 1006 83 0 1.79 230 17:37 17.08.2019
3507 Clear 26 1005 74 10000 1.5 310 17:18 17.08.2019
3508 Clear 26 1005 74 10000 1.5 310 16:43 17.08.2019
3509 Clear 26 1005 74 10000 1.5 310 16:25 17.08.2019
3510 Clouds 26 1005 69 10000 2.6 300 15:57 17.08.2019
3511 Clouds 26 1005 69 10000 2.6 300 15:38 17.08.2019
3512 Clouds 27 1005 69 10000 2.6 300 15:20 17.08.2019
3513 Clouds 27 1005 69 10000 2.6 300 15:20 17.08.2019
3514 Clouds 27 1004 83 10000 2.1 230 14:40 17.08.2019
3515 Clouds 27 1004 83 10000 2.1 230 14:22 17.08.2019
3516 Clouds 27 1004 78 10000 1.5 180 13:46 17.08.2019
3517 Clouds 27 1004 78 10000 1.5 180 13:21 17.08.2019
3518 Clouds 28 1003 74 10000 4.1 240 12:55 17.08.2019
3519 Clouds 28 1003 74 10000 4.1 240 12:37 17.08.2019
3520 Clouds 28 1003 74 10000 4.1 240 12:18 17.08.2019
3521 Clouds 29 1003 70 10000 4.6 250 11:43 17.08.2019
3522 Clouds 29 1003 70 10000 4.6 250 11:20 17.08.2019
3523 Clouds 30 1003 66 10000 4.1 250 10:55 17.08.2019
3524 Clouds 30 1003 66 10000 4.1 250 10:55 17.08.2019
3525 Clouds 30 1003 66 10000 4.1 250 10:37 17.08.2019
3526 Clouds 30 1003 66 10000 4.1 250 10:18 17.08.2019
3527 Clouds 31 1003 62 10000 4.1 250 09:43 17.08.2019
3528 Clouds 31 1003 62 10000 4.1 250 09:25 17.08.2019
3529 Clouds 31 1003 59 10000 4.1 240 08:53 17.08.2019
3530 Clouds 31 1003 59 10000 4.1 240 08:24 17.08.2019
3531 Clouds 31 1003 59 10000 3.1 260 07:45 17.08.2019
3532 Clouds 31 1003 59 10000 3.1 260 07:21 17.08.2019
3533 Clouds 31 1003 62 10000 2.1 250 06:40 17.08.2019
3534 Clouds 30 1004 62 10000 1.5 0 05:30 17.08.2019
3535 Clouds 30 1004 66 10000 2.1 270 04:28 17.08.2019
3536 Clouds 29 1004 70 10000 1 0 02:53 17.08.2019
3537 Clouds 28 1004 78 10000 2.1 130 01:40 17.08.2019
3538 Clouds 28 1004 78 10000 2.1 130 01:22 17.08.2019
3539 Clouds 26 1004 88 10000 1.5 100 00:48 17.08.2019
3540 Clouds 26 1004 88 10000 1.5 100 00:26 17.08.2019
3541 Clouds 25 1004 94 10000 2.6 130 23:47 16.08.2019
3542 Clouds 25 1004 94 10000 2.6 130 23:25 16.08.2019
3543 Clear 27 1002 83 0 4.92 240 22:44 16.08.2019
3544 Clear 27 1002 83 0 4.92 240 22:20 16.08.2019
3545 Clear 27 1002 83 0 4.92 240 21:59 16.08.2019
3546 Clear 27 1002 83 0 4.92 240 21:39 16.08.2019
3547 Rain 27 1002 83 0 4.92 240 21:19 16.08.2019
3548 Rain 27 1002 83 0 4.92 240 20:43 16.08.2019
3549 Rain 27 1002 83 0 4.92 240 20:22 16.08.2019
3550 Rain 27 1002 83 0 4.92 240 19:59 16.08.2019
3551 Rain 27 1002 83 0 4.92 240 19:39 16.08.2019
3552 Rain 27 1002 83 0 4.92 240 19:20 16.08.2019
3553 Rain 27 1002 83 0 4.92 240 18:42 16.08.2019
3554 Rain 27 1002 83 0 4.92 240 18:42 16.08.2019
3555 Rain 27 1002 83 0 4.92 240 18:23 16.08.2019
3556 Rain 27 1002 83 0 4.92 240 17:49 16.08.2019
3557 Clouds 27 1002 69 10000 5.1 220 17:31 16.08.2019
3558 Clouds 27 1002 69 10000 5.1 220 16:59 16.08.2019
3559 Clouds 27 1002 69 10000 5.1 220 16:41 16.08.2019
3560 Clouds 27 1002 69 10000 5.1 220 16:20 16.08.2019
3561 Clouds 27 1002 65 10000 3.1 220 15:56 16.08.2019
3562 Clouds 27 1002 65 10000 3.1 220 15:38 16.08.2019
3563 Clouds 27 1002 65 10000 3.1 220 15:19 16.08.2019
3564 Clouds 27 1002 83 10000 5.1 240 14:56 16.08.2019
3565 Clouds 27 1002 83 10000 5.1 240 14:38 16.08.2019
3566 Clouds 27 1002 83 10000 5.1 240 14:18 16.08.2019
3567 Clouds 28 1001 78 10000 6.7 230 13:40 16.08.2019
3568 Clouds 28 1001 78 10000 6.7 230 13:22 16.08.2019
3569 Clouds 28 1000 78 10000 5.1 220 12:41 16.08.2019
3570 Clouds 28 1000 78 10000 5.1 220 12:23 16.08.2019
3571 Clouds 28 1000 78 10000 6.2 230 11:58 16.08.2019
3572 Clouds 28 1000 78 10000 6.2 230 11:58 16.08.2019
3573 Clouds 28 1000 78 10000 6.2 230 11:39 16.08.2019
3574 Clouds 28 1000 78 10000 6.2 230 11:39 16.08.2019
3575 Clouds 28 1000 78 10000 6.2 230 11:21 16.08.2019
3576 Clouds 29 1000 74 10000 7.2 240 10:43 16.08.2019
3577 Clouds 29 1000 74 10000 7.2 240 10:21 16.08.2019
3578 Clouds 30 999 70 10000 7.7 240 09:39 16.08.2019
3579 Clouds 30 999 70 10000 7.7 240 09:20 16.08.2019
3580 Clouds 30 999 70 10000 6.2 220 08:59 16.08.2019
3581 Clouds 30 999 70 10000 6.2 220 08:39 16.08.2019
3582 Clouds 30 999 70 10000 6.2 220 08:20 16.08.2019
3583 Clouds 31 999 70 10000 5.7 240 07:49 16.08.2019
3584 Clouds 31 999 70 10000 5.7 240 07:28 16.08.2019
3585 Clouds 30 999 70 10000 7.2 240 06:55 16.08.2019
3586 Clouds 30 999 70 10000 7.2 240 06:19 16.08.2019
3587 Clouds 30 999 70 10000 6.7 240 05:34 16.08.2019
3588 Clouds 29 998 74 10000 7.2 230 03:20 16.08.2019
3589 Rain 28 998 83 10000 6.2 240 01:53 16.08.2019
3590 Rain 28 998 83 10000 6.2 240 01:27 16.08.2019
3591 Rain 27 997 88 10000 6.7 240 00:50 16.08.2019
3592 Rain 27 997 88 10000 6.7 240 00:24 16.08.2019
3593 Rain 27 997 88 10000 6.7 240 00:24 16.08.2019
3594 Rain 27 997 88 10000 7.7 240 23:59 15.08.2019
3595 Rain 27 997 88 10000 7.7 240 23:41 15.08.2019
3596 Rain 27 997 88 10000 7.7 240 23:19 15.08.2019
3597 Rain 28 992 83 0 5.36 250 22:41 15.08.2019
3598 Rain 28 992 83 0 5.36 250 22:23 15.08.2019
3599 Rain 28 992 83 0 5.36 250 21:59 15.08.2019
3600 Rain 28 992 83 0 5.36 250 21:39 15.08.2019
3601 Rain 28 992 83 0 5.36 250 21:20 15.08.2019
3602 Rain 28 992 83 0 5.36 250 20:58 15.08.2019
3603 Rain 28 992 83 0 5.36 250 20:58 15.08.2019
3604 Rain 28 992 83 0 5.36 250 20:40 15.08.2019
3605 Rain 28 992 83 0 5.36 250 20:21 15.08.2019
3606 Rain 28 992 83 0 5.36 250 19:40 15.08.2019
3607 Rain 28 992 83 0 5.36 250 19:22 15.08.2019
3608 Rain 28 992 83 0 5.36 250 18:59 15.08.2019
3609 Rain 28 992 83 0 5.36 250 18:41 15.08.2019
3610 Rain 28 992 83 0 5.36 250 18:21 15.08.2019
3611 Rain 28 992 83 0 5.36 250 17:54 15.08.2019
3612 Rain 28 992 83 0 5.36 250 17:36 15.08.2019
3613 Rain 28 992 83 0 5.36 250 17:36 15.08.2019
3614 Clouds 27 993 74 10000 7.7 240 17:18 15.08.2019
3615 Clouds 27 993 74 10000 7.7 240 16:43 15.08.2019
3616 Clouds 27 993 74 10000 7.7 240 16:24 15.08.2019
3617 Clouds 27 992 74 10000 8.7 250 15:56 15.08.2019
3618 Clouds 27 992 74 10000 8.7 250 15:37 15.08.2019
3619 Clouds 28 992 74 10000 8.7 250 15:18 15.08.2019
3620 Clouds 28 992 83 10000 5.7 250 14:42 15.08.2019
3621 Clouds 28 992 83 10000 5.7 250 14:23 15.08.2019
3622 Clouds 28 991 83 10000 7.2 260 13:57 15.08.2019
3623 Clouds 28 991 83 10000 7.2 260 13:39 15.08.2019
3624 Clouds 28 991 83 10000 7.2 260 13:20 15.08.2019
3625 Clouds 28 991 83 9000 7.7 260 12:56 15.08.2019
3626 Clouds 28 991 83 9000 7.7 260 12:37 15.08.2019
3627 Clouds 28 991 83 9000 7.7 260 12:18 15.08.2019
3628 Rain 28 989 88 10000 7.7 260 11:40 15.08.2019
3629 Rain 28 989 88 10000 7.7 260 11:21 15.08.2019
3630 Rain 28 988 88 10000 8.7 270 10:59 15.08.2019
3631 Rain 28 988 88 10000 8.7 270 10:38 15.08.2019
3632 Rain 28 988 88 10000 8.7 270 10:38 15.08.2019
3633 Rain 28 988 88 10000 8.7 270 10:20 15.08.2019
3634 Rain 28 987 83 10000 8.7 280 09:45 15.08.2019
3635 Rain 28 987 83 10000 8.7 280 09:23 15.08.2019
3636 Rain 27 987 94 10000 10.3 290 08:56 15.08.2019
3637 Rain 27 987 94 10000 10.3 290 08:36 15.08.2019
3638 Rain 27 987 94 10000 10.3 290 08:18 15.08.2019
3639 Rain 27 986 94 10000 9.8 290 07:42 15.08.2019
3640 Rain 27 986 94 10000 9.8 290 07:22 15.08.2019
3641 Rain 27 985 83 10000 10.3 280 06:53 15.08.2019
3642 Rain 27 986 94 9000 10.3 300 06:32 15.08.2019
3643 Rain 27 984 83 4000 9.8 280 05:43 15.08.2019
3644 Rain 27 985 94 10000 11.3 300 05:23 15.08.2019
3645 Rain 27 985 94 10000 9.3 310 04:30 15.08.2019
3646 Rain 27 984 94 10000 8.7 310 03:30 15.08.2019
3647 Rain 27 984 94 10000 7.7 310 02:35 15.08.2019
3648 Rain 27 983 88 3000 5.1 330 01:49 15.08.2019
3649 Rain 27 983 94 10000 9.8 320 01:26 15.08.2019
3650 Rain 27 983 88 10000 10.8 330 00:39 15.08.2019
3651 Rain 27 983 88 10000 10.8 330 00:20 15.08.2019
3652 Rain 27 983 88 2500 5.7 330 23:57 14.08.2019
3653 Rain 27 983 94 10000 10.8 330 23:37 14.08.2019
3654 Rain 27 983 94 10000 10.8 330 23:19 14.08.2019
3655 Rain 28 988 83 0 9.39 360 22:42 14.08.2019
3656 Rain 28 988 83 0 9.39 360 22:23 14.08.2019
3657 Rain 28 984 83 0 9.39 360 21:58 14.08.2019
3658 Rain 28 984 83 0 9.39 360 21:40 14.08.2019
3659 Clouds 28 984 83 0 9.39 360 21:21 14.08.2019
3660 Clouds 28 988 83 0 9.39 360 20:59 14.08.2019
3661 Clouds 28 988 83 0 9.39 360 20:41 14.08.2019
3662 Clouds 28 984 83 0 9.39 360 20:20 14.08.2019
3663 Clouds 28 984 83 0 9.39 360 19:55 14.08.2019
3664 Clouds 29 986 84 0 13.85 1.055 19:37 14.08.2019
3665 Clouds 29 986 84 0 13.85 1.055 19:37 14.08.2019
3666 Clouds 29 986 84 0 13.85 1.055 19:18 14.08.2019
3667 Clouds 29 986 84 0 13.85 1.055 18:55 14.08.2019
3668 Clouds 29 986 84 0 13.85 1.055 18:36 14.08.2019
3669 Clouds 28 988 87 0 13.86 5.071 18:18 14.08.2019
3670 Clouds 28 988 87 0 13.86 5.071 17:40 14.08.2019
3671 Clouds 29 987 66 10000 7.7 20 17:22 14.08.2019
3672 Clouds 29 987 66 10000 7.7 20 16:58 14.08.2019
3673 Clouds 29 987 66 10000 7.7 20 16:39 14.08.2019
3674 Clouds 29 987 66 10000 7.7 20 16:39 14.08.2019
3675 Clouds 29 987 66 10000 7.7 20 16:19 14.08.2019
3676 Clouds 29 988 74 10000 7.7 20 15:43 14.08.2019
3677 Rain 28 988 74 10000 7.7 20 15:20 14.08.2019
3678 Rain 29 988 83 10000 9.8 360 14:57 14.08.2019
3679 Rain 29 988 83 10000 9.8 360 14:39 14.08.2019
3680 Rain 29 988 83 10000 9.8 360 14:19 14.08.2019
3681 Clouds 29 988 83 10000 8.7 10 13:44 14.08.2019
3682 Clouds 29 988 83 10000 8.7 10 13:24 14.08.2019
3683 Rain 28 989 74 10000 7.7 10 12:59 14.08.2019
3684 Rain 29 988 83 10000 8.7 360 12:40 14.08.2019
3685 Rain 29 988 83 10000 8.7 360 12:22 14.08.2019
3686 Rain 28 989 83 10000 9.3 350 11:57 14.08.2019
3687 Rain 28 989 83 10000 9.3 350 11:38 14.08.2019
3688 Rain 28 989 83 10000 9.3 350 11:38 14.08.2019
3689 Rain 28 989 83 10000 9.3 350 11:20 14.08.2019
3690 Rain 28 990 88 10000 7.2 350 10:45 14.08.2019
3691 Rain 28 990 88 10000 7.2 350 10:24 14.08.2019
3692 Rain 28 991 83 5000 5.7 360 09:57 14.08.2019
3693 Rain 27 990 88 10000 8.2 350 09:38 14.08.2019
3694 Rain 27 990 88 10000 8.2 350 09:19 14.08.2019
3695 Rain 30 991 66 10000 9.3 20 08:40 14.08.2019
3696 Rain 30 991 66 10000 9.3 20 08:21 14.08.2019
3697 Rain 31 990 66 10000 5.7 360 07:51 14.08.2019
3698 Rain 32 990 66 10000 5.7 360 07:32 14.08.2019
3699 Rain 33 991 66 10000 9.8 10 06:46 14.08.2019
3700 Clouds 34 992 63 10000 7.2 360 05:54 14.08.2019
3701 Clouds 34 992 63 10000 7.2 360 05:24 14.08.2019
3702 Clouds 33 993 59 10000 7.7 360 03:38 14.08.2019
3703 Clouds 32 994 63 10000 7.7 350 02:33 14.08.2019
3704 Clouds 32 995 59 10000 6.7 360 01:48 14.08.2019
3705 Clouds 31 994 66 10000 6.7 350 01:18 14.08.2019
3706 Clouds 29 995 88 10000 7.2 330 23:50 13.08.2019
3707 Clouds 29 995 88 10000 7.2 330 23:25 13.08.2019
3708 Clouds 30 998 79 0 2.68 360 22:59 13.08.2019
3709 Clouds 30 998 79 0 2.68 360 22:39 13.08.2019
3710 Clouds 30 998 79 0 2.68 360 22:21 13.08.2019
3711 Clouds 30 998 79 0 2.68 360 21:58 13.08.2019
3712 Clouds 30 998 79 0 2.68 360 21:38 13.08.2019
3713 Clouds 30 998 79 0 2.68 360 21:19 13.08.2019
3714 Clouds 30 998 79 0 2.68 360 20:56 13.08.2019
3715 Clouds 30 998 79 0 2.68 360 20:37 13.08.2019
3716 Clouds 30 998 79 0 2.68 360 20:18 13.08.2019
3717 Clouds 30 998 79 0 2.68 360 19:43 13.08.2019
3718 Clouds 30 999 79 0 2.68 360 19:22 13.08.2019
3719 Clouds 30 999 79 0 2.68 360 18:57 13.08.2019
3720 Clouds 30 998 79 0 2.68 360 18:38 13.08.2019
3721 Clouds 30 998 79 0 2.68 360 18:19 13.08.2019
3722 Clouds 30 998 79 0 2.68 360 17:42 13.08.2019
3723 Clear 30 998 58 10000 4.1 20 17:21 13.08.2019
3724 Clear 30 998 58 10000 4.1 20 16:57 13.08.2019
3725 Clear 30 998 58 10000 4.1 20 16:57 13.08.2019
3726 Clear 30 998 58 10000 4.1 20 16:38 13.08.2019
3727 Clear 30 998 58 10000 4.1 20 16:20 13.08.2019
3728 Clear 30 998 58 10000 4.6 30 15:40 13.08.2019
3729 Clear 30 998 58 10000 4.6 30 15:21 13.08.2019
3730 Clouds 30 998 79 10000 3.1 360 14:59 13.08.2019
3731 Clouds 30 998 79 10000 3.1 360 14:40 13.08.2019
3732 Clouds 30 998 79 10000 3.1 360 14:19 13.08.2019
3733 Clouds 30 998 79 10000 6.2 360 13:42 13.08.2019
3734 Clouds 30 998 79 10000 6.2 360 13:23 13.08.2019
3735 Clouds 31 997 74 10000 6.2 350 12:59 13.08.2019
3736 Clouds 31 997 74 10000 6.2 350 12:41 13.08.2019
3737 Clouds 31 997 74 10000 6.2 350 12:22 13.08.2019
3738 Clouds 32 998 74 10000 4.1 350 11:58 13.08.2019
3739 Clouds 33 997 63 10000 6.2 50 11:38 13.08.2019
3740 Clouds 33 997 63 10000 6.2 50 11:20 13.08.2019
3741 Clouds 34 997 52 10000 7.2 30 10:56 13.08.2019
3742 Clouds 34 997 52 10000 7.2 30 10:37 13.08.2019
3743 Clouds 35 997 53 10000 7.2 50 10:18 13.08.2019
3744 Clouds 35 997 53 10000 7.2 50 09:42 13.08.2019
3745 Clouds 35 997 53 10000 7.2 50 09:23 13.08.2019
3746 Clouds 35 997 53 10000 6.7 50 08:44 13.08.2019
3747 Clouds 35 997 53 10000 6.7 50 08:23 13.08.2019
3748 Clouds 36 998 50 10000 5.7 70 07:57 13.08.2019
3749 Clouds 36 998 50 10000 5.7 70 07:34 13.08.2019
3750 Clouds 36 998 47 10000 5.7 50 06:55 13.08.2019
3751 Clouds 36 998 53 10000 6.2 40 06:34 13.08.2019
3752 Clouds 36 999 50 10000 4.1 30 05:35 13.08.2019
3753 Clouds 32 1000 63 10000 3.1 330 02:38 13.08.2019
3754 Clouds 31 1000 66 10000 1.5 10 01:59 13.08.2019
3755 Clouds 29 1000 83 10000 2.1 160 00:56 13.08.2019
3756 Clouds 29 1000 83 10000 2.1 160 00:37 13.08.2019
3757 Clouds 27 1000 88 10000 1.5 150 23:49 12.08.2019
3758 Clouds 27 1000 88 10000 1.5 150 23:25 12.08.2019
3759 Clear 31 1001 70 0 4.92 100 22:58 12.08.2019
3760 Clear 31 1001 70 0 4.92 100 22:39 12.08.2019
3761 Clear 31 1001 70 0 4.92 100 22:19 12.08.2019
3762 Clear 31 1001 70 0 4.92 100 21:55 12.08.2019
3763 Clear 31 1001 70 0 4.92 100 21:55 12.08.2019
3764 Clear 31 1001 70 0 4.92 100 21:37 12.08.2019
3765 Clouds 31 1001 70 0 4.92 100 21:18 12.08.2019
3766 Clouds 31 1001 70 0 4.92 100 20:56 12.08.2019
3767 Clouds 31 1001 70 0 4.92 100 20:37 12.08.2019
3768 Clouds 31 1001 70 0 4.92 100 20:19 12.08.2019
3769 Clouds 31 1001 70 0 4.92 100 19:55 12.08.2019
3770 Clouds 31 1001 70 0 4.92 100 19:36 12.08.2019
3771 Clouds 31 1001 70 0 4.92 100 19:18 12.08.2019
3772 Clouds 31 1001 70 0 4.92 100 18:54 12.08.2019
3773 Clouds 31 1001 70 0 4.92 100 18:36 12.08.2019
3774 Clouds 31 1001 70 0 4.92 100 18:18 12.08.2019
3775 Clouds 31 1001 70 0 4.92 100 17:46 12.08.2019
3776 Clouds 30 1002 66 10000 1.5 330 17:27 12.08.2019
3777 Clouds 30 1002 66 10000 1.5 330 16:56 12.08.2019
3778 Clouds 30 1002 66 10000 1.5 330 16:38 12.08.2019
3779 Clouds 30 1002 66 10000 1.5 330 16:19 12.08.2019
3780 Clouds 30 1002 66 10000 1.5 330 16:19 12.08.2019
3781 Clouds 30 1002 70 10000 1 0 15:57 12.08.2019
3782 Clouds 30 1002 70 10000 1 0 15:57 12.08.2019
3783 Clouds 30 1002 70 10000 1 0 15:57 12.08.2019
3784 Clouds 30 1002 70 10000 1 0 15:38 12.08.2019
3785 Clouds 31 1002 70 10000 1 0 15:20 12.08.2019
3786 Clouds 31 1001 70 10000 5.1 100 14:43 12.08.2019
3787 Clouds 31 1001 70 10000 5.1 100 14:24 12.08.2019
3788 Clouds 31 1001 70 10000 5.1 360 13:59 12.08.2019
3789 Clouds 31 1001 70 10000 5.1 360 13:41 12.08.2019
3790 Clouds 31 1001 70 10000 5.1 360 13:23 12.08.2019
3791 Clouds 30 1000 79 10000 5.1 330 12:43 12.08.2019
3792 Clouds 30 1000 79 10000 5.1 330 12:22 12.08.2019
3793 -273 0 0 0 0 0 11:49 12.08.2019
3794 Rain 32 1000 66 10000 5.7 320 11:48 12.08.2019
3795 Rain 32 1000 66 10000 5.7 320 11:29 12.08.2019
3796 Rain 33 1000 63 10000 6.2 330 10:59 12.08.2019
3797 Rain 33 1000 63 10000 6.2 330 10:40 12.08.2019
3798 Rain 33 1000 63 10000 6.2 330 10:22 12.08.2019
3799 Rain 33 1000 63 10000 6.2 330 10:22 12.08.2019
3800 Clouds 33 1000 70 10000 6.7 330 09:56 12.08.2019
3801 Clouds 33 1000 70 10000 6.7 330 09:37 12.08.2019
3802 Clouds 33 1000 70 10000 6.7 330 09:18 12.08.2019
3803 Clouds 35 1000 53 10000 3.6 250 08:41 12.08.2019
3804 Clouds 35 1000 53 10000 3.6 250 08:23 12.08.2019
3805 Clouds 35 1001 53 10000 1 0 07:56 12.08.2019
3806 Clouds 35 1001 53 10000 1 0 07:35 12.08.2019
3807 Clouds 34 1001 56 10000 1 0 06:54 12.08.2019
3808 Clouds 33 1001 63 10000 2.6 20 06:20 12.08.2019
3809 Clouds 33 1002 59 10000 2.6 360 04:29 12.08.2019
3810 Clouds 30 1002 70 10000 1.5 180 02:43 12.08.2019
3811 Clouds 29 1002 74 10000 1 0 01:45 12.08.2019
3812 Clouds 29 1002 74 10000 1 0 01:18 12.08.2019
3813 Clouds 28 1002 78 10000 1 0 00:54 12.08.2019
3814 Clouds 28 1002 78 10000 1 0 00:36 12.08.2019
3815 Clouds 28 1002 78 10000 1 0 00:18 12.08.2019
3816 Clouds 25 1002 94 10000 2.1 160 23:39 11.08.2019
3817 Clouds 27 1002 94 10000 2.1 160 23:20 11.08.2019
3818 Clouds 29 1003 83 0 4.47 150 22:57 11.08.2019
3819 Clouds 29 1003 83 0 4.47 150 22:38 11.08.2019
3820 Clouds 29 1003 83 0 4.47 150 22:18 11.08.2019
3821 Clouds 29 1003 83 0 4.47 150 22:18 11.08.2019
3822 Clouds 29 1003 83 0 4.47 150 21:56 11.08.2019
3823 Clouds 29 1003 83 0 4.47 150 21:38 11.08.2019
3824 Clouds 29 1003 83 0 4.47 150 21:19 11.08.2019
3825 Clouds 29 1003 83 0 4.47 150 21:19 11.08.2019
3826 Clouds 29 1003 83 0 4.47 150 20:44 11.08.2019
3827 Clouds 29 1003 83 0 4.47 150 20:23 11.08.2019
3828 Clouds 29 1003 83 0 4.47 150 19:56 11.08.2019
3829 Clouds 29 1003 83 0 4.47 150 19:37 11.08.2019
3830 Clouds 29 1003 83 0 4.47 150 19:18 11.08.2019
3831 Clouds 29 1003 83 0 4.47 150 18:40 11.08.2019
3832 Clouds 29 1003 83 0 4.47 150 18:20 11.08.2019
3833 Clouds 29 1003 83 0 4.47 150 17:54 11.08.2019
3834 Clouds 28 1003 61 10000 3.1 100 17:36 11.08.2019
3835 Clouds 28 1003 61 10000 3.1 100 17:18 11.08.2019
3836 Clouds 28 1003 61 10000 3.1 100 16:40 11.08.2019
3837 Clouds 28 1003 61 10000 3.1 100 16:22 11.08.2019
3838 Clouds 30 1003 58 10000 5.1 120 15:59 11.08.2019
3839 Clouds 29 1003 58 10000 5.1 120 15:41 11.08.2019
3840 Clouds 29 1003 58 10000 5.1 120 15:22 11.08.2019
3841 Clouds 29 1003 83 10000 4.6 150 14:55 11.08.2019
3842 Clouds 29 1003 83 10000 4.6 150 14:37 11.08.2019
3843 Clouds 29 1003 83 10000 4.6 150 14:19 11.08.2019
3844 Clouds 29 1003 83 10000 4.6 150 14:19 11.08.2019
3845 Clouds 30 1002 70 10000 3.6 210 13:43 11.08.2019
3846 Clouds 30 1002 70 10000 3.6 210 13:23 11.08.2019
3847 Clouds 31 1002 66 10000 3.6 170 12:44 11.08.2019
3848 Clouds 31 1002 66 10000 3.6 170 12:22 11.08.2019
3849 Clouds 31 1001 70 10000 5.7 140 11:41 11.08.2019
3850 Clouds 31 1001 70 10000 5.7 140 11:23 11.08.2019
3851 Clouds 34 1001 56 10000 4.6 160 10:57 11.08.2019
3852 Clouds 34 1001 56 10000 4.6 160 10:39 11.08.2019
3853 Clouds 34 1001 56 10000 4.6 160 10:20 11.08.2019
3854 Clouds 34 1001 59 10000 5.1 160 09:55 11.08.2019
3855 Clouds 34 1001 59 10000 5.1 160 09:37 11.08.2019
3856 Clouds 34 1001 59 10000 5.1 160 09:18 11.08.2019
3857 Clouds 34 1001 56 10000 6.7 150 08:41 11.08.2019
3858 Clouds 34 1001 56 10000 6.7 150 08:23 11.08.2019
3859 Clouds 35 1002 53 10000 7.7 150 07:47 11.08.2019
3860 Clouds 35 1002 53 10000 7.7 150 07:20 11.08.2019
3861 Clouds 34 1002 56 10000 8.2 150 06:38 11.08.2019
3862 Clouds 34 1002 53 10000 6.2 150 05:33 11.08.2019
3863 Clouds 30 1003 62 10000 4.6 170 02:54 11.08.2019
3864 Clouds 30 1003 62 10000 4.6 170 02:26 11.08.2019
3865 Clouds 28 1003 70 10000 4.1 160 01:33 11.08.2019
3866 Clouds 26 1003 78 10000 4.6 140 00:56 11.08.2019
3867 Clouds 26 1003 78 10000 4.6 140 00:36 11.08.2019
3868 Clouds 26 1003 78 10000 4.6 140 23:57 10.08.2019
3869 Clouds 26 1003 78 10000 4.6 140 23:37 10.08.2019
3870 Clouds 26 1003 78 10000 4.6 140 23:18 10.08.2019
3871 Clouds 30 1004 62 0 3.58 100 22:40 10.08.2019
3872 Clouds 30 1004 62 0 3.58 100 22:22 10.08.2019
3873 Clouds 30 1004 62 0 3.58 100 21:41 10.08.2019
3874 Clouds 30 1004 62 0 3.58 100 21:22 10.08.2019
3875 Clouds 30 1004 62 0 3.58 100 20:59 10.08.2019
3876 Clouds 30 1004 62 0 3.58 100 20:41 10.08.2019
3877 Clouds 30 1004 62 0 3.58 100 20:20 10.08.2019
3878 Clouds 27 1004 78 0 6.44 142.925 19:56 10.08.2019
3879 Clouds 27 1004 78 0 6.44 142.925 19:37 10.08.2019
3880 Clouds 27 1004 78 0 6.44 142.925 19:18 10.08.2019
3881 Clouds 27 1004 78 0 6.44 142.925 18:39 10.08.2019
3882 Clouds 30 1004 62 0 3.58 100 18:20 10.08.2019
3883 Clouds 30 1004 62 0 3.58 100 17:41 10.08.2019
3884 Clouds 28 1005 61 10000 3.6 110 17:23 10.08.2019
3885 Clouds 28 1005 61 10000 3.6 110 16:45 10.08.2019
3886 Clouds 29 1005 61 10000 3.6 110 16:26 10.08.2019
3887 Clouds 29 1005 58 10000 4.1 90 15:53 10.08.2019
3888 Clouds 29 1005 58 10000 4.1 90 15:23 10.08.2019
3889 Clear 30 1004 62 10000 3.6 100 14:44 10.08.2019
3890 Clear 30 1004 62 10000 3.6 100 14:21 10.08.2019
3891 Clear 30 1004 66 10000 2.6 100 13:42 10.08.2019
3892 Clear 30 1004 66 10000 2.6 100 13:21 10.08.2019
3893 Clear 31 1003 62 10000 2.6 160 12:57 10.08.2019
3894 Clear 31 1003 62 10000 2.6 160 12:57 10.08.2019
3895 Clear 31 1003 62 10000 2.6 160 12:39 10.08.2019
3896 Clear 31 1003 62 10000 2.6 160 12:20 10.08.2019
3897 Clouds 33 1003 55 10000 3.1 170 11:42 10.08.2019
3898 Clouds 33 1003 55 10000 3.1 170 11:23 10.08.2019
3899 Clouds 33 1003 55 10000 4.1 160 10:57 10.08.2019
3900 Clouds 33 1003 55 10000 4.1 160 10:37 10.08.2019
3901 Clouds 33 1003 55 10000 4.1 160 10:19 10.08.2019
3902 Clouds 33 1003 59 10000 3.1 160 09:43 10.08.2019
3903 Clouds 33 1003 59 10000 3.1 160 09:23 10.08.2019
3904 Clouds 33 1003 52 10000 2.1 190 08:42 10.08.2019
3905 Clouds 33 1003 52 10000 2.1 190 08:22 10.08.2019
3906 Clouds 34 1004 56 10000 2.6 140 07:54 10.08.2019
3907 Clouds 34 1004 56 10000 2.6 140 07:29 10.08.2019
3908 Clouds 33 1004 52 10000 3.6 130 06:49 10.08.2019
3909 Clouds 33 1004 52 10000 3.6 130 06:49 10.08.2019
3910 Clouds 33 1004 52 10000 3.6 130 06:29 10.08.2019
3911 Clouds 32 1004 59 10000 5.1 170 05:27 10.08.2019
3912 Clear 32 1005 59 10000 1.5 10 04:37 10.08.2019
3913 Clear 28 1005 66 10000 1.5 150 02:58 10.08.2019
3914 Clear 28 1005 66 10000 1.5 150 02:28 10.08.2019
3915 Clouds 28 1005 78 10000 1 0 01:43 10.08.2019
3916 Clouds 28 1005 78 10000 1 0 01:23 10.08.2019
3917 Clouds 27 1006 78 10000 2.1 80 00:49 10.08.2019
3918 Clouds 27 1006 78 10000 2.1 80 00:25 10.08.2019
3919 Clouds 25 1006 83 10000 2.1 120 23:57 09.08.2019
3920 Clouds 26 1006 83 10000 2.1 120 23:36 09.08.2019
3921 Clouds 26 1006 83 10000 2.1 120 23:18 09.08.2019
3922 Clouds 29 1006 79 0 1.79 120 22:40 09.08.2019
3923 Clouds 29 1006 79 0 1.79 120 22:40 09.08.2019
3924 Clouds 29 1008 79 0 1.79 120 22:21 09.08.2019
3925 Clouds 29 1006 79 0 1.79 120 21:56 09.08.2019
3926 Clouds 29 1006 79 0 1.79 120 21:38 09.08.2019
3927 Clouds 29 1006 79 0 1.79 120 21:20 09.08.2019
3928 Clouds 29 1006 79 0 1.79 120 20:56 09.08.2019
3929 Clouds 29 1006 79 0 1.79 120 20:37 09.08.2019
3930 Clouds 29 1006 79 0 1.79 120 20:18 09.08.2019
3931 Clouds 29 1006 79 0 1.79 120 20:18 09.08.2019
3932 Clouds 29 1006 79 0 1.79 120 19:41 09.08.2019
3933 Clouds 29 1006 79 0 1.79 120 19:20 09.08.2019
3934 Clouds 29 1006 79 0 1.79 120 18:42 09.08.2019
3935 Clouds 29 1006 79 0 1.79 120 18:22 09.08.2019
3936 Clouds 29 1006 79 0 1.79 120 17:58 09.08.2019
3937 Clouds 29 1006 79 0 1.79 120 17:40 09.08.2019
3938 Clear 28 1007 65 10000 1.5 110 17:22 09.08.2019
3939 Clear 28 1007 65 10000 1.5 110 16:42 09.08.2019
3940 Clear 28 1007 65 10000 1.5 110 16:23 09.08.2019
3941 Clear 29 1006 74 10000 2.1 80 15:58 09.08.2019
3942 Clear 29 1006 74 10000 2.1 80 15:39 09.08.2019
3943 Clear 29 1006 74 10000 2.1 80 15:20 09.08.2019
3944 Clouds 29 1006 79 10000 2.1 120 14:55 09.08.2019
3945 Clouds 29 1006 79 10000 2.1 120 14:37 09.08.2019
3946 Clouds 29 1006 79 10000 2.1 120 14:19 09.08.2019
3947 Clouds 30 1005 79 10000 1.5 170 13:43 09.08.2019
3948 Clouds 30 1005 79 10000 1.5 170 13:20 09.08.2019
3949 Clouds 30 1005 74 10000 2.6 170 12:47 09.08.2019
3950 Clouds 30 1005 74 10000 2.6 170 12:24 09.08.2019
3951 Clouds 31 1005 74 10000 2.1 160 11:59 09.08.2019
3952 Clouds 31 1005 74 10000 2.1 160 11:59 09.08.2019
3953 Clouds 31 1005 74 10000 2.1 160 11:37 09.08.2019
3954 Clouds 31 1005 74 10000 2.1 160 11:37 09.08.2019
3955 Clouds 31 1005 74 10000 2.1 160 11:18 09.08.2019
3956 Clouds 32 1005 66 10000 1.5 200 10:40 09.08.2019
3957 Clouds 32 1005 66 10000 1.5 200 10:21 09.08.2019
3958 Clouds 32 1005 66 10000 3.1 350 09:46 09.08.2019
3959 Clouds 32 1005 66 10000 3.1 350 09:20 09.08.2019
3960 Clouds 32 1005 66 10000 3.6 320 08:58 09.08.2019
3961 Clouds 32 1005 66 10000 3.6 320 08:39 09.08.2019
3962 Clouds 32 1005 66 10000 3.6 320 08:19 09.08.2019
3963 Clouds 32 1005 62 10000 3.1 0 07:43 09.08.2019
3964 Clouds 32 1005 62 10000 3.1 0 07:23 09.08.2019
3965 Clouds 32 1006 59 10000 3.1 150 06:56 09.08.2019
3966 Clouds 32 1006 59 10000 3.1 150 06:29 09.08.2019
3967 Clouds 32 1006 55 10000 2.1 180 05:57 09.08.2019
3968 Clouds 31 1006 66 10000 0.5 0 04:21 09.08.2019
3969 Clouds 28 1007 78 10000 1 0 01:58 09.08.2019
3970 Clouds 27 1007 78 10000 0.5 0 00:48 09.08.2019
3971 Clouds 27 1007 78 10000 0.5 0 00:26 09.08.2019
3972 Clouds 26 1007 78 10000 1.5 90 23:59 08.08.2019
3973 Clouds 28 1007 78 10000 1.5 90 23:38 08.08.2019
3974 Clouds 28 1007 78 10000 1.5 90 23:19 08.08.2019
3975 Clouds 28 1007 85 0 0.79 98.47 22:57 08.08.2019
3976 Clouds 28 1007 85 0 0.79 98.47 22:37 08.08.2019
3977 Clouds 28 1007 85 0 0.79 98.47 22:18 08.08.2019
3978 Clouds 28 1007 85 0 0.79 98.47 21:57 08.08.2019
3979 Clouds 28 1007 85 0 0.79 98.47 21:38 08.08.2019
3980 Clouds 31 1008 66 0 2.24 160 21:20 08.08.2019
3981 Clouds 31 1008 66 0 2.24 160 20:42 08.08.2019
3982 Clouds 31 1008 66 0 2.24 160 20:22 08.08.2019
3983 Clouds 31 1008 66 0 2.24 160 19:59 08.08.2019
3984 Clouds 31 1008 66 0 2.24 160 19:40 08.08.2019
3985 Clouds 31 1008 66 0 2.24 160 19:20 08.08.2019
3986 Clouds 31 1008 66 0 2.24 160 18:41 08.08.2019
3987 Clouds 31 1010 66 0 2.24 160 18:22 08.08.2019
3988 Clouds 31 1008 66 0 2.24 160 17:55 08.08.2019
3989 Clouds 31 1010 66 0 2.24 160 17:36 08.08.2019
3990 Clouds 31 1010 66 0 2.24 160 17:18 08.08.2019
3991 Clouds 31 1008 66 0 2.24 160 16:42 08.08.2019
3992 Clouds 31 1008 66 0 2.24 160 16:24 08.08.2019
3993 Clouds 31 1010 66 0 2.24 160 15:58 08.08.2019
3994 Clouds 31 1010 66 0 2.24 160 15:39 08.08.2019
3995 Clouds 30 1008 66 10000 2.6 160 15:20 08.08.2019
3996 Clouds 30 1008 66 10000 2.6 160 14:41 08.08.2019
3997 Clouds 30 1008 66 10000 2.6 160 14:22 08.08.2019
3998 Clouds 30 1008 59 10000 3.6 180 13:57 08.08.2019
3999 Clouds 30 1008 59 10000 3.6 180 13:37 08.08.2019
4000 Clouds 30 1008 59 10000 3.6 180 13:18 08.08.2019
4001 Clouds 31 1007 75 10000 3.1 0 12:39 08.08.2019
4002 Clouds 31 1007 75 10000 3.1 0 12:19 08.08.2019
4003 Clouds 31 1007 75 10000 3.1 0 12:19 08.08.2019
4004 Clouds 31 1007 75 10000 3.1 0 12:19 08.08.2019
4005 Thunderstorm 34 1006 59 10000 1.5 290 11:47 08.08.2019
4006 Thunderstorm 34 1006 59 10000 1.5 290 11:26 08.08.2019
4007 -273 0 0 0 0 0 10:57 08.08.2019
4008 Thunderstorm 34 1006 56 10000 2.1 230 10:57 08.08.2019
4009 Thunderstorm 34 1006 56 10000 2.1 230 10:57 08.08.2019
4010 Clouds 34 1006 56 10000 2.1 230 10:39 08.08.2019
4011 Clouds 34 1006 56 10000 2.1 230 10:20 08.08.2019
4012 Clouds 34 1005 56 10000 2.1 290 09:43 08.08.2019
4013 Clouds 34 1005 56 10000 2.1 290 09:23 08.08.2019
4014 Clouds 34 1006 56 10000 3.1 340 08:54 08.08.2019
4015 Clouds 34 1006 56 10000 3.1 340 08:36 08.08.2019
4016 Clouds 34 1006 56 10000 3.1 340 08:18 08.08.2019
4017 Clouds 35 1006 53 10000 2.6 0 07:39 08.08.2019
4018 Clouds 35 1006 53 10000 2.6 0 07:19 08.08.2019
4019 Clouds 34 1007 50 10000 1 0 06:46 08.08.2019
4020 Clouds 34 1007 52 10000 1 0 06:18 08.08.2019
4021 Clouds 33 1007 63 10000 1.5 180 05:42 08.08.2019
4022 Clouds 33 1007 63 10000 2.6 0 04:39 08.08.2019
4023 Clouds 31 1008 70 10000 1.5 340 03:48 08.08.2019
4024 Clouds 29 1008 79 10000 2.1 150 01:59 08.08.2019
4025 Clouds 29 1008 79 10000 2.1 150 01:20 08.08.2019
4026 Clouds 27 1007 94 10000 2.1 150 00:25 08.08.2019
4027 Clouds 27 1007 88 10000 1.5 90 23:40 07.08.2019
4028 Clouds 27 1007 88 10000 1.5 90 23:18 07.08.2019
4029 Clear 29 1007 89 0 1.79 350 22:41 07.08.2019
4030 Clouds 28 1007 74 10000 2.1 30 22:21 07.08.2019
4031 Clouds 28 1007 74 10000 2.1 30 21:58 07.08.2019
4032 Clouds 28 1007 74 10000 2.1 30 21:40 07.08.2019
4033 Clouds 28 1007 74 10000 2.1 30 21:40 07.08.2019
4034 Clouds 28 1007 74 10000 2.1 30 21:21 07.08.2019
4035 Clouds 28 1007 83 10000 2.6 10 20:59 07.08.2019
4036 Clouds 28 1007 83 10000 2.6 10 20:41 07.08.2019
4037 Clouds 28 1007 83 10000 2.6 10 20:22 07.08.2019
4038 Clouds 28 1007 83 10000 2.1 360 19:56 07.08.2019
4039 Clouds 28 1007 83 10000 2.1 360 19:37 07.08.2019
4040 Clouds 28 1007 83 10000 2.1 360 19:37 07.08.2019
4041 Clouds 28 1007 83 10000 2.1 360 19:18 07.08.2019
4042 Clouds 28 1007 78 10000 2.1 30 18:40 07.08.2019
4043 Clouds 28 1007 78 10000 2.1 30 18:20 07.08.2019
4044 Clouds 29 1007 89 0 1.79 350 17:56 07.08.2019
4045 Clouds 29 1007 89 0 1.79 350 17:38 07.08.2019
4046 Clouds 29 1008 89 0 1.79 350 17:19 07.08.2019
4047 Clouds 29 1008 89 0 1.79 350 16:56 07.08.2019
4048 Clouds 29 1008 89 0 1.79 350 16:38 07.08.2019
4049 Clouds 29 1008 89 0 1.79 350 16:19 07.08.2019
4050 Clouds 29 1007 89 0 1.79 350 15:43 07.08.2019
4051 Clouds 29 1007 89 0 1.79 350 15:43 07.08.2019
4052 Clouds 29 1007 89 10000 2.1 350 15:21 07.08.2019
4053 Clouds 29 1007 89 10000 2.1 350 14:50 07.08.2019
4054 Clouds 29 1007 89 10000 2.1 350 14:31 07.08.2019
4055 Clouds 29 1006 89 10000 4.1 330 13:59 07.08.2019
4056 Clouds 29 1006 89 10000 4.1 330 13:40 07.08.2019
4057 Clouds 29 1006 89 10000 4.1 330 13:19 07.08.2019
4058 Clouds 30 1005 70 10000 2.1 210 12:57 07.08.2019
4059 Clouds 30 1005 70 10000 2.1 210 12:38 07.08.2019
4060 Clouds 30 1005 70 10000 2.1 210 12:38 07.08.2019
4061 Clouds 31 1005 70 10000 2.1 210 12:19 07.08.2019
4062 Thunderstorm 30 1006 79 10000 5.1 350 11:57 07.08.2019
4063 Rain 31 1006 75 10000 6.2 320 11:39 07.08.2019
4064 Rain 31 1006 75 10000 6.2 320 11:18 07.08.2019
4065 Clouds 31 1005 75 10000 3.6 350 10:40 07.08.2019
4066 Clouds 31 1005 75 10000 3.6 350 10:20 07.08.2019
4067 Clouds 32 1005 53 10000 1.5 170 09:55 07.08.2019
4068 Clouds 32 1005 53 10000 1.5 170 09:37 07.08.2019
4069 Clouds 33 1005 53 10000 1.5 170 09:18 07.08.2019
4070 Clouds 34 1005 56 10000 3.1 140 08:45 07.08.2019
4071 Clouds 34 1005 56 10000 3.1 140 08:24 07.08.2019
4072 Clouds 34 1006 59 10000 4.1 150 07:50 07.08.2019
4073 Clouds 34 1006 59 10000 4.1 150 07:29 07.08.2019
4074 Clouds 34 1006 59 10000 5.1 150 06:44 07.08.2019
4075 -273 0 0 0 0 0 06:21 07.08.2019
4076 Clouds 32 1007 63 10000 3.1 150 05:41 07.08.2019
4077 Clouds 32 1007 63 10000 5.7 150 04:29 07.08.2019
4078 Clouds 30 1007 79 10000 3.6 150 02:54 07.08.2019
4079 Clouds 30 1007 79 10000 3.6 150 02:36 07.08.2019
4080 Clouds 28 1007 88 10000 4.1 140 01:49 07.08.2019
4081 Clouds 26 1007 94 10000 3.6 150 00:53 07.08.2019
4082 Clouds 26 1007 94 10000 3.6 150 00:23 07.08.2019
4083 Clouds 25 1007 94 10000 3.6 150 23:48 06.08.2019
4084 Clouds 26 1007 94 10000 3.6 150 23:23 06.08.2019
4085 Rain 26 1006 88 0 4.02 110 22:59 06.08.2019
4086 Rain 26 1006 88 0 4.02 110 22:40 06.08.2019
4087 Rain 26 1006 88 0 4.02 110 22:40 06.08.2019
4088 Clouds 25 1007 88 10000 2.1 20 22:21 06.08.2019
4089 Clouds 25 1007 88 10000 2.1 20 21:56 06.08.2019
4090 Clouds 25 1007 88 10000 2.1 20 21:38 06.08.2019
4091 Clouds 25 1007 88 10000 2.1 20 21:18 06.08.2019
4092 Clouds 25 1007 88 10000 1 40 20:42 06.08.2019
4093 Clouds 25 1007 88 10000 1 40 20:23 06.08.2019
4094 Clouds 25 1007 83 10000 2.6 90 19:48 06.08.2019
4095 Clouds 25 1007 83 10000 2.6 90 19:29 06.08.2019
4096 Clouds 25 1006 78 10000 2.6 110 18:57 06.08.2019
4097 Clouds 25 1006 78 10000 2.6 110 18:38 06.08.2019
4098 Clouds 25 1006 78 10000 2.6 110 18:19 06.08.2019
4099 Clouds 25 1006 78 10000 2.6 110 18:19 06.08.2019
4100 Rain 26 1006 88 0 4.02 110 17:56 06.08.2019
4101 Rain 26 1006 88 0 4.02 110 17:37 06.08.2019
4102 Rain 26 1006 88 0 4.02 110 17:18 06.08.2019
4103 Rain 26 1006 88 0 4.02 110 16:43 06.08.2019
4104 Rain 26 1006 88 0 4.02 110 16:24 06.08.2019
4105 Rain 26 1006 88 0 4.02 110 15:58 06.08.2019
4106 Rain 26 1006 88 0 4.02 110 15:39 06.08.2019
4107 Clouds 26 1006 88 10000 4.1 110 15:21 06.08.2019
4108 Clouds 26 1006 88 10000 4.1 110 14:46 06.08.2019
4109 Clouds 26 1006 88 10000 4.1 110 14:27 06.08.2019
4110 Clouds 27 1005 83 10000 4.6 110 13:59 06.08.2019
4111 Clouds 27 1005 83 10000 4.6 110 13:41 06.08.2019
4112 Clouds 27 1005 83 10000 4.6 110 13:23 06.08.2019
4113 Clouds 27 1004 83 10000 3.6 160 12:59 06.08.2019
4114 Clouds 27 1004 83 10000 3.6 160 12:39 06.08.2019
4115 Clouds 27 1004 83 10000 3.6 160 12:21 06.08.2019
4116 Clouds 27 1004 83 10000 4.1 190 11:43 06.08.2019
4117 Clouds 27 1004 83 10000 4.1 190 11:19 06.08.2019
4118 Clouds 27 1003 88 10000 5.1 180 10:56 06.08.2019
4119 Clouds 27 1003 88 10000 5.1 180 10:37 06.08.2019
4120 Clouds 27 1003 88 10000 5.1 180 10:19 06.08.2019
4121 Rain 26 1002 94 9000 5.1 210 09:40 06.08.2019
4122 Rain 26 1002 94 9000 5.1 210 09:20 06.08.2019
4123 Rain 27 1002 78 10000 12.3 190 08:48 06.08.2019
4124 Rain 27 1001 83 10000 5.7 220 08:26 06.08.2019
4125 Rain 26 1000 88 10000 6.7 200 07:47 06.08.2019
4126 Rain 26 1000 88 10000 6.7 200 07:23 06.08.2019
4127 Rain 26 999 88 10000 7.2 200 06:43 06.08.2019
4128 Rain 25 999 94 6000 8.7 220 05:55 06.08.2019
4129 Rain 25 998 94 10000 8.7 320 04:35 06.08.2019
4130 Rain 24 997 83 6000 11.8 10 01:59 06.08.2019
4131 Rain 24 998 94 7000 9.3 330 01:24 06.08.2019
4132 Rain 24 1000 94 9000 9.8 330 00:39 06.08.2019
4133 Rain 26 1001 74 10000 8.7 330 23:51 05.08.2019
4134 Rain 26 1001 74 10000 8.7 330 23:19 05.08.2019
4135 Clouds 29 1004 79 0 7.15 350 22:42 05.08.2019
4136 Rain 27 1002 61 10000 9.8 40 22:23 05.08.2019
4137 Rain 27 1002 61 10000 9.8 40 21:56 05.08.2019
4138 Rain 27 1002 61 10000 9.8 40 21:37 05.08.2019
4139 Rain 27 1002 61 10000 9.8 40 21:19 05.08.2019
4140 Clouds 28 1003 58 10000 8.7 40 20:55 05.08.2019
4141 Clouds 28 1003 58 10000 8.7 40 20:37 05.08.2019
4142 Clouds 28 1003 58 10000 8.7 40 20:18 05.08.2019
4143 Rain 29 1003 62 10000 6.2 60 19:43 05.08.2019
4144 Rain 29 1003 62 10000 6.2 60 19:24 05.08.2019
4145 Clear 30 1004 58 10000 6.2 40 18:57 05.08.2019
4146 Clear 29 1004 58 10000 6.2 40 18:39 05.08.2019
4147 Clear 29 1004 58 10000 6.2 40 18:18 05.08.2019
4148 Clouds 29 1006 79 0 7.15 350 17:42 05.08.2019
4149 Clouds 29 1006 79 0 7.15 350 17:24 05.08.2019
4150 Clouds 29 1004 79 0 7.15 350 16:46 05.08.2019
4151 Clouds 29 1004 79 0 7.15 350 16:25 05.08.2019
4152 Clouds 29 1006 79 0 7.15 350 15:46 05.08.2019
4153 Clouds 29 1004 79 10000 7.2 350 15:28 05.08.2019
4154 Clouds 29 1004 79 10000 7.2 350 14:59 05.08.2019
4155 Clouds 29 1004 79 10000 7.2 350 14:38 05.08.2019
4156 Clouds 29 1004 79 10000 7.2 350 14:19 05.08.2019
4157 Clouds 30 1004 74 10000 8.7 10 13:43 05.08.2019
4158 Clouds 30 1004 74 10000 8.7 10 13:22 05.08.2019
4159 Clouds 32 1004 66 10000 7.2 10 12:46 05.08.2019
4160 Clouds 32 1004 66 10000 7.2 10 12:20 05.08.2019
4161 Clouds 32 1004 70 10000 5.7 360 11:47 05.08.2019
4162 Clouds 32 1004 70 10000 5.7 360 11:27 05.08.2019
4163 Clouds 33 1004 70 10000 6.2 350 10:58 05.08.2019
4164 Clouds 33 1004 70 10000 6.2 350 10:40 05.08.2019
4165 Clouds 33 1004 70 10000 6.2 350 10:21 05.08.2019
4166 Clouds 33 1005 70 10000 5.7 330 09:41 05.08.2019
4167 Clouds 33 1005 70 10000 5.7 330 09:21 05.08.2019
4168 Clouds 34 1005 59 10000 3.1 310 08:49 05.08.2019
4169 Clouds 34 1005 59 10000 3.1 310 08:25 05.08.2019
4170 Clouds 34 1005 52 10000 2.6 210 07:54 05.08.2019
4171 Clouds 34 1005 52 10000 2.6 210 07:31 05.08.2019
4172 Clouds 33 1006 59 10000 2.1 230 06:59 05.08.2019
4173 Clouds 33 1006 59 10000 2.1 230 06:29 05.08.2019
4174 Clouds 34 1007 56 10000 2.6 210 05:41 05.08.2019
4175 Clouds 34 1007 59 10000 3.1 210 04:56 05.08.2019
4176 Clouds 32 1008 62 10000 2.6 190 03:56 05.08.2019
4177 Clouds 32 1008 62 10000 2.6 190 03:20 05.08.2019
4178 Clouds 30 1008 74 10000 1.5 20 02:26 05.08.2019
4179 Clear 29 1009 74 10000 0.5 0 01:32 05.08.2019
4180 Clouds 28 1009 83 10000 0.5 0 00:41 05.08.2019
4181 Clouds 28 1009 83 10000 0.5 0 00:21 05.08.2019
4182 Clouds 27 1009 83 10000 0.5 0 00:21 05.08.2019
4183 Clouds 25 1009 88 10000 1.5 70 23:44 04.08.2019
4184 Clouds 26 1009 88 10000 1.5 70 23:24 04.08.2019
4185 Clouds 29 1009 79 0 5.36 320 22:57 04.08.2019
4186 Clouds 29 1009 79 0 5.36 320 22:38 04.08.2019
4187 Clouds 27 1008 78 10000 2.1 30 22:20 04.08.2019
4188 Clouds 27 1008 78 10000 2.1 30 21:58 04.08.2019
4189 Clouds 27 1008 78 10000 2.1 30 21:40 04.08.2019
4190 Clouds 28 1008 78 10000 2.1 30 21:19 04.08.2019
4191 Clouds 27 1008 69 10000 2.6 50 20:42 04.08.2019
4192 Clouds 27 1008 69 10000 2.6 50 20:19 04.08.2019
4193 Clouds 28 1008 69 10000 2.1 60 19:54 04.08.2019
4194 Clouds 28 1008 69 10000 2.1 60 19:36 04.08.2019
4195 Clouds 28 1008 69 10000 2.1 60 19:18 04.08.2019
4196 Clouds 28 1008 78 10000 1.5 10 18:41 04.08.2019
4197 Clouds 28 1008 78 10000 1.5 10 18:20 04.08.2019
4198 Clear 29 1009 79 0 5.36 320 17:44 04.08.2019
4199 Clear 29 1010 79 0 5.36 320 17:24 04.08.2019
4200 Clear 29 1009 79 0 5.36 320 16:46 04.08.2019
4201 Clear 29 1009 79 0 5.36 320 16:28 04.08.2019
4202 Clear 29 1009 79 0 5.36 320 15:56 04.08.2019
4203 Clear 29 1010 79 0 5.36 320 15:37 04.08.2019
4204 Clouds 29 1009 79 10000 5.7 320 15:19 04.08.2019
4205 Clouds 29 1009 79 10000 5.7 320 14:42 04.08.2019
4206 Clouds 29 1009 79 10000 5.7 320 14:22 04.08.2019
4207 Clouds 30 1008 74 10000 5.1 320 13:46 04.08.2019
4208 Clouds 30 1008 74 10000 5.1 320 13:27 04.08.2019
4209 Clouds 30 1008 79 10000 6.2 310 12:57 04.08.2019
4210 Clouds 30 1008 79 10000 6.2 310 12:39 04.08.2019
4211 Clouds 30 1008 79 10000 6.2 310 12:21 04.08.2019
4212 Clouds 32 1007 70 10000 6.7 330 11:41 04.08.2019
4213 Clouds 32 1007 70 10000 6.7 330 11:22 04.08.2019
4214 Clouds 33 1008 66 10000 6.7 340 10:47 04.08.2019
4215 Clouds 33 1008 66 10000 6.7 340 10:22 04.08.2019
4216 Clouds 34 1008 56 10000 4.6 340 09:46 04.08.2019
4217 Clouds 34 1008 56 10000 4.6 340 09:25 04.08.2019
4218 Clouds 34 1008 49 10000 3.1 240 08:57 04.08.2019
4219 Clouds 34 1008 49 10000 3.1 240 08:33 04.08.2019
4220 Clouds 34 1008 50 10000 2.6 290 07:54 04.08.2019
4221 Clouds 34 1008 50 10000 2.6 290 07:23 04.08.2019
4222 Clouds 33 1008 59 10000 4.1 360 06:28 04.08.2019
4223 Clouds 33 1009 56 10000 1.5 0 05:57 04.08.2019
4224 Clouds 30 1010 66 10000 1.5 160 03:36 04.08.2019
4225 Clouds 29 1010 79 10000 1.5 140 01:52 04.08.2019
4226 Clouds 29 1010 79 10000 1.5 140 01:32 04.08.2019
4227 Clear 27 1010 83 10000 1.5 70 00:41 04.08.2019
4228 Clear 27 1010 83 10000 1.5 70 00:23 04.08.2019
4229 Clear 25 1010 88 10000 1 0 23:42 03.08.2019
4230 Clear 26 1010 88 10000 1 0 23:19 03.08.2019
4231 Clouds 28 1010 69 0 2.24 330 22:57 03.08.2019
4232 Clouds 28 1010 69 0 2.24 330 22:38 03.08.2019
4233 Clear 26 1009 83 10000 2.1 60 22:19 03.08.2019
4234 Clear 26 1009 83 10000 2.1 60 21:39 03.08.2019
4235 Clear 26 1009 83 10000 2.1 60 21:20 03.08.2019
4236 Clouds 27 1009 88 9000 1 30 20:43 03.08.2019
4237 Clouds 27 1009 88 9000 1 30 20:24 03.08.2019
4238 Clear 27 1009 83 10000 1 280 19:43 03.08.2019
4239 Clear 27 1009 83 10000 1 280 19:25 03.08.2019
4240 Clear 27 1010 69 10000 2.6 290 18:56 03.08.2019
4241 Clear 27 1010 69 10000 2.6 290 18:28 03.08.2019
4242 Clouds 28 1010 69 0 2.24 330 17:51 03.08.2019
4243 Clouds 28 1010 69 0 2.24 330 17:22 03.08.2019
4244 Clouds 28 1010 69 0 2.24 330 16:58 03.08.2019
4245 Clouds 28 1010 69 0 2.24 330 16:38 03.08.2019
4246 Clouds 28 1010 69 0 2.24 330 16:19 03.08.2019
4247 Clouds 28 1010 69 0 2.24 330 15:45 03.08.2019
4248 Clear 28 1010 69 10000 2.6 330 15:23 03.08.2019
4249 Clear 28 1010 69 10000 2.6 330 14:43 03.08.2019
4250 Clear 28 1010 69 10000 2.6 330 14:22 03.08.2019
4251 Clear 29 1009 66 10000 3.6 330 13:52 03.08.2019
4252 Clear 29 1009 66 10000 3.6 330 13:25 03.08.2019
4253 Clouds 30 1009 62 10000 4.6 310 12:58 03.08.2019
4254 Clouds 30 1009 62 10000 4.6 310 12:40 03.08.2019
4255 Clouds 30 1009 62 10000 4.6 310 12:21 03.08.2019
4256 Clouds 31 1009 62 10000 5.7 330 11:49 03.08.2019
4257 Clouds 31 1009 62 10000 5.7 330 11:28 03.08.2019
4258 Clouds 33 1009 62 10000 4.1 310 10:42 03.08.2019
4259 Clouds 33 1009 62 10000 4.1 310 10:24 03.08.2019
4260 Clouds 33 1009 66 10000 4.1 300 09:44 03.08.2019
4261 Clouds 33 1009 66 10000 4.1 300 09:23 03.08.2019
4262 Clouds 35 1009 56 10000 3.6 260 08:54 03.08.2019
4263 Clouds 34 1009 52 10000 4.1 280 07:56 03.08.2019
4264 Clouds 34 1009 52 10000 4.1 280 07:36 03.08.2019
4265 Clouds 34 1009 52 10000 2.1 220 06:39 03.08.2019
4266 Clouds 33 1010 52 10000 3.6 260 04:52 03.08.2019
4267 Clouds 30 1009 74 10000 2.1 260 02:39 03.08.2019
4268 Clouds 29 1009 79 10000 0.5 0 01:49 03.08.2019
4269 Clouds 28 1009 83 10000 2.1 150 00:49 03.08.2019
4270 Clouds 27 1010 88 10000 2.1 140 23:59 02.08.2019
4271 Clouds 27 1010 88 10000 2.1 140 23:40 02.08.2019
4272 Clouds 28 1010 88 10000 2.1 140 23:19 02.08.2019
4273 Clouds 30 1009 79 0 2.24 280 22:56 02.08.2019
4274 Clouds 30 1009 79 0 2.24 280 22:38 02.08.2019
4275 Clouds 30 1009 79 0 2.24 280 22:38 02.08.2019
4276 Clouds 28 1010 83 10000 1 40 22:18 02.08.2019
4277 Clouds 28 1010 83 10000 1 40 21:43 02.08.2019
4278 Clouds 29 1010 83 10000 1 40 21:23 02.08.2019
4279 Clouds 28 1010 74 10000 0.5 0 20:55 02.08.2019
4280 Clouds 28 1010 74 10000 0.5 0 20:37 02.08.2019
4281 Clouds 29 1010 74 10000 0.5 0 20:19 02.08.2019
4282 Clouds 28 1010 69 10000 3.1 110 19:42 02.08.2019
4283 Clouds 29 1010 69 10000 3.1 110 19:24 02.08.2019
4284 Clouds 29 1010 78 10000 0.5 0 18:44 02.08.2019
4285 Clouds 29 1010 78 10000 0.5 0 18:24 02.08.2019
4286 Clear 30 1009 79 0 2.24 280 17:42 02.08.2019
4287 Clear 30 1009 79 0 2.24 280 17:24 02.08.2019
4288 Clear 30 1009 79 0 2.24 280 16:56 02.08.2019
4289 Clear 30 1009 79 0 2.24 280 16:37 02.08.2019
4290 Clear 30 1009 79 0 2.24 280 16:18 02.08.2019
4291 Clear 30 1009 79 0 2.24 280 15:38 02.08.2019
4292 Clear 30 1009 79 10000 2.6 280 15:19 02.08.2019
4293 Clear 30 1009 79 10000 2.6 280 14:45 02.08.2019
4294 Clear 30 1009 79 10000 2.6 280 14:45 02.08.2019
4295 Clear 30 1009 79 10000 2.6 280 14:18 02.08.2019
4296 Clear 31 1009 74 10000 2.6 280 13:47 02.08.2019
4297 Clear 31 1009 74 10000 2.6 280 13:23 02.08.2019
4298 Clouds 31 1008 74 10000 4.1 270 12:44 02.08.2019
4299 Clouds 31 1008 74 10000 4.1 270 12:21 02.08.2019
4300 Clouds 33 1008 70 10000 4.6 250 11:46 02.08.2019
4301 Clouds 33 1008 70 10000 4.6 250 11:26 02.08.2019
4302 Clouds 34 1008 70 10000 5.1 250 10:55 02.08.2019
4303 Clouds 34 1008 70 10000 5.1 250 10:37 02.08.2019
4304 Clouds 34 1008 70 10000 5.1 250 10:18 02.08.2019
4305 Clouds 34 1008 67 10000 5.1 260 09:44 02.08.2019
4306 Clouds 34 1008 67 10000 5.1 260 09:24 02.08.2019
4307 Clouds 35 1008 53 10000 2.1 210 08:44 02.08.2019
4308 Clouds 35 1008 53 10000 2.1 210 08:21 02.08.2019
4309 Clouds 35 1008 56 10000 3.1 260 07:48 02.08.2019
4310 Clouds 35 1008 56 10000 3.1 260 07:28 02.08.2019
4311 Clouds 35 1009 60 10000 3.1 240 06:44 02.08.2019
4312 Clouds 35 1010 59 10000 2.6 230 05:50 02.08.2019
4313 Clouds 32 1011 70 10000 2.1 260 03:55 02.08.2019
4314 Clouds 32 1011 70 10000 2.1 260 03:25 02.08.2019
4315 Clouds 29 1011 83 10000 1.5 0 01:44 02.08.2019
4316 Clouds 27 1012 88 10000 1.5 100 00:35 02.08.2019
4317 Clouds 27 1012 94 10000 2.1 150 23:46 01.08.2019
4318 Clouds 27 1012 94 10000 2.1 150 23:27 01.08.2019
4319 Clear 29 1011 83 0 3.58 300 22:46 01.08.2019
4320 Clouds 27 1011 83 10000 1.5 340 22:26 01.08.2019
4321 Clouds 27 1011 83 10000 1.5 340 22:00 01.08.2019
4322 Clouds 27 1011 83 10000 1.5 340 21:41 01.08.2019
4323 Clouds 27 1011 83 10000 1.5 340 21:23 01.08.2019
4324 Clouds 28 1011 83 10000 0.5 0 20:47 01.08.2019
4325 Clouds 28 1011 83 10000 0.5 0 20:23 01.08.2019
4326 Clouds 28 1011 78 10000 2.1 10 19:59 01.08.2019
4327 Clouds 28 1011 78 10000 2.1 10 19:38 01.08.2019
4328 Clouds 28 1011 78 10000 2.1 10 19:18 01.08.2019
4329 Clouds 28 1011 69 10000 2.1 320 18:43 01.08.2019
4330 Clouds 28 1011 69 10000 2.1 320 18:24 01.08.2019
4331 Rain 29 1011 83 0 3.58 300 17:50 01.08.2019
4332 Rain 29 1011 83 0 3.58 300 17:31 01.08.2019
4333 Rain 29 1011 83 0 3.58 300 16:45 01.08.2019
4334 Rain 29 1013 83 0 3.58 300 16:23 01.08.2019
4335 Rain 29 1011 83 0 3.58 300 15:56 01.08.2019
4336 Rain 29 1011 83 0 3.58 300 15:38 01.08.2019
4337 Clouds 29 1011 83 10000 3.6 300 15:18 01.08.2019
4338 Clouds 29 1011 83 10000 3.6 300 14:42 01.08.2019
4339 Clouds 29 1011 83 10000 3.6 300 14:19 01.08.2019
4340 Clear 29 1010 83 10000 4.1 320 13:57 01.08.2019
4341 Clear 29 1010 83 10000 4.1 320 13:39 01.08.2019
4342 Clear 29 1010 83 10000 4.1 320 13:20 01.08.2019
4343 Clouds 30 1010 84 10000 5.1 330 12:43 01.08.2019
4344 Clouds 30 1010 84 10000 5.1 330 12:25 01.08.2019
4345 Thunderstorm 32 1010 74 10000 6.2 330 11:43 01.08.2019
4346 Thunderstorm 32 1010 74 10000 6.2 330 11:24 01.08.2019
4347 Thunderstorm 33 1010 70 10000 6.2 330 10:54 01.08.2019
4348 Clouds 33 1010 70 10000 6.2 330 10:36 01.08.2019
4349 Clouds 33 1010 70 10000 6.2 330 10:18 01.08.2019
4350 Clouds 34 1010 63 10000 4.6 330 09:41 01.08.2019
4351 Clouds 34 1010 63 10000 4.6 330 09:23 01.08.2019
4352 Clouds 34 1010 63 10000 4.6 330 09:23 01.08.2019
4353 Clouds 34 1010 56 10000 2.6 310 08:45 01.08.2019
4354 Clouds 34 1010 56 10000 2.6 310 08:20 01.08.2019
4355 Clouds 33 1011 66 10000 3.6 360 07:50 01.08.2019
4356 Clouds 33 1011 66 10000 3.6 360 07:25 01.08.2019
4357 Clouds 34 1012 49 10000 3.1 230 06:49 01.08.2019
4358 Clouds 34 1013 50 10000 3.1 260 05:51 01.08.2019
4359 Clouds 32 1013 59 10000 1.5 200 04:24 01.08.2019
4360 Clouds 31 1013 74 10000 0.5 0 02:35 01.08.2019
4361 Clouds 28 1013 88 10000 2.1 130 00:46 01.08.2019
4362 Clouds 28 1013 88 10000 2.1 130 00:24 01.08.2019
4363 Clouds 27 1013 94 10000 2.1 140 23:43 31.07.2019
4364 Clouds 28 1013 94 10000 2.1 140 23:21 31.07.2019
4365 Rain 29 1012 79 0 1.79 300 22:58 31.07.2019
4366 Rain 29 1012 79 0 1.79 300 22:39 31.07.2019
4367 Clouds 28 1012 78 10000 1.5 330 22:21 31.07.2019
4368 Clouds 28 1012 78 10000 1.5 330 21:38 31.07.2019
4369 Clouds 28 1012 78 10000 1.5 330 21:18 31.07.2019
4370 Clouds 28 1012 69 10000 2.1 300 20:43 31.07.2019
4371 Clouds 28 1012 69 10000 2.1 300 20:22 31.07.2019
4372 Clouds 28 1012 74 10000 1 0 19:42 31.07.2019
4373 Clouds 28 1012 74 10000 1 0 19:23 31.07.2019
4374 Clouds 29 1012 66 10000 3.6 190 18:53 31.07.2019
4375 Clouds 29 1012 66 10000 3.6 190 18:28 31.07.2019
4376 Rain 29 1012 79 0 1.79 300 17:59 31.07.2019
4377 Rain 29 1012 79 0 1.79 300 17:40 31.07.2019
4378 Rain 29 1012 79 0 1.79 300 17:40 31.07.2019
4379 Rain 29 1012 79 0 1.79 300 17:19 31.07.2019
4380 Rain 29 1012 79 0 1.79 300 16:43 31.07.2019
4381 Rain 29 1012 79 0 1.79 300 16:20 31.07.2019
4382 Rain 29 1012 79 0 1.79 300 15:45 31.07.2019
4383 Clouds 29 1012 79 10000 2.1 300 15:25 31.07.2019
4384 Clouds 29 1012 79 10000 2.1 300 14:43 31.07.2019
4385 Clouds 29 1012 79 10000 2.1 300 14:22 31.07.2019
4386 Clouds 29 1011 79 10000 3.1 340 13:58 31.07.2019
4387 Clouds 29 1011 79 10000 3.1 340 13:38 31.07.2019
4388 Clouds 29 1011 79 10000 3.1 340 13:20 31.07.2019
4389 Clouds 30 1011 70 10000 3.1 350 12:45 31.07.2019
4390 Clouds 30 1011 70 10000 3.1 350 12:45 31.07.2019
4391 Clouds 30 1011 70 10000 3.1 350 12:27 31.07.2019
4392 Clouds 32 1010 66 10000 3.1 270 11:58 31.07.2019
4393 Clouds 32 1010 66 10000 3.1 270 11:38 31.07.2019
4394 Clouds 32 1010 66 10000 3.1 270 11:19 31.07.2019
4395 Clouds 32 1010 62 10000 4.6 260 10:41 31.07.2019
4396 Clouds 32 1010 62 10000 4.6 260 10:20 31.07.2019
4397 Clouds 33 1010 59 10000 4.1 250 09:43 31.07.2019
4398 Clouds 33 1010 59 10000 4.1 250 09:24 31.07.2019
4399 Clouds 33 1010 59 10000 4.1 250 09:24 31.07.2019
4400 Clouds 34 1010 56 10000 4.6 270 08:45 31.07.2019
4401 Clouds 34 1010 56 10000 4.6 270 08:26 31.07.2019
4402 Clouds 34 1011 56 10000 3.1 250 07:57 31.07.2019
4403 Clouds 34 1011 56 10000 3.1 250 07:34 31.07.2019
4404 Clouds 33 1011 63 10000 2.6 280 06:18 31.07.2019
4405 Clouds 31 1012 66 10000 2.6 140 04:42 31.07.2019
4406 Clouds 27 1012 94 10000 2.6 140 00:58 31.07.2019
4407 Clouds 25 1013 100 10000 3.1 130 23:56 30.07.2019
4408 Clouds 26 1013 100 10000 3.1 130 23:38 30.07.2019
4409 Clouds 26 1013 100 10000 3.1 130 23:18 30.07.2019
4410 Clear 27 1011 88 0 3.85 179.032 22:42 30.07.2019
4411 Clouds 26 1012 88 10000 1 0 22:22 30.07.2019
4412 Clouds 26 1012 88 10000 1 0 21:38 30.07.2019
4413 Clouds 26 1012 88 10000 1 0 21:20 30.07.2019
4414 Clouds 26 1011 88 10000 2.1 40 20:57 30.07.2019
4415 Clouds 26 1011 88 10000 2.1 40 20:39 30.07.2019
4416 Clouds 26 1011 88 10000 2.1 40 20:19 30.07.2019
4417 Clouds 26 1011 88 10000 1 0 19:47 30.07.2019
4418 Clouds 26 1011 88 10000 1 0 19:29 30.07.2019
4419 Clouds 27 1011 65 10000 2.6 240 18:48 30.07.2019
4420 Clouds 27 1011 65 10000 2.6 240 18:26 30.07.2019
4421 Clear 27 1011 88 0 4 186.215 17:58 30.07.2019
4422 Clear 27 1011 88 0 4 186.215 17:40 30.07.2019
4423 Clear 27 1011 88 0 4 186.215 17:18 30.07.2019
4424 Clear 27 1011 88 0 4 186.215 16:46 30.07.2019
4425 Clear 27 1011 88 0 4 186.215 16:19 30.07.2019
4426 Clear 27 1011 88 0 4 186.215 15:41 30.07.2019
4427 Clouds 27 1011 88 10000 3.84 197.642 15:22 30.07.2019
4428 Clouds 27 1011 88 10000 3.84 197.642 14:46 30.07.2019
4429 Clouds 27 1011 88 10000 3.84 197.642 14:26 30.07.2019
4430 Clouds 29 1011 79 10000 1.5 260 13:59 30.07.2019
4431 Clouds 29 1011 79 10000 1.5 260 13:39 30.07.2019
4432 Clouds 29 1011 79 10000 1.5 260 13:20 30.07.2019
4433 Clouds 29 1010 79 10000 3.1 270 12:46 30.07.2019
4434 Clouds 30 1010 79 10000 3.1 270 12:28 30.07.2019
4435 Clouds 30 1010 79 10000 4.1 270 11:48 30.07.2019
4436 Clouds 30 1010 79 10000 4.1 270 11:30 30.07.2019
4437 Clouds 31 1010 70 10000 4.6 270 10:59 30.07.2019
4438 Clouds 31 1010 70 10000 4.6 270 10:39 30.07.2019
4439 Clouds 31 1010 70 10000 4.6 270 10:20 30.07.2019
4440 Clouds 32 1010 70 10000 4.6 250 09:48 30.07.2019
4441 Clouds 32 1010 70 10000 4.6 250 09:28 30.07.2019
4442 Clouds 32 1010 70 10000 5.7 270 08:42 30.07.2019
4443 Clouds 32 1010 70 10000 5.7 270 08:19 30.07.2019
4444 Clouds 32 1011 66 10000 3.6 230 07:44 30.07.2019
4445 Clouds 32 1011 66 10000 3.6 230 07:23 30.07.2019
4446 Rain 31 1011 70 10000 2.1 140 06:45 30.07.2019
4447 Thunderstorm 30 1012 79 10000 2.1 120 05:36 30.07.2019
4448 Thunderstorm 30 1012 79 10000 1 0 04:59 30.07.2019
4449 Rain 29 1012 89 10000 4.6 140 01:30 30.07.2019
4450 Rain 28 1012 94 10000 3.1 130 00:28 30.07.2019
4451 Rain 27 1012 94 10000 3.6 120 23:59 29.07.2019
4452 Rain 27 1012 94 10000 3.6 120 23:41 29.07.2019
4453 Rain 28 1012 94 10000 3.6 120 23:22 29.07.2019
4454 Rain 28 1012 83 0 1.34 170 22:56 29.07.2019
4455 Rain 28 1012 83 0 1.34 170 22:38 29.07.2019
4456 Clouds 28 1011 74 10000 3.6 180 22:18 29.07.2019
4457 Clouds 28 1011 74 10000 3.6 180 21:42 29.07.2019
4458 Clouds 28 1011 74 10000 3.6 180 21:23 29.07.2019
4459 Clouds 28 1011 69 10000 4.1 180 20:58 29.07.2019
4460 Clouds 28 1011 69 10000 4.1 180 20:39 29.07.2019
4461 Clouds 28 1011 69 10000 4.1 180 20:19 29.07.2019
4462 Clouds 28 1011 74 10000 5.1 200 19:47 29.07.2019
4463 Clouds 28 1011 74 10000 5.1 200 19:23 29.07.2019
4464 Clouds 28 1011 69 10000 4.6 200 18:58 29.07.2019
4465 Clouds 28 1011 69 10000 4.6 200 18:38 29.07.2019
4466 Clouds 28 1011 69 10000 4.6 200 18:19 29.07.2019
4467 Clouds 28 1012 83 0 1.34 170 17:47 29.07.2019
4468 Clouds 28 1012 83 0 1.34 170 17:28 29.07.2019
4469 Clouds 28 1012 83 0 1.34 170 16:55 29.07.2019
4470 Clouds 28 1014 83 0 1.34 170 16:36 29.07.2019
4471 Clouds 28 1014 83 0 1.34 170 16:36 29.07.2019
4472 Clouds 28 1014 83 0 1.34 170 16:18 29.07.2019
4473 Clouds 28 1012 83 0 1.34 170 15:43 29.07.2019
4474 Clouds 28 1012 83 10000 1.5 170 15:24 29.07.2019
4475 Clouds 28 1012 83 10000 1.5 170 14:42 29.07.2019
4476 Clouds 28 1012 83 10000 1.5 170 14:21 29.07.2019
4477 Clouds 29 1011 83 10000 2.6 170 13:46 29.07.2019
4478 Clouds 29 1011 83 10000 2.6 170 13:24 29.07.2019
4479 Clouds 29 1011 83 10000 3.1 240 12:57 29.07.2019
4480 Clouds 29 1011 83 10000 3.1 240 12:38 29.07.2019
4481 Clouds 29 1011 83 10000 3.1 240 12:19 29.07.2019
4482 Clouds 30 1011 79 10000 3.6 250 11:40 29.07.2019
4483 Clouds 30 1011 79 10000 3.6 250 11:19 29.07.2019
4484 Rain 30 1011 79 10000 3.6 230 10:42 29.07.2019
4485 Rain 30 1011 79 10000 3.6 230 10:21 29.07.2019
4486 Rain 30 1011 79 10000 3.6 230 10:21 29.07.2019
4487 Clouds 31 1011 79 10000 3.6 240 09:44 29.07.2019
4488 Clouds 31 1011 79 10000 3.6 240 09:21 29.07.2019
4489 Clouds 31 1012 74 10000 4.6 240 08:43 29.07.2019
4490 Clouds 31 1012 74 10000 4.6 240 08:24 29.07.2019
4491 Clouds 30 1012 79 10000 4.6 240 07:46 29.07.2019
4492 Clouds 30 1012 79 10000 4.6 240 07:27 29.07.2019
4493 Rain 29 1012 84 10000 3.6 230 06:37 29.07.2019
4494 Rain 28 1013 89 10000 4.6 210 05:32 29.07.2019
4495 Rain 29 1013 94 10000 5.1 150 02:49 29.07.2019
4496 Rain 28 1012 94 7000 5.7 160 01:48 29.07.2019
4497 Rain 28 1012 94 7000 5.7 160 01:27 29.07.2019
4498 Rain 29 1012 83 10000 4.6 140 00:56 29.07.2019
4499 Rain 28 1012 83 10000 4.6 140 00:23 29.07.2019
4500 Clouds 28 1012 88 10000 5.1 150 23:41 28.07.2019
4501 Clouds 28 1012 88 10000 5.1 150 23:22 28.07.2019
4502 Clouds 28 1012 88 10000 5.1 150 23:22 28.07.2019
4503 Rain 28 1012 83 0 2.24 110 22:43 28.07.2019
4504 Clouds 27 1012 74 10000 1.5 280 22:24 28.07.2019
4505 Clouds 27 1012 74 10000 1.5 280 21:50 28.07.2019
4506 Clouds 27 1012 74 10000 1.5 280 21:20 28.07.2019
4507 Clouds 28 1012 62 10000 3.6 200 20:49 28.07.2019
4508 Clouds 28 1012 62 10000 3.6 200 20:30 28.07.2019
4509 Clouds 28 1012 65 10000 4.6 220 19:57 28.07.2019
4510 Clouds 28 1012 65 10000 4.6 220 19:38 28.07.2019
4511 Clouds 28 1012 65 10000 4.6 220 19:20 28.07.2019
4512 Clouds 28 1012 62 10000 3.6 200 18:45 28.07.2019
4513 Clouds 28 1012 62 10000 3.6 200 18:25 28.07.2019
4514 Clouds 28 1012 83 0 2.24 110 17:56 28.07.2019
4515 Clouds 28 1012 83 0 2.24 110 17:37 28.07.2019
4516 Clouds 28 1012 83 0 2.24 110 17:19 28.07.2019
4517 Clouds 28 1012 83 0 2.24 110 16:41 28.07.2019
4518 Clouds 28 1012 83 0 2.24 110 16:22 28.07.2019
4519 Clouds 28 1012 83 0 2.24 110 15:44 28.07.2019
4520 Clouds 28 1012 83 10000 2.6 110 15:25 28.07.2019
4521 Clouds 28 1012 83 10000 2.6 110 14:39 28.07.2019
4522 Clouds 28 1012 83 10000 2.6 110 14:20 28.07.2019
4523 Clouds 29 1012 79 10000 2.1 240 13:56 28.07.2019
4524 Clouds 29 1012 79 10000 2.1 240 13:56 28.07.2019
4525 Clouds 29 1012 79 10000 2.1 240 13:56 28.07.2019
4526 Clouds 29 1012 79 10000 2.1 240 13:37 28.07.2019
4527 Clouds 29 1012 79 10000 2.1 240 13:19 28.07.2019
4528 Clouds 29 1011 74 10000 3.1 250 12:41 28.07.2019
4529 Clouds 29 1011 74 10000 3.1 250 12:23 28.07.2019
4530 Clouds 29 1011 74 10000 3.1 250 12:23 28.07.2019
4531 Clouds 31 1011 70 10000 4.1 270 11:48 28.07.2019
4532 Clouds 31 1011 70 10000 4.1 270 11:27 28.07.2019
4533 Clouds 31 1011 70 10000 4.1 260 10:42 28.07.2019
4534 Clouds 31 1011 70 10000 4.1 260 10:23 28.07.2019
4535 Clouds 31 1011 70 10000 4.1 260 10:23 28.07.2019
4536 Clouds 31 1011 70 10000 4.1 260 10:23 28.07.2019
4537 Clouds 32 1011 62 10000 5.1 250 09:59 28.07.2019
4538 Clouds 32 1011 62 10000 5.1 250 09:39 28.07.2019
4539 Clouds 32 1011 62 10000 5.1 250 09:19 28.07.2019
4540 Clouds 32 1012 66 10000 5.1 250 08:41 28.07.2019
4541 Clouds 32 1012 66 10000 5.1 250 08:21 28.07.2019
4542 Clouds 33 1012 63 10000 3.1 270 07:39 28.07.2019
4543 Clouds 32 1012 59 10000 1 0 06:56 28.07.2019
4544 Clouds 32 1012 59 10000 1 0 06:28 28.07.2019
4545 Clouds 32 1012 62 10000 2.6 130 05:18 28.07.2019
4546 Clouds 30 1012 79 10000 5.1 140 02:24 28.07.2019
4547 Clouds 29 1012 83 10000 4.1 130 01:31 28.07.2019
4548 Rain 27 1012 94 10000 3.6 130 00:52 28.07.2019
4549 Rain 27 1012 94 10000 3.6 130 00:25 28.07.2019
4550 Rain 27 1012 100 10000 4.1 120 23:48 27.07.2019
4551 Rain 27 1012 100 10000 4.1 120 23:27 27.07.2019
4552 Rain 27 1010 94 0 2.68 130 22:43 27.07.2019
4553 Clouds 28 1011 69 10000 3.6 170 22:23 27.07.2019
4554 Clouds 27 1011 69 10000 3.6 170 21:44 27.07.2019
4555 Clouds 27 1011 69 10000 3.6 170 21:23 27.07.2019
4556 Clouds 27 1011 69 10000 4.6 200 20:54 27.07.2019
4557 Clouds 27 1011 69 10000 4.6 200 20:30 27.07.2019
4558 Clouds 27 1011 69 10000 1 270 19:58 27.07.2019
4559 Clouds 27 1011 69 10000 1 270 19:38 27.07.2019
4560 Clouds 27 1011 69 10000 1 270 19:19 27.07.2019
4561 Clouds 27 1011 69 10000 4.1 210 18:46 27.07.2019
4562 Clouds 27 1011 69 10000 4.1 210 18:28 27.07.2019
4563 Rain 27 1010 94 0 2.68 130 17:49 27.07.2019
4564 Rain 27 1010 94 0 2.68 130 17:31 27.07.2019
4565 Rain 27 1010 94 0 2.68 130 16:53 27.07.2019
4566 Clouds 27 1011 94 10000 3.1 130 16:34 27.07.2019
4567 Clouds 27 1011 94 10000 3.1 130 15:56 27.07.2019
4568 Clouds 27 1011 94 10000 3.1 130 15:28 27.07.2019
4569 Clouds 28 1010 88 10000 2.6 140 14:53 27.07.2019
4570 Clouds 28 1010 88 10000 2.6 140 14:34 27.07.2019
4571 Clouds 28 1009 83 10000 3.6 210 13:59 27.07.2019
4572 Clouds 28 1009 83 10000 3.6 210 13:41 27.07.2019
4573 Clouds 28 1009 83 10000 3.6 210 13:21 27.07.2019
4574 Clouds 29 1009 79 10000 4.1 250 12:49 27.07.2019
4575 Clouds 29 1009 79 10000 4.1 250 12:26 27.07.2019
4576 Clouds 30 1008 74 10000 3.6 230 11:46 27.07.2019
4577 Clouds 30 1008 74 10000 3.6 230 11:25 27.07.2019
4578 Clouds 30 1008 70 10000 1.5 150 10:57 27.07.2019
4579 Clouds 30 1008 70 10000 1.5 150 10:39 27.07.2019
4580 Clouds 30 1008 70 10000 1.5 150 10:18 27.07.2019
4581 Clouds 30 1009 70 10000 1.5 150 09:40 27.07.2019
4582 Clouds 30 1009 70 10000 1.5 150 09:21 27.07.2019
4583 Rain 30 1008 70 10000 3.1 230 08:45 27.07.2019
4584 Rain 30 1008 70 10000 3.1 230 08:25 27.07.2019
4585 Clouds 31 1009 66 10000 6.2 200 07:45 27.07.2019
4586 Clouds 31 1009 66 10000 6.2 200 07:22 27.07.2019
4587 Clouds 31 1009 66 10000 5.1 220 06:54 27.07.2019
4588 Clouds 31 1009 66 10000 5.1 220 06:28 27.07.2019
4589 Clouds 31 1009 66 10000 2.1 180 05:42 27.07.2019
4590 Rain 30 1009 79 10000 7.2 140 04:52 27.07.2019
4591 Rain 30 1009 79 10000 6.2 130 03:55 27.07.2019
4592 Rain 29 1008 79 10000 5.1 130 02:43 27.07.2019
4593 Rain 29 1008 79 10000 5.1 130 02:20 27.07.2019
4594 Clouds 28 1008 88 10000 4.1 120 01:38 27.07.2019
4595 Rain 27 1008 94 10000 4.6 120 00:49 27.07.2019
4596 Rain 27 1008 94 10000 4.6 120 00:31 27.07.2019
4597 Rain 26 1008 94 10000 5.1 120 23:44 26.07.2019
4598 Rain 27 1008 94 10000 5.1 120 23:26 26.07.2019
4599 Clouds 27 1007 88 0 1.79 210 22:44 26.07.2019
4600 Clouds 27 1007 69 10000 3.6 170 22:26 26.07.2019
4601 Clouds 27 1007 69 10000 3.6 170 21:52 26.07.2019
4602 Clouds 27 1007 69 10000 3.6 170 21:21 26.07.2019
4603 Clouds 26 1007 83 10000 2.1 10 20:58 26.07.2019
4604 Clouds 26 1007 83 10000 2.1 10 20:39 26.07.2019
4605 Clouds 26 1007 83 10000 2.1 10 20:21 26.07.2019
4606 Clouds 26 1007 78 10000 2.1 50 19:41 26.07.2019
4607 Clouds 26 1007 78 10000 2.1 50 19:22 26.07.2019
4608 Clouds 26 1007 83 10000 1.5 60 18:44 26.07.2019
4609 Clouds 26 1007 83 10000 1.5 60 18:21 26.07.2019
4610 Clouds 27 1007 88 0 1.79 210 17:57 26.07.2019
4611 Clouds 27 1007 88 0 1.79 210 17:38 26.07.2019
4612 Clouds 27 1007 88 0 1.79 210 17:18 26.07.2019
4613 Clouds 27 1007 88 0 1.79 210 16:54 26.07.2019
4614 Clouds 27 1007 88 0 1.79 210 16:36 26.07.2019
4615 Clouds 27 1007 88 0 1.79 210 16:18 26.07.2019
4616 Clouds 27 1007 88 0 1.79 210 15:44 26.07.2019
4617 Clouds 27 1007 88 10000 2.1 210 15:21 26.07.2019
4618 Clouds 27 1007 88 10000 2.1 210 14:45 26.07.2019
4619 Clouds 27 1007 88 10000 2.1 210 14:25 26.07.2019
4620 Clouds 28 1006 83 10000 2.1 230 13:47 26.07.2019
4621 Clouds 28 1006 83 10000 2.1 230 13:28 26.07.2019
4622 Clouds 28 1006 83 10000 2.6 260 12:50 26.07.2019
4623 Clouds 28 1006 83 10000 2.6 260 12:24 26.07.2019
4624 Clouds 30 1005 74 10000 3.1 250 11:58 26.07.2019
4625 Clouds 30 1005 74 10000 3.1 250 11:37 26.07.2019
4626 Clouds 30 1005 74 10000 3.1 250 11:18 26.07.2019
4627 Clouds 31 1005 66 10000 3.6 260 10:42 26.07.2019
4628 Clouds 31 1005 66 10000 3.6 260 10:24 26.07.2019
4629 Rain 31 1005 70 10000 5.1 250 09:50 26.07.2019
4630 Rain 31 1005 70 10000 5.1 250 09:30 26.07.2019
4631 Clouds 32 1005 62 10000 5.7 250 08:41 26.07.2019
4632 Clouds 32 1005 62 10000 5.7 250 08:21 26.07.2019
4633 Rain 32 1006 66 10000 5.1 250 07:43 26.07.2019
4634 Rain 32 1006 66 10000 5.1 250 07:24 26.07.2019
4635 Clouds 31 1006 62 10000 1.5 210 06:31 26.07.2019
4636 Clouds 30 1007 66 10000 1 0 04:30 26.07.2019
4637 Clouds 30 1008 70 10000 3.1 130 03:55 26.07.2019
4638 Clouds 28 1008 83 10000 4.1 130 01:50 26.07.2019
4639 Clouds 28 1008 83 10000 4.1 130 01:26 26.07.2019
4640 Clouds 27 1007 94 10000 4.1 130 00:32 26.07.2019
4641 Clouds 26 1008 100 10000 2.6 130 23:48 25.07.2019
4642 Clouds 26 1008 100 10000 2.6 130 23:22 25.07.2019
4643 Clouds 28 1008 83 0 1.79 190 22:42 25.07.2019
4644 Clouds 27 1007 83 10000 1.5 210 22:23 25.07.2019
4645 Clouds 27 1007 83 10000 1.5 210 21:56 25.07.2019
4646 Clouds 27 1007 83 10000 1.5 210 21:37 25.07.2019
4647 Clouds 27 1007 83 10000 1.5 210 21:19 25.07.2019
4648 Clouds 27 1007 83 10000 2.1 180 20:40 25.07.2019
4649 Clouds 27 1007 83 10000 2.1 180 20:20 25.07.2019
4650 Clouds 27 1008 88 10000 1 0 19:40 25.07.2019
4651 Clouds 27 1008 88 10000 1 0 19:22 25.07.2019
4652 Clouds 27 1008 74 10000 1.5 260 18:43 25.07.2019
4653 Clouds 27 1008 74 10000 1.5 260 18:25 25.07.2019
4654 Clouds 28 1008 83 0 1.79 190 17:50 25.07.2019
4655 Clouds 28 1008 83 0 1.79 190 17:32 25.07.2019
4656 Clouds 28 1008 83 0 1.79 190 16:57 25.07.2019
4657 Clouds 28 1008 83 0 1.79 190 16:38 25.07.2019
4658 Clouds 28 1008 83 0 1.79 190 16:20 25.07.2019
4659 Clouds 28 1008 83 0 1.79 190 15:44 25.07.2019
4660 Clouds 28 1008 83 10000 2.1 190 15:19 25.07.2019
4661 Clouds 28 1008 83 10000 2.1 190 14:43 25.07.2019
4662 Clouds 28 1008 83 10000 2.1 190 14:23 25.07.2019
4663 Clouds 28 1008 83 10000 1.5 210 13:55 25.07.2019
4664 Clouds 28 1008 83 10000 1.5 210 13:36 25.07.2019
4665 Clouds 28 1008 83 10000 1.5 210 13:18 25.07.2019
4666 Clouds 28 1008 83 10000 1.5 210 13:18 25.07.2019
4667 Clouds 28 1007 83 10000 3.6 250 12:30 25.07.2019
4668 Clouds 30 1007 74 10000 4.6 240 11:47 25.07.2019
4669 Clouds 30 1007 74 10000 4.6 240 11:26 25.07.2019
4670 Clouds 30 1007 74 10000 4.6 240 10:59 25.07.2019
4671 Clouds 30 1007 74 10000 4.6 240 10:40 25.07.2019
4672 Clouds 30 1007 74 10000 4.6 240 10:22 25.07.2019
4673 Clouds 31 1007 66 10000 4.1 250 09:44 25.07.2019
4674 Clouds 31 1007 66 10000 4.1 250 09:25 25.07.2019
4675 Clouds 31 1007 70 10000 6.2 250 08:44 25.07.2019
4676 Clouds 31 1007 70 10000 6.2 250 08:19 25.07.2019
4677 Clouds 31 1008 62 10000 5.1 250 07:36 25.07.2019
4678 Clouds 31 1008 66 10000 4.1 240 06:43 25.07.2019
4679 Clouds 31 1008 70 10000 2.1 140 05:48 25.07.2019
4680 Clouds 30 1008 70 10000 2.1 140 05:28 25.07.2019
4681 Clouds 29 1009 79 10000 3.6 130 04:37 25.07.2019
4682 Clouds 27 1009 94 10000 4.1 130 01:46 25.07.2019
4683 Clouds 27 1009 94 10000 4.1 130 01:18 25.07.2019
4684 Clouds 27 1009 94 10000 3.6 130 00:20 25.07.2019
4685 Clouds 26 1009 94 10000 3.6 140 23:47 24.07.2019
4686 Clouds 26 1009 94 10000 3.6 140 23:29 24.07.2019
4687 Clouds 27 1008 88 0 2.24 170 22:56 24.07.2019
4688 Clouds 27 1008 88 0 2.24 170 22:56 24.07.2019
4689 Clouds 27 1008 88 0 2.24 170 22:36 24.07.2019
4690 Clouds 27 1008 74 10000 4.6 160 22:18 24.07.2019
4691 Clouds 27 1008 74 10000 4.6 160 21:43 24.07.2019
4692 Clouds 27 1008 74 10000 4.6 160 21:22 24.07.2019
4693 Clouds 27 1008 74 10000 4.1 160 20:56 24.07.2019
4694 Clouds 27 1008 74 10000 4.1 160 20:37 24.07.2019
4695 Clouds 27 1008 74 10000 4.1 160 20:19 24.07.2019
4696 Clouds 27 1008 69 10000 4.1 170 19:42 24.07.2019
4697 Clouds 27 1008 69 10000 4.1 170 19:22 24.07.2019
4698 Clouds 27 1008 74 10000 3.1 160 18:58 24.07.2019
4699 Clouds 27 1008 74 10000 3.1 160 18:37 24.07.2019
4700 Clouds 27 1008 74 10000 3.1 160 18:19 24.07.2019
4701 Clouds 27 1008 88 0 2.24 170 17:42 24.07.2019
4702 Clouds 27 1008 88 0 2.24 170 17:19 24.07.2019
4703 Clouds 27 1008 88 0 2.24 170 16:40 24.07.2019
4704 Clouds 27 1008 88 0 2.24 170 16:40 24.07.2019
4705 Clouds 27 1009 88 0 2.24 170 16:21 24.07.2019
4706 Clouds 27 1009 88 0 2.24 170 15:39 24.07.2019
4707 Clouds 27 1008 88 10000 2.6 170 15:21 24.07.2019
4708 Clouds 27 1008 88 10000 2.6 170 14:50 24.07.2019
4709 Clouds 27 1008 88 10000 2.6 170 14:23 24.07.2019
4710 Clouds 28 1008 83 10000 2.1 180 13:58 24.07.2019
4711 Clouds 28 1008 83 10000 2.1 180 13:36 24.07.2019
4712 Clouds 28 1008 83 10000 2.1 180 13:18 24.07.2019
4713 Clouds 28 1008 83 10000 3.6 200 12:46 24.07.2019
4714 Clouds 28 1008 83 10000 3.6 200 12:23 24.07.2019
4715 Clouds 29 1007 74 10000 3.1 210 11:38 24.07.2019
4716 Clouds 29 1007 74 10000 3.1 210 11:19 24.07.2019
4717 Clouds 29 1007 79 10000 3.1 210 10:43 24.07.2019
4718 Clouds 29 1007 79 10000 3.1 210 10:24 24.07.2019
4719 Clouds 29 1007 79 10000 3.1 230 09:44 24.07.2019
4720 Clouds 29 1007 79 10000 3.1 230 09:24 24.07.2019
4721 Clouds 30 1007 70 10000 4.1 240 08:54 24.07.2019
4722 Clouds 30 1007 70 10000 4.1 240 08:27 24.07.2019
4723 Clouds 30 1007 74 10000 4.1 240 07:51 24.07.2019
4724 Clouds 30 1007 74 10000 4.1 240 07:23 24.07.2019
4725 Clouds 30 1007 70 10000 3.6 230 06:28 24.07.2019
4726 Clouds 30 1007 70 10000 3.6 230 06:28 24.07.2019
4727 Clouds 30 1007 70 10000 4.6 240 05:26 24.07.2019
4728 Clouds 27 1008 94 10000 2.6 130 01:58 24.07.2019
4729 Clouds 27 1008 94 10000 2.6 130 01:28 24.07.2019
4730 Clouds 26 1007 94 10000 3.6 140 00:54 24.07.2019
4731 Clouds 26 1007 94 10000 3.6 140 00:21 24.07.2019
4732 Clouds 25 1007 100 10000 3.1 130 23:38 23.07.2019
4733 Clouds 25 1007 100 10000 3.1 130 23:19 23.07.2019
4734 Clouds 27 1007 88 0 1.34 160 22:39 23.07.2019
4735 Clouds 26 1007 94 10000 1.5 180 22:19 23.07.2019
4736 Clouds 26 1007 94 10000 1.5 180 21:54 23.07.2019
4737 Clouds 26 1007 94 10000 1.5 180 21:54 23.07.2019
4738 Clouds 26 1007 94 10000 1.5 180 21:36 23.07.2019
4739 Clouds 26 1007 94 10000 1.5 180 21:36 23.07.2019
4740 Clouds 26 1007 94 10000 1.5 180 21:18 23.07.2019
4741 Clouds 26 1007 94 10000 3.91 208.543 20:41 23.07.2019
4742 Clouds 26 1007 94 10000 3.91 208.543 20:21 23.07.2019
4743 Clouds 26 1007 94 10000 3.91 208.543 19:40 23.07.2019
4744 Clouds 26 1007 94 10000 3.91 208.543 19:19 23.07.2019
4745 Clouds 26 1007 83 10000 1 160 18:43 23.07.2019
4746 Clouds 26 1007 83 10000 1 160 18:43 23.07.2019
4747 Clouds 26 1007 83 10000 1 160 18:22 23.07.2019
4748 Clouds 27 1007 88 0 1.34 160 17:44 23.07.2019
4749 Clouds 27 1007 88 0 1.34 160 17:24 23.07.2019
4750 Clouds 27 1007 88 0 1.34 160 16:50 23.07.2019
4751 Clouds 27 1007 88 0 1.34 160 16:28 23.07.2019
4752 Clouds 27 1007 88 0 1.34 160 15:58 23.07.2019
4753 Clouds 27 1007 88 0 1.34 160 15:39 23.07.2019
4754 Clouds 27 1007 88 10000 1.5 160 15:21 23.07.2019
4755 Clouds 27 1007 88 10000 1.5 160 14:37 23.07.2019
4756 Clouds 27 1007 88 10000 1.5 160 14:19 23.07.2019
4757 Clouds 27 1006 88 10000 2.1 190 13:56 23.07.2019
4758 Clouds 27 1006 88 10000 2.1 190 13:38 23.07.2019
4759 Clouds 27 1006 88 10000 2.1 190 13:19 23.07.2019
4760 Clouds 28 1006 83 10000 3.6 220 12:42 23.07.2019
4761 Clouds 28 1006 83 10000 3.6 220 12:24 23.07.2019
4762 Clouds 28 1006 83 10000 4.1 240 11:42 23.07.2019
4763 Clouds 28 1006 83 10000 4.1 240 11:23 23.07.2019
4764 Clouds 29 1006 79 10000 5.1 250 10:51 23.07.2019
4765 Clouds 29 1006 79 10000 5.1 250 10:26 23.07.2019
4766 Clouds 29 1006 79 10000 5.1 250 09:44 23.07.2019
4767 Clouds 29 1006 79 10000 5.1 250 09:22 23.07.2019
4768 Clouds 30 1006 74 10000 5.1 240 08:57 23.07.2019
4769 Clouds 30 1006 74 10000 5.1 240 08:38 23.07.2019
4770 Clouds 30 1006 74 10000 5.1 240 08:18 23.07.2019
4771 Clouds 29 1007 74 10000 4.6 240 07:44 23.07.2019
4772 Clouds 29 1007 74 10000 4.6 240 07:26 23.07.2019
4773 Clouds 29 1007 79 10000 4.1 250 06:37 23.07.2019
4774 Clouds 29 1008 79 10000 2.6 240 04:51 23.07.2019
4775 Clouds 27 1009 88 10000 1 0 01:55 23.07.2019
4776 Clouds 27 1009 94 10000 1.5 70 00:54 23.07.2019
4777 Clouds 27 1009 94 10000 1.5 70 00:26 23.07.2019
4778 Clouds 27 1009 88 10000 0.5 0 23:39 22.07.2019
4779 Clouds 27 1009 88 10000 0.5 0 23:20 22.07.2019
4780 Rain 27 1008 88 0 2.24 210 22:46 22.07.2019
4781 Rain 27 1008 88 0 2.24 210 22:46 22.07.2019
4782 Clouds 26 1008 78 10000 5.1 200 22:26 22.07.2019
4783 Clouds 26 1008 78 10000 5.1 200 21:57 22.07.2019
4784 Clouds 26 1008 78 10000 5.1 200 21:39 22.07.2019
4785 Clouds 26 1008 78 10000 5.1 200 21:19 22.07.2019
4786 Clouds 26 1008 74 10000 5.1 180 20:42 22.07.2019
4787 Clouds 26 1008 74 10000 5.1 180 20:22 22.07.2019
4788 Clouds 26 1008 74 10000 3.6 190 19:43 22.07.2019
4789 Clouds 26 1008 74 10000 3.6 190 19:23 22.07.2019
4790 Clouds 26 1008 78 10000 4.6 200 18:55 22.07.2019
4791 Clouds 26 1008 78 10000 4.6 200 18:37 22.07.2019
4792 Clouds 26 1008 78 10000 4.6 200 18:19 22.07.2019
4793 Clouds 27 1008 88 0 2.24 210 17:39 22.07.2019
4794 Clouds 27 1008 88 0 2.24 210 17:20 22.07.2019
4795 Clouds 27 1008 88 0 2.24 210 16:41 22.07.2019
4796 Clouds 27 1008 88 0 2.24 210 16:21 22.07.2019
4797 Clouds 27 1008 88 0 2.24 210 15:54 22.07.2019
4798 Clouds 27 1008 88 10000 2.6 210 15:36 22.07.2019
4799 Clouds 27 1008 88 10000 2.6 210 15:18 22.07.2019
4800 Clouds 27 1008 88 10000 2.6 210 14:41 22.07.2019
4801 Clouds 27 1008 88 10000 2.6 210 14:41 22.07.2019
4802 Clouds 27 1008 88 10000 2.6 210 14:19 22.07.2019
4803 Clouds 27 1008 88 10000 2.1 230 13:44 22.07.2019
4804 Clouds 27 1008 88 10000 2.1 230 13:22 22.07.2019
4805 Clouds 28 1008 83 10000 5.7 250 12:43 22.07.2019
4806 Clouds 28 1008 83 10000 5.7 250 12:23 22.07.2019
4807 Clouds 28 1008 83 10000 4.6 230 11:44 22.07.2019
4808 Clouds 28 1008 83 10000 4.6 230 11:20 22.07.2019
4809 Clouds 29 1008 79 10000 4.1 230 10:43 22.07.2019
4810 Clouds 29 1008 79 10000 4.1 230 10:24 22.07.2019
4811 Rain 29 1008 74 10000 6.2 230 09:42 22.07.2019
4812 Rain 29 1008 74 10000 6.2 230 09:23 22.07.2019
4813 Clouds 30 1008 56 10000 4.6 230 08:44 22.07.2019
4814 Clouds 30 1008 56 10000 4.6 230 08:44 22.07.2019
4815 Clouds 30 1008 56 10000 4.6 230 08:24 22.07.2019
4816 Rain 29 1008 74 10000 6.2 240 07:54 22.07.2019
4817 Rain 29 1008 74 10000 6.2 240 07:32 22.07.2019
4818 Rain 29 1009 74 10000 5.1 240 06:42 22.07.2019
4819 Clouds 28 1009 83 10000 5.1 250 03:50 22.07.2019
4820 Rain 27 1008 94 9000 6.2 250 01:51 22.07.2019
4821 Rain 26 1008 88 10000 4.1 260 00:50 22.07.2019
4822 Rain 26 1008 88 10000 4.1 260 00:24 22.07.2019
4823 Rain 26 1008 78 2500 4.1 150 23:54 21.07.2019
4824 Rain 26 1008 94 10000 3.6 260 23:27 21.07.2019
4825 Rain 26 1009 88 0 4.92 140 22:41 21.07.2019
4826 Clouds 25 1008 78 10000 4.1 160 22:21 21.07.2019
4827 Clouds 25 1008 78 10000 4.1 160 21:56 21.07.2019
4828 Clouds 25 1008 78 10000 4.1 160 21:37 21.07.2019
4829 Clouds 25 1008 78 10000 4.1 160 21:18 21.07.2019
4830 Clouds 25 1008 78 10000 5.7 150 20:43 21.07.2019
4831 Clouds 25 1008 78 10000 5.7 150 20:23 21.07.2019
4832 Rain 25 1008 83 10000 3.6 170 19:53 21.07.2019
4833 Rain 25 1008 83 10000 3.6 170 19:32 21.07.2019
4834 Clouds 25 1009 78 10000 4.1 140 18:59 21.07.2019
4835 Clouds 25 1009 78 10000 4.1 140 18:41 21.07.2019
4836 Clouds 25 1009 78 10000 4.1 140 18:22 21.07.2019
4837 Rain 26 1009 88 0 4.92 140 17:41 21.07.2019
4838 Rain 26 1009 88 0 4.92 140 17:19 21.07.2019
4839 Rain 26 1009 88 0 4.92 140 16:43 21.07.2019
4840 Rain 26 1009 88 0 4.92 140 16:25 21.07.2019
4841 Rain 26 1009 88 0 4.92 140 15:47 21.07.2019
4842 Clouds 26 1009 88 10000 5.1 140 15:24 21.07.2019
4843 Clouds 26 1009 88 10000 5.1 140 14:58 21.07.2019
4844 Clouds 26 1009 88 10000 5.1 140 14:39 21.07.2019
4845 Clouds 26 1009 88 10000 5.1 140 14:18 21.07.2019
4846 Clouds 26 1009 88 10000 4.6 130 13:42 21.07.2019
4847 Clouds 26 1009 88 10000 4.6 130 13:24 21.07.2019
4848 Rain 26 1009 88 10000 3.1 160 12:42 21.07.2019
4849 Rain 26 1009 88 10000 3.1 160 12:24 21.07.2019
4850 Rain 26 1009 78 10000 4.1 190 11:46 21.07.2019
4851 Rain 26 1008 88 10000 3.1 140 11:28 21.07.2019
4852 Rain 26 1008 78 6000 3.1 170 10:47 21.07.2019
4853 Rain 26 1008 94 6000 2.6 160 10:26 21.07.2019
4854 Rain 26 1008 94 3500 5.7 170 09:56 21.07.2019
4855 Rain 26 1008 94 10000 5.7 140 09:36 21.07.2019
4856 Rain 26 1008 94 10000 5.7 140 09:36 21.07.2019
4857 Rain 27 1008 88 10000 4.6 180 08:50 21.07.2019
4858 Rain 27 1008 88 10000 4.6 180 08:32 21.07.2019
4859 Clouds 27 1008 88 10000 4.6 220 07:58 21.07.2019
4860 Rain 26 1008 88 10000 4.6 220 07:19 21.07.2019
4861 Rain 26 1008 94 2500 4.1 190 06:34 21.07.2019
4862 Rain 27 1008 83 10000 5.1 180 04:19 21.07.2019
4863 Rain 26 1008 88 10000 6.7 190 01:53 21.07.2019
4864 Thunderstorm 26 1008 88 2500 8.2 200 00:47 21.07.2019
4865 Thunderstorm 26 1007 88 4000 4.6 210 00:21 21.07.2019
4866 Thunderstorm 26 1007 100 2500 6.7 210 23:46 20.07.2019
4867 Thunderstorm 25 1007 88 1000 6.7 140 23:27 20.07.2019
4868 Rain 26 1006 94 0 4.92 150 22:55 20.07.2019
4869 Thunderstorm 25 1007 83 1000 6.2 230 22:37 20.07.2019
4870 Thunderstorm 25 1007 83 1000 6.2 230 22:18 20.07.2019
4871 Thunderstorm 25 1007 83 1000 6.2 230 21:42 20.07.2019
4872 Thunderstorm 25 1007 83 1000 6.2 230 21:24 20.07.2019
4873 Rain 25 1006 83 1500 4.6 150 20:43 20.07.2019
4874 Rain 25 1006 83 1500 4.6 150 20:22 20.07.2019
4875 Rain 25 1006 83 9000 8.2 150 19:49 20.07.2019
4876 Rain 25 1006 83 9000 8.2 150 19:27 20.07.2019
4877 Rain 25 1006 83 4000 6.7 160 18:46 20.07.2019
4878 Rain 25 1006 83 4000 6.7 160 18:26 20.07.2019
4879 Rain 26 1006 94 0 4.92 150 17:58 20.07.2019
4880 Rain 26 1006 94 0 4.92 150 17:37 20.07.2019
4881 Rain 26 1006 94 0 4.92 150 17:19 20.07.2019
4882 Rain 26 1006 94 0 4.92 150 16:39 20.07.2019
4883 Rain 26 1006 94 0 4.92 150 16:21 20.07.2019
4884 Rain 25 1007 83 10000 9.8 160 15:41 20.07.2019
4885 Rain 26 1007 83 10000 9.8 160 15:21 20.07.2019
4886 Rain 26 1007 83 10000 9.8 160 14:49 20.07.2019
4887 Clouds 26 1006 94 10000 5.1 150 14:29 20.07.2019
4888 Rain 27 1006 83 10000 5.7 190 13:57 20.07.2019
4889 Rain 27 1006 83 10000 5.7 190 13:37 20.07.2019
4890 Rain 27 1006 83 10000 5.7 190 13:19 20.07.2019
4891 Rain 27 1005 83 8000 8.7 190 12:48 20.07.2019
4892 Rain 27 1005 83 8000 8.7 190 12:19 20.07.2019
4893 Rain 27 1005 83 5000 8.7 180 11:43 20.07.2019
4894 Rain 27 1004 88 9000 8.2 190 11:20 20.07.2019
4895 Rain 26 1004 88 5000 5.7 180 10:42 20.07.2019
4896 Rain 26 1004 88 5000 5.7 180 10:22 20.07.2019
4897 Rain 25 1004 100 2000 7.7 230 09:48 20.07.2019
4898 Rain 26 1004 88 1500 8.7 180 09:25 20.07.2019
4899 Rain 26 1003 88 5000 10.8 160 08:49 20.07.2019
4900 Rain 27 1003 83 3000 13.9 170 08:23 20.07.2019
4901 Rain 27 1002 83 4000 13.9 150 07:39 20.07.2019
4902 Rain 27 1003 74 10000 12.9 140 06:46 20.07.2019
4903 Rain 26 1003 83 10000 11.3 140 05:25 20.07.2019
4904 Rain 26 1004 83 9000 12.3 150 04:31 20.07.2019
4905 Rain 27 1004 78 10000 13.4 150 01:55 20.07.2019
4906 Rain 27 1003 78 10000 13.9 150 00:52 20.07.2019
4907 Rain 27 1003 78 10000 13.9 150 00:33 20.07.2019
4908 Rain 26 1003 88 9000 12.9 150 23:57 19.07.2019
4909 Rain 26 1003 88 9000 12.9 150 23:39 19.07.2019
4910 Rain 27 1003 88 9000 12.9 150 23:20 19.07.2019
4911 Rain 28 1005 78 0 8.05 120 22:41 19.07.2019
4912 Rain 26 1004 78 10000 2.1 40 22:20 19.07.2019
4913 Rain 26 1004 78 10000 2.1 40 22:20 19.07.2019
4914 Rain 26 1004 78 10000 2.1 40 21:43 19.07.2019
4915 Rain 26 1004 78 10000 2.1 40 21:25 19.07.2019
4916 Rain 26 1004 83 10000 2.6 60 20:44 19.07.2019
4917 Rain 26 1004 83 10000 2.6 60 20:25 19.07.2019
4918 Rain 27 1005 78 10000 4.6 100 19:40 19.07.2019
4919 Rain 27 1005 78 10000 4.6 100 19:19 19.07.2019
4920 Rain 27 1006 78 10000 4.1 90 18:41 19.07.2019
4921 Rain 27 1006 78 10000 4.1 90 18:20 19.07.2019
4922 Rain 28 1005 78 0 8.05 120 17:47 19.07.2019
4923 -273 0 0 0 0 0 17:26 19.07.2019
4924 Rain 28 1005 78 0 8.05 120 16:48 19.07.2019
4925 Rain 28 1009 78 0 8.05 120 16:26 19.07.2019
4926 Rain 28 1005 78 0 8.05 120 15:50 19.07.2019
4927 Rain 28 1005 78 10000 8.2 120 15:30 19.07.2019
4928 Rain 28 1005 78 10000 8.2 120 14:56 19.07.2019
4929 Rain 28 1005 78 10000 8.2 120 14:38 19.07.2019
4930 Rain 28 1005 78 10000 8.2 120 14:20 19.07.2019
4931 Rain 28 1005 78 10000 7.7 120 13:43 19.07.2019
4932 Rain 28 1005 78 10000 7.7 120 13:43 19.07.2019
4933 Rain 28 1005 78 10000 7.7 120 13:43 19.07.2019
4934 Rain 28 1005 78 10000 7.7 120 13:43 19.07.2019
4935 Rain 28 1005 78 10000 7.7 120 13:24 19.07.2019
4936 Rain 28 1005 74 10000 7.2 120 12:54 19.07.2019
4937 Rain 28 1005 74 10000 7.2 120 12:30 19.07.2019
4938 Rain 27 1006 88 10000 5.1 140 11:58 19.07.2019
4939 Rain 27 1006 88 10000 5.1 140 11:39 19.07.2019
4940 Rain 27 1006 88 10000 5.1 140 11:18 19.07.2019
4941 Clouds 27 1005 88 10000 6.7 120 10:40 19.07.2019
4942 Clouds 27 1005 88 10000 6.7 120 10:21 19.07.2019
4943 Clouds 27 1005 88 10000 6.7 120 10:21 19.07.2019
4944 Clouds 27 1006 88 10000 5.1 150 09:44 19.07.2019
4945 Clouds 27 1006 88 10000 5.1 150 09:22 19.07.2019
4946 Clouds 28 1007 83 10000 5.7 150 08:57 19.07.2019
4947 Clouds 28 1007 83 10000 5.7 150 08:39 19.07.2019
4948 Rain 28 1007 78 10000 5.1 160 07:43 19.07.2019
4949 Rain 28 1007 78 10000 5.1 160 07:25 19.07.2019
4950 Rain 27 1007 88 10000 4.6 160 05:40 19.07.2019
4951 Clouds 26 1007 88 10000 5.1 170 01:59 19.07.2019
4952 Rain 26 1007 88 10000 6.2 150 00:59 19.07.2019
4953 Rain 26 1007 88 10000 6.2 150 00:25 19.07.2019
4954 Clouds 25 1007 94 10000 5.7 160 23:42 18.07.2019
4955 Clouds 25 1007 94 10000 5.7 160 23:23 18.07.2019
4956 Rain 25 1009 94 0 6.71 140 22:58 18.07.2019
4957 Rain 25 1009 94 0 6.71 140 22:39 18.07.2019
4958 Rain 25 1009 94 0 6.71 140 22:39 18.07.2019
4959 Clouds 24 1007 83 10000 2.6 50 22:18 18.07.2019
4960 Clouds 24 1007 83 10000 2.6 50 21:40 18.07.2019
4961 Clouds 25 1007 83 10000 2.6 50 21:20 18.07.2019
4962 Clouds 25 1008 83 10000 2.1 30 20:49 18.07.2019
4963 Clouds 25 1008 83 10000 2.1 30 20:27 18.07.2019
4964 Rain 25 1008 83 10000 2.1 40 19:52 18.07.2019
4965 Rain 25 1008 83 10000 2.1 40 19:30 18.07.2019
4966 Clouds 25 1009 83 10000 3.1 60 18:57 18.07.2019
4967 Clouds 25 1009 83 10000 3.1 60 18:24 18.07.2019
4968 Rain 25 1009 94 0 6.71 140 17:57 18.07.2019
4969 Rain 25 1009 94 0 6.71 140 17:38 18.07.2019
4970 Rain 25 1009 94 0 6.71 140 17:38 18.07.2019
4971 Rain 25 1009 94 0 6.71 140 17:19 18.07.2019
4972 Rain 25 1009 94 0 6.71 140 16:53 18.07.2019
4973 Rain 25 1009 94 0 6.71 140 16:26 18.07.2019
4974 Rain 25 1009 94 0 6.71 140 15:58 18.07.2019
4975 Rain 25 1010 83 10000 2.1 160 15:36 18.07.2019
4976 Rain 25 1009 94 10000 6.7 140 14:56 18.07.2019
4977 Rain 25 1009 94 10000 6.7 140 14:38 18.07.2019
4978 Rain 25 1009 94 10000 6.7 140 14:19 18.07.2019
4979 Rain 25 1009 94 10000 3.1 170 13:43 18.07.2019
4980 Rain 25 1009 94 9000 3.6 130 13:21 18.07.2019
4981 Rain 25 1008 88 7000 5.1 190 12:46 18.07.2019
4982 Rain 25 1008 88 5000 10.3 210 12:21 18.07.2019
4983 Rain 25 1008 88 5000 10.3 210 11:52 18.07.2019
4984 Rain 26 1008 94 3000 7.7 230 11:33 18.07.2019
4985 Rain 27 1008 100 3500 5.1 160 10:52 18.07.2019
4986 Rain 27 1008 100 3500 5.1 160 10:52 18.07.2019
4987 Rain 27 1007 94 5000 3.6 150 10:30 18.07.2019
4988 Rain 27 1007 88 7000 6.2 180 09:45 18.07.2019
4989 Rain 27 1007 88 7000 6.2 180 09:23 18.07.2019
4990 Rain 28 1007 79 10000 4.6 140 08:47 18.07.2019
4991 Clouds 29 1008 70 10000 9.3 180 08:20 18.07.2019
4992 Clouds 29 1008 70 10000 9.3 180 07:43 18.07.2019
4993 Rain 28 1008 83 10000 2.6 160 07:24 18.07.2019
4994 Rain 28 1008 83 10000 2.6 160 06:37 18.07.2019
4995 Clouds 29 1008 83 10000 1 0 05:33 18.07.2019
4996 Clouds 27 1008 83 10000 4.1 150 02:55 18.07.2019
4997 Rain 26 1009 94 8000 3.6 150 01:50 18.07.2019
4998 Thunderstorm 26 1009 94 8000 3.6 140 00:35 18.07.2019
4999 Rain 26 1009 94 6000 3.6 130 23:49 17.07.2019
5000 Rain 26 1009 83 5000 2.1 50 23:19 17.07.2019
5001 Rain 26 1010 94 0 2.68 105.122 22:54 17.07.2019
5002 Rain 26 1010 94 0 2.68 105.122 22:36 17.07.2019
5003 Clouds 25 1009 83 9000 2.6 80 22:18 17.07.2019
5004 Clouds 25 1009 83 9000 2.6 80 21:41 17.07.2019
5005 Clouds 25 1009 83 9000 2.6 80 21:21 17.07.2019
5006 Clouds 26 1010 83 8000 2.1 40 20:58 17.07.2019
5007 Clouds 26 1010 83 8000 2.1 40 20:39 17.07.2019
5008 Clouds 26 1010 88 7000 1.5 10 20:20 17.07.2019
5009 Clouds 26 1010 88 7000 1.5 10 19:43 17.07.2019
5010 Clouds 26 1010 88 8000 1 330 19:21 17.07.2019
5011 Clouds 26 1010 88 8000 1 330 18:56 17.07.2019
5012 Clouds 26 1010 88 8000 1 330 18:37 17.07.2019
5013 Rain 26 1010 94 0 2.44 120.292 18:18 17.07.2019
5014 Rain 26 1010 94 0 2.44 120.292 17:43 17.07.2019
5015 Rain 26 1010 94 0 2.44 120.292 17:22 17.07.2019
5016 Rain 26 1010 94 0 2.44 120.292 16:42 17.07.2019
5017 Rain 26 1012 94 0 2.44 120.292 16:22 17.07.2019
5018 Rain 26 1010 94 0 2.44 120.292 15:51 17.07.2019
5019 Clouds 26 1010 94 10000 1 0 15:31 17.07.2019
5020 Clouds 26 1010 94 10000 1 0 14:57 17.07.2019
5021 Clouds 26 1010 94 10000 1 0 14:39 17.07.2019
5022 Clouds 26 1010 94 10000 1 0 14:20 17.07.2019
5023 Clouds 27 1010 88 10000 1.5 340 13:49 17.07.2019
5024 Clouds 27 1010 88 10000 1.5 340 13:31 17.07.2019
5025 Clouds 27 1010 88 10000 2.6 350 12:56 17.07.2019
5026 Clouds 28 1010 88 10000 2.6 350 12:38 17.07.2019
5027 Clouds 28 1009 83 10000 2.6 330 12:19 17.07.2019
5028 Clouds 28 1009 83 10000 2.6 330 11:40 17.07.2019
5029 Clouds 29 1010 79 10000 1.5 280 11:19 17.07.2019
5030 Clouds 29 1010 79 10000 1.5 280 10:45 17.07.2019
5031 Clouds 29 1010 79 10000 1.5 280 10:21 17.07.2019
5032 Clouds 29 1009 74 10000 1.5 140 09:45 17.07.2019
5033 Clouds 29 1009 74 10000 1.5 140 09:27 17.07.2019
5034 Clouds 29 1009 79 10000 3.1 150 08:45 17.07.2019
5035 Clouds 29 1009 79 10000 3.1 150 08:24 17.07.2019
5036 Clouds 29 1010 70 10000 5.1 140 07:58 17.07.2019
5037 Clouds 29 1010 70 10000 5.1 140 07:38 17.07.2019
5038 Clouds 29 1010 79 10000 3.6 130 07:19 17.07.2019
5039 Clouds 28 1010 79 10000 3.6 130 06:45 17.07.2019
5040 Clouds 28 1010 79 10000 3.6 130 06:22 17.07.2019
5041 Clouds 28 1011 79 9000 2.6 150 05:38 17.07.2019
5042 Rain 27 1011 88 7000 3.6 150 04:57 17.07.2019
5043 Clouds 27 1011 83 9000 4.6 140 03:52 17.07.2019
5044 Clouds 27 1011 83 8000 4.1 160 02:43 17.07.2019
5045 Clouds 26 1011 88 8000 1.5 170 01:41 17.07.2019
5046 Clouds 26 1011 88 8000 1.5 170 01:21 17.07.2019
5047 Clouds 25 1011 94 8000 0.75 81.534 00:39 17.07.2019
5048 Clouds 25 1011 94 8000 0.5 0 00:20 17.07.2019
5049 Clouds 25 1011 94 8000 0.5 0 23:45 16.07.2019
5050 Clouds 25 1011 94 8000 0.5 0 23:24 16.07.2019
5051 Clouds 26 1010 83 0 2.68 320 22:44 16.07.2019
5052 Clouds 24 1010 88 7000 1.5 360 22:25 16.07.2019
5053 Clouds 24 1010 88 7000 1.5 360 21:59 16.07.2019
5054 Clouds 24 1010 88 7000 1.5 360 21:59 16.07.2019
5055 Clouds 24 1010 88 7000 1.5 360 21:40 16.07.2019
5056 Clouds 25 1010 83 10000 1.5 330 21:19 16.07.2019
5057 Clouds 25 1010 83 10000 1.5 330 20:41 16.07.2019
5058 Clouds 25 1010 83 10000 1.5 330 20:41 16.07.2019
5059 Clouds 25 1010 83 10000 1.5 330 20:23 16.07.2019
5060 Clouds 25 1010 83 10000 1.5 330 20:23 16.07.2019
5061 Clouds 25 1010 88 10000 1 250 19:54 16.07.2019
5062 Clouds 25 1010 88 10000 1 250 19:30 16.07.2019
5063 Clouds 25 1010 88 10000 1 250 19:30 16.07.2019
5064 Clouds 25 1010 78 10000 1.5 310 18:59 16.07.2019
5065 Clouds 25 1010 78 10000 1.5 310 18:41 16.07.2019
5066 Clear 26 1010 83 0 2.68 320 18:21 16.07.2019
5067 Clear 26 1010 83 0 2.68 320 17:49 16.07.2019
5068 Clear 26 1010 83 0 2.68 320 17:49 16.07.2019
5069 Clear 26 1010 83 0 2.68 320 17:28 16.07.2019
5070 Clear 26 1010 83 0 2.68 320 16:50 16.07.2019
5071 Clear 26 1010 83 0 2.68 320 16:27 16.07.2019
5072 Clear 26 1010 83 0 2.68 320 15:57 16.07.2019
5073 Clear 26 1010 83 0 2.68 320 15:38 16.07.2019
5074 Clouds 25 1010 83 10000 3.1 320 15:19 16.07.2019
5075 Clouds 26 1010 83 10000 3.1 320 14:55 16.07.2019
5076 Clouds 26 1010 83 10000 3.1 320 14:36 16.07.2019
5077 Clouds 26 1009 83 10000 4.6 330 14:18 16.07.2019
5078 Clouds 26 1009 83 10000 4.6 330 13:38 16.07.2019
5079 Clouds 27 1008 78 10000 5.1 330 13:18 16.07.2019
5080 Clouds 27 1008 78 10000 5.1 330 12:43 16.07.2019
5081 Clouds 28 1008 70 10000 4.6 290 12:20 16.07.2019
5082 Clouds 29 1008 70 10000 4.6 290 11:54 16.07.2019
5083 Clouds 29 1008 70 10000 4.6 290 11:36 16.07.2019
5084 Clouds 29 1008 70 10000 4.6 290 11:36 16.07.2019
5085 Clouds 30 1008 66 10000 4.1 270 11:18 16.07.2019
5086 Clouds 30 1008 66 10000 4.1 270 10:43 16.07.2019
5087 Clouds 30 1008 66 10000 4.6 260 10:20 16.07.2019
5088 Clouds 30 1008 66 10000 4.6 260 09:44 16.07.2019
5089 Clouds 30 1008 66 10000 4.6 260 09:21 16.07.2019
5090 Clouds 30 1008 66 10000 4.1 270 08:49 16.07.2019
5091 Clouds 30 1008 66 10000 4.1 270 08:28 16.07.2019
5092 Clouds 30 1008 66 10000 3.1 260 07:57 16.07.2019
5093 Clouds 30 1008 66 10000 3.1 260 07:36 16.07.2019
5094 Clouds 30 1009 62 10000 2.6 360 06:59 16.07.2019
5095 Clouds 30 1009 62 10000 2.6 360 06:37 16.07.2019
5096 Clouds 29 1009 70 10000 4.1 360 05:52 16.07.2019
5097 Clouds 29 1009 70 10000 4.1 360 05:30 16.07.2019
5098 Clouds 28 1010 78 10000 3.1 360 04:45 16.07.2019
5099 Clouds 27 1009 78 10000 3.1 360 03:43 16.07.2019
5100 Clouds 26 1009 78 10000 2.1 0 02:46 16.07.2019
5101 Clouds 26 1009 78 10000 2.1 0 02:28 16.07.2019
5102 Clouds 24 1009 88 10000 1.5 150 01:26 16.07.2019
5103 Clouds 23 1009 100 10000 2.6 130 00:25 16.07.2019
5104 Clouds 22 1009 100 10000 2.4 53.374 23:59 15.07.2019
5105 Clouds 22 1009 100 10000 2.4 53.374 23:39 15.07.2019
5106 Clouds 22 1009 100 10000 2.4 53.374 23:20 15.07.2019
5107 Clear 25 1007 83 0 4.47 320 22:44 15.07.2019
5108 Clear 23 1008 78 10000 2.1 290 22:20 15.07.2019
5109 Clear 23 1008 78 10000 2.1 290 21:57 15.07.2019
5110 Clear 23 1008 78 10000 2.1 290 21:39 15.07.2019
5111 Clouds 23 1008 83 10000 2.1 330 21:19 15.07.2019
5112 Clouds 23 1008 83 10000 2.1 330 20:44 15.07.2019
5113 Clouds 23 1008 83 10000 2.1 330 20:44 15.07.2019
5114 Clouds 24 1008 83 10000 2.1 330 20:23 15.07.2019
5115 Clouds 23 1008 88 10000 2.1 330 19:56 15.07.2019
5116 Clouds 23 1008 88 10000 2.1 330 19:38 15.07.2019
5117 Clouds 24 1008 88 10000 1 330 19:18 15.07.2019
5118 Clouds 24 1008 88 10000 1 330 18:44 15.07.2019
5119 Clear 25 1007 83 0 4.47 320 18:20 15.07.2019
5120 Clear 25 1007 83 0 4.47 320 17:56 15.07.2019
5121 Clear 25 1007 83 0 4.47 320 17:37 15.07.2019
5122 Clear 25 1007 83 0 4.47 320 17:19 15.07.2019
5123 Clear 25 1007 83 0 4.47 320 16:40 15.07.2019
5124 Clear 25 1007 83 0 4.47 320 16:21 15.07.2019
5125 Clear 25 1007 83 0 4.47 320 16:21 15.07.2019
5126 Clear 25 1007 83 0 4.47 320 15:59 15.07.2019
5127 Clear 25 1007 83 0 4.47 320 15:38 15.07.2019
5128 Clear 25 1007 83 10000 4.6 320 15:20 15.07.2019
5129 Clear 25 1007 83 10000 4.6 320 14:45 15.07.2019
5130 Clear 25 1007 83 10000 4.6 320 14:27 15.07.2019
5131 Clear 26 1006 83 10000 3.1 330 13:57 15.07.2019
5132 Clear 26 1006 83 10000 3.1 330 13:36 15.07.2019
5133 Clouds 27 1005 74 10000 2.6 300 13:18 15.07.2019
5134 Clouds 27 1005 74 10000 2.6 300 12:42 15.07.2019
5135 Clouds 28 1005 74 10000 2.6 300 12:22 15.07.2019
5136 Clouds 29 1005 66 10000 2.6 280 11:44 15.07.2019
5137 Clouds 29 1005 66 10000 2.6 280 11:26 15.07.2019
5138 Clouds 30 1005 62 10000 2.6 270 10:48 15.07.2019
5139 Clouds 30 1005 62 10000 2.6 270 10:30 15.07.2019
5140 Clouds 30 1005 58 10000 1.5 0 09:55 15.07.2019
5141 Clouds 30 1005 58 10000 1.5 0 09:36 15.07.2019
5142 Clouds 30 1005 55 10000 1.5 190 09:18 15.07.2019
5143 Clouds 30 1005 55 10000 1.5 190 09:18 15.07.2019
5144 Clouds 31 1005 55 10000 1.5 190 08:41 15.07.2019
5145 Clouds 31 1005 55 10000 1.5 190 08:41 15.07.2019
5146 Clouds 31 1005 55 10000 1.5 190 08:23 15.07.2019
5147 Clouds 31 1005 55 10000 1.5 190 08:23 15.07.2019
5148 Clouds 30 1006 58 10000 1.5 210 07:41 15.07.2019
5149 Clouds 29 1006 62 10000 2.6 230 07:19 15.07.2019
5150 Clouds 29 1006 62 10000 2.6 230 06:39 15.07.2019
5151 Clouds 28 1006 65 10000 2.6 220 05:47 15.07.2019
5152 Clouds 28 1006 65 10000 2.6 220 05:27 15.07.2019
5153 Clouds 27 1006 69 10000 3.1 280 04:42 15.07.2019
5154 Clouds 27 1006 69 10000 1 0 03:48 15.07.2019
5155 Clouds 25 1006 78 10000 1.5 0 02:44 15.07.2019
5156 Clouds 25 1005 78 10000 4.6 360 01:43 15.07.2019
5157 Clouds 25 1005 78 10000 4.6 360 01:24 15.07.2019
5158 Clouds 23 1005 88 10000 6.7 360 00:51 15.07.2019
5159 Clouds 22 1005 94 10000 4.6 360 00:19 15.07.2019
5160 Clouds 22 1005 94 10000 4.6 360 23:55 14.07.2019
5161 Clouds 22 1005 94 10000 4.6 360 23:36 14.07.2019
5162 Clouds 24 1003 88 0 4.02 340 23:18 14.07.2019
5163 Clouds 24 1003 88 0 4.02 340 22:40 14.07.2019
5164 Clouds 22 1004 88 10000 0.5 0 22:22 14.07.2019
5165 Clouds 22 1004 88 10000 0.5 0 21:58 14.07.2019
5166 Clouds 22 1004 88 10000 0.5 0 21:39 14.07.2019
5167 Clouds 22 1004 83 10000 1 0 21:18 14.07.2019
5168 Clouds 22 1004 83 10000 1 0 21:18 14.07.2019
5169 Clouds 22 1004 83 10000 1 0 20:54 14.07.2019
5170 Clouds 22 1004 83 10000 1 0 20:36 14.07.2019
5171 Clouds 23 1004 73 10000 0.5 0 20:18 14.07.2019
5172 Clouds 23 1004 73 10000 0.5 0 19:41 14.07.2019
5173 Clouds 23 1004 73 10000 0.5 0 19:23 14.07.2019
5174 Clouds 23 1004 78 10000 1.5 300 18:45 14.07.2019
5175 Clouds 23 1004 78 10000 1.5 300 18:27 14.07.2019
5176 Clouds 24 1003 88 0 4.02 340 17:59 14.07.2019
5177 Clouds 24 1003 88 0 4.02 340 17:39 14.07.2019
5178 Clouds 24 1003 88 0 4.02 340 17:18 14.07.2019
5179 Clouds 24 1003 88 0 4.02 340 16:46 14.07.2019
5180 Clouds 24 1003 88 0 4.02 340 16:23 14.07.2019
5181 Clouds 24 1003 88 0 4.02 340 16:23 14.07.2019
5182 Clouds 24 1003 88 0 4.02 340 15:49 14.07.2019
5183 Clouds 24 1003 88 10000 4.1 340 15:27 14.07.2019
5184 Clouds 24 1003 88 10000 4.1 340 14:48 14.07.2019
5185 Clouds 24 1003 88 10000 4.1 340 14:21 14.07.2019
5186 Clouds 24 1001 88 10000 5.1 350 13:49 14.07.2019
5187 Clouds 24 1001 88 10000 5.1 350 13:25 14.07.2019
5188 Clouds 24 1001 88 10000 5.1 360 12:58 14.07.2019
5189 Clouds 24 1001 88 10000 5.1 360 12:40 14.07.2019
5190 Clouds 25 1000 83 10000 6.7 360 12:19 14.07.2019
5191 Clouds 25 1000 83 10000 6.7 360 11:51 14.07.2019
5192 Clouds 25 1000 83 10000 6.7 360 11:22 14.07.2019
5193 Clouds 26 1000 78 10000 5.1 350 10:49 14.07.2019
5194 Clouds 26 1000 78 10000 5.1 350 10:22 14.07.2019
5195 Rain 25 1000 83 10000 5.7 350 09:50 14.07.2019
5196 Rain 25 1000 83 10000 5.7 350 09:30 14.07.2019
5197 Rain 24 1000 94 10000 2.1 340 08:57 14.07.2019
5198 Rain 24 1000 94 10000 2.1 340 08:39 14.07.2019
5199 Rain 24 1001 100 5000 2.1 300 07:46 14.07.2019
5200 Rain 24 1001 100 5000 2.1 300 07:21 14.07.2019
5201 Rain 24 1000 100 4000 2.6 330 05:47 14.07.2019
5202 Rain 23 1000 94 6000 3.1 280 03:59 14.07.2019
5203 Rain 23 1000 94 6000 3.1 280 03:41 14.07.2019
5204 Rain 23 1000 94 6000 3.1 280 03:23 14.07.2019
5205 Rain 23 1000 94 10000 3.1 330 02:24 14.07.2019
5206 Rain 23 1000 94 10000 3.1 330 02:24 14.07.2019
5207 Rain 23 999 100 10000 1.5 310 01:54 14.07.2019
5208 Rain 23 999 100 10000 1.5 310 01:30 14.07.2019
5209 Rain 22 999 100 8000 1.5 280 00:41 14.07.2019
5210 Rain 22 999 100 8000 1 230 00:20 14.07.2019
5211 Rain 22 999 100 8000 1 230 23:58 13.07.2019
5212 Rain 22 1000 100 8000 0.5 0 23:40 13.07.2019
5213 Rain 22 1000 100 8000 0.5 0 23:20 13.07.2019
5214 Rain 23 999 100 0 2.68 160 22:42 13.07.2019
5215 Clouds 23 998 83 8000 1.5 340 22:22 13.07.2019
5216 Clouds 23 998 83 8000 1.5 340 21:48 13.07.2019
5217 Clouds 23 998 83 8000 1.5 340 21:21 13.07.2019
5218 Clouds 22 999 94 10000 2.1 10 20:52 13.07.2019
5219 Clouds 22 999 94 10000 2.1 10 20:33 13.07.2019
5220 Clouds 22 999 94 7000 1.5 360 19:51 13.07.2019
5221 Clouds 22 999 94 7000 1.5 360 19:30 13.07.2019
5222 Clouds 22 999 88 7000 1.5 360 18:48 13.07.2019
5223 Clouds 22 999 88 7000 1.5 360 18:28 13.07.2019
5224 Rain 23 999 100 0 2.68 160 17:58 13.07.2019
5225 Rain 23 999 100 0 2.68 160 17:37 13.07.2019
5226 Rain 23 999 100 0 2.68 160 17:18 13.07.2019
5227 Rain 23 999 100 0 2.68 160 16:42 13.07.2019
5228 Rain 23 999 100 0 2.68 160 16:24 13.07.2019
5229 Clouds 23 1000 100 10000 3.1 160 15:46 13.07.2019
5230 Clouds 23 1000 100 10000 3.1 160 15:24 13.07.2019
5231 Rain 23 998 94 10000 1.5 170 14:47 13.07.2019
5232 Rain 23 998 94 10000 1.5 170 14:27 13.07.2019
5233 Rain 22 999 100 10000 1.5 160 13:58 13.07.2019
5234 Rain 22 999 100 10000 1.5 160 13:39 13.07.2019
5235 Rain 22 999 100 10000 1 0 13:18 13.07.2019
5236 Rain 22 999 100 10000 1 0 12:40 13.07.2019
5237 Rain 22 999 100 10000 1 0 12:22 13.07.2019
5238 Clouds 22 998 100 10000 0.5 0 11:52 13.07.2019
5239 Clouds 22 998 100 10000 0.5 0 11:20 13.07.2019
5240 Rain 22 998 94 10000 1 0 10:46 13.07.2019
5241 Rain 22 998 94 10000 1 0 10:25 13.07.2019
5242 Rain 22 999 83 10000 1.5 30 09:59 13.07.2019
5243 Rain 22 998 94 10000 1.5 200 09:41 13.07.2019
5244 Rain 22 998 94 10000 1.5 190 09:18 13.07.2019
5245 Rain 21 999 100 4000 2.1 190 08:41 13.07.2019
5246 Rain 21 999 100 4000 2.1 190 08:22 13.07.2019
5247 Rain 21 999 100 4500 5.1 330 07:30 13.07.2019
5248 Rain 21 999 94 2500 8.2 150 06:49 13.07.2019
5249 Rain 21 999 94 4000 10.3 130 05:59 13.07.2019
5250 Rain 20 1001 100 2500 6.7 140 05:29 13.07.2019
5251 Rain 20 1003 94 5000 6.7 140 04:24 13.07.2019
5252 Rain 21 1003 94 4000 3.1 150 03:57 13.07.2019
5253 Rain 21 1003 94 4000 2.6 140 03:38 13.07.2019
5254 Rain 21 1004 88 8000 4.6 140 01:58 13.07.2019
5255 Rain 21 1004 83 10000 4.6 140 01:39 13.07.2019
5256 Rain 21 1003 83 10000 5.7 120 01:19 13.07.2019
5257 Rain 21 1003 83 10000 5.7 120 00:51 13.07.2019
5258 Rain 22 1004 94 5000 3.6 90 00:19 13.07.2019
5259 Rain 22 1004 94 5000 3.6 90 23:46 12.07.2019
5260 Rain 22 1004 94 5000 3.6 90 23:28 12.07.2019
5261 Rain 24 1007 83 0 2.24 350 22:46 12.07.2019
5262 Rain 23 1005 88 10000 1.5 360 22:24 12.07.2019
5263 Rain 23 1005 88 10000 1.5 360 21:43 12.07.2019
5264 Rain 23 1005 88 10000 1.5 360 21:22 12.07.2019
5265 Rain 23 1005 83 10000 1 350 20:56 12.07.2019
5266 Rain 23 1005 83 10000 1 350 20:38 12.07.2019
5267 Clear 23 1005 83 10000 2.1 340 20:19 12.07.2019
5268 Clear 23 1005 83 10000 2.1 340 19:42 12.07.2019
5269 Clear 23 1005 83 10000 2.1 340 19:23 12.07.2019
5270 Clear 23 1005 78 10000 1.5 320 18:44 12.07.2019
5271 Clear 23 1005 78 10000 1.5 320 18:21 12.07.2019
5272 Clouds 24 1007 83 0 2.24 350 17:51 12.07.2019
5273 Clouds 24 1007 83 0 2.24 350 17:28 12.07.2019
5274 Clouds 24 1007 83 0 2.24 350 16:48 12.07.2019
5275 Clouds 24 1007 83 0 2.24 350 16:22 12.07.2019
5276 Clouds 24 1007 83 0 2.24 350 15:43 12.07.2019
5277 Clouds 24 1007 83 10000 2.6 350 15:22 12.07.2019
5278 Clouds 24 1007 83 10000 2.6 350 14:58 12.07.2019
5279 Clouds 24 1007 83 10000 2.6 350 14:39 12.07.2019
5280 Clouds 24 1006 78 10000 3.6 350 14:20 12.07.2019
5281 Clouds 24 1006 78 10000 3.6 350 13:42 12.07.2019
5282 Clouds 24 1006 78 10000 4.1 340 13:20 12.07.2019
5283 Clouds 24 1006 78 10000 4.1 340 12:40 12.07.2019
5284 Clouds 24 1006 78 10000 4.1 340 12:40 12.07.2019
5285 Clouds 25 1005 73 10000 4.6 360 12:21 12.07.2019
5286 Clouds 25 1005 73 10000 4.6 360 11:45 12.07.2019
5287 Clouds 25 1005 73 10000 4.6 360 11:23 12.07.2019
5288 Clouds 26 1006 69 10000 4.6 360 10:44 12.07.2019
5289 Clouds 26 1006 69 10000 4.6 360 10:25 12.07.2019
5290 Clouds 27 1006 69 10000 4.6 350 09:55 12.07.2019
5291 Clouds 27 1006 69 10000 4.6 350 09:31 12.07.2019
5292 Clouds 27 1006 69 10000 4.6 350 09:31 12.07.2019
5293 Clouds 27 1006 69 10000 4.6 360 09:00 12.07.2019
5294 Clouds 27 1006 69 10000 4.6 360 08:41 12.07.2019
5295 Clouds 27 1007 69 10000 4.6 360 08:20 12.07.2019
5296 Clouds 27 1007 69 10000 4.6 360 07:46 12.07.2019
5297 Clouds 27 1007 69 10000 4.6 360 07:27 12.07.2019
5298 Clouds 26 1007 74 10000 3.1 10 06:29 12.07.2019
5299 Clouds 27 1007 74 10000 3.6 360 05:48 12.07.2019
5300 Clouds 26 1008 74 10000 1.5 170 03:23 12.07.2019
5301 Clouds 24 1008 88 10000 2.1 260 01:45 12.07.2019
5302 Clouds 24 1008 88 10000 2.1 260 01:26 12.07.2019
5303 Clouds 23 1008 88 10000 1 160 00:30 12.07.2019
5304 Clouds 23 1008 69 10000 2.1 280 23:50 11.07.2019
5305 Clouds 23 1008 69 10000 2.1 280 23:26 11.07.2019
5306 Clouds 24 1008 88 0 4.47 230 22:58 11.07.2019
5307 Clouds 24 1008 88 0 4.47 230 22:39 11.07.2019
5308 Clouds 24 1007 64 10000 4.1 210 22:21 11.07.2019
5309 Clouds 24 1007 64 10000 4.1 210 21:41 11.07.2019
5310 Clouds 24 1007 64 10000 4.6 210 21:19 11.07.2019
5311 Clouds 24 1007 64 10000 4.6 210 20:55 11.07.2019
5312 Clouds 24 1007 64 10000 4.6 210 20:36 11.07.2019
5313 Clouds 24 1007 64 10000 3.1 210 20:18 11.07.2019
5314 Clouds 24 1007 64 10000 3.1 210 19:43 11.07.2019
5315 Clouds 24 1007 64 10000 3.1 210 19:23 11.07.2019
5316 Clouds 24 1008 69 10000 2.1 210 18:49 11.07.2019
5317 Clouds 24 1008 69 10000 2.1 210 18:31 11.07.2019
5318 Rain 24 1008 88 0 4.47 230 17:55 11.07.2019
5319 Rain 24 1008 88 0 4.47 230 17:37 11.07.2019
5320 Rain 24 1008 88 0 4.47 230 17:19 11.07.2019
5321 Rain 24 1008 88 0 4.47 230 16:43 11.07.2019
5322 Rain 24 1008 88 0 4.47 230 16:22 11.07.2019
5323 Rain 24 1008 88 0 4.47 230 15:44 11.07.2019
5324 Clouds 24 1008 88 10000 4.6 230 15:25 11.07.2019
5325 Clouds 24 1008 88 10000 4.6 230 14:59 11.07.2019
5326 Clouds 24 1008 88 10000 4.6 230 14:39 11.07.2019
5327 Clouds 24 1008 88 10000 4.6 230 14:20 11.07.2019
5328 Clouds 24 1008 88 10000 4.6 230 13:45 11.07.2019
5329 Clouds 25 1007 83 10000 4.1 220 13:25 11.07.2019
5330 Clouds 25 1007 83 10000 4.1 220 12:39 11.07.2019
5331 Clouds 25 1007 83 10000 3.1 230 12:20 11.07.2019
5332 Clouds 25 1007 83 10000 3.1 230 11:52 11.07.2019
5333 Clouds 25 1007 83 10000 3.1 230 11:30 11.07.2019
5334 Clouds 27 1006 74 10000 4.6 240 10:54 11.07.2019
5335 Clouds 27 1006 74 10000 4.6 240 10:20 11.07.2019
5336 Clouds 27 1006 74 10000 4.6 230 09:57 11.07.2019
5337 Clouds 27 1006 74 10000 4.6 230 09:39 11.07.2019
5338 Clouds 27 1006 74 10000 4.6 230 09:20 11.07.2019
5339 Clouds 27 1006 69 10000 5.7 220 08:42 11.07.2019
5340 Clouds 27 1006 69 10000 5.7 220 08:20 11.07.2019
5341 Clouds 27 1006 74 10000 3.6 220 07:45 11.07.2019
5342 Clouds 27 1006 74 10000 3.6 220 07:25 11.07.2019
5343 Clouds 25 1006 83 10000 3.6 210 06:21 11.07.2019
5344 Clouds 25 1006 88 10000 4.1 220 05:33 11.07.2019
5345 Clouds 25 1006 88 10000 3.6 210 04:57 11.07.2019
5346 Rain 24 1006 88 9000 5.7 210 03:58 11.07.2019
5347 Rain 24 1006 100 5000 5.1 220 02:31 11.07.2019
5348 Rain 24 1005 94 8000 6.2 210 00:42 11.07.2019
5349 Rain 25 1005 83 9000 5.7 200 23:51 10.07.2019
5350 Rain 25 1005 83 9000 5.7 200 23:28 10.07.2019
5351 Rain 24 1004 89 0 9.78 219.467 22:58 10.07.2019
5352 Clouds 26 1002 78 10000 11.3 210 22:26 10.07.2019
5353 Clouds 26 1002 78 10000 11.3 210 21:57 10.07.2019
5354 Clouds 26 1002 78 10000 11.3 210 21:57 10.07.2019
5355 Clouds 26 1002 78 10000 11.3 210 21:39 10.07.2019
5356 Clouds 26 1002 78 10000 11.3 210 21:21 10.07.2019
5357 Rain 26 1002 83 10000 8.2 190 20:47 10.07.2019
5358 Rain 26 1002 83 10000 8.2 190 20:26 10.07.2019
5359 Rain 26 1002 83 4000 4.1 170 19:58 10.07.2019
5360 Rain 26 1002 83 4000 4.1 170 19:40 10.07.2019
5361 Clouds 27 1003 74 10000 6.7 180 19:20 10.07.2019
5362 Clouds 27 1003 74 10000 6.7 180 18:46 10.07.2019
5363 Clouds 27 1003 74 10000 6.7 180 18:23 10.07.2019
5364 Rain 27 1002 88 0 8.49 180 17:47 10.07.2019
5365 Rain 27 1002 88 0 8.49 180 17:29 10.07.2019
5366 Rain 27 1002 88 0 8.49 180 16:47 10.07.2019
5367 Rain 27 1002 88 0 8.49 180 16:47 10.07.2019
5368 Rain 27 1002 88 0 8.49 180 16:21 10.07.2019
5369 Rain 26 1003 83 10000 8.7 150 15:47 10.07.2019
5370 Rain 26 1003 88 10000 8.7 180 15:26 10.07.2019
5371 Rain 26 1003 88 10000 8.7 180 14:48 10.07.2019
5372 Rain 26 1003 88 10000 8.7 180 14:29 10.07.2019
5373 Rain 26 1002 94 9000 8.2 160 13:59 10.07.2019
5374 Rain 26 1002 94 9000 8.2 160 13:36 10.07.2019
5375 Rain 26 1002 94 10000 7.7 150 13:18 10.07.2019
5376 Rain 26 1001 94 10000 7.7 130 12:40 10.07.2019
5377 Rain 25 1001 94 10000 7.2 140 12:21 10.07.2019
5378 Rain 26 1001 94 10000 7.2 140 11:49 10.07.2019
5379 Rain 26 1001 94 10000 7.2 140 11:22 10.07.2019
5380 Rain 25 1001 100 10000 9.3 140 10:58 10.07.2019
5381 Rain 25 1001 100 10000 9.3 140 10:24 10.07.2019
5382 Rain 24 1002 78 5000 4.1 120 09:55 10.07.2019
5383 Rain 24 1002 78 5000 4.1 120 09:55 10.07.2019
5384 Rain 24 1001 100 8000 8.2 140 09:36 10.07.2019
5385 Rain 24 1001 100 5000 5.1 130 09:18 10.07.2019
5386 Rain 23 1001 100 4000 5.7 130 08:45 10.07.2019
5387 Rain 23 1002 100 4000 6.2 120 08:22 10.07.2019
5388 Rain 23 1001 100 4000 7.7 110 07:45 10.07.2019
5389 Rain 23 1001 100 4000 7.7 110 07:23 10.07.2019
5390 Rain 23 1002 94 3500 6.2 110 06:33 10.07.2019
5391 Rain 24 1003 94 6000 5.1 120 05:40 10.07.2019
5392 Rain 25 1003 94 6000 5.7 110 04:30 10.07.2019
5393 Clouds 24 1003 94 10000 1 0 01:49 10.07.2019
5394 Clouds 24 1003 94 10000 1 0 01:49 10.07.2019
5395 Clouds 24 1003 94 10000 1 0 00:43 10.07.2019
5396 Clouds 23 1004 100 10000 1.5 110 23:42 09.07.2019
5397 Clouds 23 1004 100 10000 1.5 110 23:23 09.07.2019
5398 Rain 24 1003 94 0 2.24 240 22:54 09.07.2019
5399 Clouds 23 1003 73 10000 3.6 40 22:36 09.07.2019
5400 Clouds 23 1003 73 10000 3.6 40 22:18 09.07.2019
5401 Clouds 23 1003 73 10000 3.6 40 21:43 09.07.2019
5402 Clouds 23 1003 73 10000 3.6 40 21:24 09.07.2019
5403 Clouds 23 1003 78 10000 3.6 40 20:44 09.07.2019
5404 Clouds 23 1003 78 10000 3.6 40 20:25 09.07.2019
5405 Clouds 23 1003 78 10000 2.6 30 19:43 09.07.2019
5406 Clouds 23 1003 78 10000 2.6 30 19:24 09.07.2019
5407 Rain 24 1003 73 10000 3.1 40 18:49 09.07.2019
5408 Rain 24 1003 73 10000 3.1 40 18:49 09.07.2019
5409 Rain 24 1003 73 10000 3.1 40 18:27 09.07.2019
5410 Clouds 24 1005 94 0 2.24 240 17:57 09.07.2019
5411 Clouds 24 1005 94 0 2.24 240 17:39 09.07.2019
5412 Clouds 24 1003 94 0 2.24 240 17:20 09.07.2019
5413 Clouds 24 1003 94 0 2.24 240 16:50 09.07.2019
5414 Clouds 24 1003 94 0 2.24 240 16:25 09.07.2019
5415 Clouds 24 1003 94 0 2.24 240 15:55 09.07.2019
5416 Rain 24 1003 94 10000 2.6 240 15:36 09.07.2019
5417 Rain 24 1003 94 10000 2.6 240 14:59 09.07.2019
5418 Rain 24 1003 94 10000 2.6 240 14:39 09.07.2019
5419 Clouds 25 1003 88 10000 1 0 14:19 09.07.2019
5420 Clouds 25 1003 88 10000 1 0 13:45 09.07.2019
5421 Clouds 25 1003 88 10000 1 0 13:27 09.07.2019
5422 Rain 25 1003 88 10000 3.6 280 12:42 09.07.2019
5423 Rain 25 1003 88 10000 3.6 280 12:23 09.07.2019
5424 Rain 25 1002 88 10000 5.1 320 11:58 09.07.2019
5425 Rain 25 1002 88 10000 5.1 320 11:40 09.07.2019
5426 Rain 25 1002 88 10000 5.1 320 11:21 09.07.2019
5427 Clouds 26 1002 83 10000 4.1 330 10:55 09.07.2019
5428 Clouds 26 1002 83 10000 4.1 330 10:33 09.07.2019
5429 Clouds 27 1002 83 10000 4.1 320 09:48 09.07.2019
5430 Clouds 27 1002 83 10000 4.1 320 09:29 09.07.2019
5431 Clouds 27 1002 78 10000 4.1 350 08:57 09.07.2019
5432 Clouds 27 1002 78 10000 4.1 350 08:39 09.07.2019
5433 Clear 25 1002 78 10000 1.5 240 04:18 05.07.2019
5434 Clear 25 1002 78 10000 1.5 240 03:38 05.07.2019
5435 Clear 25 1002 83 10000 2.6 250 03:19 05.07.2019
5436 Clear 24 1002 83 10000 2.6 250 02:45 05.07.2019
5437 Clear 24 1002 83 10000 2.1 220 01:42 05.07.2019
5438 Clear 24 1002 83 10000 2.1 220 01:23 05.07.2019
5439 Clear 23 1002 88 10000 1.5 230 00:46 05.07.2019
5440 Clouds 21 1003 100 8000 1 70 23:56 04.07.2019
5441 Clouds 21 1003 100 8000 1 70 23:21 04.07.2019
5442 Clouds 24 1004 88 0 2.24 300 22:57 04.07.2019
5443 Clouds 24 1004 88 0 2.24 300 22:39 04.07.2019
5444 Clouds 22 1002 94 7000 2.6 320 22:18 04.07.2019
5445 Clouds 22 1002 94 7000 2.6 320 21:40 04.07.2019
5446 Clouds 22 1002 94 7000 2.6 320 21:22 04.07.2019
5447 Clouds 23 1002 88 6000 3.1 10 20:54 04.07.2019
5448 Clouds 23 1002 88 6000 3.1 10 20:36 04.07.2019
5449 Clear 22 1003 94 10000 2.6 340 20:18 04.07.2019
5450 Clear 22 1003 94 10000 2.6 340 19:41 04.07.2019
5451 Clouds 23 1004 94 7000 1.5 310 19:20 04.07.2019
5452 Clouds 23 1004 94 7000 1.5 310 18:44 04.07.2019
5453 Clouds 23 1004 94 7000 1.5 310 18:25 04.07.2019
5454 Clouds 24 1004 88 0 2.24 300 17:47 04.07.2019
5455 Clouds 24 1004 88 0 2.24 300 17:19 04.07.2019
5456 Clouds 24 1004 88 0 2.24 300 15:59 04.07.2019
5457 Clouds 24 1004 88 0 2.24 300 15:41 04.07.2019
5458 Clear 24 1004 88 10000 2.6 300 15:22 04.07.2019
5459 Clear 24 1004 88 10000 2.6 300 14:56 04.07.2019
5460 Clear 24 1004 88 10000 2.6 300 14:37 04.07.2019
5461 Clear 25 1004 88 10000 2.6 310 14:18 04.07.2019
5462 Clear 25 1004 88 10000 2.6 310 14:18 04.07.2019
5463 Clear 25 1004 88 10000 2.6 310 13:54 04.07.2019
5464 Clear 25 1004 88 10000 2.6 310 13:54 04.07.2019
5465 Clear 25 1004 88 10000 2.6 310 13:36 04.07.2019
5466 Clear 26 1004 83 10000 2.6 310 13:18 04.07.2019
5467 Clear 26 1004 83 10000 2.6 310 12:37 04.07.2019
5468 Clouds 27 1003 78 10000 4.1 350 12:19 04.07.2019
5469 Clouds 27 1003 78 10000 4.1 350 11:39 04.07.2019
5470 Clouds 28 1003 58 10000 0.5 0 11:19 04.07.2019
5471 Clouds 28 1003 58 10000 0.5 0 11:19 04.07.2019
5472 Clouds 28 1003 58 10000 0.5 0 10:40 04.07.2019
5473 Clouds 29 1003 58 10000 0.5 0 10:22 04.07.2019
5474 Clouds 29 1004 58 10000 1.5 220 09:45 04.07.2019
5475 Clouds 29 1004 58 10000 1.5 220 09:26 04.07.2019
5476 Clouds 28 1004 65 10000 2.1 230 08:57 04.07.2019
5477 Clouds 28 1004 65 10000 2.1 230 08:56 04.07.2019
5478 Clouds 28 1004 65 10000 2.1 230 08:25 04.07.2019
5479 Clouds 27 1005 74 10000 2.6 250 07:46 04.07.2019
5480 Clouds 27 1005 74 10000 2.6 250 07:23 04.07.2019
5481 Clouds 27 1005 74 10000 1 0 06:55 04.07.2019
5482 Clouds 26 1006 83 10000 1.5 10 05:52 04.07.2019
5483 Clouds 26 1006 83 10000 1.5 10 05:33 04.07.2019
5484 Clouds 23 1006 94 10000 0.5 0 02:51 04.07.2019
5485 Clouds 22 1006 100 9000 1.5 170 01:42 04.07.2019
5486 Clouds 22 1006 100 9000 1.5 170 01:42 04.07.2019
5487 Clouds 22 1006 100 9000 1.5 170 01:22 04.07.2019
5488 Clouds 22 1006 100 9000 0.5 0 23:59 03.07.2019
5489 Clouds 22 1006 100 9000 1 90 23:41 03.07.2019
5490 Clouds 22 1006 100 9000 1 90 23:20 03.07.2019
5491 Clouds 22 1005 94 0 1.34 50 22:55 03.07.2019
5492 Clouds 21 1006 100 10000 1.5 30 22:36 03.07.2019
5493 Clouds 21 1006 100 10000 1.5 30 22:18 03.07.2019
5494 Clouds 21 1006 100 10000 1.5 30 21:45 03.07.2019
5495 Clouds 21 1006 100 10000 1.5 30 21:26 03.07.2019
5496 Clouds 22 1005 94 10000 0.5 360 20:46 03.07.2019
5497 Clouds 22 1005 94 10000 0.5 360 20:24 03.07.2019
5498 Clouds 21 1006 100 10000 0.5 0 19:51 03.07.2019
5499 Clouds 21 1006 100 10000 0.5 0 19:32 03.07.2019
5500 Clouds 21 1005 100 10000 1 360 18:50 03.07.2019
5501 Clouds 21 1005 100 10000 1 360 18:30 03.07.2019
5502 Rain 22 1005 94 0 1.34 50 17:58 03.07.2019
5503 Rain 22 1005 94 0 1.34 50 17:39 03.07.2019
5504 Rain 22 1005 94 0 1.34 50 17:18 03.07.2019
5505 Rain 22 1005 94 0 1.34 50 16:44 03.07.2019
5506 Rain 22 1005 94 0 1.34 50 16:22 03.07.2019
5507 Rain 22 1005 94 0 1.34 50 15:50 03.07.2019
5508 Clouds 22 1005 94 10000 1.5 50 15:31 03.07.2019
5509 Clouds 22 1005 94 10000 1.5 50 14:58 03.07.2019
5510 Clouds 22 1005 94 10000 1.5 50 14:38 03.07.2019
5511 Rain 23 1005 94 10000 1 0 14:19 03.07.2019
5512 Rain 23 1005 94 10000 1 0 13:40 03.07.2019
5513 Clouds 23 1005 94 10000 3.1 180 13:18 03.07.2019
5514 Rain 23 1005 94 10000 3.1 180 12:43 03.07.2019
5515 Rain 23 1004 94 8000 9.3 140 12:18 03.07.2019
5516 Rain 23 1005 94 10000 7.2 140 11:42 03.07.2019
5517 Rain 23 1005 94 10000 7.2 140 11:21 03.07.2019
5518 Rain 23 1005 94 10000 4.1 120 10:43 03.07.2019
5519 Rain 23 1005 94 10000 4.1 120 10:24 03.07.2019
5520 Rain 23 1005 100 9000 2.6 140 09:55 03.07.2019
5521 Rain 23 1005 100 9000 2.6 140 09:36 03.07.2019
5522 Rain 23 1006 94 10000 1 0 09:18 03.07.2019
5523 Rain 23 1006 94 10000 1 0 08:41 03.07.2019
5524 Rain 23 1006 94 10000 1 0 08:22 03.07.2019
5525 Rain 23 1005 100 10000 7.2 160 07:38 03.07.2019
5526 Rain 23 1004 100 10000 7.7 130 06:56 03.07.2019
5527 Rain 22 1007 100 8000 2.91 66.799 05:57 03.07.2019
5528 Rain 22 1007 100 5000 1 0 05:27 03.07.2019
5529 Rain 22 1008 100 7000 0.5 0 03:58 03.07.2019
5530 Rain 22 1008 100 8000 0.5 0 02:55 03.07.2019
5531 Rain 21 1009 100 6000 1.5 330 01:39 03.07.2019
5532 Rain 21 1008 100 5000 1 0 01:21 03.07.2019
5533 Rain 21 1009 100 4500 2.6 140 00:40 03.07.2019
5534 Rain 21 1009 100 4000 1.5 90 23:55 02.07.2019
5535 Rain 21 1009 100 4000 1.5 90 23:37 02.07.2019
5536 Rain 22 1010 94 0 1.34 130 23:18 02.07.2019
5537 Rain 22 1010 94 0 1.34 130 22:41 02.07.2019
5538 Clouds 22 1009 100 6000 2.1 10 22:23 02.07.2019
5539 Clouds 22 1009 100 6000 2.1 10 21:58 02.07.2019
5540 Clouds 22 1009 100 6000 2.1 10 21:39 02.07.2019
5541 Clouds 22 1010 100 6000 0.5 0 21:20 02.07.2019
5542 Clouds 22 1010 100 6000 0.5 0 20:42 02.07.2019
5543 Clouds 22 1010 100 6000 0.5 0 20:24 02.07.2019
5544 Clouds 22 1010 100 6000 0.5 0 20:24 02.07.2019
5545 Mist 22 1010 94 5000 1 340 20:00 02.07.2019
5546 Mist 22 1010 94 5000 1 340 19:40 02.07.2019
5547 Clouds 23 1010 94 7000 1 0 19:21 02.07.2019
5548 Clouds 22 1010 94 7000 1 0 18:45 02.07.2019
5549 Clouds 22 1010 94 7000 1 0 18:18 02.07.2019
5550 Clouds 22 1010 94 0 1.34 130 17:41 02.07.2019
5551 Clouds 22 1010 94 0 1.34 130 17:22 02.07.2019
5552 Clouds 22 1010 94 0 1.34 130 16:49 02.07.2019
5553 Clouds 22 1010 94 0 1.34 130 16:31 02.07.2019
5554 Clouds 22 1010 94 0 1.34 130 15:45 02.07.2019
5555 Rain 22 1010 94 8000 1.5 130 15:25 02.07.2019
5556 Rain 22 1010 94 8000 1.5 130 15:25 02.07.2019
5557 Rain 22 1010 94 8000 1.5 130 14:54 02.07.2019
5558 Rain 22 1010 94 8000 1.5 130 14:36 02.07.2019
5559 Rain 22 1009 94 9000 3.6 170 13:56 02.07.2019
5560 Rain 22 1009 94 9000 3.6 170 13:36 02.07.2019
5561 Rain 23 1010 100 9000 3.1 340 13:18 02.07.2019
5562 Rain 23 1010 100 9000 3.1 340 12:43 02.07.2019
5563 Rain 23 1009 94 10000 1.5 290 12:21 02.07.2019
5564 Rain 23 1009 94 10000 1.5 290 11:42 02.07.2019
5565 Rain 23 1009 94 10000 2.6 360 11:22 02.07.2019
5566 Rain 23 1009 94 10000 2.6 360 10:47 02.07.2019
5567 Rain 23 1009 94 10000 2.6 360 10:26 02.07.2019
5568 Rain 23 1009 94 10000 2.6 350 09:46 02.07.2019
5569 Rain 23 1009 94 10000 1.5 240 09:22 02.07.2019
5570 Rain 23 1009 94 10000 1.5 240 08:43 02.07.2019
5571 Rain 23 1010 94 10000 3.1 290 08:23 02.07.2019
5572 Rain 23 1010 94 10000 3.1 290 07:54 02.07.2019
5573 Rain 23 1010 94 10000 3.1 290 07:21 02.07.2019
5574 Rain 23 1009 94 8000 2.1 10 06:51 02.07.2019
5575 Rain 23 1010 94 9000 1.5 300 06:30 02.07.2019
5576 Rain 22 1009 94 9000 1.5 320 04:58 02.07.2019
5577 Rain 21 1009 100 6000 3.1 30 02:26 02.07.2019
5578 Rain 21 1008 100 2500 3.6 350 23:55 01.07.2019
5579 Rain 21 1008 100 2500 3.6 350 23:24 01.07.2019
5580 Clouds 21 1007 94 0 4.92 130 22:47 01.07.2019
5581 Rain 21 1008 94 1500 1 320 22:27 01.07.2019
5582 Rain 21 1008 94 1500 1 320 21:48 01.07.2019
5583 Rain 21 1008 94 1500 1 320 21:28 01.07.2019
5584 Rain 21 1007 94 2000 2.6 10 20:53 01.07.2019
5585 Rain 21 1007 94 2000 2.6 10 20:53 01.07.2019
5586 Rain 21 1007 94 2000 2.6 10 20:23 01.07.2019
5587 Rain 21 1007 94 3000 2.1 360 19:59 01.07.2019
5588 Rain 21 1007 94 3000 2.1 360 19:41 01.07.2019
5589 Rain 21 1008 94 5000 2.1 360 19:23 01.07.2019
5590 Rain 21 1008 94 5000 2.1 360 18:53 01.07.2019
5591 Rain 21 1008 94 5000 2.1 360 18:31 01.07.2019
5592 Rain 21 1007 94 0 4.92 130 18:00 01.07.2019
5593 Rain 21 1007 94 0 4.92 130 17:41 01.07.2019
5594 Rain 21 1007 94 0 4.92 130 17:21 01.07.2019
5595 Rain 21 1007 94 0 4.92 130 16:47 01.07.2019
5596 Rain 21 1007 94 0 4.92 130 16:26 01.07.2019
5597 Rain 21 1007 94 0 4.92 130 16:26 01.07.2019
5598 Rain 21 1007 94 0 4.92 130 15:55 01.07.2019
5599 Rain 21 1007 94 0 4.92 130 15:36 01.07.2019
5600 Rain 21 1007 94 8000 5.1 130 15:18 01.07.2019
5601 Rain 21 1007 94 8000 5.1 130 14:42 01.07.2019
5602 Rain 21 1007 94 8000 5.1 130 14:19 01.07.2019
5603 Rain 21 1007 100 10000 3.6 150 13:41 01.07.2019
5604 Rain 21 1007 100 10000 3.6 150 13:22 01.07.2019
5605 Rain 21 1007 94 7000 2.1 140 12:49 01.07.2019
5606 Rain 21 1007 100 4000 1 0 12:30 01.07.2019
5607 Rain 22 1008 94 4000 3.6 330 11:59 01.07.2019
5608 Rain 22 1007 94 6000 4.6 340 11:39 01.07.2019
5609 Rain 22 1007 94 6000 4.6 340 11:19 01.07.2019
5610 Rain 23 1008 94 7000 2.1 290 10:47 01.07.2019
5611 Rain 23 1006 88 10000 1 0 10:23 01.07.2019
5612 Rain 23 1006 83 10000 2.1 170 09:45 01.07.2019
5613 Rain 23 1006 83 10000 2.1 170 09:27 01.07.2019
5614 Rain 23 1006 88 10000 0.5 0 08:59 01.07.2019
5615 Rain 23 1006 88 10000 0.5 0 08:37 01.07.2019
5616 Clouds 23 1007 83 10000 0.5 0 07:39 01.07.2019
5617 Rain 23 1007 88 10000 2.6 140 06:52 01.07.2019
5618 Rain 23 1007 88 10000 3.6 160 05:34 01.07.2019
5619 Rain 23 1005 100 6000 3.6 100 01:27 01.07.2019
5620 Rain 23 1005 100 6000 2.6 150 00:44 01.07.2019
5621 Rain 23 1005 100 6000 2.6 150 00:22 01.07.2019
5622 Rain 22 1005 100 6000 0.5 0 23:39 30.06.2019
5623 Rain 22 1005 100 6000 0.5 0 23:18 30.06.2019
5624 Clouds 22 1004 100 0 2.06 288.523 22:39 30.06.2019
5625 Clouds 22 1004 94 10000 1 50 22:19 30.06.2019
5626 Clouds 22 1004 94 10000 1 50 21:41 30.06.2019
5627 Clouds 22 1004 94 10000 1 50 21:41 30.06.2019
5628 Clouds 22 1004 100 10000 1 110 21:19 30.06.2019
5629 Clouds 22 1004 100 10000 1 110 20:54 30.06.2019
5630 Clouds 22 1004 100 10000 1 110 20:36 30.06.2019
5631 Clouds 22 1004 100 10000 1 110 20:18 30.06.2019
5632 Clouds 22 1004 100 10000 1.5 80 19:42 30.06.2019
5633 Clouds 22 1004 100 10000 1.5 80 19:24 30.06.2019
5634 Clouds 22 1004 100 10000 1 80 18:26 30.06.2019
5635 Rain 22 1004 100 0 3.73 269.555 17:56 30.06.2019
5636 Rain 22 1004 100 0 3.73 269.555 17:37 30.06.2019
5637 Rain 22 1004 100 0 3.73 269.555 17:18 30.06.2019
5638 Rain 22 1004 100 0 3.73 269.555 16:44 30.06.2019
5639 Rain 22 1004 100 0 3.73 269.555 16:25 30.06.2019
5640 Rain 22 1004 100 0 3.73 269.555 15:37 30.06.2019
5641 Rain 22 1004 100 10000 1 0 15:18 30.06.2019
5642 Rain 22 1004 100 10000 1 0 14:50 30.06.2019
5643 Rain 22 1004 100 10000 1 0 14:50 30.06.2019
5644 Rain 22 1004 100 10000 1 0 14:29 30.06.2019
5645 Rain 22 1005 100 8000 2.1 280 13:47 30.06.2019
5646 Rain 23 1004 94 4000 2.6 280 13:25 30.06.2019
5647 Rain 23 1004 94 6000 1.5 360 12:52 30.06.2019
5648 Rain 23 1004 94 10000 0.5 0 12:27 30.06.2019
5649 Rain 24 1004 94 6000 2.6 290 11:56 30.06.2019
5650 Rain 24 1003 94 10000 1 0 11:38 30.06.2019
5651 Rain 24 1003 94 10000 1 0 11:18 30.06.2019
5652 Rain 24 1004 100 6000 1 0 10:42 30.06.2019
5653 Rain 24 1003 94 8000 1 170 10:19 30.06.2019
5654 Rain 24 1003 100 9000 1.5 170 09:44 30.06.2019
5655 Rain 24 1003 100 9000 1.5 170 09:44 30.06.2019
5656 Rain 24 1003 100 9000 1.5 170 09:23 30.06.2019
5657 Rain 24 1002 100 10000 0.5 0 08:59 30.06.2019
5658 Rain 24 1002 100 10000 0.5 0 08:38 30.06.2019
5659 Rain 24 1002 100 10000 0.5 0 08:18 30.06.2019
5660 Rain 24 1002 100 10000 3.6 10 07:37 30.06.2019
5661 Rain 24 1002 100 10000 3.6 10 07:18 30.06.2019
5662 Rain 25 1003 94 10000 3.6 250 05:54 30.06.2019
5663 Rain 25 1001 94 10000 1 0 02:59 30.06.2019
5664 Clouds 25 1001 100 10000 5.7 250 01:30 30.06.2019
5665 Rain 25 1000 100 10000 4.6 260 00:38 30.06.2019
5666 Rain 25 1000 94 6000 4.6 240 23:56 29.06.2019
5667 Rain 25 1000 94 6000 4.6 240 23:25 29.06.2019
5668 Rain 27 1000 88 0 11.18 210 22:58 29.06.2019
5669 Rain 27 1000 88 0 11.18 210 22:40 29.06.2019
5670 Clouds 26 998 94 10000 8.2 260 22:21 29.06.2019
5671 Clouds 26 998 94 10000 8.2 260 21:49 29.06.2019
5672 Clouds 26 998 94 10000 8.2 260 21:23 29.06.2019
5673 Clouds 27 999 88 10000 7.2 240 20:42 29.06.2019
5674 Clouds 27 999 88 10000 7.2 240 20:24 29.06.2019
5675 Clouds 27 998 88 10000 11.3 230 19:48 29.06.2019
5676 Clouds 27 998 88 10000 11.3 230 19:24 29.06.2019
5677 Clouds 26 999 94 10000 8.2 200 18:51 29.06.2019
5678 Clouds 26 999 94 10000 8.2 200 18:26 29.06.2019
5679 Rain 27 1000 88 0 11.18 210 17:43 29.06.2019
5680 Rain 27 1000 88 0 11.18 210 17:24 29.06.2019
5681 Rain 27 1000 88 0 11.18 210 17:24 29.06.2019
5682 Rain 27 1000 88 0 11.18 210 16:58 29.06.2019
5683 Rain 27 1000 88 0 11.18 210 16:39 29.06.2019
5684 Rain 27 1000 88 0 11.18 210 15:53 29.06.2019
5685 Rain 27 1000 88 10000 11.3 210 15:30 29.06.2019
5686 Rain 27 1000 88 10000 11.3 210 14:44 29.06.2019
5687 Rain 27 1000 88 10000 11.3 210 14:26 29.06.2019
5688 Rain 28 1000 83 10000 10.8 200 13:47 29.06.2019
5689 Rain 28 1000 83 10000 10.8 200 13:27 29.06.2019
5690 Clouds 27 1000 83 10000 10.3 210 12:53 29.06.2019
5691 Clouds 27 1000 83 10000 10.3 210 12:34 29.06.2019
5692 Clouds 27 999 83 10000 10.3 210 11:55 29.06.2019
5693 Clouds 27 999 83 10000 10.3 210 11:37 29.06.2019
5694 Clouds 27 999 83 10000 10.3 210 11:19 29.06.2019
5695 Clouds 27 999 83 10000 12.3 210 10:39 29.06.2019
5696 Clouds 27 999 83 10000 12.3 210 10:20 29.06.2019
5697 Clouds 27 1000 83 10000 11.3 210 09:45 29.06.2019
5698 Rain 27 1000 83 10000 10.3 220 08:51 29.06.2019
5699 Rain 27 1000 83 10000 10.3 220 08:22 29.06.2019
5700 Rain 26 1000 94 10000 7.2 220 07:44 29.06.2019
5701 Rain 26 1001 88 10000 1.5 220 06:47 29.06.2019
5702 Rain 26 1001 88 10000 1.5 220 06:24 29.06.2019
5703 Rain 26 1001 88 10000 1.5 220 06:24 29.06.2019
5704 Clouds 25 1001 88 10000 3.6 130 02:51 29.06.2019
5705 Rain 25 1001 88 10000 4.1 130 01:22 29.06.2019
5706 Clouds 25 1002 88 10000 2.6 110 00:29 29.06.2019
5707 Clouds 24 1002 94 10000 3.6 120 23:36 28.06.2019
5708 Clouds 25 1002 94 10000 3.6 120 23:18 28.06.2019
5709 Clouds 25 1003 88 0 1.79 240 22:44 28.06.2019
5710 Clouds 25 1002 88 10000 5.1 200 21:58 28.06.2019
5711 Clouds 25 1002 88 10000 5.1 200 21:26 28.06.2019
5712 Clouds 25 1002 88 10000 5.1 190 20:49 28.06.2019
5713 Clouds 25 1002 88 10000 5.1 190 20:29 28.06.2019
5714 Clouds 25 1002 88 10000 4.6 200 19:57 28.06.2019
5715 Clouds 25 1002 88 10000 4.6 200 19:37 28.06.2019
5716 Clouds 25 1002 88 10000 4.6 200 19:18 28.06.2019
5717 Clouds 25 1003 88 10000 3.6 220 18:40 28.06.2019
5718 Clouds 25 1003 88 10000 3.6 220 18:20 28.06.2019
5719 Clouds 25 1003 88 0 1.79 240 17:33 28.06.2019
5720 Clouds 25 1003 88 0 1.79 240 16:54 28.06.2019
5721 Clouds 25 1003 88 0 1.79 240 16:29 28.06.2019
5722 Clouds 25 1003 88 0 1.79 240 15:49 28.06.2019
5723 Clouds 25 1003 88 10000 2.1 240 15:26 28.06.2019
5724 Clouds 25 1003 88 10000 2.1 240 14:57 28.06.2019
5725 Clouds 25 1003 88 10000 2.1 240 14:57 28.06.2019
5726 Clouds 25 1003 88 10000 2.1 240 14:38 28.06.2019
5727 Clouds 25 1003 88 10000 2.1 240 14:20 28.06.2019
5728 Clouds 25 1003 94 10000 3.1 250 13:44 28.06.2019
5729 Clouds 25 1003 94 10000 3.1 250 13:22 28.06.2019
5730 Clouds 26 1002 88 10000 4.1 250 12:49 28.06.2019
5731 Clouds 26 1002 88 10000 4.1 250 12:24 28.06.2019
5732 Clouds 26 1001 88 10000 4.6 250 11:28 28.06.2019
5733 Clouds 27 1001 83 10000 5.1 240 10:47 28.06.2019
5734 Clouds 27 1001 83 10000 5.1 240 10:23 28.06.2019
5735 Rain 27 1001 94 10000 1.5 230 09:49 28.06.2019
5736 Rain 27 1001 78 10000 3.6 250 09:31 28.06.2019
5737 Rain 29 1001 79 10000 6.2 270 08:50 28.06.2019
5738 Rain 29 1001 79 10000 6.2 270 08:27 28.06.2019
5739 Rain 28 1001 78 10000 2.1 250 07:58 28.06.2019
5740 Rain 28 1001 78 10000 2.1 250 07:40 28.06.2019
5741 Clouds 28 1001 78 10000 3.1 150 06:33 28.06.2019
5742 Rain 25 1003 100 10000 2.1 120 02:26 28.06.2019
5743 Rain 24 1003 100 6000 3.6 120 00:44 28.06.2019
5744 Rain 24 1003 100 5000 3.6 110 23:57 27.06.2019
5745 Rain 24 1003 100 5000 3.6 110 23:57 27.06.2019
5746 Rain 24 1003 100 3000 3.6 130 23:39 27.06.2019
5747 Rain 24 1003 100 3000 3.6 130 23:20 27.06.2019
5748 Rain 25 1003 83 0 2.24 190 22:41 27.06.2019
5749 Clouds 24 1003 94 10000 4.1 150 22:23 27.06.2019
5750 Clouds 24 1003 94 10000 4.1 150 21:49 27.06.2019
5751 Clouds 25 1003 94 10000 4.1 150 21:31 27.06.2019
5752 Clouds 24 1003 94 10000 5.1 160 20:58 27.06.2019
5753 Clouds 24 1003 94 10000 5.1 160 20:40 27.06.2019
5754 Clouds 25 1003 94 10000 5.1 160 20:21 27.06.2019
5755 Clouds 25 1003 88 10000 5.7 200 19:46 27.06.2019
5756 Clouds 25 1003 88 10000 5.7 200 19:25 27.06.2019
5757 Clouds 25 1003 88 10000 4.6 180 18:44 27.06.2019
5758 Clouds 25 1003 88 10000 4.6 180 18:25 27.06.2019
5759 Clear 25 1003 83 0 2.24 190 17:46 27.06.2019
5760 Clear 25 1003 83 0 2.24 190 17:23 27.06.2019
5761 Clear 25 1003 83 0 2.24 190 16:41 27.06.2019
5762 Clear 25 1003 83 0 2.24 190 16:20 27.06.2019
5763 Clear 25 1003 83 0 2.24 190 15:59 27.06.2019
5764 Clear 25 1003 83 0 2.24 190 15:40 27.06.2019
5765 Clouds 25 1003 83 10000 2.6 190 14:59 27.06.2019
5766 Clouds 25 1003 83 10000 2.6 190 14:40 27.06.2019
5767 Clouds 25 1003 83 10000 2.6 190 14:22 27.06.2019
5768 Clouds 25 1003 83 10000 2.6 230 13:44 27.06.2019
5769 Clouds 25 1003 83 10000 2.6 230 13:26 27.06.2019
5770 Clouds 25 1002 88 10000 2.6 230 12:49 27.06.2019
5771 Clouds 25 1002 88 10000 2.6 230 12:31 27.06.2019
5772 Clouds 26 1001 83 10000 3.6 270 11:49 27.06.2019
5773 Clouds 26 1001 83 10000 3.6 270 11:25 27.06.2019
5774 Clouds 26 1001 78 10000 4.1 240 10:59 27.06.2019
5775 Clouds 26 1001 78 10000 4.1 240 10:41 27.06.2019
5776 Clouds 26 1001 78 10000 4.1 240 10:20 27.06.2019
5777 Rain 26 1001 78 10000 3.6 240 09:41 27.06.2019
5778 Rain 27 1001 78 10000 3.6 240 09:21 27.06.2019
5779 Rain 26 1001 83 10000 4.1 240 08:50 27.06.2019
5780 Rain 27 1001 83 10000 4.1 240 08:28 27.06.2019
5781 Rain 26 1001 88 10000 4.6 250 07:48 27.06.2019
5782 Rain 27 1001 78 10000 4.6 240 06:59 27.06.2019
5783 Rain 27 1001 78 10000 4.6 240 06:37 27.06.2019
5784 Rain 25 1002 94 8000 6.2 230 03:52 27.06.2019
5785 Rain 25 1002 94 5000 4.6 210 02:43 27.06.2019
5786 Rain 25 1001 94 10000 10.3 210 01:39 27.06.2019
5787 Rain 25 1001 94 3000 12.3 160 00:52 27.06.2019
5788 Rain 25 1000 94 8000 12.9 200 00:26 27.06.2019
5789 Rain 24 1000 100 6000 12.3 150 23:51 26.06.2019
5790 Rain 24 1000 94 2000 14.4 130 23:23 26.06.2019
5791 Rain 24 1006 100 0 6.71 150 22:58 26.06.2019
5792 Rain 23 1003 100 10000 3.1 70 22:40 26.06.2019
5793 Rain 24 1006 100 0 6.71 150 22:40 26.06.2019
5794 Rain 23 1003 100 10000 3.1 70 22:19 26.06.2019
5795 Rain 23 1003 100 10000 3.1 70 21:42 26.06.2019
5796 Rain 24 1003 100 10000 3.1 70 21:21 26.06.2019
5797 Rain 23 1004 100 3000 3.1 90 20:57 26.06.2019
5798 Rain 24 1004 100 3000 3.1 90 20:37 26.06.2019
5799 Rain 24 1004 100 3000 3.1 90 20:19 26.06.2019
5800 Rain 24 1004 94 8000 1.5 30 19:42 26.06.2019
5801 Rain 24 1004 94 8000 1.5 30 19:23 26.06.2019
5802 Rain 24 1005 94 10000 2.1 50 18:46 26.06.2019
5803 Rain 24 1005 94 10000 2.1 50 18:22 26.06.2019
5804 Rain 24 1006 100 0 6.71 150 17:57 26.06.2019
5805 Rain 24 1006 100 0 6.71 150 17:37 26.06.2019
5806 Rain 24 1009 100 0 6.71 150 17:18 26.06.2019
5807 Rain 24 1009 100 0 6.71 150 16:46 26.06.2019
5808 Rain 24 1009 100 0 6.71 150 16:22 26.06.2019
5809 Rain 24 1009 100 0 6.71 150 15:37 26.06.2019
5810 Rain 24 1006 100 10000 6.7 150 15:19 26.06.2019
5811 Rain 24 1006 100 10000 6.7 150 14:38 26.06.2019
5812 Rain 24 1006 100 10000 6.7 150 14:19 26.06.2019
5813 Rain 24 1007 100 10000 6.2 140 13:42 26.06.2019
5814 Rain 24 1007 100 10000 6.2 140 13:20 26.06.2019
5815 Rain 24 1007 94 10000 4.6 140 12:41 26.06.2019
5816 Rain 24 1007 94 10000 4.6 140 12:22 26.06.2019
5817 Rain 24 1007 94 10000 3.6 110 11:45 26.06.2019
5818 Rain 24 1007 94 10000 3.6 110 11:19 26.06.2019
5819 Rain 24 1007 100 10000 5.1 110 10:41 26.06.2019
5820 Rain 24 1007 100 10000 5.1 110 10:22 26.06.2019
5821 Rain 24 1008 100 2000 4.6 160 09:42 26.06.2019
5822 Rain 24 1008 100 2000 4.6 160 09:18 26.06.2019
5823 Rain 25 1008 94 10000 4.1 140 08:41 26.06.2019
5824 Rain 25 1008 94 10000 4.1 140 08:19 26.06.2019
5825 Rain 25 1008 94 10000 5.7 130 07:45 26.06.2019
5826 Rain 24 1009 94 10000 5.1 140 06:40 26.06.2019
5827 Rain 24 1009 94 10000 5.1 140 06:21 26.06.2019
5828 Clouds 25 1010 73 10000 3.6 140 01:24 26.06.2019
5829 Clouds 24 1010 83 10000 3.6 150 00:24 26.06.2019
5830 Clouds 23 1011 88 10000 5.1 150 23:45 25.06.2019
5831 Clouds 23 1011 88 10000 5.1 150 23:27 25.06.2019
5832 Rain 26 1013 65 0 1.34 360 22:56 25.06.2019
5833 Rain 26 1013 65 0 1.34 360 22:37 25.06.2019
5834 Clouds 24 1011 78 10000 0.5 0 22:19 25.06.2019
5835 Clouds 24 1011 78 10000 0.5 0 21:41 25.06.2019
5836 Clouds 23 1011 78 10000 0.5 0 21:21 25.06.2019
5837 Rain 23 1012 78 10000 1.5 150 20:44 25.06.2019
5838 Rain 23 1012 78 10000 1.5 150 20:44 25.06.2019
5839 Rain 23 1012 78 10000 1.5 150 20:21 25.06.2019
5840 Rain 25 1012 65 10000 3.1 160 19:45 25.06.2019
5841 Rain 25 1012 65 10000 3.1 160 19:45 25.06.2019
5842 Rain 25 1012 65 10000 3.1 160 19:23 25.06.2019
5843 Clouds 25 1013 78 10000 1 180 18:45 25.06.2019
5844 Clouds 25 1013 78 10000 1 180 18:45 25.06.2019
5845 Clouds 25 1013 78 10000 1 180 18:26 25.06.2019
5846 -273 0 0 0 0 0 17:58 25.06.2019
5847 -273 0 0 0 0 0 17:57 25.06.2019
5848 -273 0 0 0 0 0 17:29 25.06.2019
5849 -273 0 0 0 0 0 17:29 25.06.2019
5850 -273 0 0 0 0 0 17:29 25.06.2019
5851 Rain 22 1014 80 0 2.67 229.424 16:57 25.06.2019
5852 Rain 22 1014 80 0 2.67 229.424 16:38 25.06.2019
5853 Rain 22 1014 80 0 2.67 229.424 16:19 25.06.2019
5854 Rain 22 1014 80 0 2.67 229.424 15:40 25.06.2019
5855 Clear 25 1013 65 10000 1.5 360 15:21 25.06.2019
5856 Clear 26 1013 65 10000 1.5 360 14:53 25.06.2019
5857 Clear 26 1013 65 10000 1.5 360 14:35 25.06.2019
5858 Clear 26 1012 57 10000 2.6 260 13:45 25.06.2019
5859 Clear 26 1012 57 10000 2.6 260 13:26 25.06.2019
5860 Clear 28 1012 54 10000 3.6 260 12:44 25.06.2019
5861 Clear 27 1012 54 10000 3.6 260 12:25 25.06.2019
5862 Clear 29 1011 54 10000 5.1 310 11:49 25.06.2019
5863 Clear 29 1011 54 10000 5.1 310 11:26 25.06.2019
5864 Clear 29 1011 54 10000 5.1 310 11:26 25.06.2019
5865 Clouds 29 1011 54 10000 6.2 330 10:59 25.06.2019
5866 Clouds 29 1011 54 10000 6.2 330 10:39 25.06.2019
5867 Clouds 29 1011 54 10000 6.2 330 10:21 25.06.2019
5868 Clouds 30 1011 35 10000 3.1 270 09:40 25.06.2019
5869 Clouds 30 1011 35 10000 3.1 270 09:22 25.06.2019
5870 Clouds 30 1011 40 10000 2.6 290 09:00 25.06.2019
5871 Clouds 30 1011 40 10000 2.6 290 08:32 25.06.2019
5872 Clouds 31 1012 29 10000 1 0 07:58 25.06.2019
5873 Clouds 30 1012 45 10000 1 0 07:36 25.06.2019
5874 Clouds 30 1012 42 10000 1 0 06:52 25.06.2019
5875 Clouds 29 1012 42 10000 1 0 06:25 25.06.2019
5876 Clouds 23 1014 73 10000 1 0 02:45 25.06.2019
5877 Clear 22 1014 78 10000 1.5 180 01:26 25.06.2019
5878 Clear 21 1014 88 10000 0.5 0 00:28 25.06.2019
5879 Clear 19 1014 88 10000 1.5 150 23:53 24.06.2019
5880 Clear 19 1014 88 10000 1.5 150 23:33 24.06.2019
5881 Clear 22 1013 73 0 4.02 310 22:56 24.06.2019
5882 Clear 22 1013 73 0 4.02 310 22:37 24.06.2019
5883 Clear 19 1014 88 10000 2.1 330 22:18 24.06.2019
5884 Clear 20 1014 88 10000 2.1 330 21:38 24.06.2019
5885 Clear 20 1014 88 10000 2.1 330 21:18 24.06.2019
5886 Clear 20 1014 88 10000 1.5 320 20:43 24.06.2019
5887 Clear 20 1014 88 10000 1.5 320 20:23 24.06.2019
5888 Clear 20 1014 82 10000 2.6 320 19:59 24.06.2019
5889 Clear 20 1014 82 10000 2.6 320 19:59 24.06.2019
5890 Clear 20 1014 82 10000 2.6 320 19:40 24.06.2019
5891 Clear 20 1014 82 10000 2.6 320 19:21 24.06.2019
5892 Clear 20 1014 88 10000 1.5 320 18:42 24.06.2019
5893 Clear 20 1014 88 10000 1.5 320 18:23 24.06.2019
5894 Clouds 22 1013 73 0 4.02 310 17:37 24.06.2019
5895 Clouds 22 1013 73 0 4.02 310 17:37 24.06.2019
5896 Clouds 22 1013 73 0 4.02 310 17:18 24.06.2019
5897 Clouds 22 1013 73 0 4.02 310 16:45 24.06.2019
5898 Clouds 22 1013 73 0 4.02 310 16:20 24.06.2019
5899 Clouds 22 1013 73 0 4.02 310 15:44 24.06.2019
5900 Clear 22 1013 73 10000 4.1 310 15:25 24.06.2019
5901 Clear 22 1013 73 10000 4.1 310 14:39 24.06.2019
5902 Clear 22 1013 73 10000 4.1 310 14:20 24.06.2019
5903 Clouds 23 1012 69 10000 5.1 340 13:35 24.06.2019
5904 Clouds 24 1011 64 10000 7.2 350 12:58 24.06.2019
5905 Clouds 24 1011 64 10000 7.2 350 12:39 24.06.2019
5906 Clouds 25 1010 54 10000 7.7 350 12:20 24.06.2019
5907 Clouds 26 1010 54 10000 7.7 350 11:44 24.06.2019
5908 Clouds 26 1010 54 10000 7.7 350 11:26 24.06.2019
5909 Clouds 27 1010 54 10000 9.3 330 10:52 24.06.2019
5910 Clouds 27 1010 54 10000 9.3 330 10:33 24.06.2019
5911 Clouds 28 1010 54 10000 9.3 320 09:56 24.06.2019
5912 Clouds 28 1010 54 10000 9.3 320 09:37 24.06.2019
5913 Clouds 27 1009 57 10000 8.2 320 09:18 24.06.2019
5914 Clouds 27 1009 57 10000 8.2 320 08:34 24.06.2019
5915 Clouds 27 1010 54 10000 7.2 320 07:49 24.06.2019
5916 Clouds 27 1010 54 10000 7.2 320 07:27 24.06.2019
5917 Clouds 27 1010 51 10000 7.2 320 06:56 24.06.2019
5918 Clouds 27 1010 51 10000 7.2 320 06:23 24.06.2019
5919 Clouds 27 1011 51 10000 6.2 310 05:29 24.06.2019
5920 Clouds 26 1011 54 10000 6.2 320 04:31 24.06.2019
5921 Clouds 25 1011 57 10000 4.1 270 03:32 24.06.2019
5922 Clouds 23 1011 60 10000 4.1 330 02:33 24.06.2019
5923 Clouds 22 1011 68 10000 5.1 360 01:54 24.06.2019
5924 Clouds 22 1011 68 10000 5.1 360 01:27 24.06.2019
5925 Clouds 21 1011 73 10000 3.6 360 00:42 24.06.2019
5926 Clouds 21 1011 73 10000 3.6 360 00:19 24.06.2019
5927 Clouds 20 1010 77 10000 5.1 20 23:46 23.06.2019
5928 Clouds 20 1010 77 10000 5.1 20 23:27 23.06.2019
5929 Clouds 20 1010 77 10000 5.1 20 23:27 23.06.2019
5930 Clear 20 1006 72 0 8.05 360 22:44 23.06.2019
5931 Clouds 19 1009 82 10000 2.1 360 22:21 23.06.2019
5932 Clouds 19 1009 82 10000 2.1 360 21:58 23.06.2019
5933 Clouds 19 1009 82 10000 2.1 360 21:40 23.06.2019
5934 Clouds 19 1009 82 10000 2.1 360 21:21 23.06.2019
5935 Clear 19 1008 82 10000 2.6 310 20:43 23.06.2019
5936 Clear 19 1008 82 10000 2.6 310 20:25 23.06.2019
5937 Clear 19 1008 82 10000 1.5 320 19:45 23.06.2019
5938 Clear 19 1008 82 10000 1.5 320 19:21 23.06.2019
5939 Clouds 19 1008 77 10000 2.1 340 18:54 23.06.2019
5940 Clouds 19 1008 77 10000 2.1 340 18:24 23.06.2019
5941 Clear 20 1006 72 0 8.05 360 17:51 23.06.2019
5942 Clear 20 1006 72 0 8.05 360 17:26 23.06.2019
5943 Clear 20 1006 72 0 8.05 360 16:55 23.06.2019
5944 Clear 20 1006 72 0 8.05 360 16:37 23.06.2019
5945 Clear 20 1006 72 0 8.05 360 16:18 23.06.2019
5946 Clear 20 1006 72 0 8.05 360 15:40 23.06.2019
5947 Clouds 20 1006 72 10000 8.2 360 15:21 23.06.2019
5948 Clouds 20 1006 72 10000 8.2 360 14:41 23.06.2019
5949 Clouds 20 1006 72 10000 8.2 360 14:22 23.06.2019
5950 Clouds 21 1006 68 10000 9.8 360 13:58 23.06.2019
5951 Clouds 21 1006 68 10000 9.8 360 13:39 23.06.2019
5952 Clouds 21 1006 68 10000 9.8 360 13:19 23.06.2019
5953 Clouds 22 1005 64 10000 9.3 350 12:43 23.06.2019
5954 Clouds 22 1005 64 10000 9.3 350 12:22 23.06.2019
5955 Clouds 22 1005 64 10000 9.3 350 12:22 23.06.2019
5956 Clouds 24 1004 57 10000 7.7 350 11:55 23.06.2019
5957 Clouds 24 1004 57 10000 7.7 350 11:37 23.06.2019
5958 Clouds 24 1004 57 10000 7.7 350 11:18 23.06.2019
5959 Clouds 25 1004 53 10000 8.2 340 10:41 23.06.2019
5960 Clouds 25 1004 53 10000 8.2 340 10:18 23.06.2019
5961 Clouds 26 1004 54 10000 9.3 330 09:39 23.06.2019
5962 Clouds 26 1004 54 10000 9.3 330 09:20 23.06.2019
5963 Clouds 26 1004 50 10000 10.8 330 08:42 23.06.2019
5964 Clouds 26 1004 50 10000 10.8 330 08:24 23.06.2019
5965 Clouds 26 1004 57 10000 8.2 330 07:52 23.06.2019
5966 Clouds 26 1004 57 10000 8.2 330 07:20 23.06.2019
5967 Clouds 26 1004 61 10000 9.3 330 06:54 23.06.2019
5968 Clouds 27 1004 54 10000 7.7 330 05:54 23.06.2019
5969 Clouds 24 1005 57 10000 5.7 340 03:41 23.06.2019
5970 Clouds 23 1005 60 10000 6.2 350 01:52 23.06.2019
5971 Clouds 23 1005 60 10000 6.2 350 01:33 23.06.2019
5972 Clouds 21 1005 68 10000 8.2 360 00:34 23.06.2019
5973 Clouds 19 1005 77 10000 3.1 10 23:53 22.06.2019
5974 Clouds 19 1005 77 10000 3.1 10 23:27 22.06.2019
5975 Clear 22 1004 83 0 7.6 350 22:49 22.06.2019
5976 Clouds 19 1004 88 10000 2.1 320 22:29 22.06.2019
5977 Clouds 19 1004 88 10000 2.1 320 21:59 22.06.2019
5978 Clouds 19 1004 88 10000 2.1 320 21:37 22.06.2019
5979 Clouds 19 1004 88 10000 2.1 320 21:18 22.06.2019
5980 Clouds 20 1004 88 10000 2.1 330 20:48 22.06.2019
5981 Clouds 20 1004 88 10000 2.1 330 20:25 22.06.2019
5982 Clouds 20 1004 82 10000 2.1 10 19:46 22.06.2019
5983 Clouds 20 1004 82 10000 2.1 10 19:22 22.06.2019
5984 Clouds 21 1004 77 10000 2.1 360 18:48 22.06.2019
5985 Clouds 21 1004 77 10000 2.1 360 18:30 22.06.2019
5986 Clouds 22 1004 83 0 7.6 350 17:56 22.06.2019
5987 Clouds 22 1004 83 0 7.6 350 17:33 22.06.2019
5988 Clouds 22 1004 83 0 7.6 350 16:50 22.06.2019
5989 Clouds 22 1004 83 0 7.6 350 16:24 22.06.2019
5990 Clouds 22 1004 83 0 7.6 350 15:54 22.06.2019
5991 Clouds 22 1004 83 10000 7.7 350 15:33 22.06.2019
5992 Clouds 22 1004 83 10000 7.7 350 14:53 22.06.2019
5993 Clouds 22 1004 83 10000 7.7 350 14:34 22.06.2019
5994 Clouds 23 1004 78 10000 6.2 340 13:58 22.06.2019
5995 Clouds 23 1004 78 10000 6.2 340 13:40 22.06.2019
5996 Clouds 23 1004 78 10000 6.2 340 13:19 22.06.2019
5997 Clouds 23 1003 78 10000 6.2 350 12:47 22.06.2019
5998 Clouds 23 1003 78 10000 6.2 350 12:29 22.06.2019
5999 Clouds 25 1003 69 10000 6.7 350 11:46 22.06.2019
6000 Clouds 25 1003 69 10000 6.7 350 11:27 22.06.2019
6001 Clouds 26 1002 69 10000 7.2 330 10:47 22.06.2019
6002 Clouds 26 1002 69 10000 7.2 330 10:19 22.06.2019
6003 Clouds 27 1002 74 10000 7.2 330 09:37 22.06.2019
6004 Clouds 28 1002 65 10000 5.7 340 08:50 22.06.2019
6005 Clouds 28 1002 65 10000 5.7 340 08:31 22.06.2019
6006 Clouds 29 1002 62 10000 4.6 330 07:52 22.06.2019
6007 Clouds 29 1002 62 10000 4.6 330 07:24 22.06.2019
6008 Clouds 29 1003 58 10000 3.1 280 06:41 22.06.2019
6009 Clouds 25 1004 69 9000 1.5 10 03:42 22.06.2019
6010 Clouds 25 1004 73 8000 1.5 10 02:26 22.06.2019
6011 Clouds 23 1004 78 8000 1.5 140 00:54 22.06.2019
6012 Clouds 23 1004 78 8000 1.5 140 00:31 22.06.2019
6013 Clouds 22 1004 83 8000 1.5 90 23:50 21.06.2019
6014 Clouds 22 1004 83 8000 1.5 90 23:23 21.06.2019
6015 Clouds 23 1004 83 0 4.02 330 22:57 21.06.2019
6016 Clouds 22 1003 83 10000 3.1 330 22:34 21.06.2019
6017 Clouds 22 1003 83 10000 3.1 330 21:58 21.06.2019
6018 Clouds 22 1003 83 10000 3.1 330 21:39 21.06.2019
6019 Clouds 22 1003 83 10000 3.1 330 21:20 21.06.2019
6020 Clouds 23 1003 78 10000 2.6 280 20:48 21.06.2019
6021 Clouds 23 1003 78 10000 2.6 280 20:26 21.06.2019
6022 Clouds 23 1003 78 10000 2.6 290 19:48 21.06.2019
6023 Clouds 23 1003 78 10000 2.6 290 19:21 21.06.2019
6024 Clouds 23 1003 78 10000 3.1 290 18:40 21.06.2019
6025 Clouds 23 1003 78 10000 3.1 290 18:22 21.06.2019
6026 Clear 23 1004 83 0 4.02 330 17:31 21.06.2019
6027 Clear 23 1004 83 0 4.02 330 16:43 21.06.2019
6028 Clear 23 1004 83 0 4.02 330 16:24 21.06.2019
6029 Clear 23 1004 83 0 4.02 330 15:58 21.06.2019
6030 Clear 24 1004 83 10000 4.1 330 15:36 21.06.2019
6031 Clear 24 1004 83 10000 4.1 330 14:56 21.06.2019
6032 Clear 24 1004 83 10000 4.1 330 14:37 21.06.2019
6033 Clear 24 1004 83 10000 4.1 330 14:19 21.06.2019
6034 Clear 25 1004 78 10000 5.1 340 13:39 21.06.2019
6035 Clear 25 1004 78 10000 5.1 340 13:21 21.06.2019
6036 Clear 26 1003 73 10000 5.1 340 12:44 21.06.2019
6037 Clear 26 1003 73 10000 5.1 340 12:22 21.06.2019
6038 Clouds 27 1003 74 10000 4.6 340 11:48 21.06.2019
6039 Clouds 27 1003 74 10000 4.6 340 11:28 21.06.2019
6040 Clouds 28 1002 65 10000 4.1 340 10:58 21.06.2019
6041 Clouds 28 1002 65 10000 4.1 340 10:39 21.06.2019
6042 Clouds 28 1002 65 10000 4.1 340 10:20 21.06.2019
6043 Clouds 29 1003 48 10000 4.6 270 09:42 21.06.2019
6044 Clouds 30 1003 48 10000 4.6 270 09:21 21.06.2019
6045 Clouds 29 1003 54 10000 4.1 270 08:45 21.06.2019
6046 Clouds 29 1003 54 10000 4.1 270 08:27 21.06.2019
6047 Clouds 29 1003 51 10000 2.6 120 07:57 21.06.2019
6048 Clouds 29 1003 51 10000 2.6 120 07:38 21.06.2019
6049 Clouds 28 1004 58 10000 2.6 120 06:59 21.06.2019
6050 Clouds 28 1004 58 10000 2.6 120 06:24 21.06.2019
6051 Clouds 27 1005 65 10000 2.6 170 05:33 21.06.2019
6052 Clouds 25 1005 73 8000 1 0 04:35 21.06.2019
6053 Clouds 24 1006 83 7000 0.5 0 03:35 21.06.2019
6054 Clouds 23 1006 88 8000 2.1 280 02:58 21.06.2019
6055 Mist 23 1006 88 7000 2.6 360 01:58 21.06.2019
6056 Mist 23 1006 83 8000 1.5 150 00:58 21.06.2019
6057 Mist 23 1006 83 8000 1.5 150 00:27 21.06.2019
6058 Clouds 23 1006 78 8000 3.6 110 23:53 20.06.2019
6059 Clouds 23 1006 78 8000 3.6 110 23:24 20.06.2019
6060 Clouds 24 1007 78 0 2.24 250 22:58 20.06.2019
6061 Clouds 24 1007 78 0 2.24 250 22:39 20.06.2019
6062 Clouds 23 1006 88 8000 2.1 90 22:21 20.06.2019
6063 Clouds 23 1006 88 8000 2.1 90 21:52 20.06.2019
6064 Clouds 23 1006 88 8000 2.1 90 21:19 20.06.2019
6065 Clear 23 1006 88 10000 3.1 160 20:59 20.06.2019
6066 Clear 23 1006 88 10000 3.1 160 20:40 20.06.2019
6067 Clear 24 1006 88 10000 3.1 160 20:19 20.06.2019
6068 Clear 24 1006 88 10000 3.1 160 20:19 20.06.2019
6069 Clouds 23 1006 88 8000 2.1 210 19:39 20.06.2019
6070 Clouds 23 1006 88 8000 2.1 210 19:19 20.06.2019
6071 Clouds 24 1007 78 10000 3.1 180 18:43 20.06.2019
6072 Clouds 24 1007 78 10000 3.1 180 18:23 20.06.2019
6073 Clouds 24 1007 78 0 2.24 250 17:57 20.06.2019
6074 Clouds 24 1007 78 0 2.24 250 17:39 20.06.2019
6075 Clouds 24 1007 78 0 2.24 250 16:58 20.06.2019
6076 Clouds 24 1007 78 0 2.24 250 16:39 20.06.2019
6077 Clouds 24 1007 78 0 2.24 250 16:19 20.06.2019
6078 Clouds 24 1007 78 0 2.24 250 16:19 20.06.2019
6079 Clouds 24 1007 78 0 2.24 250 15:43 20.06.2019
6080 Clear 24 1007 78 10000 2.6 250 15:23 20.06.2019
6081 Clear 24 1007 78 10000 2.6 250 15:23 20.06.2019
6082 Clear 24 1007 78 10000 2.6 250 14:52 20.06.2019
6083 Clear 24 1007 78 10000 2.6 250 14:24 20.06.2019
6084 Clouds 24 1006 78 10000 2.1 220 13:56 20.06.2019
6085 Clouds 24 1006 78 10000 2.1 220 13:37 20.06.2019
6086 Clouds 24 1006 78 10000 2.1 220 13:18 20.06.2019
6087 Clouds 25 1006 69 10000 2.6 250 12:40 20.06.2019
6088 Clouds 25 1006 69 10000 2.6 250 12:19 20.06.2019
6089 Clouds 26 1006 69 10000 4.6 260 11:40 20.06.2019
6090 Clouds 26 1006 69 10000 4.6 260 11:22 20.06.2019
6091 Clouds 26 1005 69 10000 5.1 260 10:43 20.06.2019
6092 Clouds 26 1005 69 10000 5.1 260 10:23 20.06.2019
6093 Clouds 28 1005 65 10000 5.1 270 09:41 20.06.2019
6094 Clouds 28 1005 65 10000 5.1 270 09:23 20.06.2019
6095 Clouds 29 1005 62 10000 4.1 270 08:48 20.06.2019
6096 Clouds 29 1005 62 10000 4.1 270 08:28 20.06.2019
6097 Clouds 28 1005 58 10000 2.6 290 07:59 20.06.2019
6098 Clouds 28 1005 58 10000 2.6 290 07:31 20.06.2019
6099 Clouds 28 1006 58 10000 2.6 0 06:57 20.06.2019
6100 Clouds 28 1006 65 10000 2.6 360 06:18 20.06.2019
6101 Clouds 25 1007 78 9000 1 0 03:39 20.06.2019
6102 Clouds 22 1006 94 7000 1.5 140 00:44 20.06.2019
6103 Clouds 22 1006 94 7000 1.5 140 00:25 20.06.2019
6104 Clouds 20 1007 94 8000 1.5 120 23:42 19.06.2019
6105 Clouds 21 1007 94 8000 1.5 120 23:24 19.06.2019
6106 Clear 23 1004 83 0 4.47 300 22:48 19.06.2019
6107 Clear 22 1006 94 9000 1.5 60 22:24 19.06.2019
6108 Clear 22 1006 94 9000 1.5 60 21:55 19.06.2019
6109 Clear 22 1006 94 9000 1.5 60 21:37 19.06.2019
6110 Clear 22 1006 94 9000 1.5 60 21:37 19.06.2019
6111 Clouds 22 1006 94 9000 1.5 60 21:18 19.06.2019
6112 Clouds 21 1005 94 9000 1 70 20:39 19.06.2019
6113 Clouds 21 1005 94 9000 1 70 20:20 19.06.2019
6114 Clouds 22 1005 94 9000 0.5 0 19:42 19.06.2019
6115 Clouds 22 1005 94 9000 0.5 0 19:23 19.06.2019
6116 Clouds 22 1005 94 10000 1 250 18:55 19.06.2019
6117 Clouds 22 1005 94 10000 1 250 18:22 19.06.2019
6118 Clouds 23 1004 83 0 4.47 300 17:41 19.06.2019
6119 Clouds 23 1004 83 0 4.47 300 17:41 19.06.2019
6120 Clouds 23 1004 83 0 4.47 300 17:22 19.06.2019
6121 Clouds 23 1004 83 0 4.47 300 16:40 19.06.2019
6122 Clouds 23 1004 83 0 4.47 300 16:22 19.06.2019
6123 Clouds 23 1004 83 0 4.47 300 15:55 19.06.2019
6124 Clouds 23 1004 83 10000 4.6 300 15:31 19.06.2019
6125 Clouds 23 1004 83 10000 4.6 300 14:57 19.06.2019
6126 Clouds 23 1004 83 10000 4.6 300 14:39 19.06.2019
6127 Clouds 23 1004 83 10000 4.6 300 14:21 19.06.2019
6128 Clouds 24 1004 78 10000 3.1 280 13:43 19.06.2019
6129 Clouds 24 1004 78 10000 3.1 280 13:24 19.06.2019
6130 Clouds 26 1003 69 10000 3.1 310 12:44 19.06.2019
6131 Clouds 26 1003 69 10000 3.1 310 12:22 19.06.2019
6132 Clouds 27 1003 65 10000 2.6 320 11:56 19.06.2019
6133 Clouds 27 1003 65 10000 2.6 320 11:38 19.06.2019
6134 Clouds 27 1003 65 10000 2.6 320 11:19 19.06.2019
6135 Clouds 27 1003 54 10000 2.1 260 10:45 19.06.2019
6136 Clouds 27 1003 54 10000 2.1 260 10:26 19.06.2019
6137 Clouds 28 1003 61 10000 3.6 240 09:43 19.06.2019
6138 Clouds 28 1003 61 10000 3.6 240 09:22 19.06.2019
6139 Clouds 29 1003 45 10000 2.6 260 08:51 19.06.2019
6140 Clouds 29 1003 45 10000 2.6 260 08:29 19.06.2019
6141 Clouds 29 1003 48 10000 3.1 270 07:49 19.06.2019
6142 Clouds 29 1003 48 10000 3.1 270 07:30 19.06.2019
6143 Clouds 29 1003 48 10000 3.1 240 06:55 19.06.2019
6144 Clouds 29 1003 48 10000 3.1 240 06:30 19.06.2019
6145 Clouds 27 1004 57 10000 2.6 240 05:50 19.06.2019
6146 Clouds 26 1005 65 10000 2.1 230 04:41 19.06.2019
6147 Clouds 24 1005 69 10000 2.1 280 03:37 19.06.2019
6148 Clouds 23 1006 78 10000 1 0 02:30 19.06.2019
6149 Clouds 22 1006 83 10000 1 0 01:27 19.06.2019
6150 Clouds 20 1006 88 10000 1 0 00:46 19.06.2019
6151 Clouds 20 1006 88 10000 1 0 00:27 19.06.2019
6152 Clouds 19 1007 93 10000 1 0 23:55 18.06.2019
6153 Clouds 19 1007 93 10000 1 0 23:28 18.06.2019
6154 Clouds 21 1011 73 0 3.58 160 22:55 18.06.2019
6155 Clouds 21 1011 73 0 3.58 160 22:37 18.06.2019
6156 Clouds 20 1008 82 10000 2.1 50 22:18 18.06.2019
6157 Clouds 20 1008 82 10000 2.1 50 21:42 18.06.2019
6158 Clouds 20 1008 82 10000 2.1 50 21:21 18.06.2019
6159 Clouds 20 1008 82 10000 2.1 50 21:21 18.06.2019
6160 Clouds 20 1008 82 10000 2.1 50 21:21 18.06.2019
6161 Rain 20 1008 88 10000 2.6 80 20:44 18.06.2019
6162 Rain 20 1008 88 10000 2.6 80 20:25 18.06.2019
6163 Clear 20 1009 82 10000 3.1 70 19:55 18.06.2019
6164 Clear 20 1009 82 10000 3.1 70 19:37 18.06.2019
6165 Clear 20 1009 82 10000 3.1 70 19:19 18.06.2019
6166 Clouds 21 1009 77 10000 2.1 120 18:43 18.06.2019
6167 Clouds 21 1009 77 10000 2.1 120 18:24 18.06.2019
6168 Clouds 21 1011 73 0 3.58 160 17:40 18.06.2019
6169 Clouds 21 1011 73 0 3.58 160 17:20 18.06.2019
6170 Clouds 21 1011 73 0 3.58 160 16:47 18.06.2019
6171 Clouds 21 1011 73 0 3.58 160 16:27 18.06.2019
6172 Clouds 21 1011 73 0 3.58 160 15:55 18.06.2019
6173 Clouds 21 1011 73 0 3.58 160 15:55 18.06.2019
6174 Clear 20 1011 73 10000 3.6 160 15:36 18.06.2019
6175 Clear 20 1011 73 10000 3.6 160 15:36 18.06.2019
6176 Clear 20 1011 73 10000 3.6 160 15:18 18.06.2019
6177 Clear 21 1011 73 10000 3.6 160 14:42 18.06.2019
6178 Clear 21 1011 73 10000 3.6 160 14:21 18.06.2019
6179 Clear 21 1010 73 10000 4.1 140 13:53 18.06.2019
6180 Clear 21 1010 73 10000 4.1 140 13:32 18.06.2019
6181 Rain 21 1010 73 10000 4.1 120 12:56 18.06.2019
6182 Rain 21 1010 73 10000 4.1 120 12:36 18.06.2019
6183 Rain 21 1010 73 10000 4.1 120 12:18 18.06.2019
6184 Rain 21 1010 77 10000 4.1 120 11:42 18.06.2019
6185 Rain 21 1010 77 10000 4.1 120 11:21 18.06.2019
6186 Clouds 21 1010 77 10000 4.1 130 10:56 18.06.2019
6187 Clouds 21 1010 77 10000 4.1 130 10:36 18.06.2019
6188 Clouds 21 1010 77 10000 4.1 130 10:18 18.06.2019
6189 Clouds 22 1011 78 10000 3.1 120 09:37 18.06.2019
6190 Clouds 22 1011 78 10000 3.1 120 09:18 18.06.2019
6191 Rain 21 1012 77 10000 2.6 50 08:43 18.06.2019
6192 Rain 21 1012 77 10000 2.6 50 08:21 18.06.2019
6193 Rain 21 1012 83 10000 1.5 70 07:37 18.06.2019
6194 Rain 21 1012 83 10000 1.5 70 07:18 18.06.2019
6195 Rain 21 1014 83 10000 0.5 0 05:39 18.06.2019
6196 Rain 22 1013 83 10000 1 0 04:24 18.06.2019
6197 Clouds 21 1013 83 10000 1 0 02:52 18.06.2019
6198 Clouds 21 1013 88 10000 1.5 140 01:54 18.06.2019
6199 Clouds 21 1013 88 10000 1.5 140 01:24 18.06.2019
6200 Clouds 21 1013 83 10000 2.1 160 00:54 18.06.2019
6201 Clouds 21 1013 83 10000 2.1 160 00:24 18.06.2019
6202 Clear 20 1012 88 10000 1 350 23:40 17.06.2019
6203 Clear 20 1012 88 10000 1 350 23:19 17.06.2019
6204 Clouds 22 1013 78 0 1.34 260 22:42 17.06.2019
6205 Clear 19 1012 93 10000 2.1 340 22:22 17.06.2019
6206 Clear 20 1012 93 10000 2.1 340 21:58 17.06.2019
6207 Clear 20 1012 93 10000 2.1 340 21:40 17.06.2019
6208 Clear 20 1012 93 10000 2.1 340 21:20 17.06.2019
6209 Clear 21 1012 88 10000 1.5 340 20:37 17.06.2019
6210 Clear 21 1012 88 10000 1.5 320 20:18 17.06.2019
6211 Clear 21 1012 88 10000 1.5 320 20:18 17.06.2019
6212 Clear 21 1012 88 10000 1.5 320 19:42 17.06.2019
6213 Clear 21 1012 88 10000 1.5 320 19:42 17.06.2019
6214 Clear 21 1012 88 10000 1.5 320 19:22 17.06.2019
6215 Clear 21 1013 88 10000 1 300 18:57 17.06.2019
6216 Clear 21 1013 88 10000 1 300 18:37 17.06.2019
6217 Clouds 22 1013 78 0 1.34 260 18:18 17.06.2019
6218 Clouds 22 1013 78 0 1.34 260 17:42 17.06.2019
6219 Clouds 22 1013 78 0 1.34 260 17:24 17.06.2019
6220 Clouds 22 1013 78 0 1.34 260 16:46 17.06.2019
6221 Clouds 22 1013 78 0 1.34 260 16:28 17.06.2019
6222 Clouds 22 1013 78 0 1.34 260 15:56 17.06.2019
6223 Clouds 22 1013 78 10000 1.5 260 15:38 17.06.2019
6224 Clouds 22 1013 78 10000 1.5 260 15:18 17.06.2019
6225 Clouds 22 1013 78 10000 1.5 260 14:48 17.06.2019
6226 Clouds 22 1013 78 10000 1.5 260 14:29 17.06.2019
6227 Clouds 22 1012 78 10000 2.6 260 13:50 17.06.2019
6228 Clouds 22 1012 78 10000 2.6 260 13:23 17.06.2019
6229 Clear 24 1012 73 10000 4.1 250 12:51 17.06.2019
6230 Clear 24 1012 73 10000 4.1 250 12:31 17.06.2019
6231 Clouds 24 1011 64 10000 4.1 260 11:49 17.06.2019
6232 Clouds 24 1011 64 10000 4.1 260 11:26 17.06.2019
6233 Clouds 26 1011 57 10000 5.1 270 10:58 17.06.2019
6234 Clouds 26 1011 57 10000 5.1 270 10:40 17.06.2019
6235 Clouds 26 1011 61 10000 5.1 270 10:21 17.06.2019
6236 Clouds 26 1011 61 10000 5.1 270 09:53 17.06.2019
6237 Clouds 26 1011 61 10000 5.1 270 09:28 17.06.2019
6238 Clouds 26 1011 61 10000 6.2 250 08:41 17.06.2019
6239 Clouds 26 1011 61 10000 6.2 250 08:23 17.06.2019
6240 Clouds 27 1012 54 10000 3.6 280 07:46 17.06.2019
6241 Clouds 27 1012 54 10000 3.6 280 07:27 17.06.2019
6242 Clouds 26 1012 54 10000 2.6 0 06:42 17.06.2019
6243 Clouds 26 1012 54 10000 1 0 05:47 17.06.2019
6244 Clouds 24 1013 61 10000 1 0 04:41 17.06.2019
6245 Clouds 23 1013 60 10000 1 0 03:47 17.06.2019
6246 Clouds 22 1013 68 10000 1 0 02:59 17.06.2019
6247 Clouds 22 1013 68 10000 1 0 02:40 17.06.2019
6248 Clouds 21 1013 73 10000 1 120 01:47 17.06.2019
6249 Clouds 21 1013 73 10000 1 120 01:25 17.06.2019
6250 Clouds 19 1012 88 10000 1 0 00:44 17.06.2019
6251 Clouds 18 1012 88 10000 2.6 360 00:21 17.06.2019
6252 Clouds 19 1012 88 10000 2.6 360 23:43 16.06.2019
6253 Clouds 19 1012 88 10000 2.6 360 23:22 16.06.2019
6254 Clouds 22 1010 68 0 4.02 360 22:56 16.06.2019
6255 Clouds 22 1010 68 0 4.02 360 22:38 16.06.2019
6256 Clouds 19 1011 88 10000 1.5 10 22:18 16.06.2019
6257 Clouds 19 1011 88 10000 1.5 10 21:41 16.06.2019
6258 Clouds 19 1011 88 10000 1.5 10 21:22 16.06.2019
6259 Clouds 19 1011 88 10000 2.6 360 20:59 16.06.2019
6260 Clouds 19 1011 88 10000 2.6 360 20:37 16.06.2019
6261 Clouds 19 1011 88 10000 2.1 20 20:18 16.06.2019
6262 Clouds 19 1011 88 10000 2.1 20 19:41 16.06.2019
6263 Clouds 19 1011 88 10000 2.1 30 19:22 16.06.2019
6264 Clouds 20 1011 88 10000 2.1 30 18:58 16.06.2019
6265 Clouds 20 1011 88 10000 2.1 30 18:39 16.06.2019
6266 Clouds 22 1010 68 0 4.02 360 18:20 16.06.2019
6267 Clouds 22 1010 68 0 4.02 360 18:20 16.06.2019
6268 Clouds 22 1010 68 0 4.02 360 17:47 16.06.2019
6269 Clouds 22 1010 68 0 4.02 360 17:22 16.06.2019
6270 Clouds 22 1010 68 0 4.02 360 16:57 16.06.2019
6271 -273 0 0 0 0 0 16:57 16.06.2019
6272 Clouds 22 1010 68 0 4.02 360 16:57 16.06.2019
6273 Clouds 22 1010 68 0 4.02 360 16:39 16.06.2019
6274 Clouds 22 1010 68 0 4.02 360 16:20 16.06.2019
6275 Clouds 22 1010 68 0 4.02 360 15:42 16.06.2019
6276 Clouds 22 1010 68 10000 4.1 360 15:24 16.06.2019
6277 Clouds 22 1010 68 10000 4.1 360 14:44 16.06.2019
6278 Clouds 22 1010 68 10000 4.1 360 14:23 16.06.2019
6279 Clouds 22 1009 68 10000 4.6 350 13:52 16.06.2019
6280 Clouds 22 1009 68 10000 4.6 350 13:28 16.06.2019
6281 Clouds 23 1008 60 10000 4.6 10 12:58 16.06.2019
6282 Clouds 23 1008 60 10000 4.6 10 12:39 16.06.2019
6283 Clouds 24 1008 64 10000 5.7 330 12:19 16.06.2019
6284 Clouds 24 1008 64 10000 5.7 330 11:46 16.06.2019
6285 Clouds 25 1007 61 10000 6.7 320 11:20 16.06.2019
6286 Clouds 26 1007 61 10000 6.7 320 10:46 16.06.2019
6287 Clouds 26 1007 57 10000 6.7 320 10:22 16.06.2019
6288 Clouds 26 1007 57 10000 6.7 320 09:48 16.06.2019
6289 Clouds 26 1007 57 10000 6.7 320 09:26 16.06.2019
6290 Clouds 25 1006 65 10000 6.2 310 08:59 16.06.2019
6291 Clouds 25 1006 65 10000 6.2 310 08:38 16.06.2019
6292 Clouds 26 1006 57 10000 6.7 330 08:18 16.06.2019
6293 Clouds 26 1006 57 10000 6.7 330 07:44 16.06.2019
6294 Clouds 25 1006 61 10000 3.6 300 06:59 16.06.2019
6295 Clouds 25 1006 61 10000 3.6 300 06:37 16.06.2019
6296 Clouds 25 1006 65 10000 3.1 250 05:43 16.06.2019
6297 Clouds 24 1006 64 10000 2.6 330 04:49 16.06.2019
6298 Clouds 24 1005 69 10000 2.6 360 03:57 16.06.2019
6299 Clouds 24 1005 69 10000 2.6 360 03:57 16.06.2019
6300 Clouds 24 1005 69 10000 2.6 360 03:57 16.06.2019
6301 Clouds 24 1005 69 10000 2.6 360 03:32 16.06.2019
6302 Clouds 23 1005 73 10000 3.6 350 02:26 16.06.2019
6303 Clouds 21 1005 82 10000 4.1 300 01:42 16.06.2019
6304 Clouds 21 1005 82 10000 4.1 300 01:24 16.06.2019
6305 Clouds 20 1004 82 10000 3.6 290 00:40 16.06.2019
6306 Clouds 20 1004 82 10000 3.6 290 00:20 16.06.2019
6307 Clouds 20 1004 82 10000 3.6 290 23:43 15.06.2019
6308 Clouds 20 1004 82 10000 3.6 290 23:23 15.06.2019
6309 Clouds 21 1000 88 0 4.47 240 22:49 15.06.2019
6310 Clouds 20 1002 88 10000 4.6 270 22:26 15.06.2019
6311 Clouds 20 1002 88 10000 4.6 270 21:49 15.06.2019
6312 Clouds 20 1002 88 10000 4.6 270 21:29 15.06.2019
6313 Clouds 20 1002 82 10000 5.7 270 20:57 15.06.2019
6314 Clouds 20 1002 82 10000 5.7 270 20:39 15.06.2019
6315 Clouds 20 1001 82 10000 5.1 270 20:18 15.06.2019
6316 Clouds 20 1001 82 10000 5.1 270 19:41 15.06.2019
6317 Clouds 21 1001 83 10000 4.6 260 19:23 15.06.2019
6318 Clouds 21 1001 83 10000 4.6 260 18:39 15.06.2019
6319 Clear 21 1000 88 0 4.47 240 18:20 15.06.2019
6320 Clear 21 1000 88 0 4.47 240 17:43 15.06.2019
6321 Clear 21 1000 88 0 4.47 240 17:22 15.06.2019
6322 Clear 21 1000 88 0 4.47 240 16:48 15.06.2019
6323 Clear 21 1000 88 0 4.47 240 16:20 15.06.2019
6324 Clear 21 1000 88 0 4.47 240 15:44 15.06.2019
6325 Clouds 20 1000 88 10000 4.6 240 15:23 15.06.2019
6326 Clouds 20 1000 88 10000 4.6 240 14:43 15.06.2019
6327 Clouds 21 1000 83 10000 3.1 290 14:19 15.06.2019
6328 Clouds 21 1000 83 10000 3.1 290 13:57 15.06.2019
6329 Clouds 21 1000 83 10000 3.1 290 13:38 15.06.2019
6330 Clouds 21 1000 83 10000 3.1 290 13:38 15.06.2019
6331 Clouds 21 1000 83 10000 3.1 290 13:38 15.06.2019
6332 Clouds 21 999 78 10000 5.1 300 13:18 15.06.2019
6333 Clouds 21 999 78 10000 5.1 300 12:44 15.06.2019
6334 Clouds 21 999 78 10000 5.1 300 12:23 15.06.2019
6335 Clouds 22 998 69 10000 6.2 300 11:49 15.06.2019
6336 Clouds 22 998 69 10000 6.2 300 11:30 15.06.2019
6337 Clouds 23 997 60 10000 7.2 320 10:46 15.06.2019
6338 Clouds 23 997 60 10000 7.2 320 10:25 15.06.2019
6339 Clouds 23 997 69 10000 5.7 340 09:48 15.06.2019
6340 Clouds 23 997 69 10000 5.7 340 09:28 15.06.2019
6341 Clouds 23 997 69 10000 8.2 330 08:56 15.06.2019
6342 Clouds 23 997 69 10000 8.2 330 08:38 15.06.2019
6343 Rain 22 997 78 10000 9.8 320 08:18 15.06.2019
6344 Rain 22 997 78 10000 9.8 320 08:18 15.06.2019
6345 Rain 22 997 78 10000 9.8 320 07:26 15.06.2019
6346 Rain 22 997 78 10000 9.8 320 07:26 15.06.2019
6347 Rain 22 997 78 10000 9.8 320 07:26 15.06.2019
6348 Rain 21 997 83 10000 11.3 320 06:48 15.06.2019
6349 Rain 20 997 83 10000 11.3 320 06:28 15.06.2019
6350 Rain 20 997 94 10000 11.3 320 05:39 15.06.2019
6351 Rain 20 996 94 10000 10.3 320 04:56 15.06.2019
6352 Rain 20 996 94 10000 10.3 320 04:26 15.06.2019
6353 Rain 20 996 94 10000 9.8 310 03:22 15.06.2019
6354 Rain 20 996 100 2000 7.7 310 02:34 15.06.2019
6355 Rain 20 995 94 10000 6.2 330 01:57 15.06.2019
6356 Rain 20 995 94 10000 6.2 330 01:24 15.06.2019
6357 Rain 20 994 94 10000 8.2 330 00:42 15.06.2019
6358 Rain 20 994 94 10000 8.2 330 00:42 15.06.2019
6359 Rain 20 995 94 10000 5.7 320 00:23 15.06.2019
6360 Rain 20 995 94 10000 5.7 320 23:46 14.06.2019
6361 Rain 20 994 93 0 5.36 320 23:20 14.06.2019
6362 Rain 21 997 88 0 4.92 360 22:41 14.06.2019
6363 Rain 20 995 94 10000 7.2 290 22:21 14.06.2019
6364 Rain 20 995 94 10000 7.2 290 21:48 14.06.2019
6365 Rain 20 995 94 10000 7.2 290 21:28 14.06.2019
6366 Rain 20 995 94 10000 7.2 290 21:28 14.06.2019
6367 Clouds 21 994 88 10000 3.6 290 20:55 14.06.2019
6368 Clouds 21 994 88 10000 3.6 290 20:36 14.06.2019
6369 Clouds 21 994 88 10000 2.1 310 20:18 14.06.2019
6370 Clouds 21 994 88 10000 2.1 310 19:39 14.06.2019
6371 Clouds 21 995 88 10000 1.5 330 19:19 14.06.2019
6372 Clouds 21 995 88 10000 1.5 330 18:45 14.06.2019
6373 Clouds 21 995 88 10000 1.5 330 18:27 14.06.2019
6374 Rain 21 997 88 0 4.92 360 17:58 14.06.2019
6375 Rain 21 997 88 0 4.92 360 17:40 14.06.2019
6376 Rain 21 997 88 0 4.92 360 17:21 14.06.2019
6377 Rain 21 997 88 0 4.92 360 16:48 14.06.2019
6378 -273 0 0 0 0 0 16:23 14.06.2019
6379 Rain 21 997 88 0 4.92 360 15:57 14.06.2019
6380 Rain 21 997 88 0 4.92 360 15:38 14.06.2019
6381 Rain 21 997 88 0 4.92 360 15:38 14.06.2019
6382 Clouds 21 997 88 10000 5.1 360 15:19 14.06.2019
6383 Clouds 21 997 88 10000 5.1 360 15:19 14.06.2019
6384 Clouds 21 997 88 10000 5.1 360 14:43 14.06.2019
6385 Clouds 21 997 88 10000 5.1 360 14:25 14.06.2019
6386 Rain 21 998 94 10000 4.6 360 13:45 14.06.2019
6387 Rain 21 998 94 10000 4.6 360 13:26 14.06.2019
6388 -273 0 0 0 0 0 12:49 14.06.2019
6389 Rain 21 998 94 6000 5.7 330 12:49 14.06.2019
6390 Rain 21 998 94 6000 5.7 330 12:27 14.06.2019
6391 Rain 22 999 100 8000 5.1 340 11:59 14.06.2019
6392 Rain 22 999 100 8000 5.1 340 11:41 14.06.2019
6393 Rain 22 999 100 8000 5.1 340 11:23 14.06.2019
6394 Rain 22 999 100 6000 5.1 340 10:46 14.06.2019
6395 Rain 22 1000 100 5000 4.6 330 10:20 14.06.2019
6396 Rain 22 1001 100 2500 2.6 330 09:49 14.06.2019
6397 Rain 22 1001 100 2500 2.6 330 09:31 14.06.2019
6398 Rain 22 1001 88 10000 3.1 320 08:47 14.06.2019
6399 Clouds 22 1002 78 10000 1 0 08:20 14.06.2019
6400 Clouds 22 1002 78 10000 1 0 08:20 14.06.2019
6401 -273 0 0 0 0 0 07:52 14.06.2019
6402 -273 0 0 0 0 0 07:52 14.06.2019
6403 Rain 23 1002 83 10000 1.5 280 07:22 14.06.2019
6404 Rain 23 1002 83 10000 1.5 280 06:48 14.06.2019
6405 Clouds 23 1003 73 10000 3.1 150 05:58 14.06.2019
6406 Clouds 23 1003 73 10000 3.1 150 05:33 14.06.2019
6407 Rain 23 1004 78 10000 3.1 120 04:51 14.06.2019
6408 Rain 22 1004 88 10000 2.6 140 03:59 14.06.2019
6409 Rain 22 1004 88 10000 2.6 140 03:26 14.06.2019
6410 Rain 22 1005 88 10000 1.5 210 02:58 14.06.2019
6411 Rain 22 1005 88 10000 1.5 210 02:28 14.06.2019
6412 Clouds 22 1005 83 10000 2.1 300 02:28 14.06.2019
6413 Rain 22 1005 88 10000 1.5 210 02:28 14.06.2019
6414 Clouds 22 1005 83 10000 2.1 300 01:26 14.06.2019
6415 Clouds 22 1005 83 10000 1.5 30 00:36 14.06.2019
6416 Clouds 22 1006 88 10000 1 0 00:18 14.06.2019
6417 Clouds 22 1006 88 10000 1 0 23:47 13.06.2019
6418 Clouds 22 1006 88 10000 1 0 23:22 13.06.2019
6419 Clouds 23 1008 73 0 2.46 80.997 22:40 13.06.2019
6420 Clouds 22 1006 83 10000 2.1 50 22:22 13.06.2019
6421 Clouds 22 1006 83 10000 2.1 50 21:41 13.06.2019
6422 Clouds 21 1006 88 10000 1 30 21:20 13.06.2019
6423 Clouds 21 1006 88 10000 1 30 20:59 13.06.2019
6424 Clouds 21 1006 88 10000 1 30 20:40 13.06.2019
6425 Clouds 22 1007 88 10000 1 290 20:19 13.06.2019
6426 Clouds 22 1007 88 10000 1 290 19:42 13.06.2019
6427 Clouds 22 1008 83 10000 1 240 19:23 13.06.2019
6428 Clouds 22 1008 83 10000 1 240 18:58 13.06.2019
6429 Clouds 22 1008 83 10000 1 240 18:40 13.06.2019
6430 Clouds 23 1008 73 0 2.87 49.637 18:21 13.06.2019
6431 Clouds 23 1008 73 0 2.87 49.637 17:44 13.06.2019
6432 Clouds 23 1008 73 0 2.87 49.637 17:21 13.06.2019
6433 Clouds 23 1008 73 0 2.87 49.637 16:55 13.06.2019
6434 Clouds 23 1008 73 0 2.87 49.637 16:23 13.06.2019
6435 Clouds 23 1008 73 0 2.87 49.637 15:59 13.06.2019
6436 Clouds 23 1008 73 0 2.87 49.637 15:40 13.06.2019
6437 Clear 23 1008 73 10000 1 0 15:19 13.06.2019
6438 Clear 23 1008 73 10000 1 0 14:48 13.06.2019
6439 Clear 23 1008 73 10000 1 0 14:29 13.06.2019
6440 Clear 24 1008 73 10000 2.1 350 13:47 13.06.2019
6441 Clear 24 1008 73 10000 4.6 340 13:22 13.06.2019
6442 Clear 24 1008 73 10000 4.6 340 12:58 13.06.2019
6443 Clear 24 1008 73 10000 4.6 340 12:38 13.06.2019
6444 Clear 25 1007 69 10000 5.7 330 12:20 13.06.2019
6445 Clear 25 1007 69 10000 5.7 330 11:43 13.06.2019
6446 Clear 25 1007 69 10000 5.7 330 11:24 13.06.2019
6447 Clouds 26 1007 65 10000 6.2 330 10:47 13.06.2019
6448 Clouds 26 1007 65 10000 6.2 330 10:28 13.06.2019
6449 Clouds 27 1007 57 10000 3.6 310 09:50 13.06.2019
6450 -273 0 0 0 0 0 09:28 13.06.2019
6451 -273 0 0 0 0 0 08:55 13.06.2019
6452 Clouds 28 1007 54 10000 3.6 350 08:55 13.06.2019
6453 Clouds 28 1007 54 10000 3.6 350 08:37 13.06.2019
6454 Clouds 28 1008 54 10000 3.6 0 08:19 13.06.2019
6455 Clouds 28 1008 54 10000 3.6 0 07:32 13.06.2019
6456 Clouds 27 1008 54 10000 2.1 280 06:54 13.06.2019
6457 Clouds 26 1008 54 10000 2.1 280 06:36 13.06.2019
6458 Clouds 26 1009 57 10000 1.5 0 06:18 13.06.2019
6459 Clouds 26 1009 57 10000 1.5 0 05:38 13.06.2019
6460 Clouds 25 1009 61 10000 1 0 05:18 13.06.2019
6461 Clouds 24 1010 69 10000 1.5 190 03:45 13.06.2019
6462 Clouds 21 1010 77 10000 1 0 01:55 13.06.2019
6463 Clouds 20 1010 82 10000 1.5 100 00:31 13.06.2019
6464 Clear 18 1010 93 10000 2.1 110 23:26 12.06.2019
6465 Clear 21 1009 77 0 4.47 360 22:59 12.06.2019
6466 Clear 21 1009 77 0 4.47 360 22:40 12.06.2019
6467 Clear 18 1009 93 10000 2.1 310 22:21 12.06.2019
6468 Clear 19 1009 93 10000 2.1 310 21:43 12.06.2019
6469 Clear 18 1009 88 10000 2.6 330 21:25 12.06.2019
6470 Clear 19 1009 88 10000 2.6 330 20:48 12.06.2019
6471 Clear 19 1009 88 10000 2.6 330 20:29 12.06.2019
6472 Clear 19 1009 88 10000 2.1 310 19:57 12.06.2019
6473 Clear 19 1009 88 10000 2.1 310 19:38 12.06.2019
6474 Clear 18 1009 88 10000 2.1 320 19:19 12.06.2019
6475 Clear 19 1009 88 10000 2.1 320 18:44 12.06.2019
6476 Clear 19 1009 88 10000 2.1 320 18:24 12.06.2019
6477 Clouds 21 1009 77 0 4.47 360 17:46 12.06.2019
6478 Clouds 21 1009 77 0 4.47 360 17:23 12.06.2019
6479 Clouds 21 1009 77 0 4.47 360 16:43 12.06.2019
6480 Clouds 21 1009 77 0 4.47 360 16:25 12.06.2019
6481 Clouds 21 1009 77 0 4.47 360 15:58 12.06.2019
6482 Clouds 20 1009 77 10000 4.6 360 15:33 12.06.2019
6483 Clouds 21 1009 77 10000 4.6 360 14:57 12.06.2019
6484 Clouds 21 1009 77 10000 4.6 360 14:32 12.06.2019
6485 Clouds 21 1008 77 10000 6.2 330 13:57 12.06.2019
6486 Clouds 21 1008 77 10000 6.2 330 13:38 12.06.2019
6487 Clouds 22 1008 73 10000 7.2 330 13:19 12.06.2019
6488 Clouds 22 1008 73 10000 7.2 330 13:19 12.06.2019
6489 Clouds 22 1008 73 10000 7.2 330 12:40 12.06.2019
6490 Clouds 23 1007 69 10000 8.2 350 12:21 12.06.2019
6491 Clouds 23 1007 69 10000 8.2 350 11:48 12.06.2019
6492 Clouds 23 1007 69 10000 8.2 350 11:30 12.06.2019
6493 Clouds 24 1007 64 10000 8.2 350 10:58 12.06.2019
6494 Clouds 24 1007 64 10000 8.2 350 10:39 12.06.2019
6495 Clouds 25 1007 65 10000 8.2 330 10:18 12.06.2019
6496 Clouds 25 1007 65 10000 8.2 330 09:41 12.06.2019
6497 Clouds 25 1007 61 10000 6.2 330 09:21 12.06.2019
6498 Clouds 25 1007 61 10000 6.2 330 08:29 12.06.2019
6499 Clouds 26 1007 61 10000 6.2 320 07:57 12.06.2019
6500 Clouds 26 1008 61 10000 7.7 350 07:18 12.06.2019
6501 Clouds 26 1008 61 10000 7.7 350 06:39 12.06.2019
6502 Clouds 25 1008 61 10000 7.2 330 05:25 12.06.2019
6503 Clouds 21 1009 68 10000 4.6 360 02:22 12.06.2019
6504 Clouds 19 1008 77 10000 1.5 70 00:46 12.06.2019
6505 Clouds 18 1008 82 10000 1.5 20 23:57 11.06.2019
6506 Clouds 18 1008 82 10000 1.5 20 23:39 11.06.2019
6507 Clear 18 1008 82 0 1.34 20 23:20 11.06.2019
6508 Clouds 17 1008 82 10000 1.5 340 22:41 11.06.2019
6509 Clouds 17 1008 82 10000 1.5 340 22:18 11.06.2019
6510 Clouds 17 1008 82 10000 1.5 340 21:41 11.06.2019
6511 Clouds 17 1008 87 10000 1.5 40 21:23 11.06.2019
6512 Clouds 17 1008 87 10000 1.5 40 20:58 11.06.2019
6513 Clouds 17 1008 87 10000 1.5 40 20:58 11.06.2019
6514 Clouds 17 1008 87 10000 1.5 40 20:39 11.06.2019
6515 Clouds 18 1008 82 10000 1.5 40 20:21 11.06.2019
6516 Clouds 18 1008 82 10000 1.5 40 19:51 11.06.2019
6517 Clouds 18 1008 82 10000 1.5 40 19:28 11.06.2019
6518 Clouds 17 1007 87 10000 1.5 20 19:28 11.06.2019
6519 Clouds 17 1007 87 10000 1.5 20 18:49 11.06.2019
6520 Clear 19 1006 77 0 6.71 350 18:20 11.06.2019
6521 Clear 19 1006 77 0 6.71 350 17:42 11.06.2019
6522 Clear 19 1006 77 0 6.71 350 17:21 11.06.2019
6523 Clear 19 1006 77 0 6.71 350 16:46 11.06.2019
6524 Clear 19 1006 77 0 6.71 350 16:24 11.06.2019
6525 Clear 19 1006 77 0 6.71 350 15:59 11.06.2019
6526 Clear 19 1006 77 0 6.71 350 15:41 11.06.2019
6527 Clouds 19 1006 77 10000 6.7 350 15:19 11.06.2019
6528 Clouds 19 1006 77 10000 6.7 350 14:41 11.06.2019
6529 Clouds 20 1006 72 10000 8.7 350 14:20 11.06.2019
6530 Clouds 20 1006 72 10000 8.7 350 13:50 11.06.2019
6531 Clouds 21 1005 68 10000 9.3 350 13:23 11.06.2019
6532 Clouds 21 1005 68 10000 9.3 350 12:43 11.06.2019
6533 Clouds 22 1005 60 10000 8.7 360 12:22 11.06.2019
6534 Clouds 23 1005 60 10000 8.7 360 11:57 11.06.2019
6535 Clouds 23 1005 60 10000 8.7 360 11:34 11.06.2019
6536 Clouds 24 1004 57 10000 8.2 350 10:58 11.06.2019
6537 Clouds 24 1004 57 10000 8.2 350 10:40 11.06.2019
6538 Clouds 25 1004 57 10000 9.8 330 10:21 11.06.2019
6539 Clouds 25 1004 57 10000 9.8 330 09:45 11.06.2019
6540 Clouds 25 1004 57 10000 8.7 330 09:23 11.06.2019
6541 Clouds 25 1004 57 10000 8.7 330 09:23 11.06.2019
6542 Clouds 25 1004 57 10000 8.7 330 08:42 11.06.2019
6543 Clouds 25 1004 57 10000 8.7 330 08:23 11.06.2019
6544 Clouds 26 1004 54 10000 7.7 320 07:36 11.06.2019
6545 Clouds 26 1005 54 10000 6.2 300 06:54 11.06.2019
6546 Clouds 25 1005 53 10000 5.7 310 06:23 11.06.2019
6547 Clouds 25 1006 61 10000 5.1 330 04:48 11.06.2019
6548 Clouds 22 1006 64 10000 3.6 330 02:27 11.06.2019
6549 Clouds 19 1006 77 10000 1 0 00:54 11.06.2019
6550 Clouds 19 1006 77 10000 1 0 00:31 11.06.2019
6551 Clouds 18 1006 82 10000 1.5 140 23:46 10.06.2019
6552 Clear 20 1004 77 0 8.05 350 23:21 10.06.2019
6553 Clear 20 1004 77 0 8.05 350 22:46 10.06.2019
6554 Clear 20 1004 77 0 8.05 350 22:46 10.06.2019
6555 Clouds 17 1006 93 10000 2.1 40 22:27 10.06.2019
6556 Clouds 18 1006 93 10000 2.1 40 21:58 10.06.2019
6557 Clouds 18 1006 93 10000 2.1 40 21:38 10.06.2019
6558 Clouds 18 1005 82 10000 1.5 30 21:20 10.06.2019
6559 Clouds 18 1005 82 10000 1.5 30 20:44 10.06.2019
6560 Clouds 18 1005 82 10000 1.5 20 20:21 10.06.2019
6561 Clouds 18 1005 82 10000 1.5 20 19:48 10.06.2019
6562 Clouds 19 1005 82 10000 1.5 20 19:26 10.06.2019
6563 Clouds 18 1005 82 10000 2.6 350 18:58 10.06.2019
6564 Clouds 18 1005 82 10000 2.6 350 18:40 10.06.2019
6565 Clear 20 1004 77 0 8.05 350 18:20 10.06.2019
6566 Clear 20 1004 77 0 8.05 350 17:44 10.06.2019
6567 Clear 20 1004 77 0 8.05 350 17:24 10.06.2019
6568 Clear 20 1004 77 0 8.05 350 16:56 10.06.2019
6569 Clear 20 1004 77 0 8.05 350 16:37 10.06.2019
6570 Clear 20 1004 77 0 8.05 350 16:18 10.06.2019
6571 Clear 20 1004 77 0 8.05 350 15:41 10.06.2019
6572 Clouds 20 1004 77 10000 8.2 350 15:23 10.06.2019
6573 Clouds 20 1004 77 10000 8.2 350 14:46 10.06.2019
6574 Clouds 20 1004 77 10000 8.2 350 14:28 10.06.2019
6575 Clouds 21 1003 73 10000 7.2 340 13:47 10.06.2019
6576 Clouds 21 1003 73 10000 7.2 340 13:28 10.06.2019
6577 Clouds 22 1003 73 10000 6.7 310 12:55 10.06.2019
6578 Clouds 22 1003 73 10000 6.7 310 12:32 10.06.2019
6579 Clouds 23 1002 64 10000 6.7 330 11:59 10.06.2019
6580 Clouds 23 1002 64 10000 6.7 330 11:39 10.06.2019
6581 Clouds 24 1002 60 10000 7.2 340 11:19 10.06.2019
6582 Clouds 24 1002 60 10000 7.2 340 10:41 10.06.2019
6583 Clouds 26 1002 54 10000 8.2 330 10:19 10.06.2019
6584 Clouds 26 1002 54 10000 8.2 330 09:52 10.06.2019
6585 Clouds 26 1002 54 10000 8.2 330 09:29 10.06.2019
6586 Clouds 26 1002 57 10000 8.2 330 08:50 10.06.2019
6587 Clouds 26 1002 57 10000 8.2 330 08:27 10.06.2019
6588 Clouds 26 1002 57 10000 7.7 320 07:46 10.06.2019
6589 Clouds 24 1003 64 10000 1 0 04:44 10.06.2019
6590 Clouds 24 1003 69 10000 1 0 03:29 10.06.2019
6591 Clouds 22 1003 73 10000 2.1 180 01:56 10.06.2019
6592 Clouds 21 1003 77 10000 1.5 80 01:22 10.06.2019
6593 Clouds 21 1003 77 10000 1.5 80 00:47 10.06.2019
6594 Clouds 19 1003 88 10000 3.6 20 23:49 09.06.2019
6595 Clouds 19 1003 88 10000 3.6 20 23:25 09.06.2019
6596 Clear 21 1003 77 0 4.92 320 22:48 09.06.2019
6597 Clear 18 1003 93 10000 1.5 350 22:26 09.06.2019
6598 Clear 19 1003 93 10000 1.5 350 21:59 09.06.2019
6599 Clear 19 1003 93 10000 1.5 350 21:37 09.06.2019
6600 Clear 19 1002 88 10000 1.5 350 21:19 09.06.2019
6601 Clear 19 1002 88 10000 1.5 350 20:42 09.06.2019
6602 Clear 19 1003 88 10000 2.6 340 20:22 09.06.2019
6603 Clear 19 1003 88 10000 2.6 340 19:45 09.06.2019
6604 Clouds 19 1003 88 10000 2.1 310 19:18 09.06.2019
6605 Clouds 19 1003 88 10000 2.1 310 19:18 09.06.2019
6606 Clouds 19 1003 88 10000 2.1 310 18:44 09.06.2019
6607 Clouds 19 1003 88 10000 2.1 310 18:25 09.06.2019
6608 Clear 21 1003 77 0 4.92 320 17:56 09.06.2019
6609 Clear 21 1003 77 0 4.92 320 17:32 09.06.2019
6610 Clear 21 1003 77 0 4.92 320 16:59 09.06.2019
6611 Clear 21 1003 77 0 4.92 320 16:59 09.06.2019
6612 Clear 21 1003 77 0 4.92 320 16:40 09.06.2019
6613 Clear 21 1003 77 0 4.92 320 16:20 09.06.2019
6614 Clear 21 1003 77 0 4.92 320 15:50 09.06.2019
6615 Clouds 21 1003 77 10000 5.1 320 15:29 09.06.2019
6616 Clouds 21 1003 77 10000 5.1 320 14:55 09.06.2019
6617 Clouds 21 1003 77 10000 5.1 320 14:36 09.06.2019
6618 Clouds 21 1002 77 10000 4.6 340 14:18 09.06.2019
6619 Clouds 21 1002 77 10000 4.6 340 13:44 09.06.2019
6620 Clouds 22 1002 73 10000 5.7 360 12:56 09.06.2019
6621 Clouds 22 1002 73 10000 5.7 360 12:34 09.06.2019
6622 Clouds 23 1002 73 10000 6.2 350 11:51 09.06.2019
6623 Clouds 23 1002 73 10000 6.2 350 11:30 09.06.2019
6624 -273 0 0 0 0 0 10:59 09.06.2019
6625 -273 0 0 0 0 0 10:59 09.06.2019
6626 Clouds 24 1002 73 10000 6.2 340 10:41 09.06.2019
6627 Rain 25 1002 65 10000 5.1 280 10:20 09.06.2019
6628 Rain 26 1002 61 10000 3.6 280 09:38 09.06.2019
6629 Clouds 26 1002 57 10000 3.1 260 09:20 09.06.2019
6630 Clouds 26 1002 57 10000 3.1 260 08:45 09.06.2019
6631 Clouds 25 1002 61 10000 2.1 280 07:53 09.06.2019
6632 Clouds 25 1002 65 10000 2.6 270 06:45 09.06.2019
6633 Clouds 25 1003 65 10000 0.5 0 06:20 09.06.2019
6634 Clouds 22 1004 73 10000 1.5 0 03:21 09.06.2019
6635 Clouds 21 1005 83 10000 2.1 0 01:37 09.06.2019
6636 Clouds 21 1005 83 10000 2.1 0 01:37 09.06.2019
6637 Clouds 20 1004 88 10000 1.5 350 01:19 09.06.2019
6638 Clouds 20 1004 88 10000 1.5 350 00:29 09.06.2019
6639 Clouds 20 1004 88 10000 1 0 23:41 08.06.2019
6640 Clouds 20 1004 88 10000 1 0 23:22 08.06.2019
6641 Clouds 21 1006 83 0 4.02 350 22:55 08.06.2019
6642 Clouds 19 1004 93 10000 2.1 330 22:36 08.06.2019
6643 Clouds 19 1004 93 10000 2.1 330 22:18 08.06.2019
6644 Clouds 19 1004 93 10000 2.1 330 21:40 08.06.2019
6645 Clear 19 1004 93 10000 3.1 320 21:21 08.06.2019
6646 Clear 19 1004 93 10000 3.1 320 20:45 08.06.2019
6647 Clear 19 1004 93 10000 3.1 320 20:25 08.06.2019
6648 Clear 19 1004 93 10000 3.1 320 20:25 08.06.2019
6649 Clear 19 1004 88 10000 2.1 300 19:55 08.06.2019
6650 Clear 19 1004 88 10000 2.1 300 19:36 08.06.2019
6651 Clear 19 1005 93 10000 2.6 320 19:18 08.06.2019
6652 Clear 19 1005 93 10000 2.6 320 18:40 08.06.2019
6653 Clouds 21 1006 83 0 4.02 350 18:20 08.06.2019
6654 Clouds 21 1006 83 0 4.02 350 17:43 08.06.2019
6655 Clouds 21 1006 83 0 4.02 350 17:19 08.06.2019
6656 Clouds 21 1006 83 0 4.02 350 16:47 08.06.2019
6657 Clouds 21 1006 83 0 4.02 350 16:28 08.06.2019
6658 Clouds 21 1006 83 0 4.02 350 15:49 08.06.2019
6659 Clouds 20 1006 83 10000 4.1 350 15:31 08.06.2019
6660 Clouds 21 1006 83 10000 4.1 350 14:47 08.06.2019
6661 Clouds 21 1006 83 10000 4.1 350 14:28 08.06.2019
6662 Clouds 22 1005 83 10000 3.6 360 13:44 08.06.2019
6663 Clouds 23 1006 78 10000 2.1 280 12:52 08.06.2019
6664 Clouds 23 1006 78 10000 2.1 280 12:32 08.06.2019
6665 Clouds 23 1006 78 10000 3.1 270 11:44 08.06.2019
6666 Clouds 23 1006 78 10000 3.1 270 11:26 08.06.2019
6667 Clouds 24 1006 73 10000 1.5 240 10:47 08.06.2019
6668 Clouds 24 1006 73 10000 1.5 240 10:24 08.06.2019
6669 Clouds 24 1006 69 10000 2.1 180 09:52 08.06.2019
6670 Clouds 24 1006 69 10000 2.1 180 09:28 08.06.2019
6671 Clouds 24 1006 73 10000 2.1 140 08:39 08.06.2019
6672 Clouds 24 1006 73 10000 1.5 130 08:18 08.06.2019
6673 Clouds 24 1007 73 10000 1 0 06:51 08.06.2019
6674 Clouds 23 1007 73 10000 1 0 05:56 08.06.2019
6675 Rain 21 1008 78 10000 2.6 270 03:34 08.06.2019
6676 Clouds 20 1008 94 10000 2.1 280 01:59 08.06.2019
6677 Clouds 20 1007 94 10000 1 0 00:29 08.06.2019
6678 Rain 19 1008 94 4000 4.1 340 23:52 07.06.2019
6679 Rain 20 1005 88 0 3.58 270 23:20 07.06.2019
6680 Rain 20 1005 88 0 3.58 270 22:48 07.06.2019
6681 Clouds 20 1006 82 10000 4.6 290 22:30 07.06.2019
6682 Clouds 20 1006 82 10000 4.6 290 21:54 07.06.2019
6683 Clouds 20 1006 82 10000 4.6 290 21:31 07.06.2019
6684 Clouds 20 1006 82 10000 4.1 280 20:57 07.06.2019
6685 Clouds 20 1006 82 10000 4.1 280 20:37 07.06.2019
6686 Clouds 20 1006 82 10000 5.7 270 19:51 07.06.2019
6687 Clouds 20 1006 82 10000 5.7 270 19:24 07.06.2019
6688 Clouds 20 1006 82 10000 5.7 260 18:59 07.06.2019
6689 Clouds 20 1006 82 10000 5.7 260 18:37 07.06.2019
6690 Rain 20 1005 88 0 3.58 270 18:18 07.06.2019
6691 Rain 20 1005 88 0 3.58 270 17:38 07.06.2019
6692 Rain 20 1005 88 0 3.58 270 17:19 07.06.2019
6693 Rain 20 1005 88 0 3.58 270 16:40 07.06.2019
6694 Rain 20 1005 88 0 3.58 270 15:54 07.06.2019
6695 Rain 20 1005 88 10000 3.6 270 15:23 07.06.2019
6696 Rain 20 1005 88 10000 3.6 270 14:48 07.06.2019
6697 Rain 20 1005 88 10000 3.6 270 14:26 07.06.2019
6698 Clouds 21 1004 83 10000 4.1 260 13:49 07.06.2019
6699 Clouds 21 1004 83 10000 4.1 260 13:25 07.06.2019
6700 Clouds 21 1004 88 10000 4.6 240 12:50 07.06.2019
6701 Clouds 21 1004 88 10000 4.6 240 12:23 07.06.2019
6702 Rain 21 1004 88 10000 6.2 240 11:49 07.06.2019
6703 Rain 21 1004 88 10000 6.2 240 11:30 07.06.2019
6704 Rain 21 1003 83 10000 6.7 220 10:50 07.06.2019
6705 Rain 21 1003 83 10000 6.7 220 10:29 07.06.2019
6706 Clouds 22